<?xml version="1.0" encoding="UTF-8" standalone="no" ?>
<gpx xmlns="http://www.topografix.com/GPX/1/1" xmlns:xsi="http://www.w3.org/2001/XMLSchema-instance" xsi:schemaLocation="http://www.topografix.com/GPX/1/1 http://www.topografix.com/GPX/1/1/gpx.xsd" version="1.1" creator="VisuGPX - https://www.visugpx.com">
  <metadata>
    <name>Pic St Michel </name>
    <desc><![CDATA[Rando pic St Michel au départ de St Paul de Varces lieux dit les Blanchières]]></desc>
  </metadata>
  <trk>
    <name><![CDATA[2010-11-19T12:11:35Z]]></name>
    <trkseg>
      <trkpt lat="45.07346" lon="5.6573">
        <ele>330.7</ele>
        <time>2010-11-19T12:11:35Z</time>
      </trkpt>
      <trkpt lat="45.07346" lon="5.65722">
        <ele>290.6</ele>
        <time>2010-11-19T12:11:48Z</time>
      </trkpt>
      <trkpt lat="45.07347" lon="5.65721">
        <ele>290.6</ele>
        <time>2010-11-19T12:11:49Z</time>
      </trkpt>
      <trkpt lat="45.0735" lon="5.65715">
        <ele>290.8</ele>
        <time>2010-11-19T12:11:53Z</time>
      </trkpt>
      <trkpt lat="45.07354" lon="5.65709">
        <ele>291.2</ele>
        <time>2010-11-19T12:11:57Z</time>
      </trkpt>
      <trkpt lat="45.07355" lon="5.65703">
        <ele>291.2</ele>
        <time>2010-11-19T12:12:00Z</time>
      </trkpt>
      <trkpt lat="45.07354" lon="5.65696">
        <ele>291</ele>
        <time>2010-11-19T12:12:03Z</time>
      </trkpt>
      <trkpt lat="45.07354" lon="5.65694">
        <ele>290.8</ele>
        <time>2010-11-19T12:12:05Z</time>
      </trkpt>
      <trkpt lat="45.07355" lon="5.65691">
        <ele>290.8</ele>
        <time>2010-11-19T12:12:06Z</time>
      </trkpt>
      <trkpt lat="45.07355" lon="5.65678">
        <ele>290.4</ele>
        <time>2010-11-19T12:12:10Z</time>
      </trkpt>
      <trkpt lat="45.07355" lon="5.65675">
        <ele>290.2</ele>
        <time>2010-11-19T12:12:11Z</time>
      </trkpt>
      <trkpt lat="45.07351" lon="5.65659">
        <ele>289.8</ele>
        <time>2010-11-19T12:12:16Z</time>
      </trkpt>
      <trkpt lat="45.07348" lon="5.65653">
        <ele>289.6</ele>
        <time>2010-11-19T12:12:18Z</time>
      </trkpt>
      <trkpt lat="45.07344" lon="5.65641">
        <ele>289.4</ele>
        <time>2010-11-19T12:12:22Z</time>
      </trkpt>
      <trkpt lat="45.07338" lon="5.65628">
        <ele>289.4</ele>
        <time>2010-11-19T12:12:27Z</time>
      </trkpt>
      <trkpt lat="45.07337" lon="5.65625">
        <ele>289.4</ele>
        <time>2010-11-19T12:12:28Z</time>
      </trkpt>
      <trkpt lat="45.07328" lon="5.65609">
        <ele>290.4</ele>
        <time>2010-11-19T12:12:35Z</time>
      </trkpt>
      <trkpt lat="45.07327" lon="5.65607">
        <ele>290.8</ele>
        <time>2010-11-19T12:12:36Z</time>
      </trkpt>
      <trkpt lat="45.07318" lon="5.65598">
        <ele>292.8</ele>
        <time>2010-11-19T12:12:41Z</time>
      </trkpt>
      <trkpt lat="45.07311" lon="5.65594">
        <ele>296</ele>
        <time>2010-11-19T12:12:45Z</time>
      </trkpt>
      <trkpt lat="45.07306" lon="5.65588">
        <ele>298.8</ele>
        <time>2010-11-19T12:12:48Z</time>
      </trkpt>
      <trkpt lat="45.07304" lon="5.65583">
        <ele>300.6</ele>
        <time>2010-11-19T12:12:50Z</time>
      </trkpt>
      <trkpt lat="45.07305" lon="5.65576">
        <ele>302.4</ele>
        <time>2010-11-19T12:12:52Z</time>
      </trkpt>
      <trkpt lat="45.07306" lon="5.6557">
        <ele>304.2</ele>
        <time>2010-11-19T12:12:54Z</time>
      </trkpt>
      <trkpt lat="45.07309" lon="5.65556">
        <ele>308</ele>
        <time>2010-11-19T12:12:58Z</time>
      </trkpt>
      <trkpt lat="45.07314" lon="5.65546">
        <ele>311</ele>
        <time>2010-11-19T12:13:02Z</time>
      </trkpt>
      <trkpt lat="45.07315" lon="5.65543">
        <ele>311.6</ele>
        <time>2010-11-19T12:13:03Z</time>
      </trkpt>
      <trkpt lat="45.07319" lon="5.65524">
        <ele>315.8</ele>
        <time>2010-11-19T12:13:09Z</time>
      </trkpt>
      <trkpt lat="45.0732" lon="5.65521">
        <ele>316.6</ele>
        <time>2010-11-19T12:13:10Z</time>
      </trkpt>
      <trkpt lat="45.07322" lon="5.65512">
        <ele>318.4</ele>
        <time>2010-11-19T12:13:13Z</time>
      </trkpt>
      <trkpt lat="45.07324" lon="5.65496">
        <ele>320.8</ele>
        <time>2010-11-19T12:13:18Z</time>
      </trkpt>
      <trkpt lat="45.07326" lon="5.65486">
        <ele>322.4</ele>
        <time>2010-11-19T12:13:21Z</time>
      </trkpt>
      <trkpt lat="45.07334" lon="5.65473">
        <ele>324.6</ele>
        <time>2010-11-19T12:13:26Z</time>
      </trkpt>
      <trkpt lat="45.07335" lon="5.65471">
        <ele>325.2</ele>
        <time>2010-11-19T12:13:27Z</time>
      </trkpt>
      <trkpt lat="45.07341" lon="5.65455">
        <ele>327.8</ele>
        <time>2010-11-19T12:13:33Z</time>
      </trkpt>
      <trkpt lat="45.07343" lon="5.65449">
        <ele>328.6</ele>
        <time>2010-11-19T12:13:35Z</time>
      </trkpt>
      <trkpt lat="45.07347" lon="5.65438">
        <ele>330.2</ele>
        <time>2010-11-19T12:13:39Z</time>
      </trkpt>
      <trkpt lat="45.07353" lon="5.65425">
        <ele>331.6</ele>
        <time>2010-11-19T12:13:44Z</time>
      </trkpt>
      <trkpt lat="45.07357" lon="5.65415">
        <ele>332.4</ele>
        <time>2010-11-19T12:13:48Z</time>
      </trkpt>
      <trkpt lat="45.07358" lon="5.65412">
        <ele>332.6</ele>
        <time>2010-11-19T12:13:49Z</time>
      </trkpt>
      <trkpt lat="45.07361" lon="5.65403">
        <ele>333.2</ele>
        <time>2010-11-19T12:13:52Z</time>
      </trkpt>
      <trkpt lat="45.07363" lon="5.654">
        <ele>333.4</ele>
        <time>2010-11-19T12:13:53Z</time>
      </trkpt>
      <trkpt lat="45.07367" lon="5.65391">
        <ele>334</ele>
        <time>2010-11-19T12:13:57Z</time>
      </trkpt>
      <trkpt lat="45.07368" lon="5.65388">
        <ele>334.2</ele>
        <time>2010-11-19T12:13:58Z</time>
      </trkpt>
      <trkpt lat="45.07373" lon="5.65381">
        <ele>334.4</ele>
        <time>2010-11-19T12:14:01Z</time>
      </trkpt>
      <trkpt lat="45.07374" lon="5.65379">
        <ele>334.6</ele>
        <time>2010-11-19T12:14:02Z</time>
      </trkpt>
      <trkpt lat="45.0738" lon="5.65365">
        <ele>335.2</ele>
        <time>2010-11-19T12:14:08Z</time>
      </trkpt>
      <trkpt lat="45.07383" lon="5.65359">
        <ele>335.6</ele>
        <time>2010-11-19T12:14:11Z</time>
      </trkpt>
      <trkpt lat="45.07386" lon="5.65351">
        <ele>336</ele>
        <time>2010-11-19T12:14:15Z</time>
      </trkpt>
      <trkpt lat="45.07392" lon="5.65335">
        <ele>337</ele>
        <time>2010-11-19T12:14:22Z</time>
      </trkpt>
      <trkpt lat="45.07393" lon="5.65333">
        <ele>337</ele>
        <time>2010-11-19T12:14:23Z</time>
      </trkpt>
      <trkpt lat="45.07397" lon="5.65315">
        <ele>338.2</ele>
        <time>2010-11-19T12:14:31Z</time>
      </trkpt>
      <trkpt lat="45.074" lon="5.6531">
        <ele>338.4</ele>
        <time>2010-11-19T12:14:34Z</time>
      </trkpt>
      <trkpt lat="45.07401" lon="5.65298">
        <ele>339.4</ele>
        <time>2010-11-19T12:14:39Z</time>
      </trkpt>
      <trkpt lat="45.07403" lon="5.65284">
        <ele>340.4</ele>
        <time>2010-11-19T12:14:45Z</time>
      </trkpt>
      <trkpt lat="45.07404" lon="5.6528">
        <ele>340.8</ele>
        <time>2010-11-19T12:14:47Z</time>
      </trkpt>
      <trkpt lat="45.07409" lon="5.65267">
        <ele>341.6</ele>
        <time>2010-11-19T12:14:54Z</time>
      </trkpt>
      <trkpt lat="45.07409" lon="5.65259">
        <ele>342.2</ele>
        <time>2010-11-19T12:14:57Z</time>
      </trkpt>
      <trkpt lat="45.07411" lon="5.65244">
        <ele>343.2</ele>
        <time>2010-11-19T12:15:03Z</time>
      </trkpt>
      <trkpt lat="45.07414" lon="5.65234">
        <ele>344.2</ele>
        <time>2010-11-19T12:15:09Z</time>
      </trkpt>
      <trkpt lat="45.07418" lon="5.65226">
        <ele>345.2</ele>
        <time>2010-11-19T12:15:13Z</time>
      </trkpt>
      <trkpt lat="45.07419" lon="5.65224">
        <ele>345.4</ele>
        <time>2010-11-19T12:15:14Z</time>
      </trkpt>
      <trkpt lat="45.07428" lon="5.65218">
        <ele>346.2</ele>
        <time>2010-11-19T12:15:20Z</time>
      </trkpt>
      <trkpt lat="45.0743" lon="5.65216">
        <ele>346.4</ele>
        <time>2010-11-19T12:15:21Z</time>
      </trkpt>
      <trkpt lat="45.07434" lon="5.65199">
        <ele>347.4</ele>
        <time>2010-11-19T12:15:26Z</time>
      </trkpt>
      <trkpt lat="45.07435" lon="5.65192">
        <ele>347.6</ele>
        <time>2010-11-19T12:15:28Z</time>
      </trkpt>
      <trkpt lat="45.07435" lon="5.6519">
        <ele>347.6</ele>
        <time>2010-11-19T12:15:29Z</time>
      </trkpt>
      <trkpt lat="45.07435" lon="5.65183">
        <ele>348.2</ele>
        <time>2010-11-19T12:15:31Z</time>
      </trkpt>
      <trkpt lat="45.07434" lon="5.65166">
        <ele>349</ele>
        <time>2010-11-19T12:15:36Z</time>
      </trkpt>
      <trkpt lat="45.07433" lon="5.65159">
        <ele>349.2</ele>
        <time>2010-11-19T12:15:38Z</time>
      </trkpt>
      <trkpt lat="45.07436" lon="5.65141">
        <ele>350.2</ele>
        <time>2010-11-19T12:15:44Z</time>
      </trkpt>
      <trkpt lat="45.07437" lon="5.65138">
        <ele>350.4</ele>
        <time>2010-11-19T12:15:45Z</time>
      </trkpt>
      <trkpt lat="45.07443" lon="5.65126">
        <ele>351.2</ele>
        <time>2010-11-19T12:15:50Z</time>
      </trkpt>
      <trkpt lat="45.07446" lon="5.65123">
        <ele>351.2</ele>
        <time>2010-11-19T12:15:52Z</time>
      </trkpt>
      <trkpt lat="45.07448" lon="5.65118">
        <ele>351.4</ele>
        <time>2010-11-19T12:15:54Z</time>
      </trkpt>
      <trkpt lat="45.07449" lon="5.65115">
        <ele>351.6</ele>
        <time>2010-11-19T12:15:55Z</time>
      </trkpt>
      <trkpt lat="45.07452" lon="5.65108">
        <ele>352.6</ele>
        <time>2010-11-19T12:15:59Z</time>
      </trkpt>
      <trkpt lat="45.07453" lon="5.65106">
        <ele>352.8</ele>
        <time>2010-11-19T12:16:00Z</time>
      </trkpt>
      <trkpt lat="45.0746" lon="5.65098">
        <ele>354.2</ele>
        <time>2010-11-19T12:16:06Z</time>
      </trkpt>
      <trkpt lat="45.07462" lon="5.65097">
        <ele>354.2</ele>
        <time>2010-11-19T12:16:07Z</time>
      </trkpt>
      <trkpt lat="45.07466" lon="5.65091">
        <ele>355.2</ele>
        <time>2010-11-19T12:16:12Z</time>
      </trkpt>
      <trkpt lat="45.07473" lon="5.65084">
        <ele>356</ele>
        <time>2010-11-19T12:16:18Z</time>
      </trkpt>
      <trkpt lat="45.07473" lon="5.65083">
        <ele>356.2</ele>
        <time>2010-11-19T12:16:19Z</time>
      </trkpt>
      <trkpt lat="45.07472" lon="5.65078">
        <ele>356.2</ele>
        <time>2010-11-19T12:16:22Z</time>
      </trkpt>
      <trkpt lat="45.0747" lon="5.65073">
        <ele>356.4</ele>
        <time>2010-11-19T12:16:24Z</time>
      </trkpt>
      <trkpt lat="45.07469" lon="5.65069">
        <ele>356.4</ele>
        <time>2010-11-19T12:16:26Z</time>
      </trkpt>
      <trkpt lat="45.07467" lon="5.65063">
        <ele>356.2</ele>
        <time>2010-11-19T12:16:30Z</time>
      </trkpt>
      <trkpt lat="45.07462" lon="5.65054">
        <ele>356.4</ele>
        <time>2010-11-19T12:16:35Z</time>
      </trkpt>
      <trkpt lat="45.0746" lon="5.65051">
        <ele>356.6</ele>
        <time>2010-11-19T12:16:36Z</time>
      </trkpt>
      <trkpt lat="45.07459" lon="5.65048">
        <ele>356.6</ele>
        <time>2010-11-19T12:16:38Z</time>
      </trkpt>
      <trkpt lat="45.07457" lon="5.6504">
        <ele>357</ele>
        <time>2010-11-19T12:16:42Z</time>
      </trkpt>
      <trkpt lat="45.07454" lon="5.65031">
        <ele>357.4</ele>
        <time>2010-11-19T12:16:46Z</time>
      </trkpt>
      <trkpt lat="45.07449" lon="5.6502">
        <ele>358</ele>
        <time>2010-11-19T12:16:50Z</time>
      </trkpt>
      <trkpt lat="45.07444" lon="5.65006">
        <ele>358.6</ele>
        <time>2010-11-19T12:16:54Z</time>
      </trkpt>
      <trkpt lat="45.07443" lon="5.65002">
        <ele>358.8</ele>
        <time>2010-11-19T12:16:55Z</time>
      </trkpt>
      <trkpt lat="45.07436" lon="5.64984">
        <ele>360.2</ele>
        <time>2010-11-19T12:17:01Z</time>
      </trkpt>
      <trkpt lat="45.07435" lon="5.64981">
        <ele>360.4</ele>
        <time>2010-11-19T12:17:02Z</time>
      </trkpt>
      <trkpt lat="45.07429" lon="5.6497">
        <ele>361.2</ele>
        <time>2010-11-19T12:17:06Z</time>
      </trkpt>
      <trkpt lat="45.07421" lon="5.64961">
        <ele>361.8</ele>
        <time>2010-11-19T12:17:10Z</time>
      </trkpt>
      <trkpt lat="45.0742" lon="5.64959">
        <ele>362</ele>
        <time>2010-11-19T12:17:11Z</time>
      </trkpt>
      <trkpt lat="45.07407" lon="5.64946">
        <ele>362.4</ele>
        <time>2010-11-19T12:17:18Z</time>
      </trkpt>
      <trkpt lat="45.07406" lon="5.64944">
        <ele>362.6</ele>
        <time>2010-11-19T12:17:19Z</time>
      </trkpt>
      <trkpt lat="45.07398" lon="5.64933">
        <ele>362.4</ele>
        <time>2010-11-19T12:17:25Z</time>
      </trkpt>
      <trkpt lat="45.07393" lon="5.64925">
        <ele>362</ele>
        <time>2010-11-19T12:17:30Z</time>
      </trkpt>
      <trkpt lat="45.07384" lon="5.64914">
        <ele>361.6</ele>
        <time>2010-11-19T12:17:37Z</time>
      </trkpt>
      <trkpt lat="45.07379" lon="5.64907">
        <ele>361.4</ele>
        <time>2010-11-19T12:17:41Z</time>
      </trkpt>
      <trkpt lat="45.07376" lon="5.64903">
        <ele>361.4</ele>
        <time>2010-11-19T12:17:44Z</time>
      </trkpt>
      <trkpt lat="45.0737" lon="5.6489">
        <ele>361</ele>
        <time>2010-11-19T12:17:50Z</time>
      </trkpt>
      <trkpt lat="45.07367" lon="5.64884">
        <ele>361</ele>
        <time>2010-11-19T12:17:53Z</time>
      </trkpt>
      <trkpt lat="45.07365" lon="5.6488">
        <ele>360.8</ele>
        <time>2010-11-19T12:17:55Z</time>
      </trkpt>
      <trkpt lat="45.07357" lon="5.64865">
        <ele>360.6</ele>
        <time>2010-11-19T12:18:03Z</time>
      </trkpt>
      <trkpt lat="45.07356" lon="5.64863">
        <ele>360.4</ele>
        <time>2010-11-19T12:18:04Z</time>
      </trkpt>
      <trkpt lat="45.07351" lon="5.64853">
        <ele>360.2</ele>
        <time>2010-11-19T12:18:09Z</time>
      </trkpt>
      <trkpt lat="45.07347" lon="5.64838">
        <ele>360</ele>
        <time>2010-11-19T12:18:15Z</time>
      </trkpt>
      <trkpt lat="45.07347" lon="5.64836">
        <ele>360</ele>
        <time>2010-11-19T12:18:16Z</time>
      </trkpt>
      <trkpt lat="45.07345" lon="5.6482">
        <ele>359.6</ele>
        <time>2010-11-19T12:18:23Z</time>
      </trkpt>
      <trkpt lat="45.07346" lon="5.64813">
        <ele>359.6</ele>
        <time>2010-11-19T12:18:26Z</time>
      </trkpt>
      <trkpt lat="45.0735" lon="5.64807">
        <ele>359.6</ele>
        <time>2010-11-19T12:18:30Z</time>
      </trkpt>
      <trkpt lat="45.07358" lon="5.64802">
        <ele>359.8</ele>
        <time>2010-11-19T12:18:36Z</time>
      </trkpt>
      <trkpt lat="45.07362" lon="5.64801">
        <ele>360</ele>
        <time>2010-11-19T12:18:38Z</time>
      </trkpt>
      <trkpt lat="45.07367" lon="5.64798">
        <ele>360.6</ele>
        <time>2010-11-19T12:18:42Z</time>
      </trkpt>
      <trkpt lat="45.07371" lon="5.64797">
        <ele>360.6</ele>
        <time>2010-11-19T12:18:44Z</time>
      </trkpt>
      <trkpt lat="45.07378" lon="5.64792">
        <ele>361.2</ele>
        <time>2010-11-19T12:18:49Z</time>
      </trkpt>
      <trkpt lat="45.07379" lon="5.6479">
        <ele>361.2</ele>
        <time>2010-11-19T12:18:50Z</time>
      </trkpt>
      <trkpt lat="45.0739" lon="5.64781">
        <ele>362.2</ele>
        <time>2010-11-19T12:18:57Z</time>
      </trkpt>
      <trkpt lat="45.07395" lon="5.64778">
        <ele>362.4</ele>
        <time>2010-11-19T12:19:00Z</time>
      </trkpt>
      <trkpt lat="45.07399" lon="5.64774">
        <ele>362.8</ele>
        <time>2010-11-19T12:19:03Z</time>
      </trkpt>
      <trkpt lat="45.0741" lon="5.64766">
        <ele>364</ele>
        <time>2010-11-19T12:19:11Z</time>
      </trkpt>
      <trkpt lat="45.07412" lon="5.64765">
        <ele>364.2</ele>
        <time>2010-11-19T12:19:13Z</time>
      </trkpt>
      <trkpt lat="45.07418" lon="5.64759">
        <ele>365.2</ele>
        <time>2010-11-19T12:19:18Z</time>
      </trkpt>
      <trkpt lat="45.07422" lon="5.64757">
        <ele>365.8</ele>
        <time>2010-11-19T12:19:21Z</time>
      </trkpt>
      <trkpt lat="45.07427" lon="5.64755">
        <ele>366.4</ele>
        <time>2010-11-19T12:19:24Z</time>
      </trkpt>
      <trkpt lat="45.07429" lon="5.64754">
        <ele>366.4</ele>
        <time>2010-11-19T12:19:25Z</time>
      </trkpt>
      <trkpt lat="45.07437" lon="5.6475">
        <ele>367.8</ele>
        <time>2010-11-19T12:19:31Z</time>
      </trkpt>
      <trkpt lat="45.07446" lon="5.64744">
        <ele>369.4</ele>
        <time>2010-11-19T12:19:37Z</time>
      </trkpt>
      <trkpt lat="45.0745" lon="5.64741">
        <ele>370.2</ele>
        <time>2010-11-19T12:19:40Z</time>
      </trkpt>
      <trkpt lat="45.07461" lon="5.64735">
        <ele>371.6</ele>
        <time>2010-11-19T12:19:47Z</time>
      </trkpt>
      <trkpt lat="45.07464" lon="5.64733">
        <ele>372.2</ele>
        <time>2010-11-19T12:19:49Z</time>
      </trkpt>
      <trkpt lat="45.07465" lon="5.64732">
        <ele>372.4</ele>
        <time>2010-11-19T12:19:51Z</time>
      </trkpt>
      <trkpt lat="45.0747" lon="5.64726">
        <ele>373.4</ele>
        <time>2010-11-19T12:19:54Z</time>
      </trkpt>
      <trkpt lat="45.07473" lon="5.64723">
        <ele>374</ele>
        <time>2010-11-19T12:19:57Z</time>
      </trkpt>
      <trkpt lat="45.07478" lon="5.64719">
        <ele>374.8</ele>
        <time>2010-11-19T12:20:01Z</time>
      </trkpt>
      <trkpt lat="45.07479" lon="5.64718">
        <ele>375</ele>
        <time>2010-11-19T12:20:02Z</time>
      </trkpt>
      <trkpt lat="45.07488" lon="5.64711">
        <ele>376</ele>
        <time>2010-11-19T12:20:09Z</time>
      </trkpt>
      <trkpt lat="45.07495" lon="5.64707">
        <ele>376.8</ele>
        <time>2010-11-19T12:20:14Z</time>
      </trkpt>
      <trkpt lat="45.07498" lon="5.64705">
        <ele>377.2</ele>
        <time>2010-11-19T12:20:16Z</time>
      </trkpt>
      <trkpt lat="45.07504" lon="5.64701">
        <ele>378.2</ele>
        <time>2010-11-19T12:20:21Z</time>
      </trkpt>
      <trkpt lat="45.07512" lon="5.64698">
        <ele>379.4</ele>
        <time>2010-11-19T12:20:27Z</time>
      </trkpt>
      <trkpt lat="45.07524" lon="5.64698">
        <ele>381</ele>
        <time>2010-11-19T12:20:35Z</time>
      </trkpt>
      <trkpt lat="45.07531" lon="5.64698">
        <ele>381.4</ele>
        <time>2010-11-19T12:20:39Z</time>
      </trkpt>
      <trkpt lat="45.07536" lon="5.64694">
        <ele>382</ele>
        <time>2010-11-19T12:20:42Z</time>
      </trkpt>
      <trkpt lat="45.07543" lon="5.64689">
        <ele>382.8</ele>
        <time>2010-11-19T12:20:47Z</time>
      </trkpt>
      <trkpt lat="45.07547" lon="5.64686">
        <ele>383</ele>
        <time>2010-11-19T12:20:50Z</time>
      </trkpt>
      <trkpt lat="45.07548" lon="5.64685">
        <ele>383</ele>
        <time>2010-11-19T12:20:51Z</time>
      </trkpt>
      <trkpt lat="45.0755" lon="5.64682">
        <ele>383</ele>
        <time>2010-11-19T12:20:53Z</time>
      </trkpt>
      <trkpt lat="45.07553" lon="5.64676">
        <ele>383</ele>
        <time>2010-11-19T12:20:57Z</time>
      </trkpt>
      <trkpt lat="45.07553" lon="5.64671">
        <ele>383.2</ele>
        <time>2010-11-19T12:20:59Z</time>
      </trkpt>
      <trkpt lat="45.07552" lon="5.64661">
        <ele>383.6</ele>
        <time>2010-11-19T12:21:03Z</time>
      </trkpt>
      <trkpt lat="45.07552" lon="5.64657">
        <ele>383.8</ele>
        <time>2010-11-19T12:21:05Z</time>
      </trkpt>
      <trkpt lat="45.07548" lon="5.64641">
        <ele>385</ele>
        <time>2010-11-19T12:21:13Z</time>
      </trkpt>
      <trkpt lat="45.07547" lon="5.64635">
        <ele>385.4</ele>
        <time>2010-11-19T12:21:16Z</time>
      </trkpt>
      <trkpt lat="45.07543" lon="5.64627">
        <ele>386.4</ele>
        <time>2010-11-19T12:21:20Z</time>
      </trkpt>
      <trkpt lat="45.07541" lon="5.64611">
        <ele>388.2</ele>
        <time>2010-11-19T12:21:28Z</time>
      </trkpt>
      <trkpt lat="45.0754" lon="5.64592">
        <ele>390</ele>
        <time>2010-11-19T12:21:37Z</time>
      </trkpt>
      <trkpt lat="45.07541" lon="5.64584">
        <ele>390.6</ele>
        <time>2010-11-19T12:21:41Z</time>
      </trkpt>
      <trkpt lat="45.07542" lon="5.64581">
        <ele>391</ele>
        <time>2010-11-19T12:21:43Z</time>
      </trkpt>
      <trkpt lat="45.07542" lon="5.64577">
        <ele>391.4</ele>
        <time>2010-11-19T12:21:45Z</time>
      </trkpt>
      <trkpt lat="45.07542" lon="5.64565">
        <ele>392.4</ele>
        <time>2010-11-19T12:21:50Z</time>
      </trkpt>
      <trkpt lat="45.07542" lon="5.64557">
        <ele>393.2</ele>
        <time>2010-11-19T12:21:54Z</time>
      </trkpt>
      <trkpt lat="45.07542" lon="5.64549">
        <ele>393.8</ele>
        <time>2010-11-19T12:21:58Z</time>
      </trkpt>
      <trkpt lat="45.07542" lon="5.64534">
        <ele>395.4</ele>
        <time>2010-11-19T12:22:05Z</time>
      </trkpt>
      <trkpt lat="45.07542" lon="5.6453">
        <ele>395.6</ele>
        <time>2010-11-19T12:22:07Z</time>
      </trkpt>
      <trkpt lat="45.0754" lon="5.6452">
        <ele>396.8</ele>
        <time>2010-11-19T12:22:12Z</time>
      </trkpt>
      <trkpt lat="45.0754" lon="5.64505">
        <ele>398.2</ele>
        <time>2010-11-19T12:22:19Z</time>
      </trkpt>
      <trkpt lat="45.07539" lon="5.64489">
        <ele>400</ele>
        <time>2010-11-19T12:22:27Z</time>
      </trkpt>
      <trkpt lat="45.07537" lon="5.64479">
        <ele>401</ele>
        <time>2010-11-19T12:22:32Z</time>
      </trkpt>
      <trkpt lat="45.07535" lon="5.64475">
        <ele>401.4</ele>
        <time>2010-11-19T12:22:34Z</time>
      </trkpt>
      <trkpt lat="45.07529" lon="5.64458">
        <ele>402.2</ele>
        <time>2010-11-19T12:22:39Z</time>
      </trkpt>
      <trkpt lat="45.07528" lon="5.64454">
        <ele>402.4</ele>
        <time>2010-11-19T12:22:40Z</time>
      </trkpt>
      <trkpt lat="45.07521" lon="5.64435">
        <ele>403.4</ele>
        <time>2010-11-19T12:22:45Z</time>
      </trkpt>
      <trkpt lat="45.07519" lon="5.64427">
        <ele>403.8</ele>
        <time>2010-11-19T12:22:47Z</time>
      </trkpt>
      <trkpt lat="45.07518" lon="5.64415">
        <ele>404.2</ele>
        <time>2010-11-19T12:22:50Z</time>
      </trkpt>
      <trkpt lat="45.07519" lon="5.64401">
        <ele>404.6</ele>
        <time>2010-11-19T12:22:54Z</time>
      </trkpt>
      <trkpt lat="45.07519" lon="5.64396">
        <ele>404.8</ele>
        <time>2010-11-19T12:22:56Z</time>
      </trkpt>
      <trkpt lat="45.0752" lon="5.6438">
        <ele>405.6</ele>
        <time>2010-11-19T12:23:04Z</time>
      </trkpt>
      <trkpt lat="45.07519" lon="5.64374">
        <ele>406</ele>
        <time>2010-11-19T12:23:07Z</time>
      </trkpt>
      <trkpt lat="45.07519" lon="5.64365">
        <ele>406.4</ele>
        <time>2010-11-19T12:23:11Z</time>
      </trkpt>
      <trkpt lat="45.07519" lon="5.64347">
        <ele>407.6</ele>
        <time>2010-11-19T12:23:20Z</time>
      </trkpt>
      <trkpt lat="45.07519" lon="5.6433">
        <ele>408.6</ele>
        <time>2010-11-19T12:23:29Z</time>
      </trkpt>
      <trkpt lat="45.07521" lon="5.64321">
        <ele>409.4</ele>
        <time>2010-11-19T12:23:34Z</time>
      </trkpt>
      <trkpt lat="45.07523" lon="5.64318">
        <ele>409.6</ele>
        <time>2010-11-19T12:23:36Z</time>
      </trkpt>
      <trkpt lat="45.0753" lon="5.64319">
        <ele>410.8</ele>
        <time>2010-11-19T12:23:42Z</time>
      </trkpt>
      <trkpt lat="45.07533" lon="5.64323">
        <ele>411.4</ele>
        <time>2010-11-19T12:23:45Z</time>
      </trkpt>
      <trkpt lat="45.07536" lon="5.64326">
        <ele>411.8</ele>
        <time>2010-11-19T12:23:48Z</time>
      </trkpt>
      <trkpt lat="45.07537" lon="5.64328">
        <ele>412</ele>
        <time>2010-11-19T12:23:49Z</time>
      </trkpt>
      <trkpt lat="45.07545" lon="5.64342">
        <ele>413.2</ele>
        <time>2010-11-19T12:23:58Z</time>
      </trkpt>
      <trkpt lat="45.07548" lon="5.64347">
        <ele>413.8</ele>
        <time>2010-11-19T12:24:01Z</time>
      </trkpt>
      <trkpt lat="45.07553" lon="5.64353">
        <ele>414.6</ele>
        <time>2010-11-19T12:24:05Z</time>
      </trkpt>
      <trkpt lat="45.07559" lon="5.64361">
        <ele>416.2</ele>
        <time>2010-11-19T12:24:10Z</time>
      </trkpt>
      <trkpt lat="45.07561" lon="5.64364">
        <ele>416.8</ele>
        <time>2010-11-19T12:24:12Z</time>
      </trkpt>
      <trkpt lat="45.07569" lon="5.64372">
        <ele>417.8</ele>
        <time>2010-11-19T12:24:18Z</time>
      </trkpt>
      <trkpt lat="45.07575" lon="5.6438">
        <ele>418.8</ele>
        <time>2010-11-19T12:24:24Z</time>
      </trkpt>
      <trkpt lat="45.07577" lon="5.64383">
        <ele>419.2</ele>
        <time>2010-11-19T12:24:26Z</time>
      </trkpt>
      <trkpt lat="45.07579" lon="5.64386">
        <ele>419.6</ele>
        <time>2010-11-19T12:24:29Z</time>
      </trkpt>
      <trkpt lat="45.07584" lon="5.64393">
        <ele>420.4</ele>
        <time>2010-11-19T12:24:34Z</time>
      </trkpt>
      <trkpt lat="45.07585" lon="5.64394">
        <ele>420.6</ele>
        <time>2010-11-19T12:24:35Z</time>
      </trkpt>
      <trkpt lat="45.07586" lon="5.64395">
        <ele>420.6</ele>
        <time>2010-11-19T12:24:36Z</time>
      </trkpt>
      <trkpt lat="45.07588" lon="5.64395">
        <ele>421</ele>
        <time>2010-11-19T12:24:38Z</time>
      </trkpt>
      <trkpt lat="45.07591" lon="5.64394">
        <ele>421.2</ele>
        <time>2010-11-19T12:24:41Z</time>
      </trkpt>
      <trkpt lat="45.07592" lon="5.64393">
        <ele>421.4</ele>
        <time>2010-11-19T12:24:42Z</time>
      </trkpt>
      <trkpt lat="45.07594" lon="5.64386">
        <ele>422.2</ele>
        <time>2010-11-19T12:24:46Z</time>
      </trkpt>
      <trkpt lat="45.07595" lon="5.64382">
        <ele>422.4</ele>
        <time>2010-11-19T12:24:48Z</time>
      </trkpt>
      <trkpt lat="45.07597" lon="5.64377">
        <ele>423</ele>
        <time>2010-11-19T12:24:51Z</time>
      </trkpt>
      <trkpt lat="45.076" lon="5.64373">
        <ele>423.8</ele>
        <time>2010-11-19T12:24:54Z</time>
      </trkpt>
      <trkpt lat="45.07603" lon="5.64372">
        <ele>424.4</ele>
        <time>2010-11-19T12:24:56Z</time>
      </trkpt>
      <trkpt lat="45.0761" lon="5.64374">
        <ele>425.2</ele>
        <time>2010-11-19T12:25:01Z</time>
      </trkpt>
      <trkpt lat="45.07612" lon="5.64375">
        <ele>425.4</ele>
        <time>2010-11-19T12:25:02Z</time>
      </trkpt>
      <trkpt lat="45.07617" lon="5.64378">
        <ele>426.2</ele>
        <time>2010-11-19T12:25:06Z</time>
      </trkpt>
      <trkpt lat="45.07618" lon="5.64378">
        <ele>426.2</ele>
        <time>2010-11-19T12:25:07Z</time>
      </trkpt>
      <trkpt lat="45.07622" lon="5.64379">
        <ele>426.8</ele>
        <time>2010-11-19T12:25:10Z</time>
      </trkpt>
      <trkpt lat="45.07626" lon="5.64376">
        <ele>427</ele>
        <time>2010-11-19T12:25:14Z</time>
      </trkpt>
      <trkpt lat="45.07627" lon="5.64368">
        <ele>427.8</ele>
        <time>2010-11-19T12:25:19Z</time>
      </trkpt>
      <trkpt lat="45.07628" lon="5.64363">
        <ele>428</ele>
        <time>2010-11-19T12:25:22Z</time>
      </trkpt>
      <trkpt lat="45.0763" lon="5.64359">
        <ele>428.4</ele>
        <time>2010-11-19T12:25:24Z</time>
      </trkpt>
      <trkpt lat="45.07634" lon="5.64353">
        <ele>429.2</ele>
        <time>2010-11-19T12:25:29Z</time>
      </trkpt>
      <trkpt lat="45.07639" lon="5.64348">
        <ele>430.2</ele>
        <time>2010-11-19T12:25:34Z</time>
      </trkpt>
      <trkpt lat="45.07641" lon="5.64345">
        <ele>430.8</ele>
        <time>2010-11-19T12:25:37Z</time>
      </trkpt>
      <trkpt lat="45.07642" lon="5.64344">
        <ele>431</ele>
        <time>2010-11-19T12:25:38Z</time>
      </trkpt>
      <trkpt lat="45.07647" lon="5.64339">
        <ele>431.8</ele>
        <time>2010-11-19T12:25:43Z</time>
      </trkpt>
      <trkpt lat="45.07653" lon="5.64338">
        <ele>433</ele>
        <time>2010-11-19T12:25:48Z</time>
      </trkpt>
      <trkpt lat="45.07656" lon="5.64337">
        <ele>433.6</ele>
        <time>2010-11-19T12:25:51Z</time>
      </trkpt>
      <trkpt lat="45.07657" lon="5.64338">
        <ele>434.2</ele>
        <time>2010-11-19T12:25:52Z</time>
      </trkpt>
      <trkpt lat="45.07659" lon="5.64338">
        <ele>435.2</ele>
        <time>2010-11-19T12:25:54Z</time>
      </trkpt>
      <trkpt lat="45.07663" lon="5.64338">
        <ele>436.8</ele>
        <time>2010-11-19T12:25:58Z</time>
      </trkpt>
      <trkpt lat="45.07663" lon="5.64339">
        <ele>437.4</ele>
        <time>2010-11-19T12:25:59Z</time>
      </trkpt>
      <trkpt lat="45.07666" lon="5.64342">
        <ele>438.8</ele>
        <time>2010-11-19T12:26:02Z</time>
      </trkpt>
      <trkpt lat="45.07667" lon="5.64344">
        <ele>439.4</ele>
        <time>2010-11-19T12:26:03Z</time>
      </trkpt>
      <trkpt lat="45.07671" lon="5.64349">
        <ele>442.4</ele>
        <time>2010-11-19T12:26:08Z</time>
      </trkpt>
      <trkpt lat="45.07673" lon="5.64352">
        <ele>443.4</ele>
        <time>2010-11-19T12:26:10Z</time>
      </trkpt>
      <trkpt lat="45.07676" lon="5.64357">
        <ele>445.4</ele>
        <time>2010-11-19T12:26:13Z</time>
      </trkpt>
      <trkpt lat="45.07677" lon="5.64359">
        <ele>446</ele>
        <time>2010-11-19T12:26:14Z</time>
      </trkpt>
      <trkpt lat="45.07679" lon="5.64364">
        <ele>448.4</ele>
        <time>2010-11-19T12:26:18Z</time>
      </trkpt>
      <trkpt lat="45.0768" lon="5.64365">
        <ele>449</ele>
        <time>2010-11-19T12:26:19Z</time>
      </trkpt>
      <trkpt lat="45.07684" lon="5.64367">
        <ele>451.4</ele>
        <time>2010-11-19T12:26:23Z</time>
      </trkpt>
      <trkpt lat="45.07685" lon="5.64366">
        <ele>452.4</ele>
        <time>2010-11-19T12:26:25Z</time>
      </trkpt>
      <trkpt lat="45.07686" lon="5.64365">
        <ele>453</ele>
        <time>2010-11-19T12:26:26Z</time>
      </trkpt>
      <trkpt lat="45.07691" lon="5.64362">
        <ele>455.8</ele>
        <time>2010-11-19T12:26:31Z</time>
      </trkpt>
      <trkpt lat="45.07695" lon="5.64359">
        <ele>458.4</ele>
        <time>2010-11-19T12:26:36Z</time>
      </trkpt>
      <trkpt lat="45.07697" lon="5.64356">
        <ele>460.2</ele>
        <time>2010-11-19T12:26:40Z</time>
      </trkpt>
      <trkpt lat="45.07698" lon="5.64355">
        <ele>460.6</ele>
        <time>2010-11-19T12:26:41Z</time>
      </trkpt>
      <trkpt lat="45.07699" lon="5.64355">
        <ele>461.2</ele>
        <time>2010-11-19T12:26:42Z</time>
      </trkpt>
      <trkpt lat="45.077" lon="5.64353">
        <ele>462</ele>
        <time>2010-11-19T12:26:44Z</time>
      </trkpt>
      <trkpt lat="45.07702" lon="5.64351">
        <ele>463</ele>
        <time>2010-11-19T12:26:46Z</time>
      </trkpt>
      <trkpt lat="45.07704" lon="5.64348">
        <ele>464.2</ele>
        <time>2010-11-19T12:26:49Z</time>
      </trkpt>
      <trkpt lat="45.07708" lon="5.64342">
        <ele>466.4</ele>
        <time>2010-11-19T12:26:54Z</time>
      </trkpt>
      <trkpt lat="45.07714" lon="5.64338">
        <ele>468.8</ele>
        <time>2010-11-19T12:27:00Z</time>
      </trkpt>
      <trkpt lat="45.07716" lon="5.64337">
        <ele>469.6</ele>
        <time>2010-11-19T12:27:02Z</time>
      </trkpt>
      <trkpt lat="45.07718" lon="5.64336">
        <ele>470.4</ele>
        <time>2010-11-19T12:27:04Z</time>
      </trkpt>
      <trkpt lat="45.07721" lon="5.64336">
        <ele>471.6</ele>
        <time>2010-11-19T12:27:07Z</time>
      </trkpt>
      <trkpt lat="45.07721" lon="5.64337">
        <ele>472.2</ele>
        <time>2010-11-19T12:27:08Z</time>
      </trkpt>
      <trkpt lat="45.07722" lon="5.64337">
        <ele>472.6</ele>
        <time>2010-11-19T12:27:09Z</time>
      </trkpt>
      <trkpt lat="45.07724" lon="5.64339">
        <ele>473.8</ele>
        <time>2010-11-19T12:27:12Z</time>
      </trkpt>
      <trkpt lat="45.07727" lon="5.64343">
        <ele>475.4</ele>
        <time>2010-11-19T12:27:16Z</time>
      </trkpt>
      <trkpt lat="45.07728" lon="5.64344">
        <ele>476</ele>
        <time>2010-11-19T12:27:17Z</time>
      </trkpt>
      <trkpt lat="45.07729" lon="5.64344">
        <ele>476.4</ele>
        <time>2010-11-19T12:27:18Z</time>
      </trkpt>
      <trkpt lat="45.07731" lon="5.64346">
        <ele>477.6</ele>
        <time>2010-11-19T12:27:21Z</time>
      </trkpt>
      <trkpt lat="45.07732" lon="5.64348">
        <ele>478.6</ele>
        <time>2010-11-19T12:27:23Z</time>
      </trkpt>
      <trkpt lat="45.07734" lon="5.6435">
        <ele>479.4</ele>
        <time>2010-11-19T12:27:25Z</time>
      </trkpt>
      <trkpt lat="45.07735" lon="5.64351">
        <ele>480</ele>
        <time>2010-11-19T12:27:27Z</time>
      </trkpt>
      <trkpt lat="45.07739" lon="5.64352">
        <ele>481.4</ele>
        <time>2010-11-19T12:27:31Z</time>
      </trkpt>
      <trkpt lat="45.07741" lon="5.64354">
        <ele>482</ele>
        <time>2010-11-19T12:27:33Z</time>
      </trkpt>
      <trkpt lat="45.07745" lon="5.64357">
        <ele>483</ele>
        <time>2010-11-19T12:27:37Z</time>
      </trkpt>
      <trkpt lat="45.07747" lon="5.64357">
        <ele>483.8</ele>
        <time>2010-11-19T12:27:40Z</time>
      </trkpt>
      <trkpt lat="45.07749" lon="5.64357">
        <ele>484.2</ele>
        <time>2010-11-19T12:27:42Z</time>
      </trkpt>
      <trkpt lat="45.0775" lon="5.64357">
        <ele>484.4</ele>
        <time>2010-11-19T12:27:43Z</time>
      </trkpt>
      <trkpt lat="45.07754" lon="5.64357">
        <ele>485</ele>
        <time>2010-11-19T12:27:46Z</time>
      </trkpt>
      <trkpt lat="45.07756" lon="5.64356">
        <ele>485.6</ele>
        <time>2010-11-19T12:27:48Z</time>
      </trkpt>
      <trkpt lat="45.07759" lon="5.64355">
        <ele>486.2</ele>
        <time>2010-11-19T12:27:51Z</time>
      </trkpt>
      <trkpt lat="45.07764" lon="5.64355">
        <ele>487.2</ele>
        <time>2010-11-19T12:27:55Z</time>
      </trkpt>
      <trkpt lat="45.07766" lon="5.64355">
        <ele>488</ele>
        <time>2010-11-19T12:27:58Z</time>
      </trkpt>
      <trkpt lat="45.07769" lon="5.64355">
        <ele>488.8</ele>
        <time>2010-11-19T12:28:01Z</time>
      </trkpt>
      <trkpt lat="45.07774" lon="5.64355">
        <ele>490.2</ele>
        <time>2010-11-19T12:28:06Z</time>
      </trkpt>
      <trkpt lat="45.07778" lon="5.64356">
        <ele>491.4</ele>
        <time>2010-11-19T12:28:10Z</time>
      </trkpt>
      <trkpt lat="45.07785" lon="5.6436">
        <ele>493.6</ele>
        <time>2010-11-19T12:28:16Z</time>
      </trkpt>
      <trkpt lat="45.07786" lon="5.64361">
        <ele>494.2</ele>
        <time>2010-11-19T12:28:17Z</time>
      </trkpt>
      <trkpt lat="45.07787" lon="5.64362">
        <ele>494.6</ele>
        <time>2010-11-19T12:28:18Z</time>
      </trkpt>
      <trkpt lat="45.07791" lon="5.64366">
        <ele>496</ele>
        <time>2010-11-19T12:28:22Z</time>
      </trkpt>
      <trkpt lat="45.07794" lon="5.64367">
        <ele>496.8</ele>
        <time>2010-11-19T12:28:25Z</time>
      </trkpt>
      <trkpt lat="45.07796" lon="5.64368">
        <ele>497.4</ele>
        <time>2010-11-19T12:28:27Z</time>
      </trkpt>
      <trkpt lat="45.07802" lon="5.64368">
        <ele>498.4</ele>
        <time>2010-11-19T12:28:32Z</time>
      </trkpt>
      <trkpt lat="45.07804" lon="5.64367">
        <ele>498.8</ele>
        <time>2010-11-19T12:28:34Z</time>
      </trkpt>
      <trkpt lat="45.07805" lon="5.64367">
        <ele>498.8</ele>
        <time>2010-11-19T12:28:35Z</time>
      </trkpt>
      <trkpt lat="45.07805" lon="5.64366">
        <ele>499</ele>
        <time>2010-11-19T12:28:36Z</time>
      </trkpt>
      <trkpt lat="45.07807" lon="5.64364">
        <ele>499.8</ele>
        <time>2010-11-19T12:28:39Z</time>
      </trkpt>
      <trkpt lat="45.07808" lon="5.64359">
        <ele>500.6</ele>
        <time>2010-11-19T12:28:43Z</time>
      </trkpt>
      <trkpt lat="45.07809" lon="5.64354">
        <ele>501</ele>
        <time>2010-11-19T12:28:47Z</time>
      </trkpt>
      <trkpt lat="45.07809" lon="5.6435">
        <ele>501.4</ele>
        <time>2010-11-19T12:28:50Z</time>
      </trkpt>
      <trkpt lat="45.07808" lon="5.64347">
        <ele>501.6</ele>
        <time>2010-11-19T12:28:52Z</time>
      </trkpt>
      <trkpt lat="45.07808" lon="5.64344">
        <ele>501.8</ele>
        <time>2010-11-19T12:28:54Z</time>
      </trkpt>
      <trkpt lat="45.07809" lon="5.64341">
        <ele>502</ele>
        <time>2010-11-19T12:28:56Z</time>
      </trkpt>
      <trkpt lat="45.07809" lon="5.64337">
        <ele>502.2</ele>
        <time>2010-11-19T12:28:59Z</time>
      </trkpt>
      <trkpt lat="45.07809" lon="5.64336">
        <ele>502.4</ele>
        <time>2010-11-19T12:29:00Z</time>
      </trkpt>
      <trkpt lat="45.0781" lon="5.64334">
        <ele>502.6</ele>
        <time>2010-11-19T12:29:02Z</time>
      </trkpt>
      <trkpt lat="45.07811" lon="5.64332">
        <ele>503</ele>
        <time>2010-11-19T12:29:04Z</time>
      </trkpt>
      <trkpt lat="45.07813" lon="5.64326">
        <ele>504</ele>
        <time>2010-11-19T12:29:09Z</time>
      </trkpt>
      <trkpt lat="45.07814" lon="5.64323">
        <ele>504.4</ele>
        <time>2010-11-19T12:29:11Z</time>
      </trkpt>
      <trkpt lat="45.07814" lon="5.6432">
        <ele>505</ele>
        <time>2010-11-19T12:29:13Z</time>
      </trkpt>
      <trkpt lat="45.07815" lon="5.64319">
        <ele>505.2</ele>
        <time>2010-11-19T12:29:14Z</time>
      </trkpt>
      <trkpt lat="45.07815" lon="5.64315">
        <ele>505.4</ele>
        <time>2010-11-19T12:29:17Z</time>
      </trkpt>
      <trkpt lat="45.07814" lon="5.6431">
        <ele>505.8</ele>
        <time>2010-11-19T12:29:20Z</time>
      </trkpt>
      <trkpt lat="45.07811" lon="5.64305">
        <ele>506.2</ele>
        <time>2010-11-19T12:29:24Z</time>
      </trkpt>
      <trkpt lat="45.07807" lon="5.64298">
        <ele>506.6</ele>
        <time>2010-11-19T12:29:29Z</time>
      </trkpt>
      <trkpt lat="45.07806" lon="5.64294">
        <ele>506.8</ele>
        <time>2010-11-19T12:29:31Z</time>
      </trkpt>
      <trkpt lat="45.07806" lon="5.64285">
        <ele>507.4</ele>
        <time>2010-11-19T12:29:37Z</time>
      </trkpt>
      <trkpt lat="45.07805" lon="5.64279">
        <ele>508</ele>
        <time>2010-11-19T12:29:41Z</time>
      </trkpt>
      <trkpt lat="45.07804" lon="5.64277">
        <ele>508</ele>
        <time>2010-11-19T12:29:42Z</time>
      </trkpt>
      <trkpt lat="45.07802" lon="5.64274">
        <ele>508</ele>
        <time>2010-11-19T12:29:44Z</time>
      </trkpt>
      <trkpt lat="45.07799" lon="5.64268">
        <ele>508.4</ele>
        <time>2010-11-19T12:29:48Z</time>
      </trkpt>
      <trkpt lat="45.07794" lon="5.64263">
        <ele>508.8</ele>
        <time>2010-11-19T12:29:53Z</time>
      </trkpt>
      <trkpt lat="45.07789" lon="5.64261">
        <ele>509.6</ele>
        <time>2010-11-19T12:29:58Z</time>
      </trkpt>
      <trkpt lat="45.07787" lon="5.6426">
        <ele>509.6</ele>
        <time>2010-11-19T12:30:00Z</time>
      </trkpt>
      <trkpt lat="45.07784" lon="5.64259">
        <ele>510</ele>
        <time>2010-11-19T12:30:03Z</time>
      </trkpt>
      <trkpt lat="45.07781" lon="5.64258">
        <ele>510.6</ele>
        <time>2010-11-19T12:30:06Z</time>
      </trkpt>
      <trkpt lat="45.0778" lon="5.64257">
        <ele>510.8</ele>
        <time>2010-11-19T12:30:08Z</time>
      </trkpt>
      <trkpt lat="45.07778" lon="5.64257">
        <ele>511.2</ele>
        <time>2010-11-19T12:30:10Z</time>
      </trkpt>
      <trkpt lat="45.07776" lon="5.64257">
        <ele>511.6</ele>
        <time>2010-11-19T12:30:12Z</time>
      </trkpt>
      <trkpt lat="45.07775" lon="5.64257">
        <ele>511.8</ele>
        <time>2010-11-19T12:30:13Z</time>
      </trkpt>
      <trkpt lat="45.07773" lon="5.64256">
        <ele>512.2</ele>
        <time>2010-11-19T12:30:16Z</time>
      </trkpt>
      <trkpt lat="45.07772" lon="5.64255">
        <ele>512.4</ele>
        <time>2010-11-19T12:30:17Z</time>
      </trkpt>
      <trkpt lat="45.0777" lon="5.64254">
        <ele>513</ele>
        <time>2010-11-19T12:30:20Z</time>
      </trkpt>
      <trkpt lat="45.07769" lon="5.64254">
        <ele>513.2</ele>
        <time>2010-11-19T12:30:21Z</time>
      </trkpt>
      <trkpt lat="45.07768" lon="5.64253">
        <ele>513.2</ele>
        <time>2010-11-19T12:30:22Z</time>
      </trkpt>
      <trkpt lat="45.07766" lon="5.6425">
        <ele>514</ele>
        <time>2010-11-19T12:30:26Z</time>
      </trkpt>
      <trkpt lat="45.07765" lon="5.64248">
        <ele>514.2</ele>
        <time>2010-11-19T12:30:27Z</time>
      </trkpt>
      <trkpt lat="45.07764" lon="5.64247">
        <ele>514.6</ele>
        <time>2010-11-19T12:30:29Z</time>
      </trkpt>
      <trkpt lat="45.07763" lon="5.64245">
        <ele>515.4</ele>
        <time>2010-11-19T12:30:32Z</time>
      </trkpt>
      <trkpt lat="45.07763" lon="5.64243">
        <ele>515.6</ele>
        <time>2010-11-19T12:30:33Z</time>
      </trkpt>
      <trkpt lat="45.07762" lon="5.64239">
        <ele>516.4</ele>
        <time>2010-11-19T12:30:37Z</time>
      </trkpt>
      <trkpt lat="45.0776" lon="5.64233">
        <ele>517.6</ele>
        <time>2010-11-19T12:30:42Z</time>
      </trkpt>
      <trkpt lat="45.0776" lon="5.64233">
        <ele>518</ele>
        <time>2010-11-19T12:30:43Z</time>
      </trkpt>
      <trkpt lat="45.0776" lon="5.64229">
        <ele>519.2</ele>
        <time>2010-11-19T12:30:47Z</time>
      </trkpt>
      <trkpt lat="45.0776" lon="5.64224">
        <ele>520.4</ele>
        <time>2010-11-19T12:30:51Z</time>
      </trkpt>
      <trkpt lat="45.07761" lon="5.64219">
        <ele>521.2</ele>
        <time>2010-11-19T12:30:55Z</time>
      </trkpt>
      <trkpt lat="45.0776" lon="5.64216">
        <ele>523</ele>
        <time>2010-11-19T12:31:00Z</time>
      </trkpt>
      <trkpt lat="45.0776" lon="5.64211">
        <ele>523.8</ele>
        <time>2010-11-19T12:31:04Z</time>
      </trkpt>
      <trkpt lat="45.07759" lon="5.64206">
        <ele>525.2</ele>
        <time>2010-11-19T12:31:10Z</time>
      </trkpt>
      <trkpt lat="45.07759" lon="5.64201">
        <ele>526.4</ele>
        <time>2010-11-19T12:31:14Z</time>
      </trkpt>
      <trkpt lat="45.07758" lon="5.64198">
        <ele>527.8</ele>
        <time>2010-11-19T12:31:18Z</time>
      </trkpt>
      <trkpt lat="45.07758" lon="5.64193">
        <ele>529.2</ele>
        <time>2010-11-19T12:31:22Z</time>
      </trkpt>
      <trkpt lat="45.07759" lon="5.6419">
        <ele>530</ele>
        <time>2010-11-19T12:31:24Z</time>
      </trkpt>
      <trkpt lat="45.0776" lon="5.64186">
        <ele>531.6</ele>
        <time>2010-11-19T12:31:28Z</time>
      </trkpt>
      <trkpt lat="45.07761" lon="5.64185">
        <ele>532</ele>
        <time>2010-11-19T12:31:29Z</time>
      </trkpt>
      <trkpt lat="45.07762" lon="5.64183">
        <ele>532.4</ele>
        <time>2010-11-19T12:31:31Z</time>
      </trkpt>
      <trkpt lat="45.07763" lon="5.6418">
        <ele>533.2</ele>
        <time>2010-11-19T12:31:33Z</time>
      </trkpt>
      <trkpt lat="45.07764" lon="5.64176">
        <ele>534.6</ele>
        <time>2010-11-19T12:31:36Z</time>
      </trkpt>
      <trkpt lat="45.07764" lon="5.64173">
        <ele>535.6</ele>
        <time>2010-11-19T12:31:38Z</time>
      </trkpt>
      <trkpt lat="45.07764" lon="5.64172">
        <ele>536</ele>
        <time>2010-11-19T12:31:39Z</time>
      </trkpt>
      <trkpt lat="45.07765" lon="5.6417">
        <ele>537</ele>
        <time>2010-11-19T12:31:41Z</time>
      </trkpt>
      <trkpt lat="45.07767" lon="5.64165">
        <ele>539</ele>
        <time>2010-11-19T12:31:45Z</time>
      </trkpt>
      <trkpt lat="45.07768" lon="5.64164">
        <ele>539.6</ele>
        <time>2010-11-19T12:31:46Z</time>
      </trkpt>
      <trkpt lat="45.0777" lon="5.64162">
        <ele>542.4</ele>
        <time>2010-11-19T12:31:50Z</time>
      </trkpt>
      <trkpt lat="45.07772" lon="5.64158">
        <ele>543.4</ele>
        <time>2010-11-19T12:31:53Z</time>
      </trkpt>
      <trkpt lat="45.07774" lon="5.64156">
        <ele>544</ele>
        <time>2010-11-19T12:31:55Z</time>
      </trkpt>
      <trkpt lat="45.07774" lon="5.64155">
        <ele>544.4</ele>
        <time>2010-11-19T12:31:56Z</time>
      </trkpt>
      <trkpt lat="45.07775" lon="5.64153">
        <ele>547.2</ele>
        <time>2010-11-19T12:32:00Z</time>
      </trkpt>
      <trkpt lat="45.07776" lon="5.64146">
        <ele>553</ele>
        <time>2010-11-19T12:32:07Z</time>
      </trkpt>
      <trkpt lat="45.07778" lon="5.6414">
        <ele>557.6</ele>
        <time>2010-11-19T12:32:12Z</time>
      </trkpt>
      <trkpt lat="45.0778" lon="5.64138">
        <ele>560</ele>
        <time>2010-11-19T12:32:15Z</time>
      </trkpt>
      <trkpt lat="45.0778" lon="5.64135">
        <ele>561.8</ele>
        <time>2010-11-19T12:32:17Z</time>
      </trkpt>
      <trkpt lat="45.07781" lon="5.64134">
        <ele>562.2</ele>
        <time>2010-11-19T12:32:18Z</time>
      </trkpt>
      <trkpt lat="45.07783" lon="5.64129">
        <ele>564.6</ele>
        <time>2010-11-19T12:32:22Z</time>
      </trkpt>
      <trkpt lat="45.07784" lon="5.64126">
        <ele>565.6</ele>
        <time>2010-11-19T12:32:24Z</time>
      </trkpt>
      <trkpt lat="45.07784" lon="5.64124">
        <ele>567</ele>
        <time>2010-11-19T12:32:26Z</time>
      </trkpt>
      <trkpt lat="45.07786" lon="5.64116">
        <ele>568.4</ele>
        <time>2010-11-19T12:32:30Z</time>
      </trkpt>
      <trkpt lat="45.07786" lon="5.64109">
        <ele>570.4</ele>
        <time>2010-11-19T12:32:34Z</time>
      </trkpt>
      <trkpt lat="45.07787" lon="5.64105">
        <ele>571.2</ele>
        <time>2010-11-19T12:32:36Z</time>
      </trkpt>
      <trkpt lat="45.07788" lon="5.64099">
        <ele>573</ele>
        <time>2010-11-19T12:32:40Z</time>
      </trkpt>
      <trkpt lat="45.07787" lon="5.64095">
        <ele>573.4</ele>
        <time>2010-11-19T12:32:42Z</time>
      </trkpt>
      <trkpt lat="45.07786" lon="5.64086">
        <ele>575.8</ele>
        <time>2010-11-19T12:32:48Z</time>
      </trkpt>
      <trkpt lat="45.07785" lon="5.64084">
        <ele>576.2</ele>
        <time>2010-11-19T12:32:50Z</time>
      </trkpt>
      <trkpt lat="45.07785" lon="5.64082">
        <ele>576.6</ele>
        <time>2010-11-19T12:32:51Z</time>
      </trkpt>
      <trkpt lat="45.07784" lon="5.64081">
        <ele>577.6</ele>
        <time>2010-11-19T12:32:53Z</time>
      </trkpt>
      <trkpt lat="45.07783" lon="5.64078">
        <ele>578.6</ele>
        <time>2010-11-19T12:32:56Z</time>
      </trkpt>
      <trkpt lat="45.07782" lon="5.64075">
        <ele>578.8</ele>
        <time>2010-11-19T12:32:59Z</time>
      </trkpt>
      <trkpt lat="45.07782" lon="5.64072">
        <ele>579.4</ele>
        <time>2010-11-19T12:33:01Z</time>
      </trkpt>
      <trkpt lat="45.07782" lon="5.6407">
        <ele>580</ele>
        <time>2010-11-19T12:33:02Z</time>
      </trkpt>
      <trkpt lat="45.07781" lon="5.64065">
        <ele>581.2</ele>
        <time>2010-11-19T12:33:06Z</time>
      </trkpt>
      <trkpt lat="45.07781" lon="5.64059">
        <ele>581.8</ele>
        <time>2010-11-19T12:33:11Z</time>
      </trkpt>
      <trkpt lat="45.07781" lon="5.64058">
        <ele>582</ele>
        <time>2010-11-19T12:33:12Z</time>
      </trkpt>
      <trkpt lat="45.07781" lon="5.64053">
        <ele>582.2</ele>
        <time>2010-11-19T12:33:15Z</time>
      </trkpt>
      <trkpt lat="45.07781" lon="5.64051">
        <ele>582.2</ele>
        <time>2010-11-19T12:33:16Z</time>
      </trkpt>
      <trkpt lat="45.07781" lon="5.64042">
        <ele>581.8</ele>
        <time>2010-11-19T12:33:20Z</time>
      </trkpt>
      <trkpt lat="45.07781" lon="5.64035">
        <ele>581.6</ele>
        <time>2010-11-19T12:33:23Z</time>
      </trkpt>
      <trkpt lat="45.07781" lon="5.64033">
        <ele>581.6</ele>
        <time>2010-11-19T12:33:24Z</time>
      </trkpt>
      <trkpt lat="45.07781" lon="5.64032">
        <ele>581.4</ele>
        <time>2010-11-19T12:33:25Z</time>
      </trkpt>
      <trkpt lat="45.0778" lon="5.6403">
        <ele>581.4</ele>
        <time>2010-11-19T12:33:26Z</time>
      </trkpt>
      <trkpt lat="45.0778" lon="5.64025">
        <ele>581.2</ele>
        <time>2010-11-19T12:33:29Z</time>
      </trkpt>
      <trkpt lat="45.07779" lon="5.64024">
        <ele>581</ele>
        <time>2010-11-19T12:33:30Z</time>
      </trkpt>
      <trkpt lat="45.07779" lon="5.6402">
        <ele>580.8</ele>
        <time>2010-11-19T12:33:34Z</time>
      </trkpt>
      <trkpt lat="45.07778" lon="5.64016">
        <ele>580.4</ele>
        <time>2010-11-19T12:33:37Z</time>
      </trkpt>
      <trkpt lat="45.07778" lon="5.64014">
        <ele>580.2</ele>
        <time>2010-11-19T12:33:39Z</time>
      </trkpt>
      <trkpt lat="45.07778" lon="5.64012">
        <ele>580.2</ele>
        <time>2010-11-19T12:33:40Z</time>
      </trkpt>
      <trkpt lat="45.07778" lon="5.64007">
        <ele>579.8</ele>
        <time>2010-11-19T12:33:44Z</time>
      </trkpt>
      <trkpt lat="45.07781" lon="5.64001">
        <ele>579.8</ele>
        <time>2010-11-19T12:33:49Z</time>
      </trkpt>
      <trkpt lat="45.07781" lon="5.64001">
        <ele>579.8</ele>
        <time>2010-11-19T12:33:50Z</time>
      </trkpt>
      <trkpt lat="45.07783" lon="5.63996">
        <ele>580</ele>
        <time>2010-11-19T12:33:54Z</time>
      </trkpt>
      <trkpt lat="45.07783" lon="5.63995">
        <ele>580.2</ele>
        <time>2010-11-19T12:33:55Z</time>
      </trkpt>
      <trkpt lat="45.07787" lon="5.6399">
        <ele>580.4</ele>
        <time>2010-11-19T12:33:59Z</time>
      </trkpt>
      <trkpt lat="45.07788" lon="5.63986">
        <ele>581.2</ele>
        <time>2010-11-19T12:34:02Z</time>
      </trkpt>
      <trkpt lat="45.07788" lon="5.63981">
        <ele>582.2</ele>
        <time>2010-11-19T12:34:05Z</time>
      </trkpt>
      <trkpt lat="45.0779" lon="5.63972">
        <ele>582.6</ele>
        <time>2010-11-19T12:34:11Z</time>
      </trkpt>
      <trkpt lat="45.0779" lon="5.63971">
        <ele>582.8</ele>
        <time>2010-11-19T12:34:12Z</time>
      </trkpt>
      <trkpt lat="45.07791" lon="5.63963">
        <ele>583.4</ele>
        <time>2010-11-19T12:34:17Z</time>
      </trkpt>
      <trkpt lat="45.07791" lon="5.63961">
        <ele>583.4</ele>
        <time>2010-11-19T12:34:18Z</time>
      </trkpt>
      <trkpt lat="45.07791" lon="5.6396">
        <ele>583.4</ele>
        <time>2010-11-19T12:34:19Z</time>
      </trkpt>
      <trkpt lat="45.0779" lon="5.63956">
        <ele>583.8</ele>
        <time>2010-11-19T12:34:22Z</time>
      </trkpt>
      <trkpt lat="45.07788" lon="5.63948">
        <ele>584.2</ele>
        <time>2010-11-19T12:34:28Z</time>
      </trkpt>
      <trkpt lat="45.07788" lon="5.63941">
        <ele>584.2</ele>
        <time>2010-11-19T12:34:33Z</time>
      </trkpt>
      <trkpt lat="45.07788" lon="5.63938">
        <ele>584.2</ele>
        <time>2010-11-19T12:34:35Z</time>
      </trkpt>
      <trkpt lat="45.07788" lon="5.63936">
        <ele>584.2</ele>
        <time>2010-11-19T12:34:37Z</time>
      </trkpt>
      <trkpt lat="45.07788" lon="5.63934">
        <ele>584.4</ele>
        <time>2010-11-19T12:34:39Z</time>
      </trkpt>
      <trkpt lat="45.07788" lon="5.63932">
        <ele>584.4</ele>
        <time>2010-11-19T12:34:41Z</time>
      </trkpt>
      <trkpt lat="45.07786" lon="5.63926">
        <ele>584.6</ele>
        <time>2010-11-19T12:34:45Z</time>
      </trkpt>
      <trkpt lat="45.07785" lon="5.63921">
        <ele>585</ele>
        <time>2010-11-19T12:34:49Z</time>
      </trkpt>
      <trkpt lat="45.07782" lon="5.63917">
        <ele>585.2</ele>
        <time>2010-11-19T12:34:52Z</time>
      </trkpt>
      <trkpt lat="45.0778" lon="5.63914">
        <ele>585.4</ele>
        <time>2010-11-19T12:34:55Z</time>
      </trkpt>
      <trkpt lat="45.07779" lon="5.63912">
        <ele>585.4</ele>
        <time>2010-11-19T12:34:56Z</time>
      </trkpt>
      <trkpt lat="45.07778" lon="5.63911">
        <ele>585.6</ele>
        <time>2010-11-19T12:34:57Z</time>
      </trkpt>
      <trkpt lat="45.07776" lon="5.63909">
        <ele>585.8</ele>
        <time>2010-11-19T12:34:59Z</time>
      </trkpt>
      <trkpt lat="45.07772" lon="5.63905">
        <ele>586.4</ele>
        <time>2010-11-19T12:35:04Z</time>
      </trkpt>
      <trkpt lat="45.0777" lon="5.63903">
        <ele>586.6</ele>
        <time>2010-11-19T12:35:06Z</time>
      </trkpt>
      <trkpt lat="45.07767" lon="5.639">
        <ele>586.8</ele>
        <time>2010-11-19T12:35:09Z</time>
      </trkpt>
      <trkpt lat="45.07764" lon="5.63896">
        <ele>587.4</ele>
        <time>2010-11-19T12:35:13Z</time>
      </trkpt>
      <trkpt lat="45.07761" lon="5.63893">
        <ele>587.6</ele>
        <time>2010-11-19T12:35:17Z</time>
      </trkpt>
      <trkpt lat="45.07759" lon="5.6389">
        <ele>587.8</ele>
        <time>2010-11-19T12:35:20Z</time>
      </trkpt>
      <trkpt lat="45.07757" lon="5.63888">
        <ele>587.8</ele>
        <time>2010-11-19T12:35:22Z</time>
      </trkpt>
      <trkpt lat="45.07756" lon="5.63887">
        <ele>588</ele>
        <time>2010-11-19T12:35:23Z</time>
      </trkpt>
      <trkpt lat="45.07753" lon="5.63885">
        <ele>588</ele>
        <time>2010-11-19T12:35:27Z</time>
      </trkpt>
      <trkpt lat="45.07748" lon="5.63883">
        <ele>588.4</ele>
        <time>2010-11-19T12:35:32Z</time>
      </trkpt>
      <trkpt lat="45.07747" lon="5.63882">
        <ele>588.4</ele>
        <time>2010-11-19T12:35:33Z</time>
      </trkpt>
      <trkpt lat="45.07746" lon="5.63881">
        <ele>588.6</ele>
        <time>2010-11-19T12:35:34Z</time>
      </trkpt>
      <trkpt lat="45.07743" lon="5.63875">
        <ele>589.2</ele>
        <time>2010-11-19T12:35:38Z</time>
      </trkpt>
      <trkpt lat="45.07745" lon="5.63868">
        <ele>590</ele>
        <time>2010-11-19T12:35:43Z</time>
      </trkpt>
      <trkpt lat="45.07746" lon="5.63861">
        <ele>591.8</ele>
        <time>2010-11-19T12:35:48Z</time>
      </trkpt>
      <trkpt lat="45.07746" lon="5.63859">
        <ele>592.2</ele>
        <time>2010-11-19T12:35:49Z</time>
      </trkpt>
      <trkpt lat="45.07746" lon="5.63858">
        <ele>592.6</ele>
        <time>2010-11-19T12:35:50Z</time>
      </trkpt>
      <trkpt lat="45.07745" lon="5.63854">
        <ele>593.6</ele>
        <time>2010-11-19T12:35:52Z</time>
      </trkpt>
      <trkpt lat="45.07743" lon="5.63849">
        <ele>594.4</ele>
        <time>2010-11-19T12:35:55Z</time>
      </trkpt>
      <trkpt lat="45.07741" lon="5.63843">
        <ele>595.2</ele>
        <time>2010-11-19T12:35:58Z</time>
      </trkpt>
      <trkpt lat="45.07741" lon="5.63841">
        <ele>595.4</ele>
        <time>2010-11-19T12:35:59Z</time>
      </trkpt>
      <trkpt lat="45.07739" lon="5.63835">
        <ele>596.2</ele>
        <time>2010-11-19T12:36:02Z</time>
      </trkpt>
      <trkpt lat="45.07734" lon="5.63825">
        <ele>597.6</ele>
        <time>2010-11-19T12:36:08Z</time>
      </trkpt>
      <trkpt lat="45.0773" lon="5.63814">
        <ele>597.6</ele>
        <time>2010-11-19T12:36:13Z</time>
      </trkpt>
      <trkpt lat="45.07728" lon="5.63812">
        <ele>597.6</ele>
        <time>2010-11-19T12:36:14Z</time>
      </trkpt>
      <trkpt lat="45.07726" lon="5.63809">
        <ele>597.6</ele>
        <time>2010-11-19T12:36:16Z</time>
      </trkpt>
      <trkpt lat="45.07722" lon="5.63805">
        <ele>597.4</ele>
        <time>2010-11-19T12:36:19Z</time>
      </trkpt>
      <trkpt lat="45.07721" lon="5.63805">
        <ele>597.4</ele>
        <time>2010-11-19T12:36:20Z</time>
      </trkpt>
      <trkpt lat="45.07711" lon="5.638">
        <ele>597</ele>
        <time>2010-11-19T12:36:27Z</time>
      </trkpt>
      <trkpt lat="45.0771" lon="5.63798">
        <ele>597</ele>
        <time>2010-11-19T12:36:28Z</time>
      </trkpt>
      <trkpt lat="45.07707" lon="5.63792">
        <ele>596.8</ele>
        <time>2010-11-19T12:36:32Z</time>
      </trkpt>
      <trkpt lat="45.07705" lon="5.63785">
        <ele>596.8</ele>
        <time>2010-11-19T12:36:36Z</time>
      </trkpt>
      <trkpt lat="45.07701" lon="5.63778">
        <ele>596.4</ele>
        <time>2010-11-19T12:36:41Z</time>
      </trkpt>
      <trkpt lat="45.07698" lon="5.63778">
        <ele>596.4</ele>
        <time>2010-11-19T12:36:43Z</time>
      </trkpt>
      <trkpt lat="45.07688" lon="5.63776">
        <ele>596.2</ele>
        <time>2010-11-19T12:36:51Z</time>
      </trkpt>
      <trkpt lat="45.07682" lon="5.63772">
        <ele>596.8</ele>
        <time>2010-11-19T12:36:55Z</time>
      </trkpt>
      <trkpt lat="45.07681" lon="5.63772">
        <ele>597</ele>
        <time>2010-11-19T12:36:56Z</time>
      </trkpt>
      <trkpt lat="45.07669" lon="5.63766">
        <ele>597.8</ele>
        <time>2010-11-19T12:37:03Z</time>
      </trkpt>
      <trkpt lat="45.07664" lon="5.63763">
        <ele>598</ele>
        <time>2010-11-19T12:37:06Z</time>
      </trkpt>
      <trkpt lat="45.07653" lon="5.63762">
        <ele>599</ele>
        <time>2010-11-19T12:37:09Z</time>
      </trkpt>
      <trkpt lat="45.07646" lon="5.63762">
        <ele>598.6</ele>
        <time>2010-11-19T12:37:12Z</time>
      </trkpt>
      <trkpt lat="45.07635" lon="5.63763">
        <ele>598.6</ele>
        <time>2010-11-19T12:37:16Z</time>
      </trkpt>
      <trkpt lat="45.07627" lon="5.63764">
        <ele>598.6</ele>
        <time>2010-11-19T12:37:19Z</time>
      </trkpt>
      <trkpt lat="45.07623" lon="5.63764">
        <ele>598.4</ele>
        <time>2010-11-19T12:37:21Z</time>
      </trkpt>
      <trkpt lat="45.07614" lon="5.63755">
        <ele>598</ele>
        <time>2010-11-19T12:37:26Z</time>
      </trkpt>
      <trkpt lat="45.07609" lon="5.63753">
        <ele>597.8</ele>
        <time>2010-11-19T12:37:28Z</time>
      </trkpt>
      <trkpt lat="45.07601" lon="5.63748">
        <ele>597.4</ele>
        <time>2010-11-19T12:37:32Z</time>
      </trkpt>
      <trkpt lat="45.07591" lon="5.63744">
        <ele>597</ele>
        <time>2010-11-19T12:37:36Z</time>
      </trkpt>
      <trkpt lat="45.07588" lon="5.63741">
        <ele>596.8</ele>
        <time>2010-11-19T12:37:38Z</time>
      </trkpt>
      <trkpt lat="45.07575" lon="5.63731">
        <ele>596</ele>
        <time>2010-11-19T12:37:44Z</time>
      </trkpt>
      <trkpt lat="45.07567" lon="5.63726">
        <ele>595.6</ele>
        <time>2010-11-19T12:37:48Z</time>
      </trkpt>
      <trkpt lat="45.07564" lon="5.63722">
        <ele>595.4</ele>
        <time>2010-11-19T12:37:50Z</time>
      </trkpt>
      <trkpt lat="45.07562" lon="5.63716">
        <ele>594.6</ele>
        <time>2010-11-19T12:37:53Z</time>
      </trkpt>
      <trkpt lat="45.07561" lon="5.63715">
        <ele>594.6</ele>
        <time>2010-11-19T12:37:54Z</time>
      </trkpt>
      <trkpt lat="45.0756" lon="5.63708">
        <ele>594</ele>
        <time>2010-11-19T12:37:57Z</time>
      </trkpt>
      <trkpt lat="45.07558" lon="5.637">
        <ele>593.2</ele>
        <time>2010-11-19T12:38:03Z</time>
      </trkpt>
      <trkpt lat="45.07558" lon="5.63696">
        <ele>592.8</ele>
        <time>2010-11-19T12:38:07Z</time>
      </trkpt>
      <trkpt lat="45.07558" lon="5.63693">
        <ele>592.4</ele>
        <time>2010-11-19T12:38:10Z</time>
      </trkpt>
      <trkpt lat="45.07559" lon="5.63692">
        <ele>592.4</ele>
        <time>2010-11-19T12:38:11Z</time>
      </trkpt>
      <trkpt lat="45.07559" lon="5.6369">
        <ele>592.2</ele>
        <time>2010-11-19T12:38:14Z</time>
      </trkpt>
      <trkpt lat="45.07558" lon="5.63689">
        <ele>592</ele>
        <time>2010-11-19T12:38:15Z</time>
      </trkpt>
      <trkpt lat="45.07559" lon="5.63684">
        <ele>591.8</ele>
        <time>2010-11-19T12:38:20Z</time>
      </trkpt>
      <trkpt lat="45.0756" lon="5.63681">
        <ele>591.4</ele>
        <time>2010-11-19T12:38:24Z</time>
      </trkpt>
      <trkpt lat="45.0756" lon="5.63676">
        <ele>591.2</ele>
        <time>2010-11-19T12:38:29Z</time>
      </trkpt>
      <trkpt lat="45.07561" lon="5.63673">
        <ele>591</ele>
        <time>2010-11-19T12:38:34Z</time>
      </trkpt>
      <trkpt lat="45.07564" lon="5.63669">
        <ele>590.8</ele>
        <time>2010-11-19T12:38:40Z</time>
      </trkpt>
      <trkpt lat="45.07565" lon="5.63665">
        <ele>590.6</ele>
        <time>2010-11-19T12:38:46Z</time>
      </trkpt>
      <trkpt lat="45.07566" lon="5.63664">
        <ele>590.6</ele>
        <time>2010-11-19T12:38:47Z</time>
      </trkpt>
      <trkpt lat="45.07567" lon="5.6366">
        <ele>590.6</ele>
        <time>2010-11-19T12:38:52Z</time>
      </trkpt>
      <trkpt lat="45.07568" lon="5.63657">
        <ele>590.8</ele>
        <time>2010-11-19T12:38:56Z</time>
      </trkpt>
      <trkpt lat="45.07568" lon="5.63653">
        <ele>591</ele>
        <time>2010-11-19T12:39:00Z</time>
      </trkpt>
      <trkpt lat="45.07569" lon="5.6365">
        <ele>591.6</ele>
        <time>2010-11-19T12:39:04Z</time>
      </trkpt>
      <trkpt lat="45.07569" lon="5.63647">
        <ele>592.8</ele>
        <time>2010-11-19T12:39:09Z</time>
      </trkpt>
      <trkpt lat="45.07569" lon="5.63643">
        <ele>593.6</ele>
        <time>2010-11-19T12:39:12Z</time>
      </trkpt>
      <trkpt lat="45.07569" lon="5.63642">
        <ele>593.8</ele>
        <time>2010-11-19T12:39:13Z</time>
      </trkpt>
      <trkpt lat="45.07569" lon="5.6364">
        <ele>594.4</ele>
        <time>2010-11-19T12:39:15Z</time>
      </trkpt>
      <trkpt lat="45.07569" lon="5.63637">
        <ele>595.2</ele>
        <time>2010-11-19T12:39:19Z</time>
      </trkpt>
      <trkpt lat="45.0757" lon="5.63633">
        <ele>596.4</ele>
        <time>2010-11-19T12:39:22Z</time>
      </trkpt>
      <trkpt lat="45.0757" lon="5.63628">
        <ele>597.6</ele>
        <time>2010-11-19T12:39:26Z</time>
      </trkpt>
      <trkpt lat="45.07571" lon="5.63627">
        <ele>597.8</ele>
        <time>2010-11-19T12:39:27Z</time>
      </trkpt>
      <trkpt lat="45.07571" lon="5.63626">
        <ele>598</ele>
        <time>2010-11-19T12:39:28Z</time>
      </trkpt>
      <trkpt lat="45.07572" lon="5.63621">
        <ele>598.8</ele>
        <time>2010-11-19T12:39:32Z</time>
      </trkpt>
      <trkpt lat="45.07572" lon="5.63621">
        <ele>599.2</ele>
        <time>2010-11-19T12:39:33Z</time>
      </trkpt>
      <trkpt lat="45.07571" lon="5.63617">
        <ele>600</ele>
        <time>2010-11-19T12:39:36Z</time>
      </trkpt>
      <trkpt lat="45.07571" lon="5.63616">
        <ele>600.4</ele>
        <time>2010-11-19T12:39:37Z</time>
      </trkpt>
      <trkpt lat="45.07571" lon="5.63615">
        <ele>600.6</ele>
        <time>2010-11-19T12:39:39Z</time>
      </trkpt>
      <trkpt lat="45.0757" lon="5.63613">
        <ele>601.8</ele>
        <time>2010-11-19T12:39:41Z</time>
      </trkpt>
      <trkpt lat="45.07569" lon="5.6361">
        <ele>604</ele>
        <time>2010-11-19T12:39:46Z</time>
      </trkpt>
      <trkpt lat="45.07568" lon="5.63605">
        <ele>606</ele>
        <time>2010-11-19T12:39:51Z</time>
      </trkpt>
      <trkpt lat="45.07567" lon="5.63601">
        <ele>607.6</ele>
        <time>2010-11-19T12:39:55Z</time>
      </trkpt>
      <trkpt lat="45.07566" lon="5.63597">
        <ele>609.2</ele>
        <time>2010-11-19T12:39:59Z</time>
      </trkpt>
      <trkpt lat="45.07565" lon="5.63593">
        <ele>610.2</ele>
        <time>2010-11-19T12:40:02Z</time>
      </trkpt>
      <trkpt lat="45.07565" lon="5.63591">
        <ele>611</ele>
        <time>2010-11-19T12:40:04Z</time>
      </trkpt>
      <trkpt lat="45.07563" lon="5.63588">
        <ele>612</ele>
        <time>2010-11-19T12:40:07Z</time>
      </trkpt>
      <trkpt lat="45.07563" lon="5.63584">
        <ele>612.2</ele>
        <time>2010-11-19T12:40:09Z</time>
      </trkpt>
      <trkpt lat="45.07563" lon="5.63583">
        <ele>613</ele>
        <time>2010-11-19T12:40:11Z</time>
      </trkpt>
      <trkpt lat="45.07562" lon="5.6358">
        <ele>614</ele>
        <time>2010-11-19T12:40:14Z</time>
      </trkpt>
      <trkpt lat="45.07563" lon="5.63578">
        <ele>614</ele>
        <time>2010-11-19T12:40:15Z</time>
      </trkpt>
      <trkpt lat="45.07564" lon="5.63569">
        <ele>614.2</ele>
        <time>2010-11-19T12:40:19Z</time>
      </trkpt>
      <trkpt lat="45.07565" lon="5.63567">
        <ele>614.2</ele>
        <time>2010-11-19T12:40:21Z</time>
      </trkpt>
      <trkpt lat="45.07566" lon="5.63565">
        <ele>614.4</ele>
        <time>2010-11-19T12:40:23Z</time>
      </trkpt>
      <trkpt lat="45.07568" lon="5.63563">
        <ele>614.6</ele>
        <time>2010-11-19T12:40:27Z</time>
      </trkpt>
      <trkpt lat="45.07568" lon="5.63559">
        <ele>615</ele>
        <time>2010-11-19T12:40:31Z</time>
      </trkpt>
      <trkpt lat="45.07569" lon="5.63554">
        <ele>615.4</ele>
        <time>2010-11-19T12:40:36Z</time>
      </trkpt>
      <trkpt lat="45.07569" lon="5.63551">
        <ele>616</ele>
        <time>2010-11-19T12:40:40Z</time>
      </trkpt>
      <trkpt lat="45.07569" lon="5.63547">
        <ele>616.6</ele>
        <time>2010-11-19T12:40:43Z</time>
      </trkpt>
      <trkpt lat="45.07569" lon="5.63546">
        <ele>616.6</ele>
        <time>2010-11-19T12:40:45Z</time>
      </trkpt>
      <trkpt lat="45.0757" lon="5.63545">
        <ele>617.4</ele>
        <time>2010-11-19T12:40:46Z</time>
      </trkpt>
      <trkpt lat="45.0757" lon="5.63543">
        <ele>617.6</ele>
        <time>2010-11-19T12:40:48Z</time>
      </trkpt>
      <trkpt lat="45.07569" lon="5.63539">
        <ele>618.6</ele>
        <time>2010-11-19T12:40:53Z</time>
      </trkpt>
      <trkpt lat="45.07569" lon="5.63534">
        <ele>619.4</ele>
        <time>2010-11-19T12:40:57Z</time>
      </trkpt>
      <trkpt lat="45.0757" lon="5.63528">
        <ele>620.2</ele>
        <time>2010-11-19T12:41:02Z</time>
      </trkpt>
      <trkpt lat="45.07571" lon="5.63525">
        <ele>620.6</ele>
        <time>2010-11-19T12:41:05Z</time>
      </trkpt>
      <trkpt lat="45.07571" lon="5.63524">
        <ele>620.8</ele>
        <time>2010-11-19T12:41:06Z</time>
      </trkpt>
      <trkpt lat="45.07572" lon="5.6352">
        <ele>621.4</ele>
        <time>2010-11-19T12:41:09Z</time>
      </trkpt>
      <trkpt lat="45.07572" lon="5.63519">
        <ele>621.4</ele>
        <time>2010-11-19T12:41:10Z</time>
      </trkpt>
      <trkpt lat="45.07572" lon="5.63519">
        <ele>621.6</ele>
        <time>2010-11-19T12:41:11Z</time>
      </trkpt>
      <trkpt lat="45.07573" lon="5.63518">
        <ele>621.8</ele>
        <time>2010-11-19T12:41:12Z</time>
      </trkpt>
      <trkpt lat="45.07574" lon="5.63516">
        <ele>622.2</ele>
        <time>2010-11-19T12:41:14Z</time>
      </trkpt>
      <trkpt lat="45.07575" lon="5.63516">
        <ele>622.4</ele>
        <time>2010-11-19T12:41:15Z</time>
      </trkpt>
      <trkpt lat="45.07576" lon="5.63512">
        <ele>622.4</ele>
        <time>2010-11-19T12:41:19Z</time>
      </trkpt>
      <trkpt lat="45.07577" lon="5.63507">
        <ele>622.8</ele>
        <time>2010-11-19T12:41:22Z</time>
      </trkpt>
      <trkpt lat="45.07578" lon="5.63505">
        <ele>623.2</ele>
        <time>2010-11-19T12:41:24Z</time>
      </trkpt>
      <trkpt lat="45.07579" lon="5.63499">
        <ele>623.8</ele>
        <time>2010-11-19T12:41:29Z</time>
      </trkpt>
      <trkpt lat="45.07579" lon="5.63497">
        <ele>624</ele>
        <time>2010-11-19T12:41:30Z</time>
      </trkpt>
      <trkpt lat="45.07579" lon="5.63494">
        <ele>624.2</ele>
        <time>2010-11-19T12:41:32Z</time>
      </trkpt>
      <trkpt lat="45.07579" lon="5.63491">
        <ele>624.4</ele>
        <time>2010-11-19T12:41:36Z</time>
      </trkpt>
      <trkpt lat="45.0758" lon="5.63489">
        <ele>624.6</ele>
        <time>2010-11-19T12:41:37Z</time>
      </trkpt>
      <trkpt lat="45.07581" lon="5.63485">
        <ele>625.2</ele>
        <time>2010-11-19T12:41:40Z</time>
      </trkpt>
      <trkpt lat="45.07582" lon="5.63484">
        <ele>625.4</ele>
        <time>2010-11-19T12:41:41Z</time>
      </trkpt>
      <trkpt lat="45.07582" lon="5.63482">
        <ele>625.6</ele>
        <time>2010-11-19T12:41:43Z</time>
      </trkpt>
      <trkpt lat="45.07583" lon="5.6348">
        <ele>625.8</ele>
        <time>2010-11-19T12:41:45Z</time>
      </trkpt>
      <trkpt lat="45.07585" lon="5.63473">
        <ele>626.8</ele>
        <time>2010-11-19T12:41:50Z</time>
      </trkpt>
      <trkpt lat="45.07586" lon="5.6347">
        <ele>627.6</ele>
        <time>2010-11-19T12:41:54Z</time>
      </trkpt>
      <trkpt lat="45.07587" lon="5.63467">
        <ele>628.6</ele>
        <time>2010-11-19T12:41:59Z</time>
      </trkpt>
      <trkpt lat="45.07587" lon="5.63461">
        <ele>630.4</ele>
        <time>2010-11-19T12:42:03Z</time>
      </trkpt>
      <trkpt lat="45.07587" lon="5.63457">
        <ele>632</ele>
        <time>2010-11-19T12:42:07Z</time>
      </trkpt>
      <trkpt lat="45.07587" lon="5.63453">
        <ele>634.4</ele>
        <time>2010-11-19T12:42:12Z</time>
      </trkpt>
      <trkpt lat="45.07588" lon="5.6345">
        <ele>635.4</ele>
        <time>2010-11-19T12:42:15Z</time>
      </trkpt>
      <trkpt lat="45.07588" lon="5.63447">
        <ele>636.6</ele>
        <time>2010-11-19T12:42:17Z</time>
      </trkpt>
      <trkpt lat="45.07589" lon="5.63442">
        <ele>637.2</ele>
        <time>2010-11-19T12:42:21Z</time>
      </trkpt>
      <trkpt lat="45.07591" lon="5.63434">
        <ele>638.8</ele>
        <time>2010-11-19T12:42:27Z</time>
      </trkpt>
      <trkpt lat="45.07593" lon="5.63429">
        <ele>639.6</ele>
        <time>2010-11-19T12:42:31Z</time>
      </trkpt>
      <trkpt lat="45.07594" lon="5.63425">
        <ele>640.6</ele>
        <time>2010-11-19T12:42:35Z</time>
      </trkpt>
      <trkpt lat="45.07595" lon="5.63425">
        <ele>641</ele>
        <time>2010-11-19T12:42:36Z</time>
      </trkpt>
      <trkpt lat="45.07596" lon="5.63423">
        <ele>641</ele>
        <time>2010-11-19T12:42:37Z</time>
      </trkpt>
      <trkpt lat="45.07597" lon="5.6342">
        <ele>642</ele>
        <time>2010-11-19T12:42:40Z</time>
      </trkpt>
      <trkpt lat="45.07597" lon="5.63418">
        <ele>642.4</ele>
        <time>2010-11-19T12:42:41Z</time>
      </trkpt>
      <trkpt lat="45.07598" lon="5.63414">
        <ele>642.8</ele>
        <time>2010-11-19T12:42:44Z</time>
      </trkpt>
      <trkpt lat="45.07599" lon="5.63413">
        <ele>643.4</ele>
        <time>2010-11-19T12:42:46Z</time>
      </trkpt>
      <trkpt lat="45.076" lon="5.63409">
        <ele>643.8</ele>
        <time>2010-11-19T12:42:49Z</time>
      </trkpt>
      <trkpt lat="45.076" lon="5.63408">
        <ele>644</ele>
        <time>2010-11-19T12:42:50Z</time>
      </trkpt>
      <trkpt lat="45.07602" lon="5.63408">
        <ele>644.4</ele>
        <time>2010-11-19T12:42:54Z</time>
      </trkpt>
      <trkpt lat="45.07603" lon="5.63402">
        <ele>644.6</ele>
        <time>2010-11-19T12:43:04Z</time>
      </trkpt>
      <trkpt lat="45.07604" lon="5.63401">
        <ele>644.6</ele>
        <time>2010-11-19T12:43:05Z</time>
      </trkpt>
      <trkpt lat="45.07606" lon="5.63399">
        <ele>644.8</ele>
        <time>2010-11-19T12:43:08Z</time>
      </trkpt>
      <trkpt lat="45.07608" lon="5.634">
        <ele>644.8</ele>
        <time>2010-11-19T12:43:10Z</time>
      </trkpt>
      <trkpt lat="45.07609" lon="5.634">
        <ele>644.8</ele>
        <time>2010-11-19T12:43:11Z</time>
      </trkpt>
      <trkpt lat="45.07611" lon="5.63401">
        <ele>645.4</ele>
        <time>2010-11-19T12:43:14Z</time>
      </trkpt>
      <trkpt lat="45.07613" lon="5.63402">
        <ele>646</ele>
        <time>2010-11-19T12:43:17Z</time>
      </trkpt>
      <trkpt lat="45.07613" lon="5.63404">
        <ele>647</ele>
        <time>2010-11-19T12:43:23Z</time>
      </trkpt>
      <trkpt lat="45.07617" lon="5.63401">
        <ele>648.4</ele>
        <time>2010-11-19T12:43:32Z</time>
      </trkpt>
      <trkpt lat="45.0762" lon="5.63399">
        <ele>649.2</ele>
        <time>2010-11-19T12:43:37Z</time>
      </trkpt>
      <trkpt lat="45.07621" lon="5.63397">
        <ele>649.8</ele>
        <time>2010-11-19T12:43:39Z</time>
      </trkpt>
      <trkpt lat="45.07623" lon="5.63393">
        <ele>650.6</ele>
        <time>2010-11-19T12:43:44Z</time>
      </trkpt>
      <trkpt lat="45.07626" lon="5.63391">
        <ele>651.4</ele>
        <time>2010-11-19T12:43:49Z</time>
      </trkpt>
      <trkpt lat="45.0763" lon="5.63392">
        <ele>652.4</ele>
        <time>2010-11-19T12:43:54Z</time>
      </trkpt>
      <trkpt lat="45.07632" lon="5.63394">
        <ele>652.8</ele>
        <time>2010-11-19T12:43:56Z</time>
      </trkpt>
      <trkpt lat="45.07632" lon="5.63396">
        <ele>653.4</ele>
        <time>2010-11-19T12:43:59Z</time>
      </trkpt>
      <trkpt lat="45.07634" lon="5.63399">
        <ele>654.2</ele>
        <time>2010-11-19T12:44:02Z</time>
      </trkpt>
      <trkpt lat="45.07636" lon="5.63401">
        <ele>654.8</ele>
        <time>2010-11-19T12:44:03Z</time>
      </trkpt>
      <trkpt lat="45.07637" lon="5.63406">
        <ele>657</ele>
        <time>2010-11-19T12:44:12Z</time>
      </trkpt>
      <trkpt lat="45.07641" lon="5.63412">
        <ele>659</ele>
        <time>2010-11-19T12:44:19Z</time>
      </trkpt>
      <trkpt lat="45.07643" lon="5.63415">
        <ele>661</ele>
        <time>2010-11-19T12:44:26Z</time>
      </trkpt>
      <trkpt lat="45.07644" lon="5.6342">
        <ele>662.4</ele>
        <time>2010-11-19T12:44:32Z</time>
      </trkpt>
      <trkpt lat="45.07645" lon="5.6342">
        <ele>662.6</ele>
        <time>2010-11-19T12:44:33Z</time>
      </trkpt>
      <trkpt lat="45.07648" lon="5.63422">
        <ele>664.2</ele>
        <time>2010-11-19T12:44:39Z</time>
      </trkpt>
      <trkpt lat="45.0765" lon="5.63425">
        <ele>666</ele>
        <time>2010-11-19T12:44:44Z</time>
      </trkpt>
      <trkpt lat="45.07654" lon="5.63428">
        <ele>667.4</ele>
        <time>2010-11-19T12:44:48Z</time>
      </trkpt>
      <trkpt lat="45.07655" lon="5.63432">
        <ele>668.6</ele>
        <time>2010-11-19T12:44:52Z</time>
      </trkpt>
      <trkpt lat="45.07656" lon="5.63433">
        <ele>669</ele>
        <time>2010-11-19T12:44:54Z</time>
      </trkpt>
      <trkpt lat="45.07657" lon="5.63433">
        <ele>669.8</ele>
        <time>2010-11-19T12:44:57Z</time>
      </trkpt>
      <trkpt lat="45.07658" lon="5.63431">
        <ele>671.2</ele>
        <time>2010-11-19T12:45:02Z</time>
      </trkpt>
      <trkpt lat="45.07658" lon="5.6343">
        <ele>671.4</ele>
        <time>2010-11-19T12:45:03Z</time>
      </trkpt>
      <trkpt lat="45.07658" lon="5.63425">
        <ele>673.2</ele>
        <time>2010-11-19T12:45:08Z</time>
      </trkpt>
      <trkpt lat="45.07659" lon="5.63421">
        <ele>674.8</ele>
        <time>2010-11-19T12:45:13Z</time>
      </trkpt>
      <trkpt lat="45.07661" lon="5.63422">
        <ele>676</ele>
        <time>2010-11-19T12:45:17Z</time>
      </trkpt>
      <trkpt lat="45.07662" lon="5.63427">
        <ele>677.8</ele>
        <time>2010-11-19T12:45:22Z</time>
      </trkpt>
      <trkpt lat="45.07663" lon="5.63431">
        <ele>679.4</ele>
        <time>2010-11-19T12:45:27Z</time>
      </trkpt>
      <trkpt lat="45.07664" lon="5.63431">
        <ele>679.8</ele>
        <time>2010-11-19T12:45:28Z</time>
      </trkpt>
      <trkpt lat="45.07665" lon="5.63433">
        <ele>681.4</ele>
        <time>2010-11-19T12:45:33Z</time>
      </trkpt>
      <trkpt lat="45.07666" lon="5.63434">
        <ele>681.6</ele>
        <time>2010-11-19T12:45:34Z</time>
      </trkpt>
      <trkpt lat="45.07667" lon="5.63436">
        <ele>682.2</ele>
        <time>2010-11-19T12:45:36Z</time>
      </trkpt>
      <trkpt lat="45.07667" lon="5.63437">
        <ele>682.6</ele>
        <time>2010-11-19T12:45:37Z</time>
      </trkpt>
      <trkpt lat="45.07668" lon="5.63436">
        <ele>683.2</ele>
        <time>2010-11-19T12:45:39Z</time>
      </trkpt>
      <trkpt lat="45.0767" lon="5.63436">
        <ele>684</ele>
        <time>2010-11-19T12:45:42Z</time>
      </trkpt>
      <trkpt lat="45.07672" lon="5.63433">
        <ele>685.4</ele>
        <time>2010-11-19T12:45:47Z</time>
      </trkpt>
      <trkpt lat="45.07675" lon="5.63434">
        <ele>686.2</ele>
        <time>2010-11-19T12:45:50Z</time>
      </trkpt>
      <trkpt lat="45.07676" lon="5.63435">
        <ele>686.4</ele>
        <time>2010-11-19T12:45:51Z</time>
      </trkpt>
      <trkpt lat="45.07677" lon="5.63438">
        <ele>687.8</ele>
        <time>2010-11-19T12:45:56Z</time>
      </trkpt>
      <trkpt lat="45.07677" lon="5.63439">
        <ele>688</ele>
        <time>2010-11-19T12:45:57Z</time>
      </trkpt>
      <trkpt lat="45.07678" lon="5.63444">
        <ele>689.8</ele>
        <time>2010-11-19T12:46:02Z</time>
      </trkpt>
      <trkpt lat="45.07681" lon="5.63445">
        <ele>691.6</ele>
        <time>2010-11-19T12:46:08Z</time>
      </trkpt>
      <trkpt lat="45.07683" lon="5.6345">
        <ele>694</ele>
        <time>2010-11-19T12:46:17Z</time>
      </trkpt>
      <trkpt lat="45.07683" lon="5.63451">
        <ele>694.2</ele>
        <time>2010-11-19T12:46:18Z</time>
      </trkpt>
      <trkpt lat="45.07685" lon="5.63454">
        <ele>695</ele>
        <time>2010-11-19T12:46:22Z</time>
      </trkpt>
      <trkpt lat="45.07687" lon="5.63458">
        <ele>696.2</ele>
        <time>2010-11-19T12:46:26Z</time>
      </trkpt>
      <trkpt lat="45.07687" lon="5.63458">
        <ele>696.4</ele>
        <time>2010-11-19T12:46:27Z</time>
      </trkpt>
      <trkpt lat="45.07688" lon="5.63459">
        <ele>697</ele>
        <time>2010-11-19T12:46:29Z</time>
      </trkpt>
      <trkpt lat="45.0769" lon="5.63461">
        <ele>697.8</ele>
        <time>2010-11-19T12:46:32Z</time>
      </trkpt>
      <trkpt lat="45.07691" lon="5.63463">
        <ele>699</ele>
        <time>2010-11-19T12:46:36Z</time>
      </trkpt>
      <trkpt lat="45.07693" lon="5.63465">
        <ele>699.6</ele>
        <time>2010-11-19T12:46:39Z</time>
      </trkpt>
      <trkpt lat="45.07694" lon="5.63467">
        <ele>700</ele>
        <time>2010-11-19T12:46:41Z</time>
      </trkpt>
      <trkpt lat="45.07694" lon="5.63468">
        <ele>700.2</ele>
        <time>2010-11-19T12:46:42Z</time>
      </trkpt>
      <trkpt lat="45.07695" lon="5.6347">
        <ele>700.8</ele>
        <time>2010-11-19T12:46:44Z</time>
      </trkpt>
      <trkpt lat="45.07696" lon="5.63473">
        <ele>701.2</ele>
        <time>2010-11-19T12:46:46Z</time>
      </trkpt>
      <trkpt lat="45.07697" lon="5.63476">
        <ele>701.8</ele>
        <time>2010-11-19T12:46:49Z</time>
      </trkpt>
      <trkpt lat="45.07699" lon="5.63479">
        <ele>703.2</ele>
        <time>2010-11-19T12:46:54Z</time>
      </trkpt>
      <trkpt lat="45.07699" lon="5.6348">
        <ele>703.6</ele>
        <time>2010-11-19T12:46:55Z</time>
      </trkpt>
      <trkpt lat="45.07701" lon="5.63483">
        <ele>704.6</ele>
        <time>2010-11-19T12:46:58Z</time>
      </trkpt>
      <trkpt lat="45.07704" lon="5.63487">
        <ele>706.2</ele>
        <time>2010-11-19T12:47:03Z</time>
      </trkpt>
      <trkpt lat="45.07705" lon="5.6349">
        <ele>707.6</ele>
        <time>2010-11-19T12:47:07Z</time>
      </trkpt>
      <trkpt lat="45.07707" lon="5.63494">
        <ele>708.6</ele>
        <time>2010-11-19T12:47:12Z</time>
      </trkpt>
      <trkpt lat="45.0771" lon="5.63497">
        <ele>709.4</ele>
        <time>2010-11-19T12:47:17Z</time>
      </trkpt>
      <trkpt lat="45.07711" lon="5.63499">
        <ele>710</ele>
        <time>2010-11-19T12:47:20Z</time>
      </trkpt>
      <trkpt lat="45.07712" lon="5.63499">
        <ele>710.2</ele>
        <time>2010-11-19T12:47:21Z</time>
      </trkpt>
      <trkpt lat="45.07715" lon="5.635">
        <ele>711</ele>
        <time>2010-11-19T12:47:26Z</time>
      </trkpt>
      <trkpt lat="45.07717" lon="5.63499">
        <ele>711.6</ele>
        <time>2010-11-19T12:47:30Z</time>
      </trkpt>
      <trkpt lat="45.07718" lon="5.63496">
        <ele>712.2</ele>
        <time>2010-11-19T12:47:35Z</time>
      </trkpt>
      <trkpt lat="45.07719" lon="5.63493">
        <ele>713</ele>
        <time>2010-11-19T12:47:40Z</time>
      </trkpt>
      <trkpt lat="45.07723" lon="5.63491">
        <ele>713.4</ele>
        <time>2010-11-19T12:47:44Z</time>
      </trkpt>
      <trkpt lat="45.07724" lon="5.63492">
        <ele>713.6</ele>
        <time>2010-11-19T12:47:46Z</time>
      </trkpt>
      <trkpt lat="45.07725" lon="5.63495">
        <ele>713.8</ele>
        <time>2010-11-19T12:47:48Z</time>
      </trkpt>
      <trkpt lat="45.07725" lon="5.63499">
        <ele>715.2</ele>
        <time>2010-11-19T12:47:53Z</time>
      </trkpt>
      <trkpt lat="45.07725" lon="5.635">
        <ele>715.2</ele>
        <time>2010-11-19T12:47:54Z</time>
      </trkpt>
      <trkpt lat="45.07726" lon="5.63503">
        <ele>715.6</ele>
        <time>2010-11-19T12:47:57Z</time>
      </trkpt>
      <trkpt lat="45.07725" lon="5.63509">
        <ele>716.6</ele>
        <time>2010-11-19T12:48:02Z</time>
      </trkpt>
      <trkpt lat="45.07725" lon="5.63513">
        <ele>717.2</ele>
        <time>2010-11-19T12:48:07Z</time>
      </trkpt>
      <trkpt lat="45.07725" lon="5.63518">
        <ele>718.2</ele>
        <time>2010-11-19T12:48:12Z</time>
      </trkpt>
      <trkpt lat="45.07724" lon="5.6352">
        <ele>718.6</ele>
        <time>2010-11-19T12:48:14Z</time>
      </trkpt>
      <trkpt lat="45.07724" lon="5.63523">
        <ele>719</ele>
        <time>2010-11-19T12:48:17Z</time>
      </trkpt>
      <trkpt lat="45.07724" lon="5.63527">
        <ele>719.8</ele>
        <time>2010-11-19T12:48:22Z</time>
      </trkpt>
      <trkpt lat="45.07727" lon="5.6353">
        <ele>721.2</ele>
        <time>2010-11-19T12:48:29Z</time>
      </trkpt>
      <trkpt lat="45.07729" lon="5.6353">
        <ele>722</ele>
        <time>2010-11-19T12:48:34Z</time>
      </trkpt>
      <trkpt lat="45.07733" lon="5.6353">
        <ele>723.4</ele>
        <time>2010-11-19T12:48:41Z</time>
      </trkpt>
      <trkpt lat="45.07737" lon="5.63529">
        <ele>724.4</ele>
        <time>2010-11-19T12:48:48Z</time>
      </trkpt>
      <trkpt lat="45.0774" lon="5.63527">
        <ele>725.4</ele>
        <time>2010-11-19T12:48:54Z</time>
      </trkpt>
      <trkpt lat="45.07743" lon="5.63524">
        <ele>726</ele>
        <time>2010-11-19T12:49:00Z</time>
      </trkpt>
      <trkpt lat="45.07743" lon="5.63516">
        <ele>726.6</ele>
        <time>2010-11-19T12:49:11Z</time>
      </trkpt>
      <trkpt lat="45.07743" lon="5.6351">
        <ele>727</ele>
        <time>2010-11-19T12:49:18Z</time>
      </trkpt>
      <trkpt lat="45.07745" lon="5.63506">
        <ele>727.4</ele>
        <time>2010-11-19T12:49:23Z</time>
      </trkpt>
      <trkpt lat="45.07745" lon="5.63505">
        <ele>727.6</ele>
        <time>2010-11-19T12:49:24Z</time>
      </trkpt>
      <trkpt lat="45.07747" lon="5.63499">
        <ele>728.6</ele>
        <time>2010-11-19T12:49:30Z</time>
      </trkpt>
      <trkpt lat="45.0775" lon="5.63497">
        <ele>729</ele>
        <time>2010-11-19T12:49:35Z</time>
      </trkpt>
      <trkpt lat="45.0775" lon="5.63496">
        <ele>729.2</ele>
        <time>2010-11-19T12:49:36Z</time>
      </trkpt>
      <trkpt lat="45.07751" lon="5.63489">
        <ele>731</ele>
        <time>2010-11-19T12:49:44Z</time>
      </trkpt>
      <trkpt lat="45.07752" lon="5.63485">
        <ele>732</ele>
        <time>2010-11-19T12:49:49Z</time>
      </trkpt>
      <trkpt lat="45.07752" lon="5.63484">
        <ele>732.2</ele>
        <time>2010-11-19T12:49:50Z</time>
      </trkpt>
      <trkpt lat="45.07752" lon="5.63479">
        <ele>733.8</ele>
        <time>2010-11-19T12:49:55Z</time>
      </trkpt>
      <trkpt lat="45.07751" lon="5.63478">
        <ele>735</ele>
        <time>2010-11-19T12:49:59Z</time>
      </trkpt>
      <trkpt lat="45.07753" lon="5.63474">
        <ele>736.4</ele>
        <time>2010-11-19T12:50:05Z</time>
      </trkpt>
      <trkpt lat="45.07753" lon="5.63469">
        <ele>737.8</ele>
        <time>2010-11-19T12:50:11Z</time>
      </trkpt>
      <trkpt lat="45.07755" lon="5.63463">
        <ele>739.2</ele>
        <time>2010-11-19T12:50:17Z</time>
      </trkpt>
      <trkpt lat="45.07755" lon="5.63464">
        <ele>740.6</ele>
        <time>2010-11-19T12:50:21Z</time>
      </trkpt>
      <trkpt lat="45.07757" lon="5.63468">
        <ele>742</ele>
        <time>2010-11-19T12:50:26Z</time>
      </trkpt>
      <trkpt lat="45.0776" lon="5.6347">
        <ele>743.2</ele>
        <time>2010-11-19T12:50:30Z</time>
      </trkpt>
      <trkpt lat="45.07762" lon="5.63474">
        <ele>744.6</ele>
        <time>2010-11-19T12:50:36Z</time>
      </trkpt>
      <trkpt lat="45.07764" lon="5.63477">
        <ele>745.6</ele>
        <time>2010-11-19T12:50:40Z</time>
      </trkpt>
      <trkpt lat="45.07764" lon="5.63481">
        <ele>746.6</ele>
        <time>2010-11-19T12:50:44Z</time>
      </trkpt>
      <trkpt lat="45.07762" lon="5.63484">
        <ele>747.8</ele>
        <time>2010-11-19T12:50:49Z</time>
      </trkpt>
      <trkpt lat="45.07762" lon="5.63485">
        <ele>750.6</ele>
        <time>2010-11-19T12:51:01Z</time>
      </trkpt>
      <trkpt lat="45.07763" lon="5.63482">
        <ele>755.8</ele>
        <time>2010-11-19T12:51:35Z</time>
      </trkpt>
      <trkpt lat="45.07766" lon="5.6348">
        <ele>756.2</ele>
        <time>2010-11-19T12:51:44Z</time>
      </trkpt>
      <trkpt lat="45.0777" lon="5.63481">
        <ele>756.8</ele>
        <time>2010-11-19T12:51:49Z</time>
      </trkpt>
      <trkpt lat="45.07774" lon="5.6348">
        <ele>757.4</ele>
        <time>2010-11-19T12:51:54Z</time>
      </trkpt>
      <trkpt lat="45.07775" lon="5.6348">
        <ele>757.4</ele>
        <time>2010-11-19T12:51:55Z</time>
      </trkpt>
      <trkpt lat="45.07776" lon="5.63481">
        <ele>757.8</ele>
        <time>2010-11-19T12:51:57Z</time>
      </trkpt>
      <trkpt lat="45.07779" lon="5.63481">
        <ele>758</ele>
        <time>2010-11-19T12:51:59Z</time>
      </trkpt>
      <trkpt lat="45.0778" lon="5.63483">
        <ele>758.4</ele>
        <time>2010-11-19T12:52:02Z</time>
      </trkpt>
      <trkpt lat="45.07781" lon="5.6348">
        <ele>759</ele>
        <time>2010-11-19T12:52:07Z</time>
      </trkpt>
      <trkpt lat="45.07781" lon="5.63477">
        <ele>760.4</ele>
        <time>2010-11-19T12:52:13Z</time>
      </trkpt>
      <trkpt lat="45.07782" lon="5.63472">
        <ele>761.2</ele>
        <time>2010-11-19T12:52:17Z</time>
      </trkpt>
      <trkpt lat="45.07782" lon="5.63467">
        <ele>762.4</ele>
        <time>2010-11-19T12:52:23Z</time>
      </trkpt>
      <trkpt lat="45.07782" lon="5.63465">
        <ele>762.6</ele>
        <time>2010-11-19T12:52:25Z</time>
      </trkpt>
      <trkpt lat="45.07782" lon="5.63463">
        <ele>762.8</ele>
        <time>2010-11-19T12:52:27Z</time>
      </trkpt>
      <trkpt lat="45.07783" lon="5.63459">
        <ele>763.4</ele>
        <time>2010-11-19T12:52:32Z</time>
      </trkpt>
      <trkpt lat="45.07783" lon="5.63455">
        <ele>764.2</ele>
        <time>2010-11-19T12:52:36Z</time>
      </trkpt>
      <trkpt lat="45.07783" lon="5.63451">
        <ele>764.6</ele>
        <time>2010-11-19T12:52:40Z</time>
      </trkpt>
      <trkpt lat="45.07783" lon="5.63446">
        <ele>765.6</ele>
        <time>2010-11-19T12:52:45Z</time>
      </trkpt>
      <trkpt lat="45.07784" lon="5.6344">
        <ele>766.4</ele>
        <time>2010-11-19T12:52:50Z</time>
      </trkpt>
      <trkpt lat="45.07785" lon="5.6344">
        <ele>766.6</ele>
        <time>2010-11-19T12:52:51Z</time>
      </trkpt>
      <trkpt lat="45.07786" lon="5.63438">
        <ele>767</ele>
        <time>2010-11-19T12:52:53Z</time>
      </trkpt>
      <trkpt lat="45.07786" lon="5.63435">
        <ele>767.4</ele>
        <time>2010-11-19T12:52:55Z</time>
      </trkpt>
      <trkpt lat="45.07787" lon="5.63432">
        <ele>767.8</ele>
        <time>2010-11-19T12:52:58Z</time>
      </trkpt>
      <trkpt lat="45.07788" lon="5.6343">
        <ele>768.2</ele>
        <time>2010-11-19T12:53:00Z</time>
      </trkpt>
      <trkpt lat="45.07789" lon="5.63426">
        <ele>768.8</ele>
        <time>2010-11-19T12:53:04Z</time>
      </trkpt>
      <trkpt lat="45.07791" lon="5.63422">
        <ele>769.4</ele>
        <time>2010-11-19T12:53:08Z</time>
      </trkpt>
      <trkpt lat="45.07791" lon="5.63421">
        <ele>769.6</ele>
        <time>2010-11-19T12:53:09Z</time>
      </trkpt>
      <trkpt lat="45.07793" lon="5.63418">
        <ele>770.2</ele>
        <time>2010-11-19T12:53:12Z</time>
      </trkpt>
      <trkpt lat="45.07796" lon="5.63414">
        <ele>770.8</ele>
        <time>2010-11-19T12:53:16Z</time>
      </trkpt>
      <trkpt lat="45.07797" lon="5.63411">
        <ele>771.4</ele>
        <time>2010-11-19T12:53:19Z</time>
      </trkpt>
      <trkpt lat="45.07798" lon="5.63408">
        <ele>772</ele>
        <time>2010-11-19T12:53:21Z</time>
      </trkpt>
      <trkpt lat="45.07798" lon="5.63407">
        <ele>772.2</ele>
        <time>2010-11-19T12:53:22Z</time>
      </trkpt>
      <trkpt lat="45.07802" lon="5.63405">
        <ele>773.2</ele>
        <time>2010-11-19T12:53:26Z</time>
      </trkpt>
      <trkpt lat="45.07803" lon="5.63404">
        <ele>774</ele>
        <time>2010-11-19T12:53:28Z</time>
      </trkpt>
      <trkpt lat="45.07804" lon="5.63402">
        <ele>774.8</ele>
        <time>2010-11-19T12:53:30Z</time>
      </trkpt>
      <trkpt lat="45.07804" lon="5.63401">
        <ele>775.2</ele>
        <time>2010-11-19T12:53:31Z</time>
      </trkpt>
      <trkpt lat="45.07805" lon="5.63399">
        <ele>776.2</ele>
        <time>2010-11-19T12:53:33Z</time>
      </trkpt>
      <trkpt lat="45.07806" lon="5.63397">
        <ele>777</ele>
        <time>2010-11-19T12:53:35Z</time>
      </trkpt>
      <trkpt lat="45.07807" lon="5.63397">
        <ele>777.2</ele>
        <time>2010-11-19T12:53:36Z</time>
      </trkpt>
      <trkpt lat="45.07809" lon="5.63397">
        <ele>778.2</ele>
        <time>2010-11-19T12:53:39Z</time>
      </trkpt>
      <trkpt lat="45.07809" lon="5.63396">
        <ele>778.6</ele>
        <time>2010-11-19T12:53:40Z</time>
      </trkpt>
      <trkpt lat="45.07811" lon="5.63394">
        <ele>779.6</ele>
        <time>2010-11-19T12:53:43Z</time>
      </trkpt>
      <trkpt lat="45.07813" lon="5.6339">
        <ele>781.6</ele>
        <time>2010-11-19T12:53:49Z</time>
      </trkpt>
      <trkpt lat="45.07814" lon="5.63388">
        <ele>783.2</ele>
        <time>2010-11-19T12:53:53Z</time>
      </trkpt>
      <trkpt lat="45.07815" lon="5.63387">
        <ele>784.4</ele>
        <time>2010-11-19T12:53:57Z</time>
      </trkpt>
      <trkpt lat="45.07817" lon="5.63389">
        <ele>786.2</ele>
        <time>2010-11-19T12:54:01Z</time>
      </trkpt>
      <trkpt lat="45.07819" lon="5.63391">
        <ele>788.2</ele>
        <time>2010-11-19T12:54:06Z</time>
      </trkpt>
      <trkpt lat="45.07819" lon="5.63392">
        <ele>788.6</ele>
        <time>2010-11-19T12:54:07Z</time>
      </trkpt>
      <trkpt lat="45.07821" lon="5.63393">
        <ele>789.6</ele>
        <time>2010-11-19T12:54:12Z</time>
      </trkpt>
      <trkpt lat="45.07822" lon="5.63395">
        <ele>791.4</ele>
        <time>2010-11-19T12:54:18Z</time>
      </trkpt>
      <trkpt lat="45.07824" lon="5.63398">
        <ele>792.6</ele>
        <time>2010-11-19T12:54:22Z</time>
      </trkpt>
      <trkpt lat="45.07825" lon="5.63401">
        <ele>793.4</ele>
        <time>2010-11-19T12:54:25Z</time>
      </trkpt>
      <trkpt lat="45.07825" lon="5.63404">
        <ele>794.2</ele>
        <time>2010-11-19T12:54:27Z</time>
      </trkpt>
      <trkpt lat="45.07824" lon="5.63411">
        <ele>796</ele>
        <time>2010-11-19T12:54:33Z</time>
      </trkpt>
      <trkpt lat="45.07825" lon="5.63415">
        <ele>796.6</ele>
        <time>2010-11-19T12:54:36Z</time>
      </trkpt>
      <trkpt lat="45.07824" lon="5.63417">
        <ele>797</ele>
        <time>2010-11-19T12:54:38Z</time>
      </trkpt>
      <trkpt lat="45.07823" lon="5.63419">
        <ele>797.4</ele>
        <time>2010-11-19T12:54:40Z</time>
      </trkpt>
      <trkpt lat="45.07822" lon="5.63423">
        <ele>798</ele>
        <time>2010-11-19T12:54:43Z</time>
      </trkpt>
      <trkpt lat="45.07823" lon="5.63426">
        <ele>798.6</ele>
        <time>2010-11-19T12:54:47Z</time>
      </trkpt>
      <trkpt lat="45.07824" lon="5.6343">
        <ele>799.6</ele>
        <time>2010-11-19T12:54:52Z</time>
      </trkpt>
      <trkpt lat="45.07828" lon="5.63429">
        <ele>800.6</ele>
        <time>2010-11-19T12:54:57Z</time>
      </trkpt>
      <trkpt lat="45.07828" lon="5.63429">
        <ele>800.8</ele>
        <time>2010-11-19T12:54:58Z</time>
      </trkpt>
      <trkpt lat="45.07832" lon="5.63429">
        <ele>801.8</ele>
        <time>2010-11-19T12:55:02Z</time>
      </trkpt>
      <trkpt lat="45.07838" lon="5.63429">
        <ele>803</ele>
        <time>2010-11-19T12:55:08Z</time>
      </trkpt>
      <trkpt lat="45.07843" lon="5.63433">
        <ele>804.2</ele>
        <time>2010-11-19T12:55:13Z</time>
      </trkpt>
      <trkpt lat="45.07845" lon="5.63434">
        <ele>804.6</ele>
        <time>2010-11-19T12:55:15Z</time>
      </trkpt>
      <trkpt lat="45.0785" lon="5.63438">
        <ele>806.6</ele>
        <time>2010-11-19T12:55:21Z</time>
      </trkpt>
      <trkpt lat="45.0785" lon="5.63439">
        <ele>807</ele>
        <time>2010-11-19T12:55:22Z</time>
      </trkpt>
      <trkpt lat="45.07854" lon="5.6344">
        <ele>808.2</ele>
        <time>2010-11-19T12:55:26Z</time>
      </trkpt>
      <trkpt lat="45.07854" lon="5.63441">
        <ele>808.8</ele>
        <time>2010-11-19T12:55:27Z</time>
      </trkpt>
      <trkpt lat="45.07858" lon="5.63442">
        <ele>810.2</ele>
        <time>2010-11-19T12:55:31Z</time>
      </trkpt>
      <trkpt lat="45.07859" lon="5.63442">
        <ele>810.6</ele>
        <time>2010-11-19T12:55:32Z</time>
      </trkpt>
      <trkpt lat="45.0786" lon="5.63443">
        <ele>811.4</ele>
        <time>2010-11-19T12:55:34Z</time>
      </trkpt>
      <trkpt lat="45.07862" lon="5.63445">
        <ele>812.2</ele>
        <time>2010-11-19T12:55:36Z</time>
      </trkpt>
      <trkpt lat="45.07869" lon="5.63453">
        <ele>814.6</ele>
        <time>2010-11-19T12:55:42Z</time>
      </trkpt>
      <trkpt lat="45.07869" lon="5.63455">
        <ele>815</ele>
        <time>2010-11-19T12:55:43Z</time>
      </trkpt>
      <trkpt lat="45.07869" lon="5.63459">
        <ele>817.4</ele>
        <time>2010-11-19T12:55:47Z</time>
      </trkpt>
      <trkpt lat="45.07869" lon="5.63462">
        <ele>818.2</ele>
        <time>2010-11-19T12:55:49Z</time>
      </trkpt>
      <trkpt lat="45.07872" lon="5.63465">
        <ele>819.2</ele>
        <time>2010-11-19T12:55:53Z</time>
      </trkpt>
      <trkpt lat="45.07873" lon="5.63465">
        <ele>819.4</ele>
        <time>2010-11-19T12:55:54Z</time>
      </trkpt>
      <trkpt lat="45.07876" lon="5.63469">
        <ele>820.6</ele>
        <time>2010-11-19T12:55:58Z</time>
      </trkpt>
      <trkpt lat="45.07877" lon="5.63474">
        <ele>821.4</ele>
        <time>2010-11-19T12:56:03Z</time>
      </trkpt>
      <trkpt lat="45.07879" lon="5.63474">
        <ele>822.4</ele>
        <time>2010-11-19T12:56:07Z</time>
      </trkpt>
      <trkpt lat="45.0788" lon="5.63471">
        <ele>823</ele>
        <time>2010-11-19T12:56:12Z</time>
      </trkpt>
      <trkpt lat="45.07881" lon="5.63468">
        <ele>823.4</ele>
        <time>2010-11-19T12:56:16Z</time>
      </trkpt>
      <trkpt lat="45.07882" lon="5.63464">
        <ele>823.8</ele>
        <time>2010-11-19T12:56:20Z</time>
      </trkpt>
      <trkpt lat="45.07882" lon="5.63462">
        <ele>824.2</ele>
        <time>2010-11-19T12:56:22Z</time>
      </trkpt>
      <trkpt lat="45.07882" lon="5.63459">
        <ele>824.8</ele>
        <time>2010-11-19T12:56:25Z</time>
      </trkpt>
      <trkpt lat="45.07883" lon="5.63453">
        <ele>825.2</ele>
        <time>2010-11-19T12:56:29Z</time>
      </trkpt>
      <trkpt lat="45.07883" lon="5.63448">
        <ele>825.8</ele>
        <time>2010-11-19T12:56:33Z</time>
      </trkpt>
      <trkpt lat="45.07882" lon="5.63444">
        <ele>826.6</ele>
        <time>2010-11-19T12:56:35Z</time>
      </trkpt>
      <trkpt lat="45.07881" lon="5.6344">
        <ele>828</ele>
        <time>2010-11-19T12:56:39Z</time>
      </trkpt>
      <trkpt lat="45.0788" lon="5.63438">
        <ele>829.4</ele>
        <time>2010-11-19T12:56:42Z</time>
      </trkpt>
      <trkpt lat="45.0788" lon="5.63437">
        <ele>830.2</ele>
        <time>2010-11-19T12:56:44Z</time>
      </trkpt>
      <trkpt lat="45.07876" lon="5.63433">
        <ele>832.4</ele>
        <time>2010-11-19T12:56:50Z</time>
      </trkpt>
      <trkpt lat="45.07873" lon="5.63425">
        <ele>834</ele>
        <time>2010-11-19T12:56:56Z</time>
      </trkpt>
      <trkpt lat="45.07873" lon="5.63425">
        <ele>834.2</ele>
        <time>2010-11-19T12:56:57Z</time>
      </trkpt>
      <trkpt lat="45.07872" lon="5.63422">
        <ele>835</ele>
        <time>2010-11-19T12:57:00Z</time>
      </trkpt>
      <trkpt lat="45.07872" lon="5.63422">
        <ele>835.2</ele>
        <time>2010-11-19T12:57:01Z</time>
      </trkpt>
      <trkpt lat="45.07871" lon="5.6342">
        <ele>835.8</ele>
        <time>2010-11-19T12:57:03Z</time>
      </trkpt>
      <trkpt lat="45.07871" lon="5.63418">
        <ele>836.2</ele>
        <time>2010-11-19T12:57:05Z</time>
      </trkpt>
      <trkpt lat="45.0787" lon="5.63418">
        <ele>836.6</ele>
        <time>2010-11-19T12:57:06Z</time>
      </trkpt>
      <trkpt lat="45.0787" lon="5.63411">
        <ele>837.6</ele>
        <time>2010-11-19T12:57:11Z</time>
      </trkpt>
      <trkpt lat="45.07871" lon="5.63406">
        <ele>838.6</ele>
        <time>2010-11-19T12:57:16Z</time>
      </trkpt>
      <trkpt lat="45.0787" lon="5.63402">
        <ele>839.2</ele>
        <time>2010-11-19T12:57:19Z</time>
      </trkpt>
      <trkpt lat="45.07869" lon="5.63399">
        <ele>839.8</ele>
        <time>2010-11-19T12:57:22Z</time>
      </trkpt>
      <trkpt lat="45.0787" lon="5.63393">
        <ele>840</ele>
        <time>2010-11-19T12:57:25Z</time>
      </trkpt>
      <trkpt lat="45.0787" lon="5.6339">
        <ele>840.4</ele>
        <time>2010-11-19T12:57:28Z</time>
      </trkpt>
      <trkpt lat="45.07868" lon="5.63387">
        <ele>841.4</ele>
        <time>2010-11-19T12:57:33Z</time>
      </trkpt>
      <trkpt lat="45.07867" lon="5.63384">
        <ele>842</ele>
        <time>2010-11-19T12:57:36Z</time>
      </trkpt>
      <trkpt lat="45.07867" lon="5.63383">
        <ele>842.4</ele>
        <time>2010-11-19T12:57:38Z</time>
      </trkpt>
      <trkpt lat="45.07866" lon="5.63378">
        <ele>843.4</ele>
        <time>2010-11-19T12:57:43Z</time>
      </trkpt>
      <trkpt lat="45.07866" lon="5.63375">
        <ele>844.6</ele>
        <time>2010-11-19T12:57:48Z</time>
      </trkpt>
      <trkpt lat="45.07867" lon="5.63372">
        <ele>845.8</ele>
        <time>2010-11-19T12:57:52Z</time>
      </trkpt>
      <trkpt lat="45.07866" lon="5.63369">
        <ele>847</ele>
        <time>2010-11-19T12:57:56Z</time>
      </trkpt>
      <trkpt lat="45.07866" lon="5.63368">
        <ele>847.4</ele>
        <time>2010-11-19T12:57:57Z</time>
      </trkpt>
      <trkpt lat="45.07866" lon="5.63366">
        <ele>848.4</ele>
        <time>2010-11-19T12:58:00Z</time>
      </trkpt>
      <trkpt lat="45.07866" lon="5.63363">
        <ele>849.6</ele>
        <time>2010-11-19T12:58:05Z</time>
      </trkpt>
      <trkpt lat="45.07866" lon="5.63359">
        <ele>850.8</ele>
        <time>2010-11-19T12:58:10Z</time>
      </trkpt>
      <trkpt lat="45.07864" lon="5.63353">
        <ele>851.6</ele>
        <time>2010-11-19T12:58:15Z</time>
      </trkpt>
      <trkpt lat="45.07863" lon="5.6335">
        <ele>852</ele>
        <time>2010-11-19T12:58:17Z</time>
      </trkpt>
      <trkpt lat="45.07863" lon="5.63348">
        <ele>852</ele>
        <time>2010-11-19T12:58:18Z</time>
      </trkpt>
      <trkpt lat="45.07862" lon="5.63344">
        <ele>852.4</ele>
        <time>2010-11-19T12:58:21Z</time>
      </trkpt>
      <trkpt lat="45.0786" lon="5.63339">
        <ele>853</ele>
        <time>2010-11-19T12:58:24Z</time>
      </trkpt>
      <trkpt lat="45.07857" lon="5.63328">
        <ele>853.8</ele>
        <time>2010-11-19T12:58:30Z</time>
      </trkpt>
      <trkpt lat="45.07856" lon="5.63325">
        <ele>854</ele>
        <time>2010-11-19T12:58:32Z</time>
      </trkpt>
      <trkpt lat="45.07855" lon="5.63321">
        <ele>854.2</ele>
        <time>2010-11-19T12:58:34Z</time>
      </trkpt>
      <trkpt lat="45.07854" lon="5.63316">
        <ele>854.4</ele>
        <time>2010-11-19T12:58:37Z</time>
      </trkpt>
      <trkpt lat="45.07853" lon="5.6331">
        <ele>854.8</ele>
        <time>2010-11-19T12:58:41Z</time>
      </trkpt>
      <trkpt lat="45.07854" lon="5.63307">
        <ele>855</ele>
        <time>2010-11-19T12:58:43Z</time>
      </trkpt>
      <trkpt lat="45.07853" lon="5.63305">
        <ele>855.2</ele>
        <time>2010-11-19T12:58:44Z</time>
      </trkpt>
      <trkpt lat="45.07851" lon="5.63302">
        <ele>855.8</ele>
        <time>2010-11-19T12:58:47Z</time>
      </trkpt>
      <trkpt lat="45.07849" lon="5.63297">
        <ele>856.4</ele>
        <time>2010-11-19T12:58:51Z</time>
      </trkpt>
      <trkpt lat="45.07848" lon="5.63294">
        <ele>856.6</ele>
        <time>2010-11-19T12:58:53Z</time>
      </trkpt>
      <trkpt lat="45.07847" lon="5.63289">
        <ele>857</ele>
        <time>2010-11-19T12:58:57Z</time>
      </trkpt>
      <trkpt lat="45.07845" lon="5.63282">
        <ele>857.2</ele>
        <time>2010-11-19T12:59:02Z</time>
      </trkpt>
      <trkpt lat="45.07845" lon="5.6328">
        <ele>857.2</ele>
        <time>2010-11-19T12:59:03Z</time>
      </trkpt>
      <trkpt lat="45.07844" lon="5.63272">
        <ele>857.6</ele>
        <time>2010-11-19T12:59:08Z</time>
      </trkpt>
      <trkpt lat="45.07844" lon="5.63271">
        <ele>857.6</ele>
        <time>2010-11-19T12:59:09Z</time>
      </trkpt>
      <trkpt lat="45.07843" lon="5.63264">
        <ele>857.8</ele>
        <time>2010-11-19T12:59:13Z</time>
      </trkpt>
      <trkpt lat="45.07842" lon="5.63262">
        <ele>858</ele>
        <time>2010-11-19T12:59:15Z</time>
      </trkpt>
      <trkpt lat="45.07842" lon="5.6326">
        <ele>858.2</ele>
        <time>2010-11-19T12:59:17Z</time>
      </trkpt>
      <trkpt lat="45.07841" lon="5.63256">
        <ele>858.4</ele>
        <time>2010-11-19T12:59:20Z</time>
      </trkpt>
      <trkpt lat="45.07841" lon="5.63253">
        <ele>858.8</ele>
        <time>2010-11-19T12:59:22Z</time>
      </trkpt>
      <trkpt lat="45.07839" lon="5.63248">
        <ele>859.4</ele>
        <time>2010-11-19T12:59:26Z</time>
      </trkpt>
      <trkpt lat="45.07839" lon="5.63245">
        <ele>860</ele>
        <time>2010-11-19T12:59:28Z</time>
      </trkpt>
      <trkpt lat="45.0784" lon="5.6324">
        <ele>860.8</ele>
        <time>2010-11-19T12:59:32Z</time>
      </trkpt>
      <trkpt lat="45.0784" lon="5.63239">
        <ele>861</ele>
        <time>2010-11-19T12:59:33Z</time>
      </trkpt>
      <trkpt lat="45.07841" lon="5.63233">
        <ele>862.6</ele>
        <time>2010-11-19T12:59:38Z</time>
      </trkpt>
      <trkpt lat="45.07841" lon="5.63227">
        <ele>864.2</ele>
        <time>2010-11-19T12:59:43Z</time>
      </trkpt>
      <trkpt lat="45.0784" lon="5.63223">
        <ele>865.6</ele>
        <time>2010-11-19T12:59:47Z</time>
      </trkpt>
      <trkpt lat="45.0784" lon="5.63222">
        <ele>865.8</ele>
        <time>2010-11-19T12:59:48Z</time>
      </trkpt>
      <trkpt lat="45.07841" lon="5.63221">
        <ele>866.2</ele>
        <time>2010-11-19T12:59:49Z</time>
      </trkpt>
      <trkpt lat="45.07838" lon="5.63215">
        <ele>868.2</ele>
        <time>2010-11-19T12:59:53Z</time>
      </trkpt>
      <trkpt lat="45.0784" lon="5.63204">
        <ele>875.2</ele>
        <time>2010-11-19T13:00:07Z</time>
      </trkpt>
      <trkpt lat="45.07842" lon="5.63197">
        <ele>878</ele>
        <time>2010-11-19T13:00:14Z</time>
      </trkpt>
      <trkpt lat="45.07842" lon="5.63195">
        <ele>880.6</ele>
        <time>2010-11-19T13:00:20Z</time>
      </trkpt>
      <trkpt lat="45.07841" lon="5.6319">
        <ele>883</ele>
        <time>2010-11-19T13:00:26Z</time>
      </trkpt>
      <trkpt lat="45.07842" lon="5.63186">
        <ele>884.6</ele>
        <time>2010-11-19T13:00:32Z</time>
      </trkpt>
      <trkpt lat="45.07841" lon="5.63181">
        <ele>886</ele>
        <time>2010-11-19T13:00:37Z</time>
      </trkpt>
      <trkpt lat="45.07842" lon="5.63177">
        <ele>886.8</ele>
        <time>2010-11-19T13:00:41Z</time>
      </trkpt>
      <trkpt lat="45.07842" lon="5.63172">
        <ele>887.6</ele>
        <time>2010-11-19T13:00:46Z</time>
      </trkpt>
      <trkpt lat="45.07842" lon="5.63171">
        <ele>887.8</ele>
        <time>2010-11-19T13:00:47Z</time>
      </trkpt>
      <trkpt lat="45.07842" lon="5.63167">
        <ele>888</ele>
        <time>2010-11-19T13:00:50Z</time>
      </trkpt>
      <trkpt lat="45.07842" lon="5.63162">
        <ele>888.2</ele>
        <time>2010-11-19T13:00:53Z</time>
      </trkpt>
      <trkpt lat="45.07842" lon="5.63161">
        <ele>888</ele>
        <time>2010-11-19T13:00:54Z</time>
      </trkpt>
      <trkpt lat="45.07841" lon="5.63156">
        <ele>888</ele>
        <time>2010-11-19T13:00:58Z</time>
      </trkpt>
      <trkpt lat="45.07842" lon="5.63155">
        <ele>888</ele>
        <time>2010-11-19T13:00:59Z</time>
      </trkpt>
      <trkpt lat="45.07842" lon="5.63152">
        <ele>888</ele>
        <time>2010-11-19T13:01:02Z</time>
      </trkpt>
      <trkpt lat="45.07842" lon="5.63147">
        <ele>888</ele>
        <time>2010-11-19T13:01:06Z</time>
      </trkpt>
      <trkpt lat="45.07841" lon="5.63146">
        <ele>888</ele>
        <time>2010-11-19T13:01:07Z</time>
      </trkpt>
      <trkpt lat="45.07841" lon="5.63145">
        <ele>888</ele>
        <time>2010-11-19T13:01:08Z</time>
      </trkpt>
      <trkpt lat="45.07841" lon="5.63142">
        <ele>888.2</ele>
        <time>2010-11-19T13:01:11Z</time>
      </trkpt>
      <trkpt lat="45.07839" lon="5.63137">
        <ele>889</ele>
        <time>2010-11-19T13:01:15Z</time>
      </trkpt>
      <trkpt lat="45.07839" lon="5.63135">
        <ele>889.2</ele>
        <time>2010-11-19T13:01:16Z</time>
      </trkpt>
      <trkpt lat="45.07838" lon="5.63129">
        <ele>890.6</ele>
        <time>2010-11-19T13:01:21Z</time>
      </trkpt>
      <trkpt lat="45.07838" lon="5.63126">
        <ele>891.2</ele>
        <time>2010-11-19T13:01:24Z</time>
      </trkpt>
      <trkpt lat="45.07837" lon="5.63121">
        <ele>892.4</ele>
        <time>2010-11-19T13:01:28Z</time>
      </trkpt>
      <trkpt lat="45.07837" lon="5.63121">
        <ele>892.6</ele>
        <time>2010-11-19T13:01:29Z</time>
      </trkpt>
      <trkpt lat="45.07837" lon="5.63119">
        <ele>893.8</ele>
        <time>2010-11-19T13:01:33Z</time>
      </trkpt>
      <trkpt lat="45.07837" lon="5.63118">
        <ele>894.2</ele>
        <time>2010-11-19T13:01:34Z</time>
      </trkpt>
      <trkpt lat="45.07837" lon="5.63113">
        <ele>895.2</ele>
        <time>2010-11-19T13:01:39Z</time>
      </trkpt>
      <trkpt lat="45.07838" lon="5.63109">
        <ele>896</ele>
        <time>2010-11-19T13:01:43Z</time>
      </trkpt>
      <trkpt lat="45.07836" lon="5.63105">
        <ele>896.8</ele>
        <time>2010-11-19T13:01:47Z</time>
      </trkpt>
      <trkpt lat="45.07836" lon="5.63098">
        <ele>898.2</ele>
        <time>2010-11-19T13:01:54Z</time>
      </trkpt>
      <trkpt lat="45.07835" lon="5.63093">
        <ele>899</ele>
        <time>2010-11-19T13:01:58Z</time>
      </trkpt>
      <trkpt lat="45.07834" lon="5.63088">
        <ele>899.6</ele>
        <time>2010-11-19T13:02:02Z</time>
      </trkpt>
      <trkpt lat="45.07833" lon="5.63083">
        <ele>900</ele>
        <time>2010-11-19T13:02:05Z</time>
      </trkpt>
      <trkpt lat="45.0783" lon="5.63075">
        <ele>900.4</ele>
        <time>2010-11-19T13:02:10Z</time>
      </trkpt>
      <trkpt lat="45.0783" lon="5.63073">
        <ele>900.6</ele>
        <time>2010-11-19T13:02:11Z</time>
      </trkpt>
      <trkpt lat="45.07829" lon="5.63069">
        <ele>901</ele>
        <time>2010-11-19T13:02:14Z</time>
      </trkpt>
      <trkpt lat="45.07828" lon="5.63067">
        <ele>901</ele>
        <time>2010-11-19T13:02:15Z</time>
      </trkpt>
      <trkpt lat="45.07827" lon="5.63062">
        <ele>901.2</ele>
        <time>2010-11-19T13:02:18Z</time>
      </trkpt>
      <trkpt lat="45.07827" lon="5.6306">
        <ele>901.4</ele>
        <time>2010-11-19T13:02:20Z</time>
      </trkpt>
      <trkpt lat="45.07824" lon="5.63056">
        <ele>902.2</ele>
        <time>2010-11-19T13:02:25Z</time>
      </trkpt>
      <trkpt lat="45.0782" lon="5.63051">
        <ele>902.8</ele>
        <time>2010-11-19T13:02:29Z</time>
      </trkpt>
      <trkpt lat="45.07818" lon="5.63049">
        <ele>903.2</ele>
        <time>2010-11-19T13:02:31Z</time>
      </trkpt>
      <trkpt lat="45.07816" lon="5.63045">
        <ele>903.6</ele>
        <time>2010-11-19T13:02:34Z</time>
      </trkpt>
      <trkpt lat="45.07813" lon="5.63038">
        <ele>904.6</ele>
        <time>2010-11-19T13:02:39Z</time>
      </trkpt>
      <trkpt lat="45.07811" lon="5.63031">
        <ele>905.2</ele>
        <time>2010-11-19T13:02:43Z</time>
      </trkpt>
      <trkpt lat="45.0781" lon="5.63028">
        <ele>905.6</ele>
        <time>2010-11-19T13:02:45Z</time>
      </trkpt>
      <trkpt lat="45.07809" lon="5.63027">
        <ele>905.6</ele>
        <time>2010-11-19T13:02:46Z</time>
      </trkpt>
      <trkpt lat="45.07808" lon="5.63023">
        <ele>906</ele>
        <time>2010-11-19T13:02:48Z</time>
      </trkpt>
      <trkpt lat="45.07807" lon="5.63022">
        <ele>906</ele>
        <time>2010-11-19T13:02:49Z</time>
      </trkpt>
      <trkpt lat="45.07806" lon="5.6302">
        <ele>906</ele>
        <time>2010-11-19T13:02:50Z</time>
      </trkpt>
      <trkpt lat="45.07802" lon="5.6301">
        <ele>906.6</ele>
        <time>2010-11-19T13:02:56Z</time>
      </trkpt>
      <trkpt lat="45.078" lon="5.63006">
        <ele>907</ele>
        <time>2010-11-19T13:02:58Z</time>
      </trkpt>
      <trkpt lat="45.078" lon="5.63005">
        <ele>907</ele>
        <time>2010-11-19T13:02:59Z</time>
      </trkpt>
      <trkpt lat="45.07798" lon="5.63001">
        <ele>907.4</ele>
        <time>2010-11-19T13:03:01Z</time>
      </trkpt>
      <trkpt lat="45.07793" lon="5.62991">
        <ele>908.6</ele>
        <time>2010-11-19T13:03:08Z</time>
      </trkpt>
      <trkpt lat="45.07789" lon="5.62984">
        <ele>909.6</ele>
        <time>2010-11-19T13:03:13Z</time>
      </trkpt>
      <trkpt lat="45.07788" lon="5.62983">
        <ele>909.8</ele>
        <time>2010-11-19T13:03:14Z</time>
      </trkpt>
      <trkpt lat="45.07783" lon="5.62975">
        <ele>910.8</ele>
        <time>2010-11-19T13:03:19Z</time>
      </trkpt>
      <trkpt lat="45.07779" lon="5.62966">
        <ele>911.4</ele>
        <time>2010-11-19T13:03:24Z</time>
      </trkpt>
      <trkpt lat="45.07779" lon="5.62964">
        <ele>911.8</ele>
        <time>2010-11-19T13:03:25Z</time>
      </trkpt>
      <trkpt lat="45.07777" lon="5.62962">
        <ele>912</ele>
        <time>2010-11-19T13:03:26Z</time>
      </trkpt>
      <trkpt lat="45.07775" lon="5.62955">
        <ele>912.8</ele>
        <time>2010-11-19T13:03:30Z</time>
      </trkpt>
      <trkpt lat="45.07776" lon="5.62951">
        <ele>912.6</ele>
        <time>2010-11-19T13:03:31Z</time>
      </trkpt>
      <trkpt lat="45.07778" lon="5.62939">
        <ele>912.4</ele>
        <time>2010-11-19T13:03:35Z</time>
      </trkpt>
      <trkpt lat="45.07778" lon="5.62937">
        <ele>912.8</ele>
        <time>2010-11-19T13:03:37Z</time>
      </trkpt>
      <trkpt lat="45.07776" lon="5.62931">
        <ele>913.2</ele>
        <time>2010-11-19T13:03:41Z</time>
      </trkpt>
      <trkpt lat="45.07772" lon="5.62927">
        <ele>914</ele>
        <time>2010-11-19T13:03:44Z</time>
      </trkpt>
      <trkpt lat="45.07772" lon="5.62922">
        <ele>914</ele>
        <time>2010-11-19T13:03:46Z</time>
      </trkpt>
      <trkpt lat="45.07772" lon="5.62914">
        <ele>914</ele>
        <time>2010-11-19T13:03:49Z</time>
      </trkpt>
      <trkpt lat="45.07772" lon="5.62907">
        <ele>913.8</ele>
        <time>2010-11-19T13:03:52Z</time>
      </trkpt>
      <trkpt lat="45.07767" lon="5.629">
        <ele>914.2</ele>
        <time>2010-11-19T13:03:56Z</time>
      </trkpt>
      <trkpt lat="45.07767" lon="5.62899">
        <ele>914.4</ele>
        <time>2010-11-19T13:03:57Z</time>
      </trkpt>
      <trkpt lat="45.07766" lon="5.62892">
        <ele>914.4</ele>
        <time>2010-11-19T13:04:00Z</time>
      </trkpt>
      <trkpt lat="45.07765" lon="5.62891">
        <ele>914.4</ele>
        <time>2010-11-19T13:04:01Z</time>
      </trkpt>
      <trkpt lat="45.07764" lon="5.62887">
        <ele>914.2</ele>
        <time>2010-11-19T13:04:03Z</time>
      </trkpt>
      <trkpt lat="45.0776" lon="5.62876">
        <ele>914.8</ele>
        <time>2010-11-19T13:04:09Z</time>
      </trkpt>
      <trkpt lat="45.07758" lon="5.62871">
        <ele>914.8</ele>
        <time>2010-11-19T13:04:11Z</time>
      </trkpt>
      <trkpt lat="45.07755" lon="5.62868">
        <ele>914.6</ele>
        <time>2010-11-19T13:04:13Z</time>
      </trkpt>
      <trkpt lat="45.07753" lon="5.62866">
        <ele>914.6</ele>
        <time>2010-11-19T13:04:14Z</time>
      </trkpt>
      <trkpt lat="45.07751" lon="5.62859">
        <ele>914.6</ele>
        <time>2010-11-19T13:04:16Z</time>
      </trkpt>
      <trkpt lat="45.07748" lon="5.62847">
        <ele>914.4</ele>
        <time>2010-11-19T13:04:19Z</time>
      </trkpt>
      <trkpt lat="45.07747" lon="5.62843">
        <ele>914.4</ele>
        <time>2010-11-19T13:04:20Z</time>
      </trkpt>
      <trkpt lat="45.07744" lon="5.62832">
        <ele>914.2</ele>
        <time>2010-11-19T13:04:23Z</time>
      </trkpt>
      <trkpt lat="45.07738" lon="5.62819">
        <ele>914</ele>
        <time>2010-11-19T13:04:27Z</time>
      </trkpt>
      <trkpt lat="45.07737" lon="5.62816">
        <ele>913.8</ele>
        <time>2010-11-19T13:04:28Z</time>
      </trkpt>
      <trkpt lat="45.0773" lon="5.62802">
        <ele>913.6</ele>
        <time>2010-11-19T13:04:33Z</time>
      </trkpt>
      <trkpt lat="45.07729" lon="5.62798">
        <ele>913.6</ele>
        <time>2010-11-19T13:04:35Z</time>
      </trkpt>
      <trkpt lat="45.07727" lon="5.62796">
        <ele>913.6</ele>
        <time>2010-11-19T13:04:37Z</time>
      </trkpt>
      <trkpt lat="45.07725" lon="5.62795">
        <ele>913.6</ele>
        <time>2010-11-19T13:04:39Z</time>
      </trkpt>
      <trkpt lat="45.07724" lon="5.62789">
        <ele>913.6</ele>
        <time>2010-11-19T13:04:43Z</time>
      </trkpt>
      <trkpt lat="45.07724" lon="5.62787">
        <ele>913.4</ele>
        <time>2010-11-19T13:04:44Z</time>
      </trkpt>
      <trkpt lat="45.07723" lon="5.62785">
        <ele>913.4</ele>
        <time>2010-11-19T13:04:46Z</time>
      </trkpt>
      <trkpt lat="45.07723" lon="5.6278">
        <ele>913.4</ele>
        <time>2010-11-19T13:04:48Z</time>
      </trkpt>
      <trkpt lat="45.07724" lon="5.62778">
        <ele>913.2</ele>
        <time>2010-11-19T13:04:49Z</time>
      </trkpt>
      <trkpt lat="45.07724" lon="5.62774">
        <ele>913.2</ele>
        <time>2010-11-19T13:04:52Z</time>
      </trkpt>
      <trkpt lat="45.07723" lon="5.62767">
        <ele>913</ele>
        <time>2010-11-19T13:04:57Z</time>
      </trkpt>
      <trkpt lat="45.07721" lon="5.62761">
        <ele>913</ele>
        <time>2010-11-19T13:05:02Z</time>
      </trkpt>
      <trkpt lat="45.0772" lon="5.62757">
        <ele>913</ele>
        <time>2010-11-19T13:05:05Z</time>
      </trkpt>
      <trkpt lat="45.07721" lon="5.62752">
        <ele>913</ele>
        <time>2010-11-19T13:05:08Z</time>
      </trkpt>
      <trkpt lat="45.0772" lon="5.62748">
        <ele>913.2</ele>
        <time>2010-11-19T13:05:12Z</time>
      </trkpt>
      <trkpt lat="45.07719" lon="5.62748">
        <ele>913.2</ele>
        <time>2010-11-19T13:05:13Z</time>
      </trkpt>
      <trkpt lat="45.07719" lon="5.62746">
        <ele>913.4</ele>
        <time>2010-11-19T13:05:15Z</time>
      </trkpt>
      <trkpt lat="45.0772" lon="5.62742">
        <ele>913.8</ele>
        <time>2010-11-19T13:05:17Z</time>
      </trkpt>
      <trkpt lat="45.07719" lon="5.62735">
        <ele>914.4</ele>
        <time>2010-11-19T13:05:22Z</time>
      </trkpt>
      <trkpt lat="45.07719" lon="5.62734">
        <ele>914.8</ele>
        <time>2010-11-19T13:05:23Z</time>
      </trkpt>
      <trkpt lat="45.07719" lon="5.62732">
        <ele>915</ele>
        <time>2010-11-19T13:05:24Z</time>
      </trkpt>
      <trkpt lat="45.07719" lon="5.6273">
        <ele>915.4</ele>
        <time>2010-11-19T13:05:26Z</time>
      </trkpt>
      <trkpt lat="45.07719" lon="5.62729">
        <ele>915.6</ele>
        <time>2010-11-19T13:05:27Z</time>
      </trkpt>
      <trkpt lat="45.07719" lon="5.62727">
        <ele>916.2</ele>
        <time>2010-11-19T13:05:29Z</time>
      </trkpt>
      <trkpt lat="45.07719" lon="5.62726">
        <ele>916.8</ele>
        <time>2010-11-19T13:05:31Z</time>
      </trkpt>
      <trkpt lat="45.07719" lon="5.62724">
        <ele>917.2</ele>
        <time>2010-11-19T13:05:33Z</time>
      </trkpt>
      <trkpt lat="45.07719" lon="5.62721">
        <ele>917.8</ele>
        <time>2010-11-19T13:05:36Z</time>
      </trkpt>
      <trkpt lat="45.07719" lon="5.62716">
        <ele>918.8</ele>
        <time>2010-11-19T13:05:40Z</time>
      </trkpt>
      <trkpt lat="45.07721" lon="5.6271">
        <ele>920.4</ele>
        <time>2010-11-19T13:05:47Z</time>
      </trkpt>
      <trkpt lat="45.07721" lon="5.62703">
        <ele>922</ele>
        <time>2010-11-19T13:05:54Z</time>
      </trkpt>
      <trkpt lat="45.07719" lon="5.62699">
        <ele>923.6</ele>
        <time>2010-11-19T13:06:00Z</time>
      </trkpt>
      <trkpt lat="45.07719" lon="5.62697">
        <ele>924.4</ele>
        <time>2010-11-19T13:06:04Z</time>
      </trkpt>
      <trkpt lat="45.07719" lon="5.62695">
        <ele>924.8</ele>
        <time>2010-11-19T13:06:05Z</time>
      </trkpt>
      <trkpt lat="45.07719" lon="5.62692">
        <ele>925.4</ele>
        <time>2010-11-19T13:06:07Z</time>
      </trkpt>
      <trkpt lat="45.07719" lon="5.6269">
        <ele>926</ele>
        <time>2010-11-19T13:06:09Z</time>
      </trkpt>
      <trkpt lat="45.07718" lon="5.62685">
        <ele>927</ele>
        <time>2010-11-19T13:06:13Z</time>
      </trkpt>
      <trkpt lat="45.07719" lon="5.62679">
        <ele>928</ele>
        <time>2010-11-19T13:06:17Z</time>
      </trkpt>
      <trkpt lat="45.07719" lon="5.62677">
        <ele>928.4</ele>
        <time>2010-11-19T13:06:19Z</time>
      </trkpt>
      <trkpt lat="45.07719" lon="5.62673">
        <ele>928.8</ele>
        <time>2010-11-19T13:06:22Z</time>
      </trkpt>
      <trkpt lat="45.07719" lon="5.62671">
        <ele>929.2</ele>
        <time>2010-11-19T13:06:23Z</time>
      </trkpt>
      <trkpt lat="45.07718" lon="5.62669">
        <ele>929.4</ele>
        <time>2010-11-19T13:06:24Z</time>
      </trkpt>
      <trkpt lat="45.07717" lon="5.62666">
        <ele>930</ele>
        <time>2010-11-19T13:06:26Z</time>
      </trkpt>
      <trkpt lat="45.07716" lon="5.62662">
        <ele>930.6</ele>
        <time>2010-11-19T13:06:29Z</time>
      </trkpt>
      <trkpt lat="45.07716" lon="5.62655">
        <ele>932</ele>
        <time>2010-11-19T13:06:33Z</time>
      </trkpt>
      <trkpt lat="45.07715" lon="5.62645">
        <ele>933.8</ele>
        <time>2010-11-19T13:06:39Z</time>
      </trkpt>
      <trkpt lat="45.07717" lon="5.62636">
        <ele>935</ele>
        <time>2010-11-19T13:06:43Z</time>
      </trkpt>
      <trkpt lat="45.07718" lon="5.62633">
        <ele>935.4</ele>
        <time>2010-11-19T13:06:45Z</time>
      </trkpt>
      <trkpt lat="45.0772" lon="5.62627">
        <ele>936.2</ele>
        <time>2010-11-19T13:06:49Z</time>
      </trkpt>
      <trkpt lat="45.0772" lon="5.62625">
        <ele>936.4</ele>
        <time>2010-11-19T13:06:50Z</time>
      </trkpt>
      <trkpt lat="45.07721" lon="5.62624">
        <ele>936.4</ele>
        <time>2010-11-19T13:06:51Z</time>
      </trkpt>
      <trkpt lat="45.07722" lon="5.6262">
        <ele>936.6</ele>
        <time>2010-11-19T13:06:53Z</time>
      </trkpt>
      <trkpt lat="45.07722" lon="5.62611">
        <ele>937.4</ele>
        <time>2010-11-19T13:06:57Z</time>
      </trkpt>
      <trkpt lat="45.07722" lon="5.62609">
        <ele>937.4</ele>
        <time>2010-11-19T13:06:58Z</time>
      </trkpt>
      <trkpt lat="45.07721" lon="5.62605">
        <ele>938.2</ele>
        <time>2010-11-19T13:07:02Z</time>
      </trkpt>
      <trkpt lat="45.07722" lon="5.62601">
        <ele>938.8</ele>
        <time>2010-11-19T13:07:05Z</time>
      </trkpt>
      <trkpt lat="45.07723" lon="5.626">
        <ele>939.4</ele>
        <time>2010-11-19T13:07:07Z</time>
      </trkpt>
      <trkpt lat="45.07722" lon="5.62597">
        <ele>940.6</ele>
        <time>2010-11-19T13:07:12Z</time>
      </trkpt>
      <trkpt lat="45.07721" lon="5.62595">
        <ele>942</ele>
        <time>2010-11-19T13:07:17Z</time>
      </trkpt>
      <trkpt lat="45.07722" lon="5.62593">
        <ele>942.6</ele>
        <time>2010-11-19T13:07:19Z</time>
      </trkpt>
      <trkpt lat="45.07721" lon="5.62593">
        <ele>943.4</ele>
        <time>2010-11-19T13:07:21Z</time>
      </trkpt>
      <trkpt lat="45.07721" lon="5.6259">
        <ele>944.4</ele>
        <time>2010-11-19T13:07:24Z</time>
      </trkpt>
      <trkpt lat="45.07721" lon="5.62589">
        <ele>944.6</ele>
        <time>2010-11-19T13:07:25Z</time>
      </trkpt>
      <trkpt lat="45.0772" lon="5.62585">
        <ele>946.2</ele>
        <time>2010-11-19T13:07:32Z</time>
      </trkpt>
      <trkpt lat="45.07719" lon="5.62581">
        <ele>946.8</ele>
        <time>2010-11-19T13:07:35Z</time>
      </trkpt>
      <trkpt lat="45.0772" lon="5.62573">
        <ele>947.6</ele>
        <time>2010-11-19T13:07:40Z</time>
      </trkpt>
      <trkpt lat="45.07719" lon="5.62571">
        <ele>948</ele>
        <time>2010-11-19T13:07:42Z</time>
      </trkpt>
      <trkpt lat="45.07718" lon="5.6257">
        <ele>948.6</ele>
        <time>2010-11-19T13:07:44Z</time>
      </trkpt>
      <trkpt lat="45.07718" lon="5.62569">
        <ele>948.8</ele>
        <time>2010-11-19T13:07:45Z</time>
      </trkpt>
      <trkpt lat="45.07719" lon="5.62566">
        <ele>949.2</ele>
        <time>2010-11-19T13:07:47Z</time>
      </trkpt>
      <trkpt lat="45.07718" lon="5.62564">
        <ele>949.4</ele>
        <time>2010-11-19T13:07:49Z</time>
      </trkpt>
      <trkpt lat="45.07718" lon="5.62562">
        <ele>949.6</ele>
        <time>2010-11-19T13:07:50Z</time>
      </trkpt>
      <trkpt lat="45.07718" lon="5.62555">
        <ele>950.4</ele>
        <time>2010-11-19T13:07:54Z</time>
      </trkpt>
      <trkpt lat="45.07717" lon="5.62552">
        <ele>950.6</ele>
        <time>2010-11-19T13:07:56Z</time>
      </trkpt>
      <trkpt lat="45.07716" lon="5.62547">
        <ele>951</ele>
        <time>2010-11-19T13:07:59Z</time>
      </trkpt>
      <trkpt lat="45.07716" lon="5.62546">
        <ele>951.2</ele>
        <time>2010-11-19T13:08:00Z</time>
      </trkpt>
      <trkpt lat="45.07715" lon="5.62545">
        <ele>951.6</ele>
        <time>2010-11-19T13:08:03Z</time>
      </trkpt>
      <trkpt lat="45.07715" lon="5.62543">
        <ele>951.8</ele>
        <time>2010-11-19T13:08:04Z</time>
      </trkpt>
      <trkpt lat="45.07716" lon="5.62536">
        <ele>952.6</ele>
        <time>2010-11-19T13:08:09Z</time>
      </trkpt>
      <trkpt lat="45.07716" lon="5.62533">
        <ele>952.8</ele>
        <time>2010-11-19T13:08:11Z</time>
      </trkpt>
      <trkpt lat="45.07715" lon="5.62533">
        <ele>953</ele>
        <time>2010-11-19T13:08:12Z</time>
      </trkpt>
      <trkpt lat="45.07715" lon="5.62531">
        <ele>953.4</ele>
        <time>2010-11-19T13:08:14Z</time>
      </trkpt>
      <trkpt lat="45.07714" lon="5.62527">
        <ele>954.4</ele>
        <time>2010-11-19T13:08:18Z</time>
      </trkpt>
      <trkpt lat="45.07713" lon="5.62524">
        <ele>955.4</ele>
        <time>2010-11-19T13:08:22Z</time>
      </trkpt>
      <trkpt lat="45.07713" lon="5.62522">
        <ele>956</ele>
        <time>2010-11-19T13:08:24Z</time>
      </trkpt>
      <trkpt lat="45.07713" lon="5.62516">
        <ele>956.4</ele>
        <time>2010-11-19T13:08:27Z</time>
      </trkpt>
      <trkpt lat="45.07714" lon="5.62515">
        <ele>956.6</ele>
        <time>2010-11-19T13:08:28Z</time>
      </trkpt>
      <trkpt lat="45.07715" lon="5.62511">
        <ele>957.2</ele>
        <time>2010-11-19T13:08:31Z</time>
      </trkpt>
      <trkpt lat="45.07715" lon="5.62503">
        <ele>958</ele>
        <time>2010-11-19T13:08:36Z</time>
      </trkpt>
      <trkpt lat="45.07717" lon="5.62497">
        <ele>959.4</ele>
        <time>2010-11-19T13:08:41Z</time>
      </trkpt>
      <trkpt lat="45.07717" lon="5.62494">
        <ele>960.2</ele>
        <time>2010-11-19T13:08:43Z</time>
      </trkpt>
      <trkpt lat="45.07717" lon="5.62491">
        <ele>961.2</ele>
        <time>2010-11-19T13:08:46Z</time>
      </trkpt>
      <trkpt lat="45.07717" lon="5.62489">
        <ele>962.8</ele>
        <time>2010-11-19T13:08:50Z</time>
      </trkpt>
      <trkpt lat="45.07714" lon="5.62487">
        <ele>969.4</ele>
        <time>2010-11-19T13:09:04Z</time>
      </trkpt>
      <trkpt lat="45.07714" lon="5.62483">
        <ele>971.6</ele>
        <time>2010-11-19T13:09:08Z</time>
      </trkpt>
      <trkpt lat="45.07712" lon="5.6248">
        <ele>973.4</ele>
        <time>2010-11-19T13:09:11Z</time>
      </trkpt>
      <trkpt lat="45.07712" lon="5.62477">
        <ele>974.4</ele>
        <time>2010-11-19T13:09:13Z</time>
      </trkpt>
      <trkpt lat="45.07713" lon="5.62471">
        <ele>976.4</ele>
        <time>2010-11-19T13:09:18Z</time>
      </trkpt>
      <trkpt lat="45.07714" lon="5.62469">
        <ele>976.6</ele>
        <time>2010-11-19T13:09:19Z</time>
      </trkpt>
      <trkpt lat="45.07715" lon="5.62464">
        <ele>977.6</ele>
        <time>2010-11-19T13:09:23Z</time>
      </trkpt>
      <trkpt lat="45.07716" lon="5.62459">
        <ele>978.8</ele>
        <time>2010-11-19T13:09:28Z</time>
      </trkpt>
      <trkpt lat="45.07716" lon="5.6246">
        <ele>979.4</ele>
        <time>2010-11-19T13:09:29Z</time>
      </trkpt>
      <trkpt lat="45.07716" lon="5.62459">
        <ele>980.2</ele>
        <time>2010-11-19T13:09:31Z</time>
      </trkpt>
      <trkpt lat="45.07713" lon="5.62457">
        <ele>982.6</ele>
        <time>2010-11-19T13:09:35Z</time>
      </trkpt>
      <trkpt lat="45.07715" lon="5.62452">
        <ele>987.2</ele>
        <time>2010-11-19T13:09:43Z</time>
      </trkpt>
      <trkpt lat="45.07719" lon="5.6245">
        <ele>988.6</ele>
        <time>2010-11-19T13:09:47Z</time>
      </trkpt>
      <trkpt lat="45.07718" lon="5.62451">
        <ele>989.6</ele>
        <time>2010-11-19T13:09:49Z</time>
      </trkpt>
      <trkpt lat="45.07716" lon="5.62451">
        <ele>992.8</ele>
        <time>2010-11-19T13:09:55Z</time>
      </trkpt>
      <trkpt lat="45.07726" lon="5.62452">
        <ele>998.2</ele>
        <time>2010-11-19T13:10:03Z</time>
      </trkpt>
      <trkpt lat="45.0773" lon="5.62452">
        <ele>999.8</ele>
        <time>2010-11-19T13:10:06Z</time>
      </trkpt>
      <trkpt lat="45.07733" lon="5.6245">
        <ele>1001.8</ele>
        <time>2010-11-19T13:10:10Z</time>
      </trkpt>
      <trkpt lat="45.07741" lon="5.62442">
        <ele>1004.8</ele>
        <time>2010-11-19T13:10:19Z</time>
      </trkpt>
      <trkpt lat="45.07743" lon="5.62442">
        <ele>1005</ele>
        <time>2010-11-19T13:10:21Z</time>
      </trkpt>
      <trkpt lat="45.07744" lon="5.62442">
        <ele>1005</ele>
        <time>2010-11-19T13:10:22Z</time>
      </trkpt>
      <trkpt lat="45.07746" lon="5.62448">
        <ele>1005.8</ele>
        <time>2010-11-19T13:10:27Z</time>
      </trkpt>
      <trkpt lat="45.07745" lon="5.62451">
        <ele>1005.6</ele>
        <time>2010-11-19T13:10:33Z</time>
      </trkpt>
      <trkpt lat="45.07747" lon="5.62453">
        <ele>1005</ele>
        <time>2010-11-19T13:10:43Z</time>
      </trkpt>
      <trkpt lat="45.07747" lon="5.62453">
        <ele>1004.8</ele>
        <time>2010-11-19T13:10:44Z</time>
      </trkpt>
      <trkpt lat="45.07749" lon="5.62456">
        <ele>1004.6</ele>
        <time>2010-11-19T13:10:48Z</time>
      </trkpt>
      <trkpt lat="45.0775" lon="5.62459">
        <ele>1004.8</ele>
        <time>2010-11-19T13:10:56Z</time>
      </trkpt>
      <trkpt lat="45.07753" lon="5.62457">
        <ele>1004.8</ele>
        <time>2010-11-19T13:11:00Z</time>
      </trkpt>
      <trkpt lat="45.07754" lon="5.62456">
        <ele>1005.2</ele>
        <time>2010-11-19T13:11:01Z</time>
      </trkpt>
      <trkpt lat="45.07757" lon="5.62456">
        <ele>1005.2</ele>
        <time>2010-11-19T13:11:04Z</time>
      </trkpt>
      <trkpt lat="45.07758" lon="5.62459">
        <ele>1005</ele>
        <time>2010-11-19T13:11:07Z</time>
      </trkpt>
      <trkpt lat="45.07759" lon="5.62462">
        <ele>1005</ele>
        <time>2010-11-19T13:11:11Z</time>
      </trkpt>
      <trkpt lat="45.07763" lon="5.62466">
        <ele>1005</ele>
        <time>2010-11-19T13:11:21Z</time>
      </trkpt>
      <trkpt lat="45.07766" lon="5.62466">
        <ele>1005.2</ele>
        <time>2010-11-19T13:11:26Z</time>
      </trkpt>
      <trkpt lat="45.07768" lon="5.62467">
        <ele>1005.4</ele>
        <time>2010-11-19T13:11:28Z</time>
      </trkpt>
      <trkpt lat="45.07767" lon="5.62471">
        <ele>1005.8</ele>
        <time>2010-11-19T13:11:30Z</time>
      </trkpt>
      <trkpt lat="45.0777" lon="5.62474">
        <ele>1006.6</ele>
        <time>2010-11-19T13:11:33Z</time>
      </trkpt>
      <trkpt lat="45.07771" lon="5.62474">
        <ele>1006.6</ele>
        <time>2010-11-19T13:11:34Z</time>
      </trkpt>
      <trkpt lat="45.07772" lon="5.62473">
        <ele>1007.2</ele>
        <time>2010-11-19T13:11:36Z</time>
      </trkpt>
      <trkpt lat="45.07771" lon="5.62475">
        <ele>1008.2</ele>
        <time>2010-11-19T13:11:38Z</time>
      </trkpt>
      <trkpt lat="45.07772" lon="5.62478">
        <ele>1010.2</ele>
        <time>2010-11-19T13:11:43Z</time>
      </trkpt>
      <trkpt lat="45.07774" lon="5.62482">
        <ele>1011.2</ele>
        <time>2010-11-19T13:11:46Z</time>
      </trkpt>
      <trkpt lat="45.07775" lon="5.62483">
        <ele>1011.4</ele>
        <time>2010-11-19T13:11:47Z</time>
      </trkpt>
      <trkpt lat="45.07779" lon="5.62484">
        <ele>1012</ele>
        <time>2010-11-19T13:11:50Z</time>
      </trkpt>
      <trkpt lat="45.0778" lon="5.62485">
        <ele>1012.4</ele>
        <time>2010-11-19T13:11:52Z</time>
      </trkpt>
      <trkpt lat="45.0778" lon="5.62487">
        <ele>1013</ele>
        <time>2010-11-19T13:11:54Z</time>
      </trkpt>
      <trkpt lat="45.07782" lon="5.62488">
        <ele>1013.4</ele>
        <time>2010-11-19T13:11:56Z</time>
      </trkpt>
      <trkpt lat="45.07782" lon="5.62489">
        <ele>1013.8</ele>
        <time>2010-11-19T13:11:57Z</time>
      </trkpt>
      <trkpt lat="45.07785" lon="5.62491">
        <ele>1014.6</ele>
        <time>2010-11-19T13:12:01Z</time>
      </trkpt>
      <trkpt lat="45.07788" lon="5.62491">
        <ele>1015.4</ele>
        <time>2010-11-19T13:12:05Z</time>
      </trkpt>
      <trkpt lat="45.07791" lon="5.62493">
        <ele>1016.4</ele>
        <time>2010-11-19T13:12:10Z</time>
      </trkpt>
      <trkpt lat="45.07792" lon="5.62492">
        <ele>1016.6</ele>
        <time>2010-11-19T13:12:11Z</time>
      </trkpt>
      <trkpt lat="45.07795" lon="5.62492">
        <ele>1016.8</ele>
        <time>2010-11-19T13:12:14Z</time>
      </trkpt>
      <trkpt lat="45.07796" lon="5.62493">
        <ele>1017</ele>
        <time>2010-11-19T13:12:15Z</time>
      </trkpt>
      <trkpt lat="45.07798" lon="5.62494">
        <ele>1017.2</ele>
        <time>2010-11-19T13:12:18Z</time>
      </trkpt>
      <trkpt lat="45.07804" lon="5.62497">
        <ele>1016.8</ele>
        <time>2010-11-19T13:12:24Z</time>
      </trkpt>
      <trkpt lat="45.07808" lon="5.62497">
        <ele>1016.8</ele>
        <time>2010-11-19T13:12:29Z</time>
      </trkpt>
      <trkpt lat="45.07811" lon="5.62496">
        <ele>1017.2</ele>
        <time>2010-11-19T13:12:35Z</time>
      </trkpt>
      <trkpt lat="45.07811" lon="5.62497">
        <ele>1017.4</ele>
        <time>2010-11-19T13:12:36Z</time>
      </trkpt>
      <trkpt lat="45.0781" lon="5.62496">
        <ele>1018.6</ele>
        <time>2010-11-19T13:12:40Z</time>
      </trkpt>
      <trkpt lat="45.07812" lon="5.62499">
        <ele>1019.4</ele>
        <time>2010-11-19T13:12:43Z</time>
      </trkpt>
      <trkpt lat="45.07813" lon="5.62501">
        <ele>1020.4</ele>
        <time>2010-11-19T13:12:46Z</time>
      </trkpt>
      <trkpt lat="45.07811" lon="5.62502">
        <ele>1021</ele>
        <time>2010-11-19T13:12:47Z</time>
      </trkpt>
      <trkpt lat="45.07811" lon="5.62503">
        <ele>1021.4</ele>
        <time>2010-11-19T13:12:48Z</time>
      </trkpt>
      <trkpt lat="45.07814" lon="5.62504">
        <ele>1023</ele>
        <time>2010-11-19T13:12:52Z</time>
      </trkpt>
      <trkpt lat="45.07814" lon="5.62505">
        <ele>1023.4</ele>
        <time>2010-11-19T13:12:53Z</time>
      </trkpt>
      <trkpt lat="45.07815" lon="5.62506">
        <ele>1025.2</ele>
        <time>2010-11-19T13:12:57Z</time>
      </trkpt>
      <trkpt lat="45.07819" lon="5.62508">
        <ele>1027.6</ele>
        <time>2010-11-19T13:13:03Z</time>
      </trkpt>
      <trkpt lat="45.07822" lon="5.62509">
        <ele>1027.8</ele>
        <time>2010-11-19T13:13:05Z</time>
      </trkpt>
      <trkpt lat="45.07823" lon="5.6251">
        <ele>1028.4</ele>
        <time>2010-11-19T13:13:07Z</time>
      </trkpt>
      <trkpt lat="45.07825" lon="5.62513">
        <ele>1030.4</ele>
        <time>2010-11-19T13:13:13Z</time>
      </trkpt>
      <trkpt lat="45.07826" lon="5.62514">
        <ele>1030.6</ele>
        <time>2010-11-19T13:13:14Z</time>
      </trkpt>
      <trkpt lat="45.0783" lon="5.62513">
        <ele>1032.2</ele>
        <time>2010-11-19T13:13:21Z</time>
      </trkpt>
      <trkpt lat="45.07832" lon="5.62518">
        <ele>1034.4</ele>
        <time>2010-11-19T13:13:28Z</time>
      </trkpt>
      <trkpt lat="45.07831" lon="5.62519">
        <ele>1036.6</ele>
        <time>2010-11-19T13:13:35Z</time>
      </trkpt>
      <trkpt lat="45.07834" lon="5.62523">
        <ele>1039</ele>
        <time>2010-11-19T13:13:42Z</time>
      </trkpt>
      <trkpt lat="45.07834" lon="5.62522">
        <ele>1042.6</ele>
        <time>2010-11-19T13:13:49Z</time>
      </trkpt>
      <trkpt lat="45.0784" lon="5.62528">
        <ele>1043.8</ele>
        <time>2010-11-19T13:13:54Z</time>
      </trkpt>
      <trkpt lat="45.07843" lon="5.62532">
        <ele>1044.4</ele>
        <time>2010-11-19T13:13:57Z</time>
      </trkpt>
      <trkpt lat="45.07843" lon="5.62533">
        <ele>1045</ele>
        <time>2010-11-19T13:13:59Z</time>
      </trkpt>
      <trkpt lat="45.07843" lon="5.62536">
        <ele>1045.8</ele>
        <time>2010-11-19T13:14:02Z</time>
      </trkpt>
      <trkpt lat="45.07844" lon="5.62537">
        <ele>1047</ele>
        <time>2010-11-19T13:14:06Z</time>
      </trkpt>
      <trkpt lat="45.07849" lon="5.62541">
        <ele>1047.8</ele>
        <time>2010-11-19T13:14:10Z</time>
      </trkpt>
      <trkpt lat="45.07849" lon="5.62544">
        <ele>1049</ele>
        <time>2010-11-19T13:14:13Z</time>
      </trkpt>
      <trkpt lat="45.07848" lon="5.62546">
        <ele>1049.4</ele>
        <time>2010-11-19T13:14:15Z</time>
      </trkpt>
      <trkpt lat="45.07847" lon="5.62548">
        <ele>1050.4</ele>
        <time>2010-11-19T13:14:20Z</time>
      </trkpt>
      <trkpt lat="45.07848" lon="5.62549">
        <ele>1051.2</ele>
        <time>2010-11-19T13:14:22Z</time>
      </trkpt>
      <trkpt lat="45.07849" lon="5.62551">
        <ele>1051.6</ele>
        <time>2010-11-19T13:14:25Z</time>
      </trkpt>
      <trkpt lat="45.07849" lon="5.62558">
        <ele>1059.8</ele>
        <time>2010-11-19T13:14:46Z</time>
      </trkpt>
      <trkpt lat="45.07854" lon="5.62562">
        <ele>1061</ele>
        <time>2010-11-19T13:14:50Z</time>
      </trkpt>
      <trkpt lat="45.07854" lon="5.62564">
        <ele>1061.8</ele>
        <time>2010-11-19T13:14:52Z</time>
      </trkpt>
      <trkpt lat="45.07854" lon="5.62566">
        <ele>1062.4</ele>
        <time>2010-11-19T13:14:54Z</time>
      </trkpt>
      <trkpt lat="45.07855" lon="5.62568">
        <ele>1062.6</ele>
        <time>2010-11-19T13:14:56Z</time>
      </trkpt>
      <trkpt lat="45.07855" lon="5.62571">
        <ele>1064.6</ele>
        <time>2010-11-19T13:15:01Z</time>
      </trkpt>
      <trkpt lat="45.0786" lon="5.62579">
        <ele>1068.4</ele>
        <time>2010-11-19T13:15:10Z</time>
      </trkpt>
      <trkpt lat="45.07856" lon="5.62578">
        <ele>1069.8</ele>
        <time>2010-11-19T13:15:13Z</time>
      </trkpt>
      <trkpt lat="45.07854" lon="5.62579">
        <ele>1070.4</ele>
        <time>2010-11-19T13:15:16Z</time>
      </trkpt>
      <trkpt lat="45.07854" lon="5.6258">
        <ele>1071.2</ele>
        <time>2010-11-19T13:15:18Z</time>
      </trkpt>
      <trkpt lat="45.07853" lon="5.62582">
        <ele>1072.4</ele>
        <time>2010-11-19T13:15:22Z</time>
      </trkpt>
      <trkpt lat="45.07858" lon="5.62587">
        <ele>1076.8</ele>
        <time>2010-11-19T13:15:38Z</time>
      </trkpt>
      <trkpt lat="45.07863" lon="5.62593">
        <ele>1077</ele>
        <time>2010-11-19T13:15:41Z</time>
      </trkpt>
      <trkpt lat="45.07864" lon="5.62595">
        <ele>1076.8</ele>
        <time>2010-11-19T13:15:42Z</time>
      </trkpt>
      <trkpt lat="45.07865" lon="5.62594">
        <ele>1076.6</ele>
        <time>2010-11-19T13:15:47Z</time>
      </trkpt>
      <trkpt lat="45.07865" lon="5.62594">
        <ele>1076.6</ele>
        <time>2010-11-19T13:15:49Z</time>
      </trkpt>
      <trkpt lat="45.07867" lon="5.62592">
        <ele>1076.8</ele>
        <time>2010-11-19T13:15:53Z</time>
      </trkpt>
      <trkpt lat="45.07869" lon="5.62595">
        <ele>1077</ele>
        <time>2010-11-19T13:15:56Z</time>
      </trkpt>
      <trkpt lat="45.07872" lon="5.62595">
        <ele>1077</ele>
        <time>2010-11-19T13:15:58Z</time>
      </trkpt>
      <trkpt lat="45.07874" lon="5.62595">
        <ele>1076.8</ele>
        <time>2010-11-19T13:16:00Z</time>
      </trkpt>
      <trkpt lat="45.07876" lon="5.62594">
        <ele>1076.8</ele>
        <time>2010-11-19T13:16:03Z</time>
      </trkpt>
      <trkpt lat="45.07882" lon="5.62597">
        <ele>1076.8</ele>
        <time>2010-11-19T13:16:09Z</time>
      </trkpt>
      <trkpt lat="45.07882" lon="5.62598">
        <ele>1076.8</ele>
        <time>2010-11-19T13:16:10Z</time>
      </trkpt>
      <trkpt lat="45.07883" lon="5.62601">
        <ele>1077.2</ele>
        <time>2010-11-19T13:16:13Z</time>
      </trkpt>
      <trkpt lat="45.07882" lon="5.62602">
        <ele>1077.2</ele>
        <time>2010-11-19T13:16:14Z</time>
      </trkpt>
      <trkpt lat="45.0788" lon="5.62603">
        <ele>1077.6</ele>
        <time>2010-11-19T13:16:15Z</time>
      </trkpt>
      <trkpt lat="45.07877" lon="5.62607">
        <ele>1077.8</ele>
        <time>2010-11-19T13:16:19Z</time>
      </trkpt>
      <trkpt lat="45.07873" lon="5.62609">
        <ele>1079.2</ele>
        <time>2010-11-19T13:16:24Z</time>
      </trkpt>
      <trkpt lat="45.07875" lon="5.62611">
        <ele>1079.4</ele>
        <time>2010-11-19T13:16:26Z</time>
      </trkpt>
      <trkpt lat="45.07875" lon="5.62615">
        <ele>1079.8</ele>
        <time>2010-11-19T13:16:28Z</time>
      </trkpt>
      <trkpt lat="45.07874" lon="5.62619">
        <ele>1081.4</ele>
        <time>2010-11-19T13:16:32Z</time>
      </trkpt>
      <trkpt lat="45.07877" lon="5.62624">
        <ele>1082.8</ele>
        <time>2010-11-19T13:16:36Z</time>
      </trkpt>
      <trkpt lat="45.07878" lon="5.62625">
        <ele>1083</ele>
        <time>2010-11-19T13:16:37Z</time>
      </trkpt>
      <trkpt lat="45.07877" lon="5.62627">
        <ele>1083.4</ele>
        <time>2010-11-19T13:16:39Z</time>
      </trkpt>
      <trkpt lat="45.07876" lon="5.62627">
        <ele>1083.6</ele>
        <time>2010-11-19T13:16:40Z</time>
      </trkpt>
      <trkpt lat="45.07874" lon="5.62631">
        <ele>1084.6</ele>
        <time>2010-11-19T13:16:44Z</time>
      </trkpt>
      <trkpt lat="45.07871" lon="5.62633">
        <ele>1085.4</ele>
        <time>2010-11-19T13:16:48Z</time>
      </trkpt>
      <trkpt lat="45.07872" lon="5.62633">
        <ele>1085.6</ele>
        <time>2010-11-19T13:16:49Z</time>
      </trkpt>
      <trkpt lat="45.07871" lon="5.62634">
        <ele>1086</ele>
        <time>2010-11-19T13:16:53Z</time>
      </trkpt>
      <trkpt lat="45.07872" lon="5.62637">
        <ele>1086</ele>
        <time>2010-11-19T13:16:56Z</time>
      </trkpt>
      <trkpt lat="45.07876" lon="5.62636">
        <ele>1085.8</ele>
        <time>2010-11-19T13:17:03Z</time>
      </trkpt>
      <trkpt lat="45.07877" lon="5.62642">
        <ele>1086.4</ele>
        <time>2010-11-19T13:17:07Z</time>
      </trkpt>
      <trkpt lat="45.07877" lon="5.62642">
        <ele>1086.4</ele>
        <time>2010-11-19T13:17:08Z</time>
      </trkpt>
      <trkpt lat="45.07877" lon="5.62646">
        <ele>1086.8</ele>
        <time>2010-11-19T13:17:12Z</time>
      </trkpt>
      <trkpt lat="45.07877" lon="5.62648">
        <ele>1087.2</ele>
        <time>2010-11-19T13:17:14Z</time>
      </trkpt>
      <trkpt lat="45.07877" lon="5.6265">
        <ele>1087.4</ele>
        <time>2010-11-19T13:17:16Z</time>
      </trkpt>
      <trkpt lat="45.07877" lon="5.62656">
        <ele>1087.6</ele>
        <time>2010-11-19T13:17:21Z</time>
      </trkpt>
      <trkpt lat="45.07876" lon="5.62655">
        <ele>1087.8</ele>
        <time>2010-11-19T13:17:22Z</time>
      </trkpt>
      <trkpt lat="45.07874" lon="5.62658">
        <ele>1087.4</ele>
        <time>2010-11-19T13:17:25Z</time>
      </trkpt>
      <trkpt lat="45.07875" lon="5.6266">
        <ele>1087.8</ele>
        <time>2010-11-19T13:17:28Z</time>
      </trkpt>
      <trkpt lat="45.07875" lon="5.62661">
        <ele>1088</ele>
        <time>2010-11-19T13:17:29Z</time>
      </trkpt>
      <trkpt lat="45.07877" lon="5.62662">
        <ele>1088.6</ele>
        <time>2010-11-19T13:17:33Z</time>
      </trkpt>
      <trkpt lat="45.0788" lon="5.62663">
        <ele>1089</ele>
        <time>2010-11-19T13:17:39Z</time>
      </trkpt>
      <trkpt lat="45.07884" lon="5.62665">
        <ele>1089</ele>
        <time>2010-11-19T13:17:43Z</time>
      </trkpt>
      <trkpt lat="45.07886" lon="5.62666">
        <ele>1089.2</ele>
        <time>2010-11-19T13:17:45Z</time>
      </trkpt>
      <trkpt lat="45.07886" lon="5.62668">
        <ele>1089.4</ele>
        <time>2010-11-19T13:17:48Z</time>
      </trkpt>
      <trkpt lat="45.07885" lon="5.62669">
        <ele>1089.6</ele>
        <time>2010-11-19T13:17:49Z</time>
      </trkpt>
      <trkpt lat="45.07881" lon="5.62675">
        <ele>1089.6</ele>
        <time>2010-11-19T13:17:53Z</time>
      </trkpt>
      <trkpt lat="45.07881" lon="5.62675">
        <ele>1089.6</ele>
        <time>2010-11-19T13:17:54Z</time>
      </trkpt>
      <trkpt lat="45.0788" lon="5.62678">
        <ele>1090</ele>
        <time>2010-11-19T13:17:57Z</time>
      </trkpt>
      <trkpt lat="45.0788" lon="5.62681">
        <ele>1091.4</ele>
        <time>2010-11-19T13:18:04Z</time>
      </trkpt>
      <trkpt lat="45.07877" lon="5.62685">
        <ele>1092.6</ele>
        <time>2010-11-19T13:18:13Z</time>
      </trkpt>
      <trkpt lat="45.07878" lon="5.62687">
        <ele>1093.4</ele>
        <time>2010-11-19T13:18:18Z</time>
      </trkpt>
      <trkpt lat="45.07877" lon="5.6269">
        <ele>1094.6</ele>
        <time>2010-11-19T13:18:23Z</time>
      </trkpt>
      <trkpt lat="45.07877" lon="5.62691">
        <ele>1094.8</ele>
        <time>2010-11-19T13:18:24Z</time>
      </trkpt>
      <trkpt lat="45.07875" lon="5.62693">
        <ele>1095.6</ele>
        <time>2010-11-19T13:18:28Z</time>
      </trkpt>
      <trkpt lat="45.07872" lon="5.62694">
        <ele>1096.8</ele>
        <time>2010-11-19T13:18:33Z</time>
      </trkpt>
      <trkpt lat="45.0787" lon="5.62695">
        <ele>1097.8</ele>
        <time>2010-11-19T13:18:38Z</time>
      </trkpt>
      <trkpt lat="45.07869" lon="5.62694">
        <ele>1098.2</ele>
        <time>2010-11-19T13:18:39Z</time>
      </trkpt>
      <trkpt lat="45.07868" lon="5.62694">
        <ele>1098.4</ele>
        <time>2010-11-19T13:18:40Z</time>
      </trkpt>
      <trkpt lat="45.07866" lon="5.62696">
        <ele>1098.8</ele>
        <time>2010-11-19T13:18:43Z</time>
      </trkpt>
      <trkpt lat="45.07864" lon="5.62697">
        <ele>1099.8</ele>
        <time>2010-11-19T13:18:46Z</time>
      </trkpt>
      <trkpt lat="45.07862" lon="5.62697">
        <ele>1100</ele>
        <time>2010-11-19T13:18:48Z</time>
      </trkpt>
      <trkpt lat="45.07862" lon="5.62698">
        <ele>1100.2</ele>
        <time>2010-11-19T13:18:49Z</time>
      </trkpt>
      <trkpt lat="45.07862" lon="5.627">
        <ele>1100.8</ele>
        <time>2010-11-19T13:18:51Z</time>
      </trkpt>
      <trkpt lat="45.07862" lon="5.62699">
        <ele>1101.2</ele>
        <time>2010-11-19T13:18:53Z</time>
      </trkpt>
      <trkpt lat="45.07864" lon="5.627">
        <ele>1102.4</ele>
        <time>2010-11-19T13:18:58Z</time>
      </trkpt>
      <trkpt lat="45.07865" lon="5.62704">
        <ele>1102.8</ele>
        <time>2010-11-19T13:19:01Z</time>
      </trkpt>
      <trkpt lat="45.07865" lon="5.62705">
        <ele>1103</ele>
        <time>2010-11-19T13:19:02Z</time>
      </trkpt>
      <trkpt lat="45.07866" lon="5.62708">
        <ele>1104</ele>
        <time>2010-11-19T13:19:06Z</time>
      </trkpt>
      <trkpt lat="45.07869" lon="5.6271">
        <ele>1104.8</ele>
        <time>2010-11-19T13:19:11Z</time>
      </trkpt>
      <trkpt lat="45.07874" lon="5.62711">
        <ele>1105.2</ele>
        <time>2010-11-19T13:19:15Z</time>
      </trkpt>
      <trkpt lat="45.07875" lon="5.6271">
        <ele>1105.4</ele>
        <time>2010-11-19T13:19:17Z</time>
      </trkpt>
      <trkpt lat="45.07879" lon="5.6271">
        <ele>1105.6</ele>
        <time>2010-11-19T13:19:22Z</time>
      </trkpt>
      <trkpt lat="45.07884" lon="5.62709">
        <ele>1106</ele>
        <time>2010-11-19T13:19:27Z</time>
      </trkpt>
      <trkpt lat="45.07886" lon="5.62709">
        <ele>1106</ele>
        <time>2010-11-19T13:19:28Z</time>
      </trkpt>
      <trkpt lat="45.07889" lon="5.62705">
        <ele>1107</ele>
        <time>2010-11-19T13:19:35Z</time>
      </trkpt>
      <trkpt lat="45.07893" lon="5.62701">
        <ele>1107.8</ele>
        <time>2010-11-19T13:19:39Z</time>
      </trkpt>
      <trkpt lat="45.07895" lon="5.627">
        <ele>1108.2</ele>
        <time>2010-11-19T13:19:41Z</time>
      </trkpt>
      <trkpt lat="45.07898" lon="5.62697">
        <ele>1109.2</ele>
        <time>2010-11-19T13:19:46Z</time>
      </trkpt>
      <trkpt lat="45.07901" lon="5.62695">
        <ele>1110</ele>
        <time>2010-11-19T13:19:49Z</time>
      </trkpt>
      <trkpt lat="45.07902" lon="5.62692">
        <ele>1110.6</ele>
        <time>2010-11-19T13:19:53Z</time>
      </trkpt>
      <trkpt lat="45.07905" lon="5.6269">
        <ele>1111.2</ele>
        <time>2010-11-19T13:19:58Z</time>
      </trkpt>
      <trkpt lat="45.07909" lon="5.6269">
        <ele>1111.2</ele>
        <time>2010-11-19T13:20:02Z</time>
      </trkpt>
      <trkpt lat="45.0791" lon="5.62689">
        <ele>1111.2</ele>
        <time>2010-11-19T13:20:03Z</time>
      </trkpt>
      <trkpt lat="45.07913" lon="5.62686">
        <ele>1112</ele>
        <time>2010-11-19T13:20:08Z</time>
      </trkpt>
      <trkpt lat="45.07915" lon="5.62684">
        <ele>1112</ele>
        <time>2010-11-19T13:20:10Z</time>
      </trkpt>
      <trkpt lat="45.07916" lon="5.62684">
        <ele>1112.6</ele>
        <time>2010-11-19T13:20:12Z</time>
      </trkpt>
      <trkpt lat="45.07917" lon="5.62683">
        <ele>1113.2</ele>
        <time>2010-11-19T13:20:14Z</time>
      </trkpt>
      <trkpt lat="45.07918" lon="5.62683">
        <ele>1113.6</ele>
        <time>2010-11-19T13:20:16Z</time>
      </trkpt>
      <trkpt lat="45.07919" lon="5.62681">
        <ele>1114.2</ele>
        <time>2010-11-19T13:20:18Z</time>
      </trkpt>
      <trkpt lat="45.07921" lon="5.6268">
        <ele>1114.6</ele>
        <time>2010-11-19T13:20:20Z</time>
      </trkpt>
      <trkpt lat="45.07921" lon="5.62679">
        <ele>1115</ele>
        <time>2010-11-19T13:20:21Z</time>
      </trkpt>
      <trkpt lat="45.07924" lon="5.6268">
        <ele>1116.2</ele>
        <time>2010-11-19T13:20:26Z</time>
      </trkpt>
      <trkpt lat="45.07926" lon="5.62681">
        <ele>1117.6</ele>
        <time>2010-11-19T13:20:32Z</time>
      </trkpt>
      <trkpt lat="45.07929" lon="5.6268">
        <ele>1118.8</ele>
        <time>2010-11-19T13:20:37Z</time>
      </trkpt>
      <trkpt lat="45.0793" lon="5.6268">
        <ele>1119</ele>
        <time>2010-11-19T13:20:38Z</time>
      </trkpt>
      <trkpt lat="45.07931" lon="5.6268">
        <ele>1120.6</ele>
        <time>2010-11-19T13:20:44Z</time>
      </trkpt>
      <trkpt lat="45.07934" lon="5.62678">
        <ele>1122</ele>
        <time>2010-11-19T13:20:49Z</time>
      </trkpt>
      <trkpt lat="45.07936" lon="5.62677">
        <ele>1123</ele>
        <time>2010-11-19T13:20:53Z</time>
      </trkpt>
      <trkpt lat="45.07938" lon="5.62675">
        <ele>1124.6</ele>
        <time>2010-11-19T13:20:58Z</time>
      </trkpt>
      <trkpt lat="45.07941" lon="5.62672">
        <ele>1126.2</ele>
        <time>2010-11-19T13:21:04Z</time>
      </trkpt>
      <trkpt lat="45.07943" lon="5.62671">
        <ele>1126.8</ele>
        <time>2010-11-19T13:21:06Z</time>
      </trkpt>
      <trkpt lat="45.07944" lon="5.6267">
        <ele>1127.8</ele>
        <time>2010-11-19T13:21:09Z</time>
      </trkpt>
      <trkpt lat="45.07944" lon="5.62669">
        <ele>1128.2</ele>
        <time>2010-11-19T13:21:10Z</time>
      </trkpt>
      <trkpt lat="45.07946" lon="5.62669">
        <ele>1129</ele>
        <time>2010-11-19T13:21:14Z</time>
      </trkpt>
      <trkpt lat="45.07948" lon="5.62668">
        <ele>1130.6</ele>
        <time>2010-11-19T13:21:21Z</time>
      </trkpt>
      <trkpt lat="45.07952" lon="5.62667">
        <ele>1131.4</ele>
        <time>2010-11-19T13:21:26Z</time>
      </trkpt>
      <trkpt lat="45.07955" lon="5.62666">
        <ele>1132.6</ele>
        <time>2010-11-19T13:21:31Z</time>
      </trkpt>
      <trkpt lat="45.07959" lon="5.62665">
        <ele>1133.6</ele>
        <time>2010-11-19T13:21:35Z</time>
      </trkpt>
      <trkpt lat="45.0796" lon="5.62664">
        <ele>1133.8</ele>
        <time>2010-11-19T13:21:36Z</time>
      </trkpt>
      <trkpt lat="45.07961" lon="5.62664">
        <ele>1135</ele>
        <time>2010-11-19T13:21:41Z</time>
      </trkpt>
      <trkpt lat="45.07963" lon="5.62663">
        <ele>1135.6</ele>
        <time>2010-11-19T13:21:43Z</time>
      </trkpt>
      <trkpt lat="45.07966" lon="5.62663">
        <ele>1136.8</ele>
        <time>2010-11-19T13:21:49Z</time>
      </trkpt>
      <trkpt lat="45.07969" lon="5.62662">
        <ele>1138.2</ele>
        <time>2010-11-19T13:21:53Z</time>
      </trkpt>
      <trkpt lat="45.07971" lon="5.62662">
        <ele>1139.4</ele>
        <time>2010-11-19T13:21:58Z</time>
      </trkpt>
      <trkpt lat="45.07973" lon="5.62658">
        <ele>1141.2</ele>
        <time>2010-11-19T13:22:07Z</time>
      </trkpt>
      <trkpt lat="45.07975" lon="5.62658">
        <ele>1142.4</ele>
        <time>2010-11-19T13:22:12Z</time>
      </trkpt>
      <trkpt lat="45.07975" lon="5.62658">
        <ele>1144.4</ele>
        <time>2010-11-19T13:22:19Z</time>
      </trkpt>
      <trkpt lat="45.07975" lon="5.62657">
        <ele>1144.6</ele>
        <time>2010-11-19T13:22:20Z</time>
      </trkpt>
      <trkpt lat="45.07978" lon="5.62654">
        <ele>1145.8</ele>
        <time>2010-11-19T13:22:24Z</time>
      </trkpt>
      <trkpt lat="45.07984" lon="5.62652">
        <ele>1146.4</ele>
        <time>2010-11-19T13:22:28Z</time>
      </trkpt>
      <trkpt lat="45.07989" lon="5.62651">
        <ele>1147</ele>
        <time>2010-11-19T13:22:31Z</time>
      </trkpt>
      <trkpt lat="45.07994" lon="5.6265">
        <ele>1147.4</ele>
        <time>2010-11-19T13:22:33Z</time>
      </trkpt>
      <trkpt lat="45.08001" lon="5.62652">
        <ele>1148.2</ele>
        <time>2010-11-19T13:22:37Z</time>
      </trkpt>
      <trkpt lat="45.08006" lon="5.62652">
        <ele>1149.4</ele>
        <time>2010-11-19T13:22:42Z</time>
      </trkpt>
      <trkpt lat="45.08007" lon="5.62653">
        <ele>1149.8</ele>
        <time>2010-11-19T13:22:43Z</time>
      </trkpt>
      <trkpt lat="45.08012" lon="5.62651">
        <ele>1150.6</ele>
        <time>2010-11-19T13:22:47Z</time>
      </trkpt>
      <trkpt lat="45.08013" lon="5.62651">
        <ele>1150.8</ele>
        <time>2010-11-19T13:22:48Z</time>
      </trkpt>
      <trkpt lat="45.08017" lon="5.62651">
        <ele>1151.8</ele>
        <time>2010-11-19T13:22:52Z</time>
      </trkpt>
      <trkpt lat="45.08018" lon="5.62652">
        <ele>1152</ele>
        <time>2010-11-19T13:22:53Z</time>
      </trkpt>
      <trkpt lat="45.08022" lon="5.62655">
        <ele>1152.4</ele>
        <time>2010-11-19T13:22:57Z</time>
      </trkpt>
      <trkpt lat="45.08025" lon="5.62657">
        <ele>1152.4</ele>
        <time>2010-11-19T13:22:59Z</time>
      </trkpt>
      <trkpt lat="45.08029" lon="5.62658">
        <ele>1152.2</ele>
        <time>2010-11-19T13:23:02Z</time>
      </trkpt>
      <trkpt lat="45.0803" lon="5.6266">
        <ele>1152.2</ele>
        <time>2010-11-19T13:23:03Z</time>
      </trkpt>
      <trkpt lat="45.08033" lon="5.62661">
        <ele>1152.4</ele>
        <time>2010-11-19T13:23:05Z</time>
      </trkpt>
      <trkpt lat="45.08034" lon="5.62662">
        <ele>1153</ele>
        <time>2010-11-19T13:23:07Z</time>
      </trkpt>
      <trkpt lat="45.08037" lon="5.62664">
        <ele>1153.2</ele>
        <time>2010-11-19T13:23:09Z</time>
      </trkpt>
      <trkpt lat="45.08038" lon="5.62665">
        <ele>1153.2</ele>
        <time>2010-11-19T13:23:10Z</time>
      </trkpt>
      <trkpt lat="45.0804" lon="5.62669">
        <ele>1154.2</ele>
        <time>2010-11-19T13:23:15Z</time>
      </trkpt>
      <trkpt lat="45.08039" lon="5.62669">
        <ele>1154.6</ele>
        <time>2010-11-19T13:23:16Z</time>
      </trkpt>
      <trkpt lat="45.08043" lon="5.62672">
        <ele>1155.6</ele>
        <time>2010-11-19T13:23:20Z</time>
      </trkpt>
      <trkpt lat="45.08045" lon="5.62673">
        <ele>1156</ele>
        <time>2010-11-19T13:23:21Z</time>
      </trkpt>
      <trkpt lat="45.08047" lon="5.62673">
        <ele>1156.2</ele>
        <time>2010-11-19T13:23:22Z</time>
      </trkpt>
      <trkpt lat="45.0805" lon="5.62673">
        <ele>1156.6</ele>
        <time>2010-11-19T13:23:24Z</time>
      </trkpt>
      <trkpt lat="45.08051" lon="5.62674">
        <ele>1156.6</ele>
        <time>2010-11-19T13:23:25Z</time>
      </trkpt>
      <trkpt lat="45.08051" lon="5.62675">
        <ele>1157</ele>
        <time>2010-11-19T13:23:26Z</time>
      </trkpt>
      <trkpt lat="45.08055" lon="5.62677">
        <ele>1158.6</ele>
        <time>2010-11-19T13:23:30Z</time>
      </trkpt>
      <trkpt lat="45.08056" lon="5.62678">
        <ele>1159</ele>
        <time>2010-11-19T13:23:31Z</time>
      </trkpt>
      <trkpt lat="45.08062" lon="5.62682">
        <ele>1161.2</ele>
        <time>2010-11-19T13:23:36Z</time>
      </trkpt>
      <trkpt lat="45.08063" lon="5.62683">
        <ele>1161.8</ele>
        <time>2010-11-19T13:23:37Z</time>
      </trkpt>
      <trkpt lat="45.08064" lon="5.62684">
        <ele>1163.4</ele>
        <time>2010-11-19T13:23:41Z</time>
      </trkpt>
      <trkpt lat="45.08066" lon="5.62684">
        <ele>1165.4</ele>
        <time>2010-11-19T13:23:47Z</time>
      </trkpt>
      <trkpt lat="45.08067" lon="5.62685">
        <ele>1166.2</ele>
        <time>2010-11-19T13:23:51Z</time>
      </trkpt>
      <trkpt lat="45.08067" lon="5.62686">
        <ele>1166.4</ele>
        <time>2010-11-19T13:23:52Z</time>
      </trkpt>
      <trkpt lat="45.08069" lon="5.62685">
        <ele>1167</ele>
        <time>2010-11-19T13:23:55Z</time>
      </trkpt>
      <trkpt lat="45.08071" lon="5.62685">
        <ele>1167.6</ele>
        <time>2010-11-19T13:23:58Z</time>
      </trkpt>
      <trkpt lat="45.08074" lon="5.62683">
        <ele>1168.2</ele>
        <time>2010-11-19T13:24:01Z</time>
      </trkpt>
      <trkpt lat="45.08074" lon="5.62683">
        <ele>1168.4</ele>
        <time>2010-11-19T13:24:02Z</time>
      </trkpt>
      <trkpt lat="45.08075" lon="5.62682">
        <ele>1169</ele>
        <time>2010-11-19T13:24:07Z</time>
      </trkpt>
      <trkpt lat="45.08076" lon="5.62679">
        <ele>1169</ele>
        <time>2010-11-19T13:24:10Z</time>
      </trkpt>
      <trkpt lat="45.08076" lon="5.62679">
        <ele>1169</ele>
        <time>2010-11-19T13:24:11Z</time>
      </trkpt>
      <trkpt lat="45.08078" lon="5.62678">
        <ele>1168.8</ele>
        <time>2010-11-19T13:24:14Z</time>
      </trkpt>
      <trkpt lat="45.08083" lon="5.62677">
        <ele>1168.6</ele>
        <time>2010-11-19T13:24:17Z</time>
      </trkpt>
      <trkpt lat="45.08088" lon="5.62677">
        <ele>1167.8</ele>
        <time>2010-11-19T13:24:22Z</time>
      </trkpt>
      <trkpt lat="45.08089" lon="5.62671">
        <ele>1166.4</ele>
        <time>2010-11-19T13:24:35Z</time>
      </trkpt>
      <trkpt lat="45.08087" lon="5.62668">
        <ele>1166.2</ele>
        <time>2010-11-19T13:24:38Z</time>
      </trkpt>
      <trkpt lat="45.08089" lon="5.62665">
        <ele>1166</ele>
        <time>2010-11-19T13:24:41Z</time>
      </trkpt>
      <trkpt lat="45.08089" lon="5.62664">
        <ele>1166</ele>
        <time>2010-11-19T13:24:42Z</time>
      </trkpt>
      <trkpt lat="45.0809" lon="5.62661">
        <ele>1165.8</ele>
        <time>2010-11-19T13:24:45Z</time>
      </trkpt>
      <trkpt lat="45.08091" lon="5.62658">
        <ele>1165.8</ele>
        <time>2010-11-19T13:24:47Z</time>
      </trkpt>
      <trkpt lat="45.08091" lon="5.62656">
        <ele>1165.8</ele>
        <time>2010-11-19T13:24:50Z</time>
      </trkpt>
      <trkpt lat="45.08092" lon="5.62657">
        <ele>1165.8</ele>
        <time>2010-11-19T13:24:51Z</time>
      </trkpt>
      <trkpt lat="45.08091" lon="5.62658">
        <ele>1166.4</ele>
        <time>2010-11-19T13:24:54Z</time>
      </trkpt>
      <trkpt lat="45.08086" lon="5.62665">
        <ele>1176.4</ele>
        <time>2010-11-19T13:25:13Z</time>
      </trkpt>
      <trkpt lat="45.08088" lon="5.62665">
        <ele>1178</ele>
        <time>2010-11-19T13:25:16Z</time>
      </trkpt>
      <trkpt lat="45.08089" lon="5.62665">
        <ele>1178.2</ele>
        <time>2010-11-19T13:25:17Z</time>
      </trkpt>
      <trkpt lat="45.08092" lon="5.62664">
        <ele>1182</ele>
        <time>2010-11-19T13:25:24Z</time>
      </trkpt>
      <trkpt lat="45.08092" lon="5.62667">
        <ele>1184.4</ele>
        <time>2010-11-19T13:25:29Z</time>
      </trkpt>
      <trkpt lat="45.08091" lon="5.6267">
        <ele>1185.8</ele>
        <time>2010-11-19T13:25:34Z</time>
      </trkpt>
      <trkpt lat="45.08092" lon="5.62672">
        <ele>1186.2</ele>
        <time>2010-11-19T13:25:37Z</time>
      </trkpt>
      <trkpt lat="45.08092" lon="5.62673">
        <ele>1186.2</ele>
        <time>2010-11-19T13:25:38Z</time>
      </trkpt>
      <trkpt lat="45.08094" lon="5.62676">
        <ele>1186.6</ele>
        <time>2010-11-19T13:25:42Z</time>
      </trkpt>
      <trkpt lat="45.08095" lon="5.6268">
        <ele>1187.2</ele>
        <time>2010-11-19T13:25:47Z</time>
      </trkpt>
      <trkpt lat="45.08097" lon="5.62684">
        <ele>1187.8</ele>
        <time>2010-11-19T13:25:52Z</time>
      </trkpt>
      <trkpt lat="45.08096" lon="5.62688">
        <ele>1188.6</ele>
        <time>2010-11-19T13:25:56Z</time>
      </trkpt>
      <trkpt lat="45.08095" lon="5.6269">
        <ele>1190</ele>
        <time>2010-11-19T13:26:01Z</time>
      </trkpt>
      <trkpt lat="45.08096" lon="5.62693">
        <ele>1191.8</ele>
        <time>2010-11-19T13:26:07Z</time>
      </trkpt>
      <trkpt lat="45.08095" lon="5.62695">
        <ele>1192.6</ele>
        <time>2010-11-19T13:26:10Z</time>
      </trkpt>
      <trkpt lat="45.08095" lon="5.62699">
        <ele>1193.2</ele>
        <time>2010-11-19T13:26:13Z</time>
      </trkpt>
      <trkpt lat="45.08098" lon="5.62702">
        <ele>1194.8</ele>
        <time>2010-11-19T13:26:19Z</time>
      </trkpt>
      <trkpt lat="45.08101" lon="5.62702">
        <ele>1195.2</ele>
        <time>2010-11-19T13:26:22Z</time>
      </trkpt>
      <trkpt lat="45.08104" lon="5.627">
        <ele>1196.4</ele>
        <time>2010-11-19T13:26:26Z</time>
      </trkpt>
      <trkpt lat="45.08108" lon="5.62697">
        <ele>1197.8</ele>
        <time>2010-11-19T13:26:30Z</time>
      </trkpt>
      <trkpt lat="45.08108" lon="5.62697">
        <ele>1198</ele>
        <time>2010-11-19T13:26:31Z</time>
      </trkpt>
      <trkpt lat="45.08109" lon="5.62696">
        <ele>1198.2</ele>
        <time>2010-11-19T13:26:32Z</time>
      </trkpt>
      <trkpt lat="45.08113" lon="5.6269">
        <ele>1199.2</ele>
        <time>2010-11-19T13:26:37Z</time>
      </trkpt>
      <trkpt lat="45.08114" lon="5.62688">
        <ele>1199.4</ele>
        <time>2010-11-19T13:26:38Z</time>
      </trkpt>
      <trkpt lat="45.08119" lon="5.62683">
        <ele>1199.6</ele>
        <time>2010-11-19T13:26:43Z</time>
      </trkpt>
      <trkpt lat="45.0812" lon="5.62678">
        <ele>1199.6</ele>
        <time>2010-11-19T13:26:47Z</time>
      </trkpt>
      <trkpt lat="45.0812" lon="5.62677">
        <ele>1199.6</ele>
        <time>2010-11-19T13:26:48Z</time>
      </trkpt>
      <trkpt lat="45.0812" lon="5.62676">
        <ele>1199.6</ele>
        <time>2010-11-19T13:26:49Z</time>
      </trkpt>
      <trkpt lat="45.08122" lon="5.62671">
        <ele>1199.6</ele>
        <time>2010-11-19T13:26:52Z</time>
      </trkpt>
      <trkpt lat="45.08122" lon="5.6267">
        <ele>1199.6</ele>
        <time>2010-11-19T13:26:53Z</time>
      </trkpt>
      <trkpt lat="45.08123" lon="5.62668">
        <ele>1199.6</ele>
        <time>2010-11-19T13:26:57Z</time>
      </trkpt>
      <trkpt lat="45.08124" lon="5.62668">
        <ele>1199.6</ele>
        <time>2010-11-19T13:26:58Z</time>
      </trkpt>
      <trkpt lat="45.08126" lon="5.62663">
        <ele>1199.6</ele>
        <time>2010-11-19T13:27:03Z</time>
      </trkpt>
      <trkpt lat="45.08124" lon="5.62659">
        <ele>1200</ele>
        <time>2010-11-19T13:27:06Z</time>
      </trkpt>
      <trkpt lat="45.08122" lon="5.62657">
        <ele>1200.2</ele>
        <time>2010-11-19T13:27:07Z</time>
      </trkpt>
      <trkpt lat="45.0812" lon="5.62654">
        <ele>1200.8</ele>
        <time>2010-11-19T13:27:08Z</time>
      </trkpt>
      <trkpt lat="45.08121" lon="5.62652">
        <ele>1201</ele>
        <time>2010-11-19T13:27:09Z</time>
      </trkpt>
      <trkpt lat="45.0812" lon="5.62647">
        <ele>1201.2</ele>
        <time>2010-11-19T13:27:12Z</time>
      </trkpt>
      <trkpt lat="45.0812" lon="5.62639">
        <ele>1201.4</ele>
        <time>2010-11-19T13:27:17Z</time>
      </trkpt>
      <trkpt lat="45.0812" lon="5.62637">
        <ele>1201.4</ele>
        <time>2010-11-19T13:27:18Z</time>
      </trkpt>
      <trkpt lat="45.0812" lon="5.62635">
        <ele>1201.4</ele>
        <time>2010-11-19T13:27:19Z</time>
      </trkpt>
      <trkpt lat="45.08119" lon="5.62633">
        <ele>1201.4</ele>
        <time>2010-11-19T13:27:20Z</time>
      </trkpt>
      <trkpt lat="45.08119" lon="5.62625">
        <ele>1201.4</ele>
        <time>2010-11-19T13:27:24Z</time>
      </trkpt>
      <trkpt lat="45.08116" lon="5.62616">
        <ele>1202.2</ele>
        <time>2010-11-19T13:27:29Z</time>
      </trkpt>
      <trkpt lat="45.08111" lon="5.6261">
        <ele>1202.6</ele>
        <time>2010-11-19T13:27:33Z</time>
      </trkpt>
      <trkpt lat="45.08111" lon="5.62608">
        <ele>1202.8</ele>
        <time>2010-11-19T13:27:34Z</time>
      </trkpt>
      <trkpt lat="45.08111" lon="5.62607">
        <ele>1202.8</ele>
        <time>2010-11-19T13:27:35Z</time>
      </trkpt>
      <trkpt lat="45.0811" lon="5.626">
        <ele>1202.6</ele>
        <time>2010-11-19T13:27:39Z</time>
      </trkpt>
      <trkpt lat="45.08112" lon="5.62597">
        <ele>1202.6</ele>
        <time>2010-11-19T13:27:41Z</time>
      </trkpt>
      <trkpt lat="45.08115" lon="5.6259">
        <ele>1202.4</ele>
        <time>2010-11-19T13:27:47Z</time>
      </trkpt>
      <trkpt lat="45.08115" lon="5.62588">
        <ele>1202.2</ele>
        <time>2010-11-19T13:27:49Z</time>
      </trkpt>
      <trkpt lat="45.08116" lon="5.62585">
        <ele>1202.2</ele>
        <time>2010-11-19T13:27:51Z</time>
      </trkpt>
      <trkpt lat="45.08117" lon="5.62581">
        <ele>1202</ele>
        <time>2010-11-19T13:27:53Z</time>
      </trkpt>
      <trkpt lat="45.0812" lon="5.62569">
        <ele>1201.4</ele>
        <time>2010-11-19T13:28:00Z</time>
      </trkpt>
      <trkpt lat="45.08122" lon="5.62559">
        <ele>1201</ele>
        <time>2010-11-19T13:28:04Z</time>
      </trkpt>
      <trkpt lat="45.08123" lon="5.62557">
        <ele>1200.8</ele>
        <time>2010-11-19T13:28:05Z</time>
      </trkpt>
      <trkpt lat="45.08128" lon="5.62546">
        <ele>1200.2</ele>
        <time>2010-11-19T13:28:11Z</time>
      </trkpt>
      <trkpt lat="45.08133" lon="5.62539">
        <ele>1200</ele>
        <time>2010-11-19T13:28:16Z</time>
      </trkpt>
      <trkpt lat="45.08134" lon="5.62537">
        <ele>1199.8</ele>
        <time>2010-11-19T13:28:17Z</time>
      </trkpt>
      <trkpt lat="45.08137" lon="5.62534">
        <ele>1199.6</ele>
        <time>2010-11-19T13:28:20Z</time>
      </trkpt>
      <trkpt lat="45.0814" lon="5.62532">
        <ele>1199.6</ele>
        <time>2010-11-19T13:28:22Z</time>
      </trkpt>
      <trkpt lat="45.08144" lon="5.62527">
        <ele>1199.4</ele>
        <time>2010-11-19T13:28:26Z</time>
      </trkpt>
      <trkpt lat="45.08147" lon="5.62524">
        <ele>1199.2</ele>
        <time>2010-11-19T13:28:29Z</time>
      </trkpt>
      <trkpt lat="45.08147" lon="5.62523">
        <ele>1199.2</ele>
        <time>2010-11-19T13:28:30Z</time>
      </trkpt>
      <trkpt lat="45.0815" lon="5.62516">
        <ele>1199.2</ele>
        <time>2010-11-19T13:28:36Z</time>
      </trkpt>
      <trkpt lat="45.08153" lon="5.6251">
        <ele>1199.6</ele>
        <time>2010-11-19T13:28:42Z</time>
      </trkpt>
      <trkpt lat="45.08155" lon="5.62506">
        <ele>1200.2</ele>
        <time>2010-11-19T13:28:46Z</time>
      </trkpt>
      <trkpt lat="45.08156" lon="5.62507">
        <ele>1200.4</ele>
        <time>2010-11-19T13:28:48Z</time>
      </trkpt>
      <trkpt lat="45.08159" lon="5.62504">
        <ele>1202</ele>
        <time>2010-11-19T13:28:54Z</time>
      </trkpt>
      <trkpt lat="45.0816" lon="5.62503">
        <ele>1202.2</ele>
        <time>2010-11-19T13:28:55Z</time>
      </trkpt>
      <trkpt lat="45.08162" lon="5.62499">
        <ele>1203.8</ele>
        <time>2010-11-19T13:29:01Z</time>
      </trkpt>
      <trkpt lat="45.08164" lon="5.62496">
        <ele>1204.4</ele>
        <time>2010-11-19T13:29:05Z</time>
      </trkpt>
      <trkpt lat="45.08166" lon="5.62493">
        <ele>1205.2</ele>
        <time>2010-11-19T13:29:09Z</time>
      </trkpt>
      <trkpt lat="45.08169" lon="5.62489">
        <ele>1206.2</ele>
        <time>2010-11-19T13:29:14Z</time>
      </trkpt>
      <trkpt lat="45.08171" lon="5.62486">
        <ele>1207</ele>
        <time>2010-11-19T13:29:19Z</time>
      </trkpt>
      <trkpt lat="45.08172" lon="5.62484">
        <ele>1207.4</ele>
        <time>2010-11-19T13:29:21Z</time>
      </trkpt>
      <trkpt lat="45.08173" lon="5.62481">
        <ele>1208</ele>
        <time>2010-11-19T13:29:24Z</time>
      </trkpt>
      <trkpt lat="45.08176" lon="5.62475">
        <ele>1210.6</ele>
        <time>2010-11-19T13:29:35Z</time>
      </trkpt>
      <trkpt lat="45.08178" lon="5.62474">
        <ele>1212</ele>
        <time>2010-11-19T13:29:40Z</time>
      </trkpt>
      <trkpt lat="45.08181" lon="5.62472">
        <ele>1213.2</ele>
        <time>2010-11-19T13:29:46Z</time>
      </trkpt>
      <trkpt lat="45.08182" lon="5.6247">
        <ele>1214.4</ele>
        <time>2010-11-19T13:29:50Z</time>
      </trkpt>
      <trkpt lat="45.08182" lon="5.62465">
        <ele>1215.6</ele>
        <time>2010-11-19T13:29:55Z</time>
      </trkpt>
      <trkpt lat="45.08183" lon="5.62464">
        <ele>1215.8</ele>
        <time>2010-11-19T13:29:56Z</time>
      </trkpt>
      <trkpt lat="45.08186" lon="5.62463">
        <ele>1216.6</ele>
        <time>2010-11-19T13:30:00Z</time>
      </trkpt>
      <trkpt lat="45.08187" lon="5.62462">
        <ele>1216.8</ele>
        <time>2010-11-19T13:30:01Z</time>
      </trkpt>
      <trkpt lat="45.08189" lon="5.62461">
        <ele>1217</ele>
        <time>2010-11-19T13:30:03Z</time>
      </trkpt>
      <trkpt lat="45.08189" lon="5.62461">
        <ele>1217.2</ele>
        <time>2010-11-19T13:30:04Z</time>
      </trkpt>
      <trkpt lat="45.08191" lon="5.62459">
        <ele>1217.6</ele>
        <time>2010-11-19T13:30:07Z</time>
      </trkpt>
      <trkpt lat="45.08191" lon="5.62458">
        <ele>1218</ele>
        <time>2010-11-19T13:30:09Z</time>
      </trkpt>
      <trkpt lat="45.08193" lon="5.62454">
        <ele>1219</ele>
        <time>2010-11-19T13:30:14Z</time>
      </trkpt>
      <trkpt lat="45.08195" lon="5.62452">
        <ele>1220.2</ele>
        <time>2010-11-19T13:30:19Z</time>
      </trkpt>
      <trkpt lat="45.08196" lon="5.62449">
        <ele>1221.2</ele>
        <time>2010-11-19T13:30:24Z</time>
      </trkpt>
      <trkpt lat="45.08196" lon="5.62447">
        <ele>1221.8</ele>
        <time>2010-11-19T13:30:26Z</time>
      </trkpt>
      <trkpt lat="45.08197" lon="5.62444">
        <ele>1222.6</ele>
        <time>2010-11-19T13:30:29Z</time>
      </trkpt>
      <trkpt lat="45.08199" lon="5.62443">
        <ele>1223.6</ele>
        <time>2010-11-19T13:30:33Z</time>
      </trkpt>
      <trkpt lat="45.082" lon="5.62441">
        <ele>1224.6</ele>
        <time>2010-11-19T13:30:37Z</time>
      </trkpt>
      <trkpt lat="45.082" lon="5.62437">
        <ele>1225.8</ele>
        <time>2010-11-19T13:30:41Z</time>
      </trkpt>
      <trkpt lat="45.08201" lon="5.62435">
        <ele>1227.6</ele>
        <time>2010-11-19T13:30:46Z</time>
      </trkpt>
      <trkpt lat="45.08202" lon="5.62433">
        <ele>1229.2</ele>
        <time>2010-11-19T13:30:50Z</time>
      </trkpt>
      <trkpt lat="45.08204" lon="5.62432">
        <ele>1230.8</ele>
        <time>2010-11-19T13:30:55Z</time>
      </trkpt>
      <trkpt lat="45.08206" lon="5.62429">
        <ele>1232.6</ele>
        <time>2010-11-19T13:31:00Z</time>
      </trkpt>
      <trkpt lat="45.08207" lon="5.62427">
        <ele>1233</ele>
        <time>2010-11-19T13:31:02Z</time>
      </trkpt>
      <trkpt lat="45.08207" lon="5.62426">
        <ele>1233.6</ele>
        <time>2010-11-19T13:31:04Z</time>
      </trkpt>
      <trkpt lat="45.08208" lon="5.62421">
        <ele>1234.6</ele>
        <time>2010-11-19T13:31:08Z</time>
      </trkpt>
      <trkpt lat="45.08209" lon="5.62411">
        <ele>1236.2</ele>
        <time>2010-11-19T13:31:14Z</time>
      </trkpt>
      <trkpt lat="45.08205" lon="5.62406">
        <ele>1238.8</ele>
        <time>2010-11-19T13:31:20Z</time>
      </trkpt>
      <trkpt lat="45.08202" lon="5.62401">
        <ele>1240.2</ele>
        <time>2010-11-19T13:31:23Z</time>
      </trkpt>
      <trkpt lat="45.08202" lon="5.62399">
        <ele>1240.6</ele>
        <time>2010-11-19T13:31:24Z</time>
      </trkpt>
      <trkpt lat="45.08201" lon="5.62396">
        <ele>1241.4</ele>
        <time>2010-11-19T13:31:26Z</time>
      </trkpt>
      <trkpt lat="45.08201" lon="5.62394">
        <ele>1242</ele>
        <time>2010-11-19T13:31:27Z</time>
      </trkpt>
      <trkpt lat="45.08201" lon="5.62392">
        <ele>1242.6</ele>
        <time>2010-11-19T13:31:29Z</time>
      </trkpt>
      <trkpt lat="45.08204" lon="5.62389">
        <ele>1243.6</ele>
        <time>2010-11-19T13:31:32Z</time>
      </trkpt>
      <trkpt lat="45.08205" lon="5.62387">
        <ele>1244.6</ele>
        <time>2010-11-19T13:31:35Z</time>
      </trkpt>
      <trkpt lat="45.08206" lon="5.62385">
        <ele>1245.2</ele>
        <time>2010-11-19T13:31:37Z</time>
      </trkpt>
      <trkpt lat="45.08207" lon="5.62383">
        <ele>1245.8</ele>
        <time>2010-11-19T13:31:39Z</time>
      </trkpt>
      <trkpt lat="45.08207" lon="5.62381">
        <ele>1246.2</ele>
        <time>2010-11-19T13:31:41Z</time>
      </trkpt>
      <trkpt lat="45.08209" lon="5.62378">
        <ele>1247.2</ele>
        <time>2010-11-19T13:31:45Z</time>
      </trkpt>
      <trkpt lat="45.08211" lon="5.62375">
        <ele>1248.4</ele>
        <time>2010-11-19T13:31:50Z</time>
      </trkpt>
      <trkpt lat="45.08211" lon="5.62372">
        <ele>1250.4</ele>
        <time>2010-11-19T13:31:55Z</time>
      </trkpt>
      <trkpt lat="45.08212" lon="5.6237">
        <ele>1251.4</ele>
        <time>2010-11-19T13:31:58Z</time>
      </trkpt>
      <trkpt lat="45.08213" lon="5.62367">
        <ele>1252.2</ele>
        <time>2010-11-19T13:32:01Z</time>
      </trkpt>
      <trkpt lat="45.08215" lon="5.62365">
        <ele>1253</ele>
        <time>2010-11-19T13:32:04Z</time>
      </trkpt>
      <trkpt lat="45.08216" lon="5.62361">
        <ele>1254.4</ele>
        <time>2010-11-19T13:32:09Z</time>
      </trkpt>
      <trkpt lat="45.08216" lon="5.62359">
        <ele>1256.4</ele>
        <time>2010-11-19T13:32:17Z</time>
      </trkpt>
      <trkpt lat="45.08217" lon="5.62359">
        <ele>1256.6</ele>
        <time>2010-11-19T13:32:18Z</time>
      </trkpt>
      <trkpt lat="45.08218" lon="5.62357">
        <ele>1257.2</ele>
        <time>2010-11-19T13:32:21Z</time>
      </trkpt>
      <trkpt lat="45.08219" lon="5.62353">
        <ele>1258.2</ele>
        <time>2010-11-19T13:32:25Z</time>
      </trkpt>
      <trkpt lat="45.08219" lon="5.62352">
        <ele>1260</ele>
        <time>2010-11-19T13:32:29Z</time>
      </trkpt>
      <trkpt lat="45.08222" lon="5.62355">
        <ele>1261.2</ele>
        <time>2010-11-19T13:32:34Z</time>
      </trkpt>
      <trkpt lat="45.08223" lon="5.62354">
        <ele>1263.6</ele>
        <time>2010-11-19T13:32:41Z</time>
      </trkpt>
      <trkpt lat="45.08225" lon="5.62355">
        <ele>1264.8</ele>
        <time>2010-11-19T13:32:46Z</time>
      </trkpt>
      <trkpt lat="45.08227" lon="5.62357">
        <ele>1265.2</ele>
        <time>2010-11-19T13:32:48Z</time>
      </trkpt>
      <trkpt lat="45.08228" lon="5.62361">
        <ele>1266</ele>
        <time>2010-11-19T13:32:51Z</time>
      </trkpt>
      <trkpt lat="45.08228" lon="5.62362">
        <ele>1266.4</ele>
        <time>2010-11-19T13:32:52Z</time>
      </trkpt>
      <trkpt lat="45.0823" lon="5.62365">
        <ele>1267.8</ele>
        <time>2010-11-19T13:32:56Z</time>
      </trkpt>
      <trkpt lat="45.0823" lon="5.62366">
        <ele>1269.2</ele>
        <time>2010-11-19T13:33:00Z</time>
      </trkpt>
      <trkpt lat="45.08231" lon="5.62365">
        <ele>1272</ele>
        <time>2010-11-19T13:33:07Z</time>
      </trkpt>
      <trkpt lat="45.08233" lon="5.62367">
        <ele>1274.2</ele>
        <time>2010-11-19T13:33:13Z</time>
      </trkpt>
      <trkpt lat="45.08238" lon="5.62368">
        <ele>1279</ele>
        <time>2010-11-19T13:33:25Z</time>
      </trkpt>
      <trkpt lat="45.08239" lon="5.62363">
        <ele>1280.4</ele>
        <time>2010-11-19T13:33:32Z</time>
      </trkpt>
      <trkpt lat="45.08239" lon="5.62361">
        <ele>1280.6</ele>
        <time>2010-11-19T13:33:34Z</time>
      </trkpt>
      <trkpt lat="45.08241" lon="5.62351">
        <ele>1280.6</ele>
        <time>2010-11-19T13:33:41Z</time>
      </trkpt>
      <trkpt lat="45.08248" lon="5.62342">
        <ele>1280.4</ele>
        <time>2010-11-19T13:33:48Z</time>
      </trkpt>
      <trkpt lat="45.08251" lon="5.62336">
        <ele>1280.4</ele>
        <time>2010-11-19T13:33:53Z</time>
      </trkpt>
      <trkpt lat="45.08257" lon="5.62331">
        <ele>1280.4</ele>
        <time>2010-11-19T13:33:57Z</time>
      </trkpt>
      <trkpt lat="45.08257" lon="5.62329">
        <ele>1280.4</ele>
        <time>2010-11-19T13:33:59Z</time>
      </trkpt>
      <trkpt lat="45.0826" lon="5.62324">
        <ele>1280.2</ele>
        <time>2010-11-19T13:34:03Z</time>
      </trkpt>
      <trkpt lat="45.0826" lon="5.62323">
        <ele>1280.2</ele>
        <time>2010-11-19T13:34:04Z</time>
      </trkpt>
      <trkpt lat="45.08263" lon="5.62318">
        <ele>1280.2</ele>
        <time>2010-11-19T13:34:08Z</time>
      </trkpt>
      <trkpt lat="45.08265" lon="5.62314">
        <ele>1280.2</ele>
        <time>2010-11-19T13:34:11Z</time>
      </trkpt>
      <trkpt lat="45.08267" lon="5.62308">
        <ele>1280.4</ele>
        <time>2010-11-19T13:34:17Z</time>
      </trkpt>
      <trkpt lat="45.08267" lon="5.62306">
        <ele>1280.6</ele>
        <time>2010-11-19T13:34:19Z</time>
      </trkpt>
      <trkpt lat="45.08267" lon="5.62303">
        <ele>1281.2</ele>
        <time>2010-11-19T13:34:22Z</time>
      </trkpt>
      <trkpt lat="45.08267" lon="5.62302">
        <ele>1281.4</ele>
        <time>2010-11-19T13:34:23Z</time>
      </trkpt>
      <trkpt lat="45.08267" lon="5.62299">
        <ele>1282</ele>
        <time>2010-11-19T13:34:26Z</time>
      </trkpt>
      <trkpt lat="45.08267" lon="5.62298">
        <ele>1282.4</ele>
        <time>2010-11-19T13:34:28Z</time>
      </trkpt>
      <trkpt lat="45.08269" lon="5.62293">
        <ele>1283.4</ele>
        <time>2010-11-19T13:34:34Z</time>
      </trkpt>
      <trkpt lat="45.0827" lon="5.62288">
        <ele>1284.2</ele>
        <time>2010-11-19T13:34:39Z</time>
      </trkpt>
      <trkpt lat="45.0827" lon="5.62284">
        <ele>1285</ele>
        <time>2010-11-19T13:34:43Z</time>
      </trkpt>
      <trkpt lat="45.0827" lon="5.62283">
        <ele>1285.2</ele>
        <time>2010-11-19T13:34:45Z</time>
      </trkpt>
      <trkpt lat="45.0827" lon="5.62281">
        <ele>1286</ele>
        <time>2010-11-19T13:34:48Z</time>
      </trkpt>
      <trkpt lat="45.08269" lon="5.62277">
        <ele>1287</ele>
        <time>2010-11-19T13:34:52Z</time>
      </trkpt>
      <trkpt lat="45.08269" lon="5.62274">
        <ele>1287.6</ele>
        <time>2010-11-19T13:34:54Z</time>
      </trkpt>
      <trkpt lat="45.08269" lon="5.62271">
        <ele>1288.2</ele>
        <time>2010-11-19T13:34:56Z</time>
      </trkpt>
      <trkpt lat="45.08267" lon="5.62264">
        <ele>1291</ele>
        <time>2010-11-19T13:35:01Z</time>
      </trkpt>
      <trkpt lat="45.08266" lon="5.62263">
        <ele>1291.6</ele>
        <time>2010-11-19T13:35:02Z</time>
      </trkpt>
      <trkpt lat="45.08264" lon="5.62259">
        <ele>1293.8</ele>
        <time>2010-11-19T13:35:05Z</time>
      </trkpt>
      <trkpt lat="45.08263" lon="5.62258">
        <ele>1294.4</ele>
        <time>2010-11-19T13:35:06Z</time>
      </trkpt>
      <trkpt lat="45.08261" lon="5.62252">
        <ele>1297.8</ele>
        <time>2010-11-19T13:35:11Z</time>
      </trkpt>
      <trkpt lat="45.08262" lon="5.6225">
        <ele>1299.4</ele>
        <time>2010-11-19T13:35:13Z</time>
      </trkpt>
      <trkpt lat="45.08262" lon="5.62247">
        <ele>1301</ele>
        <time>2010-11-19T13:35:15Z</time>
      </trkpt>
      <trkpt lat="45.0826" lon="5.62242">
        <ele>1303.2</ele>
        <time>2010-11-19T13:35:19Z</time>
      </trkpt>
      <trkpt lat="45.08258" lon="5.62235">
        <ele>1305.8</ele>
        <time>2010-11-19T13:35:24Z</time>
      </trkpt>
      <trkpt lat="45.08256" lon="5.62227">
        <ele>1308</ele>
        <time>2010-11-19T13:35:29Z</time>
      </trkpt>
      <trkpt lat="45.08256" lon="5.62226">
        <ele>1308.2</ele>
        <time>2010-11-19T13:35:30Z</time>
      </trkpt>
      <trkpt lat="45.08256" lon="5.62224">
        <ele>1308.8</ele>
        <time>2010-11-19T13:35:32Z</time>
      </trkpt>
      <trkpt lat="45.08256" lon="5.62221">
        <ele>1309.8</ele>
        <time>2010-11-19T13:35:35Z</time>
      </trkpt>
      <trkpt lat="45.08254" lon="5.62219">
        <ele>1311.2</ele>
        <time>2010-11-19T13:35:40Z</time>
      </trkpt>
      <trkpt lat="45.08252" lon="5.62216">
        <ele>1312.4</ele>
        <time>2010-11-19T13:35:44Z</time>
      </trkpt>
      <trkpt lat="45.08249" lon="5.62205">
        <ele>1316.6</ele>
        <time>2010-11-19T13:35:57Z</time>
      </trkpt>
      <trkpt lat="45.08249" lon="5.62202">
        <ele>1317.2</ele>
        <time>2010-11-19T13:36:00Z</time>
      </trkpt>
      <trkpt lat="45.08248" lon="5.62199">
        <ele>1318</ele>
        <time>2010-11-19T13:36:02Z</time>
      </trkpt>
      <trkpt lat="45.08248" lon="5.62193">
        <ele>1320.2</ele>
        <time>2010-11-19T13:36:08Z</time>
      </trkpt>
      <trkpt lat="45.08248" lon="5.62189">
        <ele>1321.8</ele>
        <time>2010-11-19T13:36:11Z</time>
      </trkpt>
      <trkpt lat="45.08248" lon="5.62186">
        <ele>1322.8</ele>
        <time>2010-11-19T13:36:13Z</time>
      </trkpt>
      <trkpt lat="45.0825" lon="5.62183">
        <ele>1323.8</ele>
        <time>2010-11-19T13:36:15Z</time>
      </trkpt>
      <trkpt lat="45.0825" lon="5.6218">
        <ele>1325</ele>
        <time>2010-11-19T13:36:18Z</time>
      </trkpt>
      <trkpt lat="45.08251" lon="5.62179">
        <ele>1325.2</ele>
        <time>2010-11-19T13:36:19Z</time>
      </trkpt>
      <trkpt lat="45.08253" lon="5.62179">
        <ele>1326</ele>
        <time>2010-11-19T13:36:21Z</time>
      </trkpt>
      <trkpt lat="45.08255" lon="5.62179">
        <ele>1327</ele>
        <time>2010-11-19T13:36:23Z</time>
      </trkpt>
      <trkpt lat="45.08257" lon="5.62177">
        <ele>1330</ele>
        <time>2010-11-19T13:36:30Z</time>
      </trkpt>
      <trkpt lat="45.08259" lon="5.62175">
        <ele>1333.2</ele>
        <time>2010-11-19T13:36:36Z</time>
      </trkpt>
      <trkpt lat="45.0826" lon="5.62173">
        <ele>1340.4</ele>
        <time>2010-11-19T13:36:52Z</time>
      </trkpt>
      <trkpt lat="45.08264" lon="5.62167">
        <ele>1341.8</ele>
        <time>2010-11-19T13:36:58Z</time>
      </trkpt>
      <trkpt lat="45.08265" lon="5.62166">
        <ele>1342.2</ele>
        <time>2010-11-19T13:37:00Z</time>
      </trkpt>
      <trkpt lat="45.08266" lon="5.62166">
        <ele>1342.6</ele>
        <time>2010-11-19T13:37:02Z</time>
      </trkpt>
      <trkpt lat="45.08266" lon="5.62164">
        <ele>1342.8</ele>
        <time>2010-11-19T13:37:03Z</time>
      </trkpt>
      <trkpt lat="45.08266" lon="5.62163">
        <ele>1343</ele>
        <time>2010-11-19T13:37:04Z</time>
      </trkpt>
      <trkpt lat="45.08269" lon="5.6216">
        <ele>1344.4</ele>
        <time>2010-11-19T13:37:09Z</time>
      </trkpt>
      <trkpt lat="45.08269" lon="5.62159">
        <ele>1344.6</ele>
        <time>2010-11-19T13:37:10Z</time>
      </trkpt>
      <trkpt lat="45.08268" lon="5.62154">
        <ele>1346.8</ele>
        <time>2010-11-19T13:37:15Z</time>
      </trkpt>
      <trkpt lat="45.08267" lon="5.62152">
        <ele>1347.4</ele>
        <time>2010-11-19T13:37:17Z</time>
      </trkpt>
      <trkpt lat="45.08267" lon="5.62151">
        <ele>1347.8</ele>
        <time>2010-11-19T13:37:18Z</time>
      </trkpt>
      <trkpt lat="45.08265" lon="5.62149">
        <ele>1348.6</ele>
        <time>2010-11-19T13:37:20Z</time>
      </trkpt>
      <trkpt lat="45.08264" lon="5.62148">
        <ele>1350</ele>
        <time>2010-11-19T13:37:23Z</time>
      </trkpt>
      <trkpt lat="45.08263" lon="5.62147">
        <ele>1350.4</ele>
        <time>2010-11-19T13:37:24Z</time>
      </trkpt>
      <trkpt lat="45.08263" lon="5.62145">
        <ele>1350.6</ele>
        <time>2010-11-19T13:37:25Z</time>
      </trkpt>
      <trkpt lat="45.08259" lon="5.62141">
        <ele>1351.6</ele>
        <time>2010-11-19T13:37:30Z</time>
      </trkpt>
      <trkpt lat="45.08258" lon="5.6214">
        <ele>1352</ele>
        <time>2010-11-19T13:37:32Z</time>
      </trkpt>
      <trkpt lat="45.08258" lon="5.6214">
        <ele>1352.8</ele>
        <time>2010-11-19T13:37:35Z</time>
      </trkpt>
      <trkpt lat="45.08257" lon="5.62139">
        <ele>1352.8</ele>
        <time>2010-11-19T13:37:36Z</time>
      </trkpt>
      <trkpt lat="45.08258" lon="5.62139">
        <ele>1354</ele>
        <time>2010-11-19T13:37:40Z</time>
      </trkpt>
      <trkpt lat="45.08257" lon="5.62138">
        <ele>1354.6</ele>
        <time>2010-11-19T13:37:42Z</time>
      </trkpt>
      <trkpt lat="45.08258" lon="5.62134">
        <ele>1355.6</ele>
        <time>2010-11-19T13:37:45Z</time>
      </trkpt>
      <trkpt lat="45.08257" lon="5.62132">
        <ele>1356</ele>
        <time>2010-11-19T13:37:47Z</time>
      </trkpt>
      <trkpt lat="45.08255" lon="5.62131">
        <ele>1356.2</ele>
        <time>2010-11-19T13:37:48Z</time>
      </trkpt>
      <trkpt lat="45.08254" lon="5.62131">
        <ele>1356.4</ele>
        <time>2010-11-19T13:37:49Z</time>
      </trkpt>
      <trkpt lat="45.08252" lon="5.62131">
        <ele>1356.6</ele>
        <time>2010-11-19T13:37:51Z</time>
      </trkpt>
      <trkpt lat="45.08251" lon="5.62131">
        <ele>1356.6</ele>
        <time>2010-11-19T13:37:52Z</time>
      </trkpt>
      <trkpt lat="45.0825" lon="5.62131">
        <ele>1356.6</ele>
        <time>2010-11-19T13:37:53Z</time>
      </trkpt>
      <trkpt lat="45.08249" lon="5.62131">
        <ele>1356.6</ele>
        <time>2010-11-19T13:37:54Z</time>
      </trkpt>
      <trkpt lat="45.08248" lon="5.6213">
        <ele>1356.6</ele>
        <time>2010-11-19T13:37:56Z</time>
      </trkpt>
      <trkpt lat="45.08246" lon="5.62129">
        <ele>1356.4</ele>
        <time>2010-11-19T13:37:58Z</time>
      </trkpt>
      <trkpt lat="45.08244" lon="5.62128">
        <ele>1356.6</ele>
        <time>2010-11-19T13:38:00Z</time>
      </trkpt>
      <trkpt lat="45.08244" lon="5.62126">
        <ele>1356.6</ele>
        <time>2010-11-19T13:38:03Z</time>
      </trkpt>
      <trkpt lat="45.08241" lon="5.62123">
        <ele>1357.6</ele>
        <time>2010-11-19T13:38:08Z</time>
      </trkpt>
      <trkpt lat="45.08236" lon="5.62123">
        <ele>1358.2</ele>
        <time>2010-11-19T13:38:12Z</time>
      </trkpt>
      <trkpt lat="45.08234" lon="5.62123">
        <ele>1358.4</ele>
        <time>2010-11-19T13:38:14Z</time>
      </trkpt>
      <trkpt lat="45.08233" lon="5.62121">
        <ele>1359</ele>
        <time>2010-11-19T13:38:18Z</time>
      </trkpt>
      <trkpt lat="45.08229" lon="5.62112">
        <ele>1359</ele>
        <time>2010-11-19T13:38:24Z</time>
      </trkpt>
      <trkpt lat="45.08228" lon="5.62104">
        <ele>1358.8</ele>
        <time>2010-11-19T13:38:30Z</time>
      </trkpt>
      <trkpt lat="45.08228" lon="5.62102">
        <ele>1358.8</ele>
        <time>2010-11-19T13:38:31Z</time>
      </trkpt>
      <trkpt lat="45.08227" lon="5.621">
        <ele>1358.6</ele>
        <time>2010-11-19T13:38:33Z</time>
      </trkpt>
      <trkpt lat="45.08226" lon="5.62099">
        <ele>1358.8</ele>
        <time>2010-11-19T13:38:35Z</time>
      </trkpt>
      <trkpt lat="45.08226" lon="5.62097">
        <ele>1358.8</ele>
        <time>2010-11-19T13:38:37Z</time>
      </trkpt>
      <trkpt lat="45.08226" lon="5.62093">
        <ele>1359.4</ele>
        <time>2010-11-19T13:38:39Z</time>
      </trkpt>
      <trkpt lat="45.08224" lon="5.62087">
        <ele>1359.8</ele>
        <time>2010-11-19T13:38:45Z</time>
      </trkpt>
      <trkpt lat="45.08223" lon="5.6208">
        <ele>1361</ele>
        <time>2010-11-19T13:38:51Z</time>
      </trkpt>
      <trkpt lat="45.08224" lon="5.62078">
        <ele>1361.6</ele>
        <time>2010-11-19T13:38:53Z</time>
      </trkpt>
      <trkpt lat="45.08224" lon="5.62076">
        <ele>1362.2</ele>
        <time>2010-11-19T13:38:55Z</time>
      </trkpt>
      <trkpt lat="45.08224" lon="5.62074">
        <ele>1363</ele>
        <time>2010-11-19T13:38:57Z</time>
      </trkpt>
      <trkpt lat="45.08217" lon="5.62073">
        <ele>1364.8</ele>
        <time>2010-11-19T13:39:03Z</time>
      </trkpt>
      <trkpt lat="45.08215" lon="5.62072">
        <ele>1367.2</ele>
        <time>2010-11-19T13:39:08Z</time>
      </trkpt>
      <trkpt lat="45.08214" lon="5.62073">
        <ele>1370.4</ele>
        <time>2010-11-19T13:39:13Z</time>
      </trkpt>
      <trkpt lat="45.08213" lon="5.62073">
        <ele>1376</ele>
        <time>2010-11-19T13:39:20Z</time>
      </trkpt>
      <trkpt lat="45.08211" lon="5.62072">
        <ele>1380.8</ele>
        <time>2010-11-19T13:39:27Z</time>
      </trkpt>
      <trkpt lat="45.08211" lon="5.62071">
        <ele>1381.8</ele>
        <time>2010-11-19T13:39:29Z</time>
      </trkpt>
      <trkpt lat="45.0821" lon="5.6207">
        <ele>1384.8</ele>
        <time>2010-11-19T13:39:34Z</time>
      </trkpt>
      <trkpt lat="45.0821" lon="5.62071">
        <ele>1385.4</ele>
        <time>2010-11-19T13:39:35Z</time>
      </trkpt>
      <trkpt lat="45.0821" lon="5.62067">
        <ele>1391</ele>
        <time>2010-11-19T13:39:45Z</time>
      </trkpt>
      <trkpt lat="45.08212" lon="5.62062">
        <ele>1394.4</ele>
        <time>2010-11-19T13:39:51Z</time>
      </trkpt>
      <trkpt lat="45.08212" lon="5.6206">
        <ele>1394.4</ele>
        <time>2010-11-19T13:39:52Z</time>
      </trkpt>
      <trkpt lat="45.08212" lon="5.62054">
        <ele>1395.2</ele>
        <time>2010-11-19T13:39:56Z</time>
      </trkpt>
      <trkpt lat="45.08213" lon="5.62054">
        <ele>1395.8</ele>
        <time>2010-11-19T13:39:57Z</time>
      </trkpt>
      <trkpt lat="45.08214" lon="5.62053">
        <ele>1396.2</ele>
        <time>2010-11-19T13:39:58Z</time>
      </trkpt>
      <trkpt lat="45.08216" lon="5.62054">
        <ele>1397.2</ele>
        <time>2010-11-19T13:40:00Z</time>
      </trkpt>
      <trkpt lat="45.0822" lon="5.62055">
        <ele>1398.8</ele>
        <time>2010-11-19T13:40:04Z</time>
      </trkpt>
      <trkpt lat="45.0822" lon="5.6205">
        <ele>1400.4</ele>
        <time>2010-11-19T13:40:09Z</time>
      </trkpt>
      <trkpt lat="45.0822" lon="5.62048">
        <ele>1400.6</ele>
        <time>2010-11-19T13:40:10Z</time>
      </trkpt>
      <trkpt lat="45.08219" lon="5.62047">
        <ele>1401.6</ele>
        <time>2010-11-19T13:40:12Z</time>
      </trkpt>
      <trkpt lat="45.08219" lon="5.62042">
        <ele>1402.8</ele>
        <time>2010-11-19T13:40:16Z</time>
      </trkpt>
      <trkpt lat="45.08218" lon="5.62042">
        <ele>1403.2</ele>
        <time>2010-11-19T13:40:17Z</time>
      </trkpt>
      <trkpt lat="45.08219" lon="5.62041">
        <ele>1404.6</ele>
        <time>2010-11-19T13:40:20Z</time>
      </trkpt>
      <trkpt lat="45.08217" lon="5.62038">
        <ele>1407.4</ele>
        <time>2010-11-19T13:40:25Z</time>
      </trkpt>
      <trkpt lat="45.08218" lon="5.62036">
        <ele>1408.2</ele>
        <time>2010-11-19T13:40:27Z</time>
      </trkpt>
      <trkpt lat="45.08218" lon="5.62034">
        <ele>1409</ele>
        <time>2010-11-19T13:40:29Z</time>
      </trkpt>
      <trkpt lat="45.0822" lon="5.62034">
        <ele>1409.8</ele>
        <time>2010-11-19T13:40:31Z</time>
      </trkpt>
      <trkpt lat="45.0822" lon="5.62033">
        <ele>1410.2</ele>
        <time>2010-11-19T13:40:32Z</time>
      </trkpt>
      <trkpt lat="45.08221" lon="5.6203">
        <ele>1411.4</ele>
        <time>2010-11-19T13:40:35Z</time>
      </trkpt>
      <trkpt lat="45.08222" lon="5.6203">
        <ele>1412</ele>
        <time>2010-11-19T13:40:37Z</time>
      </trkpt>
      <trkpt lat="45.08225" lon="5.6203">
        <ele>1412.6</ele>
        <time>2010-11-19T13:40:39Z</time>
      </trkpt>
      <trkpt lat="45.08226" lon="5.6203">
        <ele>1413.2</ele>
        <time>2010-11-19T13:40:40Z</time>
      </trkpt>
      <trkpt lat="45.08229" lon="5.62029">
        <ele>1414.8</ele>
        <time>2010-11-19T13:40:44Z</time>
      </trkpt>
      <trkpt lat="45.08232" lon="5.62029">
        <ele>1417</ele>
        <time>2010-11-19T13:40:50Z</time>
      </trkpt>
      <trkpt lat="45.08229" lon="5.62023">
        <ele>1419</ele>
        <time>2010-11-19T13:40:57Z</time>
      </trkpt>
      <trkpt lat="45.0823" lon="5.6202">
        <ele>1420.4</ele>
        <time>2010-11-19T13:41:01Z</time>
      </trkpt>
      <trkpt lat="45.0823" lon="5.62019">
        <ele>1420.6</ele>
        <time>2010-11-19T13:41:02Z</time>
      </trkpt>
      <trkpt lat="45.0823" lon="5.62015">
        <ele>1421.4</ele>
        <time>2010-11-19T13:41:05Z</time>
      </trkpt>
      <trkpt lat="45.08229" lon="5.62014">
        <ele>1422.4</ele>
        <time>2010-11-19T13:41:07Z</time>
      </trkpt>
      <trkpt lat="45.08229" lon="5.62013">
        <ele>1422.8</ele>
        <time>2010-11-19T13:41:08Z</time>
      </trkpt>
      <trkpt lat="45.08229" lon="5.62013">
        <ele>1423.8</ele>
        <time>2010-11-19T13:41:11Z</time>
      </trkpt>
      <trkpt lat="45.0823" lon="5.6201">
        <ele>1425.2</ele>
        <time>2010-11-19T13:41:15Z</time>
      </trkpt>
      <trkpt lat="45.08231" lon="5.62009">
        <ele>1427.6</ele>
        <time>2010-11-19T13:41:20Z</time>
      </trkpt>
      <trkpt lat="45.08234" lon="5.6201">
        <ele>1430.2</ele>
        <time>2010-11-19T13:41:27Z</time>
      </trkpt>
      <trkpt lat="45.08236" lon="5.6201">
        <ele>1431</ele>
        <time>2010-11-19T13:41:30Z</time>
      </trkpt>
      <trkpt lat="45.08238" lon="5.62011">
        <ele>1431.8</ele>
        <time>2010-11-19T13:41:32Z</time>
      </trkpt>
      <trkpt lat="45.08239" lon="5.62013">
        <ele>1432.4</ele>
        <time>2010-11-19T13:41:34Z</time>
      </trkpt>
      <trkpt lat="45.08239" lon="5.62013">
        <ele>1432.8</ele>
        <time>2010-11-19T13:41:35Z</time>
      </trkpt>
      <trkpt lat="45.08241" lon="5.62012">
        <ele>1433.4</ele>
        <time>2010-11-19T13:41:37Z</time>
      </trkpt>
      <trkpt lat="45.08242" lon="5.62012">
        <ele>1434</ele>
        <time>2010-11-19T13:41:39Z</time>
      </trkpt>
      <trkpt lat="45.08243" lon="5.62011">
        <ele>1434</ele>
        <time>2010-11-19T13:41:40Z</time>
      </trkpt>
      <trkpt lat="45.08244" lon="5.62012">
        <ele>1434.6</ele>
        <time>2010-11-19T13:41:42Z</time>
      </trkpt>
      <trkpt lat="45.08246" lon="5.6201">
        <ele>1435.8</ele>
        <time>2010-11-19T13:41:48Z</time>
      </trkpt>
      <trkpt lat="45.08247" lon="5.62006">
        <ele>1437</ele>
        <time>2010-11-19T13:41:53Z</time>
      </trkpt>
      <trkpt lat="45.08248" lon="5.62005">
        <ele>1437.2</ele>
        <time>2010-11-19T13:41:54Z</time>
      </trkpt>
      <trkpt lat="45.08249" lon="5.62003">
        <ele>1437.4</ele>
        <time>2010-11-19T13:41:56Z</time>
      </trkpt>
      <trkpt lat="45.0825" lon="5.62">
        <ele>1437.2</ele>
        <time>2010-11-19T13:41:58Z</time>
      </trkpt>
      <trkpt lat="45.08252" lon="5.62">
        <ele>1437.4</ele>
        <time>2010-11-19T13:42:01Z</time>
      </trkpt>
      <trkpt lat="45.08253" lon="5.62">
        <ele>1437.6</ele>
        <time>2010-11-19T13:42:04Z</time>
      </trkpt>
      <trkpt lat="45.08253" lon="5.62">
        <ele>1438</ele>
        <time>2010-11-19T13:42:08Z</time>
      </trkpt>
      <trkpt lat="45.08252" lon="5.61998">
        <ele>1438.4</ele>
        <time>2010-11-19T13:42:11Z</time>
      </trkpt>
      <trkpt lat="45.08254" lon="5.61996">
        <ele>1439.6</ele>
        <time>2010-11-19T13:42:17Z</time>
      </trkpt>
      <trkpt lat="45.08256" lon="5.61995">
        <ele>1440.2</ele>
        <time>2010-11-19T13:42:22Z</time>
      </trkpt>
      <trkpt lat="45.08259" lon="5.61992">
        <ele>1441.2</ele>
        <time>2010-11-19T13:42:27Z</time>
      </trkpt>
      <trkpt lat="45.08258" lon="5.61986">
        <ele>1442.2</ele>
        <time>2010-11-19T13:42:32Z</time>
      </trkpt>
      <trkpt lat="45.08259" lon="5.61983">
        <ele>1443.6</ele>
        <time>2010-11-19T13:42:38Z</time>
      </trkpt>
      <trkpt lat="45.0826" lon="5.61982">
        <ele>1444.2</ele>
        <time>2010-11-19T13:42:40Z</time>
      </trkpt>
      <trkpt lat="45.08261" lon="5.61978">
        <ele>1444.8</ele>
        <time>2010-11-19T13:42:44Z</time>
      </trkpt>
      <trkpt lat="45.08263" lon="5.61977">
        <ele>1446.2</ele>
        <time>2010-11-19T13:42:48Z</time>
      </trkpt>
      <trkpt lat="45.08263" lon="5.61977">
        <ele>1446.6</ele>
        <time>2010-11-19T13:42:49Z</time>
      </trkpt>
      <trkpt lat="45.08266" lon="5.61976">
        <ele>1447.8</ele>
        <time>2010-11-19T13:42:54Z</time>
      </trkpt>
      <trkpt lat="45.08264" lon="5.61973">
        <ele>1447.6</ele>
        <time>2010-11-19T13:42:55Z</time>
      </trkpt>
      <trkpt lat="45.08264" lon="5.61965">
        <ele>1447.2</ele>
        <time>2010-11-19T13:42:59Z</time>
      </trkpt>
      <trkpt lat="45.08264" lon="5.61965">
        <ele>1447.2</ele>
        <time>2010-11-19T13:43:01Z</time>
      </trkpt>
      <trkpt lat="45.08264" lon="5.61964">
        <ele>1446.8</ele>
        <time>2010-11-19T13:43:04Z</time>
      </trkpt>
      <trkpt lat="45.08265" lon="5.61959">
        <ele>1445.8</ele>
        <time>2010-11-19T13:43:09Z</time>
      </trkpt>
      <trkpt lat="45.08266" lon="5.61958">
        <ele>1445.4</ele>
        <time>2010-11-19T13:43:13Z</time>
      </trkpt>
      <trkpt lat="45.08268" lon="5.61958">
        <ele>1445.2</ele>
        <time>2010-11-19T13:43:14Z</time>
      </trkpt>
      <trkpt lat="45.08268" lon="5.61955">
        <ele>1444.4</ele>
        <time>2010-11-19T13:43:18Z</time>
      </trkpt>
      <trkpt lat="45.08269" lon="5.61955">
        <ele>1444.2</ele>
        <time>2010-11-19T13:43:20Z</time>
      </trkpt>
      <trkpt lat="45.08267" lon="5.61952">
        <ele>1443.4</ele>
        <time>2010-11-19T13:43:31Z</time>
      </trkpt>
      <trkpt lat="45.08265" lon="5.6195">
        <ele>1443.2</ele>
        <time>2010-11-19T13:43:37Z</time>
      </trkpt>
      <trkpt lat="45.08265" lon="5.61948">
        <ele>1443.2</ele>
        <time>2010-11-19T13:43:38Z</time>
      </trkpt>
      <trkpt lat="45.08264" lon="5.61945">
        <ele>1443.2</ele>
        <time>2010-11-19T13:43:40Z</time>
      </trkpt>
      <trkpt lat="45.08267" lon="5.61944">
        <ele>1443.2</ele>
        <time>2010-11-19T13:43:43Z</time>
      </trkpt>
      <trkpt lat="45.08267" lon="5.61943">
        <ele>1443.2</ele>
        <time>2010-11-19T13:43:44Z</time>
      </trkpt>
      <trkpt lat="45.08268" lon="5.61943">
        <ele>1443.4</ele>
        <time>2010-11-19T13:43:47Z</time>
      </trkpt>
      <trkpt lat="45.08268" lon="5.61941">
        <ele>1444.4</ele>
        <time>2010-11-19T13:43:52Z</time>
      </trkpt>
      <trkpt lat="45.0827" lon="5.61941">
        <ele>1446.2</ele>
        <time>2010-11-19T13:43:57Z</time>
      </trkpt>
      <trkpt lat="45.08271" lon="5.6194">
        <ele>1448</ele>
        <time>2010-11-19T13:44:02Z</time>
      </trkpt>
      <trkpt lat="45.08272" lon="5.61938">
        <ele>1450.6</ele>
        <time>2010-11-19T13:44:09Z</time>
      </trkpt>
      <trkpt lat="45.08274" lon="5.61935">
        <ele>1452</ele>
        <time>2010-11-19T13:44:14Z</time>
      </trkpt>
      <trkpt lat="45.08276" lon="5.61935">
        <ele>1453.2</ele>
        <time>2010-11-19T13:44:17Z</time>
      </trkpt>
      <trkpt lat="45.08277" lon="5.61934">
        <ele>1454</ele>
        <time>2010-11-19T13:44:19Z</time>
      </trkpt>
      <trkpt lat="45.08278" lon="5.61933">
        <ele>1455.6</ele>
        <time>2010-11-19T13:44:23Z</time>
      </trkpt>
      <trkpt lat="45.08281" lon="5.61931">
        <ele>1458</ele>
        <time>2010-11-19T13:44:29Z</time>
      </trkpt>
      <trkpt lat="45.08282" lon="5.61927">
        <ele>1459.4</ele>
        <time>2010-11-19T13:44:33Z</time>
      </trkpt>
      <trkpt lat="45.08283" lon="5.61927">
        <ele>1460</ele>
        <time>2010-11-19T13:44:35Z</time>
      </trkpt>
      <trkpt lat="45.08284" lon="5.61927">
        <ele>1462.2</ele>
        <time>2010-11-19T13:44:41Z</time>
      </trkpt>
      <trkpt lat="45.08287" lon="5.61926">
        <ele>1463.6</ele>
        <time>2010-11-19T13:44:45Z</time>
      </trkpt>
      <trkpt lat="45.0829" lon="5.61925">
        <ele>1464.4</ele>
        <time>2010-11-19T13:44:48Z</time>
      </trkpt>
      <trkpt lat="45.08291" lon="5.61925">
        <ele>1464.8</ele>
        <time>2010-11-19T13:44:49Z</time>
      </trkpt>
      <trkpt lat="45.08291" lon="5.61924">
        <ele>1465.2</ele>
        <time>2010-11-19T13:44:50Z</time>
      </trkpt>
      <trkpt lat="45.08293" lon="5.61922">
        <ele>1466.6</ele>
        <time>2010-11-19T13:44:54Z</time>
      </trkpt>
      <trkpt lat="45.08295" lon="5.6192">
        <ele>1468.4</ele>
        <time>2010-11-19T13:44:59Z</time>
      </trkpt>
      <trkpt lat="45.08296" lon="5.61917">
        <ele>1470</ele>
        <time>2010-11-19T13:45:04Z</time>
      </trkpt>
      <trkpt lat="45.08297" lon="5.61915">
        <ele>1471.2</ele>
        <time>2010-11-19T13:45:08Z</time>
      </trkpt>
      <trkpt lat="45.08298" lon="5.61912">
        <ele>1471.8</ele>
        <time>2010-11-19T13:45:11Z</time>
      </trkpt>
      <trkpt lat="45.08298" lon="5.61909">
        <ele>1472.2</ele>
        <time>2010-11-19T13:45:14Z</time>
      </trkpt>
      <trkpt lat="45.08299" lon="5.61904">
        <ele>1472.2</ele>
        <time>2010-11-19T13:45:18Z</time>
      </trkpt>
      <trkpt lat="45.08299" lon="5.61904">
        <ele>1472.2</ele>
        <time>2010-11-19T13:45:19Z</time>
      </trkpt>
      <trkpt lat="45.08301" lon="5.61904">
        <ele>1472.4</ele>
        <time>2010-11-19T13:45:21Z</time>
      </trkpt>
      <trkpt lat="45.08302" lon="5.61902">
        <ele>1472.2</ele>
        <time>2010-11-19T13:45:26Z</time>
      </trkpt>
      <trkpt lat="45.08304" lon="5.61901">
        <ele>1471.8</ele>
        <time>2010-11-19T13:45:29Z</time>
      </trkpt>
      <trkpt lat="45.08304" lon="5.61901">
        <ele>1471.8</ele>
        <time>2010-11-19T13:45:31Z</time>
      </trkpt>
      <trkpt lat="45.08306" lon="5.619">
        <ele>1471.6</ele>
        <time>2010-11-19T13:45:34Z</time>
      </trkpt>
      <trkpt lat="45.08308" lon="5.619">
        <ele>1471.6</ele>
        <time>2010-11-19T13:45:36Z</time>
      </trkpt>
      <trkpt lat="45.08308" lon="5.61896">
        <ele>1471.2</ele>
        <time>2010-11-19T13:45:40Z</time>
      </trkpt>
      <trkpt lat="45.08306" lon="5.61892">
        <ele>1470.8</ele>
        <time>2010-11-19T13:45:46Z</time>
      </trkpt>
      <trkpt lat="45.08304" lon="5.61889">
        <ele>1470.4</ele>
        <time>2010-11-19T13:45:50Z</time>
      </trkpt>
      <trkpt lat="45.08302" lon="5.61888">
        <ele>1470.4</ele>
        <time>2010-11-19T13:45:55Z</time>
      </trkpt>
      <trkpt lat="45.083" lon="5.61885">
        <ele>1470.2</ele>
        <time>2010-11-19T13:45:58Z</time>
      </trkpt>
      <trkpt lat="45.08299" lon="5.61885">
        <ele>1470</ele>
        <time>2010-11-19T13:45:59Z</time>
      </trkpt>
      <trkpt lat="45.08298" lon="5.61883">
        <ele>1469.8</ele>
        <time>2010-11-19T13:46:01Z</time>
      </trkpt>
      <trkpt lat="45.08296" lon="5.61882">
        <ele>1470</ele>
        <time>2010-11-19T13:46:04Z</time>
      </trkpt>
      <trkpt lat="45.08294" lon="5.61881">
        <ele>1470</ele>
        <time>2010-11-19T13:46:08Z</time>
      </trkpt>
      <trkpt lat="45.08293" lon="5.61879">
        <ele>1470.8</ele>
        <time>2010-11-19T13:46:13Z</time>
      </trkpt>
      <trkpt lat="45.08293" lon="5.61877">
        <ele>1471.8</ele>
        <time>2010-11-19T13:46:18Z</time>
      </trkpt>
      <trkpt lat="45.08291" lon="5.61876">
        <ele>1473.2</ele>
        <time>2010-11-19T13:46:24Z</time>
      </trkpt>
      <trkpt lat="45.0829" lon="5.61875">
        <ele>1474</ele>
        <time>2010-11-19T13:46:27Z</time>
      </trkpt>
      <trkpt lat="45.08289" lon="5.61871">
        <ele>1474.2</ele>
        <time>2010-11-19T13:46:30Z</time>
      </trkpt>
      <trkpt lat="45.08288" lon="5.6187">
        <ele>1474.2</ele>
        <time>2010-11-19T13:46:31Z</time>
      </trkpt>
      <trkpt lat="45.08287" lon="5.61867">
        <ele>1474</ele>
        <time>2010-11-19T13:46:34Z</time>
      </trkpt>
      <trkpt lat="45.08286" lon="5.61866">
        <ele>1473.8</ele>
        <time>2010-11-19T13:46:36Z</time>
      </trkpt>
      <trkpt lat="45.08285" lon="5.61865">
        <ele>1473.8</ele>
        <time>2010-11-19T13:46:38Z</time>
      </trkpt>
      <trkpt lat="45.08283" lon="5.61863">
        <ele>1473.6</ele>
        <time>2010-11-19T13:46:42Z</time>
      </trkpt>
      <trkpt lat="45.0828" lon="5.61864">
        <ele>1473.6</ele>
        <time>2010-11-19T13:46:48Z</time>
      </trkpt>
      <trkpt lat="45.08276" lon="5.61862">
        <ele>1473.6</ele>
        <time>2010-11-19T13:46:56Z</time>
      </trkpt>
      <trkpt lat="45.08274" lon="5.61862">
        <ele>1473.6</ele>
        <time>2010-11-19T13:47:00Z</time>
      </trkpt>
      <trkpt lat="45.08273" lon="5.61861">
        <ele>1474.6</ele>
        <time>2010-11-19T13:47:08Z</time>
      </trkpt>
      <trkpt lat="45.08272" lon="5.61861">
        <ele>1474.6</ele>
        <time>2010-11-19T13:47:09Z</time>
      </trkpt>
      <trkpt lat="45.08271" lon="5.61861">
        <ele>1474.6</ele>
        <time>2010-11-19T13:47:10Z</time>
      </trkpt>
      <trkpt lat="45.0827" lon="5.6186">
        <ele>1475</ele>
        <time>2010-11-19T13:47:12Z</time>
      </trkpt>
      <trkpt lat="45.08264" lon="5.61856">
        <ele>1475.8</ele>
        <time>2010-11-19T13:47:17Z</time>
      </trkpt>
      <trkpt lat="45.0826" lon="5.61853">
        <ele>1476.2</ele>
        <time>2010-11-19T13:47:21Z</time>
      </trkpt>
      <trkpt lat="45.08259" lon="5.61852">
        <ele>1476.4</ele>
        <time>2010-11-19T13:47:22Z</time>
      </trkpt>
      <trkpt lat="45.08258" lon="5.61849">
        <ele>1476.6</ele>
        <time>2010-11-19T13:47:26Z</time>
      </trkpt>
      <trkpt lat="45.08258" lon="5.61847">
        <ele>1476.8</ele>
        <time>2010-11-19T13:47:27Z</time>
      </trkpt>
      <trkpt lat="45.08259" lon="5.61845">
        <ele>1477.2</ele>
        <time>2010-11-19T13:47:29Z</time>
      </trkpt>
      <trkpt lat="45.08259" lon="5.61846">
        <ele>1477.4</ele>
        <time>2010-11-19T13:47:30Z</time>
      </trkpt>
      <trkpt lat="45.08256" lon="5.61841">
        <ele>1478.4</ele>
        <time>2010-11-19T13:47:36Z</time>
      </trkpt>
      <trkpt lat="45.08256" lon="5.6184">
        <ele>1479</ele>
        <time>2010-11-19T13:47:41Z</time>
      </trkpt>
      <trkpt lat="45.08258" lon="5.61839">
        <ele>1480</ele>
        <time>2010-11-19T13:47:46Z</time>
      </trkpt>
      <trkpt lat="45.08259" lon="5.61838">
        <ele>1481.6</ele>
        <time>2010-11-19T13:47:53Z</time>
      </trkpt>
      <trkpt lat="45.08262" lon="5.61831">
        <ele>1484.4</ele>
        <time>2010-11-19T13:48:02Z</time>
      </trkpt>
      <trkpt lat="45.0826" lon="5.61829">
        <ele>1485</ele>
        <time>2010-11-19T13:48:05Z</time>
      </trkpt>
      <trkpt lat="45.0826" lon="5.61827">
        <ele>1486.4</ele>
        <time>2010-11-19T13:48:10Z</time>
      </trkpt>
      <trkpt lat="45.08261" lon="5.61824">
        <ele>1487.4</ele>
        <time>2010-11-19T13:48:15Z</time>
      </trkpt>
      <trkpt lat="45.08262" lon="5.61824">
        <ele>1487.4</ele>
        <time>2010-11-19T13:48:16Z</time>
      </trkpt>
      <trkpt lat="45.08264" lon="5.61821">
        <ele>1487.8</ele>
        <time>2010-11-19T13:48:21Z</time>
      </trkpt>
      <trkpt lat="45.08263" lon="5.61817">
        <ele>1488</ele>
        <time>2010-11-19T13:48:27Z</time>
      </trkpt>
      <trkpt lat="45.08263" lon="5.61816">
        <ele>1488.2</ele>
        <time>2010-11-19T13:48:30Z</time>
      </trkpt>
      <trkpt lat="45.08262" lon="5.61814">
        <ele>1488.2</ele>
        <time>2010-11-19T13:48:32Z</time>
      </trkpt>
      <trkpt lat="45.08261" lon="5.6181">
        <ele>1488.6</ele>
        <time>2010-11-19T13:48:38Z</time>
      </trkpt>
      <trkpt lat="45.08262" lon="5.61808">
        <ele>1488.6</ele>
        <time>2010-11-19T13:48:41Z</time>
      </trkpt>
      <trkpt lat="45.08262" lon="5.61807">
        <ele>1488.8</ele>
        <time>2010-11-19T13:48:42Z</time>
      </trkpt>
      <trkpt lat="45.08264" lon="5.61808">
        <ele>1489.2</ele>
        <time>2010-11-19T13:48:45Z</time>
      </trkpt>
      <trkpt lat="45.08267" lon="5.61809">
        <ele>1490.2</ele>
        <time>2010-11-19T13:48:49Z</time>
      </trkpt>
      <trkpt lat="45.08268" lon="5.61804">
        <ele>1493</ele>
        <time>2010-11-19T13:48:57Z</time>
      </trkpt>
      <trkpt lat="45.08268" lon="5.618">
        <ele>1495.6</ele>
        <time>2010-11-19T13:49:05Z</time>
      </trkpt>
      <trkpt lat="45.08264" lon="5.61798">
        <ele>1497.2</ele>
        <time>2010-11-19T13:49:10Z</time>
      </trkpt>
      <trkpt lat="45.08262" lon="5.61797">
        <ele>1499.6</ele>
        <time>2010-11-19T13:49:16Z</time>
      </trkpt>
      <trkpt lat="45.0826" lon="5.61795">
        <ele>1500.2</ele>
        <time>2010-11-19T13:49:18Z</time>
      </trkpt>
      <trkpt lat="45.0826" lon="5.61794">
        <ele>1500.4</ele>
        <time>2010-11-19T13:49:19Z</time>
      </trkpt>
      <trkpt lat="45.08258" lon="5.61795">
        <ele>1501.2</ele>
        <time>2010-11-19T13:49:21Z</time>
      </trkpt>
      <trkpt lat="45.08255" lon="5.61796">
        <ele>1503.2</ele>
        <time>2010-11-19T13:49:26Z</time>
      </trkpt>
      <trkpt lat="45.08254" lon="5.61797">
        <ele>1504.6</ele>
        <time>2010-11-19T13:49:29Z</time>
      </trkpt>
      <trkpt lat="45.08252" lon="5.61798">
        <ele>1507.4</ele>
        <time>2010-11-19T13:49:34Z</time>
      </trkpt>
      <trkpt lat="45.08252" lon="5.618">
        <ele>1509.6</ele>
        <time>2010-11-19T13:49:38Z</time>
      </trkpt>
      <trkpt lat="45.08249" lon="5.61798">
        <ele>1512.4</ele>
        <time>2010-11-19T13:49:44Z</time>
      </trkpt>
      <trkpt lat="45.08245" lon="5.618">
        <ele>1514.8</ele>
        <time>2010-11-19T13:49:49Z</time>
      </trkpt>
      <trkpt lat="45.08244" lon="5.618">
        <ele>1515.4</ele>
        <time>2010-11-19T13:49:51Z</time>
      </trkpt>
      <trkpt lat="45.08243" lon="5.61801">
        <ele>1516.6</ele>
        <time>2010-11-19T13:49:54Z</time>
      </trkpt>
      <trkpt lat="45.08242" lon="5.618">
        <ele>1519.2</ele>
        <time>2010-11-19T13:49:59Z</time>
      </trkpt>
      <trkpt lat="45.08239" lon="5.61801">
        <ele>1521.8</ele>
        <time>2010-11-19T13:50:04Z</time>
      </trkpt>
      <trkpt lat="45.08236" lon="5.61803">
        <ele>1524</ele>
        <time>2010-11-19T13:50:09Z</time>
      </trkpt>
      <trkpt lat="45.08233" lon="5.61804">
        <ele>1526.2</ele>
        <time>2010-11-19T13:50:15Z</time>
      </trkpt>
      <trkpt lat="45.0823" lon="5.61802">
        <ele>1527</ele>
        <time>2010-11-19T13:50:20Z</time>
      </trkpt>
      <trkpt lat="45.08227" lon="5.61805">
        <ele>1528.6</ele>
        <time>2010-11-19T13:50:27Z</time>
      </trkpt>
      <trkpt lat="45.08226" lon="5.61805">
        <ele>1529</ele>
        <time>2010-11-19T13:50:28Z</time>
      </trkpt>
      <trkpt lat="45.08223" lon="5.61806">
        <ele>1529.8</ele>
        <time>2010-11-19T13:50:32Z</time>
      </trkpt>
      <trkpt lat="45.08219" lon="5.61804">
        <ele>1531</ele>
        <time>2010-11-19T13:50:37Z</time>
      </trkpt>
      <trkpt lat="45.08214" lon="5.61806">
        <ele>1532.6</ele>
        <time>2010-11-19T13:50:44Z</time>
      </trkpt>
      <trkpt lat="45.08214" lon="5.61807">
        <ele>1532.8</ele>
        <time>2010-11-19T13:50:45Z</time>
      </trkpt>
      <trkpt lat="45.08211" lon="5.61806">
        <ele>1534</ele>
        <time>2010-11-19T13:50:50Z</time>
      </trkpt>
      <trkpt lat="45.0821" lon="5.61807">
        <ele>1534.2</ele>
        <time>2010-11-19T13:50:51Z</time>
      </trkpt>
      <trkpt lat="45.08209" lon="5.61808">
        <ele>1535</ele>
        <time>2010-11-19T13:50:53Z</time>
      </trkpt>
      <trkpt lat="45.08209" lon="5.61808">
        <ele>1535.4</ele>
        <time>2010-11-19T13:50:54Z</time>
      </trkpt>
      <trkpt lat="45.08206" lon="5.61807">
        <ele>1536.8</ele>
        <time>2010-11-19T13:50:58Z</time>
      </trkpt>
      <trkpt lat="45.08203" lon="5.61805">
        <ele>1538.2</ele>
        <time>2010-11-19T13:51:03Z</time>
      </trkpt>
      <trkpt lat="45.08202" lon="5.61803">
        <ele>1539.6</ele>
        <time>2010-11-19T13:51:07Z</time>
      </trkpt>
      <trkpt lat="45.08203" lon="5.61797">
        <ele>1541</ele>
        <time>2010-11-19T13:51:12Z</time>
      </trkpt>
      <trkpt lat="45.08202" lon="5.61796">
        <ele>1543</ele>
        <time>2010-11-19T13:51:17Z</time>
      </trkpt>
      <trkpt lat="45.08204" lon="5.6179">
        <ele>1544.2</ele>
        <time>2010-11-19T13:51:22Z</time>
      </trkpt>
      <trkpt lat="45.08206" lon="5.61788">
        <ele>1544.6</ele>
        <time>2010-11-19T13:51:25Z</time>
      </trkpt>
      <trkpt lat="45.08206" lon="5.61788">
        <ele>1545</ele>
        <time>2010-11-19T13:51:26Z</time>
      </trkpt>
      <trkpt lat="45.08206" lon="5.61785">
        <ele>1545.6</ele>
        <time>2010-11-19T13:51:29Z</time>
      </trkpt>
      <trkpt lat="45.08209" lon="5.61784">
        <ele>1546.4</ele>
        <time>2010-11-19T13:51:34Z</time>
      </trkpt>
      <trkpt lat="45.08215" lon="5.61783">
        <ele>1547.2</ele>
        <time>2010-11-19T13:51:40Z</time>
      </trkpt>
      <trkpt lat="45.08217" lon="5.61778">
        <ele>1547.2</ele>
        <time>2010-11-19T13:51:45Z</time>
      </trkpt>
      <trkpt lat="45.08217" lon="5.61779">
        <ele>1547.6</ele>
        <time>2010-11-19T13:51:51Z</time>
      </trkpt>
      <trkpt lat="45.08215" lon="5.61779">
        <ele>1548.8</ele>
        <time>2010-11-19T13:51:56Z</time>
      </trkpt>
      <trkpt lat="45.08213" lon="5.61777">
        <ele>1549.8</ele>
        <time>2010-11-19T13:52:01Z</time>
      </trkpt>
      <trkpt lat="45.08212" lon="5.61775">
        <ele>1550.8</ele>
        <time>2010-11-19T13:52:05Z</time>
      </trkpt>
      <trkpt lat="45.08213" lon="5.61773">
        <ele>1551.6</ele>
        <time>2010-11-19T13:52:10Z</time>
      </trkpt>
      <trkpt lat="45.08208" lon="5.61763">
        <ele>1554</ele>
        <time>2010-11-19T13:52:25Z</time>
      </trkpt>
      <trkpt lat="45.08209" lon="5.61762">
        <ele>1554.8</ele>
        <time>2010-11-19T13:52:29Z</time>
      </trkpt>
      <trkpt lat="45.08211" lon="5.61763">
        <ele>1555.2</ele>
        <time>2010-11-19T13:52:31Z</time>
      </trkpt>
      <trkpt lat="45.08213" lon="5.61764">
        <ele>1555.8</ele>
        <time>2010-11-19T13:52:35Z</time>
      </trkpt>
      <trkpt lat="45.08214" lon="5.61762">
        <ele>1556</ele>
        <time>2010-11-19T13:52:37Z</time>
      </trkpt>
      <trkpt lat="45.08215" lon="5.61754">
        <ele>1555.4</ele>
        <time>2010-11-19T13:52:40Z</time>
      </trkpt>
      <trkpt lat="45.08216" lon="5.6175">
        <ele>1555.4</ele>
        <time>2010-11-19T13:52:42Z</time>
      </trkpt>
      <trkpt lat="45.08218" lon="5.61749">
        <ele>1555.4</ele>
        <time>2010-11-19T13:52:44Z</time>
      </trkpt>
      <trkpt lat="45.08219" lon="5.61747">
        <ele>1555.4</ele>
        <time>2010-11-19T13:52:47Z</time>
      </trkpt>
      <trkpt lat="45.0822" lon="5.61745">
        <ele>1555.2</ele>
        <time>2010-11-19T13:52:49Z</time>
      </trkpt>
      <trkpt lat="45.08221" lon="5.61745">
        <ele>1555.2</ele>
        <time>2010-11-19T13:52:50Z</time>
      </trkpt>
      <trkpt lat="45.08223" lon="5.61744">
        <ele>1555.2</ele>
        <time>2010-11-19T13:52:54Z</time>
      </trkpt>
      <trkpt lat="45.08224" lon="5.61744">
        <ele>1555.2</ele>
        <time>2010-11-19T13:52:55Z</time>
      </trkpt>
      <trkpt lat="45.08223" lon="5.61741">
        <ele>1555</ele>
        <time>2010-11-19T13:52:59Z</time>
      </trkpt>
      <trkpt lat="45.08224" lon="5.61739">
        <ele>1555.2</ele>
        <time>2010-11-19T13:53:04Z</time>
      </trkpt>
      <trkpt lat="45.08225" lon="5.61736">
        <ele>1556.2</ele>
        <time>2010-11-19T13:53:09Z</time>
      </trkpt>
      <trkpt lat="45.08227" lon="5.61734">
        <ele>1557</ele>
        <time>2010-11-19T13:53:13Z</time>
      </trkpt>
      <trkpt lat="45.08226" lon="5.61726">
        <ele>1556.8</ele>
        <time>2010-11-19T13:53:18Z</time>
      </trkpt>
      <trkpt lat="45.08225" lon="5.61722">
        <ele>1556.4</ele>
        <time>2010-11-19T13:53:25Z</time>
      </trkpt>
      <trkpt lat="45.08227" lon="5.61721">
        <ele>1555.8</ele>
        <time>2010-11-19T13:53:31Z</time>
      </trkpt>
      <trkpt lat="45.08228" lon="5.6172">
        <ele>1555.6</ele>
        <time>2010-11-19T13:53:32Z</time>
      </trkpt>
      <trkpt lat="45.08229" lon="5.61716">
        <ele>1555</ele>
        <time>2010-11-19T13:53:37Z</time>
      </trkpt>
      <trkpt lat="45.08231" lon="5.61711">
        <ele>1554.2</ele>
        <time>2010-11-19T13:53:42Z</time>
      </trkpt>
      <trkpt lat="45.08233" lon="5.61708">
        <ele>1554</ele>
        <time>2010-11-19T13:53:47Z</time>
      </trkpt>
      <trkpt lat="45.08235" lon="5.61705">
        <ele>1553.2</ele>
        <time>2010-11-19T13:53:53Z</time>
      </trkpt>
      <trkpt lat="45.08236" lon="5.617">
        <ele>1552.6</ele>
        <time>2010-11-19T13:54:00Z</time>
      </trkpt>
      <trkpt lat="45.08236" lon="5.61698">
        <ele>1552.2</ele>
        <time>2010-11-19T13:54:03Z</time>
      </trkpt>
      <trkpt lat="45.08233" lon="5.61693">
        <ele>1551.8</ele>
        <time>2010-11-19T13:54:08Z</time>
      </trkpt>
      <trkpt lat="45.08232" lon="5.61689">
        <ele>1551.6</ele>
        <time>2010-11-19T13:54:16Z</time>
      </trkpt>
      <trkpt lat="45.08237" lon="5.61684">
        <ele>1551.4</ele>
        <time>2010-11-19T13:54:22Z</time>
      </trkpt>
      <trkpt lat="45.08237" lon="5.61683">
        <ele>1551.4</ele>
        <time>2010-11-19T13:54:23Z</time>
      </trkpt>
      <trkpt lat="45.08241" lon="5.6168">
        <ele>1551.4</ele>
        <time>2010-11-19T13:54:27Z</time>
      </trkpt>
      <trkpt lat="45.08243" lon="5.6168">
        <ele>1552.4</ele>
        <time>2010-11-19T13:54:32Z</time>
      </trkpt>
      <trkpt lat="45.08243" lon="5.61675">
        <ele>1552.4</ele>
        <time>2010-11-19T13:54:41Z</time>
      </trkpt>
      <trkpt lat="45.08245" lon="5.61675">
        <ele>1552.8</ele>
        <time>2010-11-19T13:54:42Z</time>
      </trkpt>
      <trkpt lat="45.08246" lon="5.61671">
        <ele>1552.6</ele>
        <time>2010-11-19T13:54:46Z</time>
      </trkpt>
      <trkpt lat="45.08247" lon="5.61669">
        <ele>1552.8</ele>
        <time>2010-11-19T13:54:51Z</time>
      </trkpt>
      <trkpt lat="45.08248" lon="5.61668">
        <ele>1552.8</ele>
        <time>2010-11-19T13:54:56Z</time>
      </trkpt>
      <trkpt lat="45.08249" lon="5.61665">
        <ele>1552.8</ele>
        <time>2010-11-19T13:55:01Z</time>
      </trkpt>
      <trkpt lat="45.08248" lon="5.61663">
        <ele>1552.6</ele>
        <time>2010-11-19T13:55:04Z</time>
      </trkpt>
      <trkpt lat="45.0825" lon="5.61662">
        <ele>1553</ele>
        <time>2010-11-19T13:55:06Z</time>
      </trkpt>
      <trkpt lat="45.08251" lon="5.61661">
        <ele>1553</ele>
        <time>2010-11-19T13:55:11Z</time>
      </trkpt>
      <trkpt lat="45.08253" lon="5.61658">
        <ele>1553</ele>
        <time>2010-11-19T13:55:16Z</time>
      </trkpt>
      <trkpt lat="45.08254" lon="5.61657">
        <ele>1553</ele>
        <time>2010-11-19T13:55:18Z</time>
      </trkpt>
      <trkpt lat="45.08256" lon="5.61655">
        <ele>1552.8</ele>
        <time>2010-11-19T13:55:22Z</time>
      </trkpt>
      <trkpt lat="45.08256" lon="5.61652">
        <ele>1552.8</ele>
        <time>2010-11-19T13:55:29Z</time>
      </trkpt>
      <trkpt lat="45.08254" lon="5.61651">
        <ele>1552.6</ele>
        <time>2010-11-19T13:55:32Z</time>
      </trkpt>
      <trkpt lat="45.08252" lon="5.61649">
        <ele>1552.6</ele>
        <time>2010-11-19T13:55:37Z</time>
      </trkpt>
      <trkpt lat="45.08251" lon="5.61647">
        <ele>1552.8</ele>
        <time>2010-11-19T13:55:42Z</time>
      </trkpt>
      <trkpt lat="45.08253" lon="5.61645">
        <ele>1553</ele>
        <time>2010-11-19T13:55:46Z</time>
      </trkpt>
      <trkpt lat="45.08254" lon="5.61645">
        <ele>1553.2</ele>
        <time>2010-11-19T13:55:47Z</time>
      </trkpt>
      <trkpt lat="45.08257" lon="5.61645">
        <ele>1553.6</ele>
        <time>2010-11-19T13:55:51Z</time>
      </trkpt>
      <trkpt lat="45.08258" lon="5.61645">
        <ele>1553.8</ele>
        <time>2010-11-19T13:55:52Z</time>
      </trkpt>
      <trkpt lat="45.0826" lon="5.61642">
        <ele>1554.2</ele>
        <time>2010-11-19T13:55:58Z</time>
      </trkpt>
      <trkpt lat="45.08262" lon="5.6164">
        <ele>1555</ele>
        <time>2010-11-19T13:56:04Z</time>
      </trkpt>
      <trkpt lat="45.08262" lon="5.61634">
        <ele>1556.2</ele>
        <time>2010-11-19T13:56:20Z</time>
      </trkpt>
      <trkpt lat="45.08261" lon="5.61632">
        <ele>1556.8</ele>
        <time>2010-11-19T13:56:25Z</time>
      </trkpt>
      <trkpt lat="45.08259" lon="5.61632">
        <ele>1557.4</ele>
        <time>2010-11-19T13:56:30Z</time>
      </trkpt>
      <trkpt lat="45.08259" lon="5.61632">
        <ele>1558.2</ele>
        <time>2010-11-19T13:56:38Z</time>
      </trkpt>
      <trkpt lat="45.08258" lon="5.61629">
        <ele>1558.8</ele>
        <time>2010-11-19T13:56:43Z</time>
      </trkpt>
      <trkpt lat="45.08258" lon="5.61626">
        <ele>1559.6</ele>
        <time>2010-11-19T13:56:50Z</time>
      </trkpt>
      <trkpt lat="45.08256" lon="5.61625">
        <ele>1560.4</ele>
        <time>2010-11-19T13:56:56Z</time>
      </trkpt>
      <trkpt lat="45.08254" lon="5.61626">
        <ele>1561.4</ele>
        <time>2010-11-19T13:57:02Z</time>
      </trkpt>
      <trkpt lat="45.08251" lon="5.61626">
        <ele>1562.2</ele>
        <time>2010-11-19T13:57:07Z</time>
      </trkpt>
      <trkpt lat="45.0825" lon="5.61622">
        <ele>1563.6</ele>
        <time>2010-11-19T13:57:12Z</time>
      </trkpt>
      <trkpt lat="45.08251" lon="5.6162">
        <ele>1564.2</ele>
        <time>2010-11-19T13:57:17Z</time>
      </trkpt>
      <trkpt lat="45.08249" lon="5.6162">
        <ele>1565</ele>
        <time>2010-11-19T13:57:24Z</time>
      </trkpt>
      <trkpt lat="45.08247" lon="5.61621">
        <ele>1565</ele>
        <time>2010-11-19T13:57:26Z</time>
      </trkpt>
      <trkpt lat="45.08246" lon="5.61621">
        <ele>1565.2</ele>
        <time>2010-11-19T13:57:27Z</time>
      </trkpt>
      <trkpt lat="45.08245" lon="5.61623">
        <ele>1565.2</ele>
        <time>2010-11-19T13:57:29Z</time>
      </trkpt>
      <trkpt lat="45.08241" lon="5.61626">
        <ele>1565.6</ele>
        <time>2010-11-19T13:57:35Z</time>
      </trkpt>
      <trkpt lat="45.08236" lon="5.61629">
        <ele>1566</ele>
        <time>2010-11-19T13:57:40Z</time>
      </trkpt>
      <trkpt lat="45.08232" lon="5.6163">
        <ele>1566.2</ele>
        <time>2010-11-19T13:57:44Z</time>
      </trkpt>
      <trkpt lat="45.08231" lon="5.6163">
        <ele>1566.2</ele>
        <time>2010-11-19T13:57:45Z</time>
      </trkpt>
      <trkpt lat="45.08229" lon="5.6163">
        <ele>1566.4</ele>
        <time>2010-11-19T13:57:49Z</time>
      </trkpt>
      <trkpt lat="45.08228" lon="5.61629">
        <ele>1566.6</ele>
        <time>2010-11-19T13:57:50Z</time>
      </trkpt>
      <trkpt lat="45.08225" lon="5.61627">
        <ele>1566.8</ele>
        <time>2010-11-19T13:57:54Z</time>
      </trkpt>
      <trkpt lat="45.08223" lon="5.61625">
        <ele>1567.2</ele>
        <time>2010-11-19T13:57:58Z</time>
      </trkpt>
      <trkpt lat="45.08218" lon="5.61626">
        <ele>1567.4</ele>
        <time>2010-11-19T13:58:03Z</time>
      </trkpt>
      <trkpt lat="45.08214" lon="5.61627">
        <ele>1567.6</ele>
        <time>2010-11-19T13:58:06Z</time>
      </trkpt>
      <trkpt lat="45.08211" lon="5.61627">
        <ele>1567.8</ele>
        <time>2010-11-19T13:58:09Z</time>
      </trkpt>
      <trkpt lat="45.08204" lon="5.6163">
        <ele>1568.2</ele>
        <time>2010-11-19T13:58:15Z</time>
      </trkpt>
      <trkpt lat="45.082" lon="5.61631">
        <ele>1568.6</ele>
        <time>2010-11-19T13:58:20Z</time>
      </trkpt>
      <trkpt lat="45.08199" lon="5.61631">
        <ele>1568.6</ele>
        <time>2010-11-19T13:58:21Z</time>
      </trkpt>
      <trkpt lat="45.08197" lon="5.6163">
        <ele>1569</ele>
        <time>2010-11-19T13:58:24Z</time>
      </trkpt>
      <trkpt lat="45.08196" lon="5.6163">
        <ele>1569</ele>
        <time>2010-11-19T13:58:25Z</time>
      </trkpt>
      <trkpt lat="45.08193" lon="5.61629">
        <ele>1569.6</ele>
        <time>2010-11-19T13:58:30Z</time>
      </trkpt>
      <trkpt lat="45.0819" lon="5.61628">
        <ele>1570.2</ele>
        <time>2010-11-19T13:58:34Z</time>
      </trkpt>
      <trkpt lat="45.08185" lon="5.61628">
        <ele>1570.8</ele>
        <time>2010-11-19T13:58:39Z</time>
      </trkpt>
      <trkpt lat="45.08181" lon="5.61628">
        <ele>1571.6</ele>
        <time>2010-11-19T13:58:44Z</time>
      </trkpt>
      <trkpt lat="45.08178" lon="5.61627">
        <ele>1572</ele>
        <time>2010-11-19T13:58:47Z</time>
      </trkpt>
      <trkpt lat="45.08176" lon="5.61626">
        <ele>1572.4</ele>
        <time>2010-11-19T13:58:50Z</time>
      </trkpt>
      <trkpt lat="45.08173" lon="5.61625">
        <ele>1573.2</ele>
        <time>2010-11-19T13:58:54Z</time>
      </trkpt>
      <trkpt lat="45.0817" lon="5.61624">
        <ele>1573.6</ele>
        <time>2010-11-19T13:58:58Z</time>
      </trkpt>
      <trkpt lat="45.08168" lon="5.61622">
        <ele>1574.2</ele>
        <time>2010-11-19T13:59:02Z</time>
      </trkpt>
      <trkpt lat="45.08166" lon="5.61621">
        <ele>1574.8</ele>
        <time>2010-11-19T13:59:07Z</time>
      </trkpt>
      <trkpt lat="45.08163" lon="5.6162">
        <ele>1575.6</ele>
        <time>2010-11-19T13:59:11Z</time>
      </trkpt>
      <trkpt lat="45.08161" lon="5.61619">
        <ele>1576.4</ele>
        <time>2010-11-19T13:59:16Z</time>
      </trkpt>
      <trkpt lat="45.08158" lon="5.61618">
        <ele>1577.4</ele>
        <time>2010-11-19T13:59:20Z</time>
      </trkpt>
      <trkpt lat="45.08156" lon="5.61617">
        <ele>1578.2</ele>
        <time>2010-11-19T13:59:24Z</time>
      </trkpt>
      <trkpt lat="45.08153" lon="5.61615">
        <ele>1579.2</ele>
        <time>2010-11-19T13:59:29Z</time>
      </trkpt>
      <trkpt lat="45.08155" lon="5.61611">
        <ele>1580.2</ele>
        <time>2010-11-19T13:59:34Z</time>
      </trkpt>
      <trkpt lat="45.08158" lon="5.61609">
        <ele>1580.8</ele>
        <time>2010-11-19T13:59:39Z</time>
      </trkpt>
      <trkpt lat="45.08158" lon="5.61607">
        <ele>1582</ele>
        <time>2010-11-19T13:59:44Z</time>
      </trkpt>
      <trkpt lat="45.08158" lon="5.61605">
        <ele>1582.4</ele>
        <time>2010-11-19T13:59:47Z</time>
      </trkpt>
      <trkpt lat="45.08157" lon="5.61604">
        <ele>1582.8</ele>
        <time>2010-11-19T13:59:49Z</time>
      </trkpt>
      <trkpt lat="45.08158" lon="5.61601">
        <ele>1583.8</ele>
        <time>2010-11-19T13:59:54Z</time>
      </trkpt>
      <trkpt lat="45.08157" lon="5.616">
        <ele>1584.6</ele>
        <time>2010-11-19T13:59:58Z</time>
      </trkpt>
      <trkpt lat="45.08156" lon="5.61598">
        <ele>1585.6</ele>
        <time>2010-11-19T14:00:03Z</time>
      </trkpt>
      <trkpt lat="45.08154" lon="5.61598">
        <ele>1586.6</ele>
        <time>2010-11-19T14:00:08Z</time>
      </trkpt>
      <trkpt lat="45.0815" lon="5.61598">
        <ele>1587.4</ele>
        <time>2010-11-19T14:00:13Z</time>
      </trkpt>
      <trkpt lat="45.08145" lon="5.61597">
        <ele>1588.4</ele>
        <time>2010-11-19T14:00:19Z</time>
      </trkpt>
      <trkpt lat="45.08144" lon="5.61597">
        <ele>1588.6</ele>
        <time>2010-11-19T14:00:20Z</time>
      </trkpt>
      <trkpt lat="45.08141" lon="5.61596">
        <ele>1589.2</ele>
        <time>2010-11-19T14:00:24Z</time>
      </trkpt>
      <trkpt lat="45.08139" lon="5.61595">
        <ele>1590</ele>
        <time>2010-11-19T14:00:29Z</time>
      </trkpt>
      <trkpt lat="45.08137" lon="5.61595">
        <ele>1591</ele>
        <time>2010-11-19T14:00:34Z</time>
      </trkpt>
      <trkpt lat="45.08134" lon="5.61595">
        <ele>1591.8</ele>
        <time>2010-11-19T14:00:39Z</time>
      </trkpt>
      <trkpt lat="45.08133" lon="5.61593">
        <ele>1592.8</ele>
        <time>2010-11-19T14:00:44Z</time>
      </trkpt>
      <trkpt lat="45.08134" lon="5.61589">
        <ele>1593.4</ele>
        <time>2010-11-19T14:00:48Z</time>
      </trkpt>
      <trkpt lat="45.08135" lon="5.61587">
        <ele>1594.2</ele>
        <time>2010-11-19T14:00:52Z</time>
      </trkpt>
      <trkpt lat="45.08134" lon="5.61584">
        <ele>1595.4</ele>
        <time>2010-11-19T14:00:59Z</time>
      </trkpt>
      <trkpt lat="45.08135" lon="5.61581">
        <ele>1596.2</ele>
        <time>2010-11-19T14:01:04Z</time>
      </trkpt>
      <trkpt lat="45.08135" lon="5.61578">
        <ele>1596.8</ele>
        <time>2010-11-19T14:01:10Z</time>
      </trkpt>
      <trkpt lat="45.08133" lon="5.61575">
        <ele>1597.4</ele>
        <time>2010-11-19T14:01:14Z</time>
      </trkpt>
      <trkpt lat="45.08133" lon="5.61572">
        <ele>1597.8</ele>
        <time>2010-11-19T14:01:18Z</time>
      </trkpt>
      <trkpt lat="45.08135" lon="5.6157">
        <ele>1598.2</ele>
        <time>2010-11-19T14:01:23Z</time>
      </trkpt>
      <trkpt lat="45.08136" lon="5.61567">
        <ele>1598.6</ele>
        <time>2010-11-19T14:01:28Z</time>
      </trkpt>
      <trkpt lat="45.08136" lon="5.61565">
        <ele>1598.8</ele>
        <time>2010-11-19T14:01:32Z</time>
      </trkpt>
      <trkpt lat="45.08136" lon="5.61565">
        <ele>1599</ele>
        <time>2010-11-19T14:01:33Z</time>
      </trkpt>
      <trkpt lat="45.08135" lon="5.61561">
        <ele>1599.4</ele>
        <time>2010-11-19T14:01:39Z</time>
      </trkpt>
      <trkpt lat="45.08134" lon="5.61559">
        <ele>1600</ele>
        <time>2010-11-19T14:01:46Z</time>
      </trkpt>
      <trkpt lat="45.08132" lon="5.6156">
        <ele>1600.2</ele>
        <time>2010-11-19T14:01:50Z</time>
      </trkpt>
      <trkpt lat="45.08129" lon="5.6156">
        <ele>1600.6</ele>
        <time>2010-11-19T14:01:54Z</time>
      </trkpt>
      <trkpt lat="45.08127" lon="5.6156">
        <ele>1601</ele>
        <time>2010-11-19T14:01:58Z</time>
      </trkpt>
      <trkpt lat="45.08125" lon="5.61559">
        <ele>1601.2</ele>
        <time>2010-11-19T14:02:02Z</time>
      </trkpt>
      <trkpt lat="45.08123" lon="5.61556">
        <ele>1601.8</ele>
        <time>2010-11-19T14:02:07Z</time>
      </trkpt>
      <trkpt lat="45.08122" lon="5.61556">
        <ele>1602</ele>
        <time>2010-11-19T14:02:08Z</time>
      </trkpt>
      <trkpt lat="45.0812" lon="5.61554">
        <ele>1602.4</ele>
        <time>2010-11-19T14:02:13Z</time>
      </trkpt>
      <trkpt lat="45.08118" lon="5.61554">
        <ele>1603</ele>
        <time>2010-11-19T14:02:17Z</time>
      </trkpt>
      <trkpt lat="45.08116" lon="5.61553">
        <ele>1603.4</ele>
        <time>2010-11-19T14:02:21Z</time>
      </trkpt>
      <trkpt lat="45.08115" lon="5.61552">
        <ele>1604</ele>
        <time>2010-11-19T14:02:27Z</time>
      </trkpt>
      <trkpt lat="45.08114" lon="5.61549">
        <ele>1604.8</ele>
        <time>2010-11-19T14:02:34Z</time>
      </trkpt>
      <trkpt lat="45.08113" lon="5.61547">
        <ele>1605.2</ele>
        <time>2010-11-19T14:02:38Z</time>
      </trkpt>
      <trkpt lat="45.08114" lon="5.61543">
        <ele>1605.6</ele>
        <time>2010-11-19T14:02:43Z</time>
      </trkpt>
      <trkpt lat="45.08114" lon="5.61541">
        <ele>1606</ele>
        <time>2010-11-19T14:02:46Z</time>
      </trkpt>
      <trkpt lat="45.08115" lon="5.6154">
        <ele>1606.4</ele>
        <time>2010-11-19T14:02:49Z</time>
      </trkpt>
      <trkpt lat="45.08116" lon="5.61538">
        <ele>1607</ele>
        <time>2010-11-19T14:02:53Z</time>
      </trkpt>
      <trkpt lat="45.08118" lon="5.61535">
        <ele>1607.8</ele>
        <time>2010-11-19T14:02:58Z</time>
      </trkpt>
      <trkpt lat="45.08119" lon="5.61533">
        <ele>1608.4</ele>
        <time>2010-11-19T14:03:02Z</time>
      </trkpt>
      <trkpt lat="45.08121" lon="5.6153">
        <ele>1609.2</ele>
        <time>2010-11-19T14:03:07Z</time>
      </trkpt>
      <trkpt lat="45.08122" lon="5.61528">
        <ele>1610</ele>
        <time>2010-11-19T14:03:12Z</time>
      </trkpt>
      <trkpt lat="45.08124" lon="5.61526">
        <ele>1610.8</ele>
        <time>2010-11-19T14:03:17Z</time>
      </trkpt>
      <trkpt lat="45.08126" lon="5.61524">
        <ele>1611.2</ele>
        <time>2010-11-19T14:03:21Z</time>
      </trkpt>
      <trkpt lat="45.08127" lon="5.61522">
        <ele>1611.8</ele>
        <time>2010-11-19T14:03:24Z</time>
      </trkpt>
      <trkpt lat="45.08128" lon="5.61519">
        <ele>1612.4</ele>
        <time>2010-11-19T14:03:29Z</time>
      </trkpt>
      <trkpt lat="45.08127" lon="5.61518">
        <ele>1613.4</ele>
        <time>2010-11-19T14:03:34Z</time>
      </trkpt>
      <trkpt lat="45.08124" lon="5.61517">
        <ele>1614.2</ele>
        <time>2010-11-19T14:03:39Z</time>
      </trkpt>
      <trkpt lat="45.08122" lon="5.61515">
        <ele>1615</ele>
        <time>2010-11-19T14:03:43Z</time>
      </trkpt>
      <trkpt lat="45.0812" lon="5.61513">
        <ele>1616</ele>
        <time>2010-11-19T14:03:48Z</time>
      </trkpt>
      <trkpt lat="45.08122" lon="5.6151">
        <ele>1617</ele>
        <time>2010-11-19T14:03:53Z</time>
      </trkpt>
      <trkpt lat="45.08122" lon="5.61511">
        <ele>1618.8</ele>
        <time>2010-11-19T14:04:04Z</time>
      </trkpt>
      <trkpt lat="45.08122" lon="5.61511">
        <ele>1619.8</ele>
        <time>2010-11-19T14:04:13Z</time>
      </trkpt>
      <trkpt lat="45.08121" lon="5.61511">
        <ele>1620.2</ele>
        <time>2010-11-19T14:04:18Z</time>
      </trkpt>
      <trkpt lat="45.08122" lon="5.61509">
        <ele>1621.6</ele>
        <time>2010-11-19T14:04:39Z</time>
      </trkpt>
      <trkpt lat="45.08125" lon="5.61506">
        <ele>1623.2</ele>
        <time>2010-11-19T14:05:02Z</time>
      </trkpt>
      <trkpt lat="45.08126" lon="5.61504">
        <ele>1623.8</ele>
        <time>2010-11-19T14:05:06Z</time>
      </trkpt>
      <trkpt lat="45.08126" lon="5.615">
        <ele>1624.6</ele>
        <time>2010-11-19T14:05:12Z</time>
      </trkpt>
      <trkpt lat="45.08127" lon="5.61497">
        <ele>1625.4</ele>
        <time>2010-11-19T14:05:17Z</time>
      </trkpt>
      <trkpt lat="45.0813" lon="5.61494">
        <ele>1626.2</ele>
        <time>2010-11-19T14:05:22Z</time>
      </trkpt>
      <trkpt lat="45.08131" lon="5.61492">
        <ele>1626.6</ele>
        <time>2010-11-19T14:05:25Z</time>
      </trkpt>
      <trkpt lat="45.08131" lon="5.61492">
        <ele>1626.8</ele>
        <time>2010-11-19T14:05:26Z</time>
      </trkpt>
      <trkpt lat="45.08131" lon="5.61489">
        <ele>1627.6</ele>
        <time>2010-11-19T14:05:31Z</time>
      </trkpt>
      <trkpt lat="45.08128" lon="5.61488">
        <ele>1628.6</ele>
        <time>2010-11-19T14:05:36Z</time>
      </trkpt>
      <trkpt lat="45.08126" lon="5.61487">
        <ele>1629.4</ele>
        <time>2010-11-19T14:05:41Z</time>
      </trkpt>
      <trkpt lat="45.08124" lon="5.61484">
        <ele>1630.4</ele>
        <time>2010-11-19T14:05:47Z</time>
      </trkpt>
      <trkpt lat="45.08122" lon="5.61483">
        <ele>1631.4</ele>
        <time>2010-11-19T14:05:53Z</time>
      </trkpt>
      <trkpt lat="45.08119" lon="5.61482">
        <ele>1632</ele>
        <time>2010-11-19T14:05:57Z</time>
      </trkpt>
      <trkpt lat="45.08118" lon="5.61479">
        <ele>1632.6</ele>
        <time>2010-11-19T14:06:01Z</time>
      </trkpt>
      <trkpt lat="45.08118" lon="5.61479">
        <ele>1632.8</ele>
        <time>2010-11-19T14:06:02Z</time>
      </trkpt>
      <trkpt lat="45.08119" lon="5.61476">
        <ele>1633.6</ele>
        <time>2010-11-19T14:06:06Z</time>
      </trkpt>
      <trkpt lat="45.08122" lon="5.61474">
        <ele>1634.4</ele>
        <time>2010-11-19T14:06:11Z</time>
      </trkpt>
      <trkpt lat="45.08124" lon="5.61472">
        <ele>1635.2</ele>
        <time>2010-11-19T14:06:16Z</time>
      </trkpt>
      <trkpt lat="45.08126" lon="5.61469">
        <ele>1636</ele>
        <time>2010-11-19T14:06:22Z</time>
      </trkpt>
      <trkpt lat="45.08128" lon="5.61467">
        <ele>1637</ele>
        <time>2010-11-19T14:06:28Z</time>
      </trkpt>
      <trkpt lat="45.0813" lon="5.61465">
        <ele>1637.6</ele>
        <time>2010-11-19T14:06:33Z</time>
      </trkpt>
      <trkpt lat="45.0813" lon="5.61464">
        <ele>1637.8</ele>
        <time>2010-11-19T14:06:34Z</time>
      </trkpt>
      <trkpt lat="45.08132" lon="5.61461">
        <ele>1638.4</ele>
        <time>2010-11-19T14:06:38Z</time>
      </trkpt>
      <trkpt lat="45.08131" lon="5.61459">
        <ele>1639.2</ele>
        <time>2010-11-19T14:06:44Z</time>
      </trkpt>
      <trkpt lat="45.08129" lon="5.61457">
        <ele>1639.8</ele>
        <time>2010-11-19T14:06:48Z</time>
      </trkpt>
      <trkpt lat="45.0813" lon="5.61455">
        <ele>1640.4</ele>
        <time>2010-11-19T14:06:52Z</time>
      </trkpt>
      <trkpt lat="45.08131" lon="5.61453">
        <ele>1641.2</ele>
        <time>2010-11-19T14:06:57Z</time>
      </trkpt>
      <trkpt lat="45.0813" lon="5.6145">
        <ele>1642.6</ele>
        <time>2010-11-19T14:07:05Z</time>
      </trkpt>
      <trkpt lat="45.08129" lon="5.61447">
        <ele>1643.6</ele>
        <time>2010-11-19T14:07:11Z</time>
      </trkpt>
      <trkpt lat="45.08128" lon="5.61445">
        <ele>1644.4</ele>
        <time>2010-11-19T14:07:16Z</time>
      </trkpt>
      <trkpt lat="45.08127" lon="5.61442">
        <ele>1645.2</ele>
        <time>2010-11-19T14:07:21Z</time>
      </trkpt>
      <trkpt lat="45.08126" lon="5.61441">
        <ele>1645.6</ele>
        <time>2010-11-19T14:07:23Z</time>
      </trkpt>
      <trkpt lat="45.08124" lon="5.61439">
        <ele>1646.6</ele>
        <time>2010-11-19T14:07:29Z</time>
      </trkpt>
      <trkpt lat="45.08121" lon="5.61437">
        <ele>1647.6</ele>
        <time>2010-11-19T14:07:34Z</time>
      </trkpt>
      <trkpt lat="45.08119" lon="5.61435">
        <ele>1648.2</ele>
        <time>2010-11-19T14:07:38Z</time>
      </trkpt>
      <trkpt lat="45.08117" lon="5.61434">
        <ele>1648.8</ele>
        <time>2010-11-19T14:07:42Z</time>
      </trkpt>
      <trkpt lat="45.08114" lon="5.61433">
        <ele>1649.6</ele>
        <time>2010-11-19T14:07:47Z</time>
      </trkpt>
      <trkpt lat="45.08112" lon="5.61432">
        <ele>1650.4</ele>
        <time>2010-11-19T14:07:51Z</time>
      </trkpt>
      <trkpt lat="45.08109" lon="5.61431">
        <ele>1651.2</ele>
        <time>2010-11-19T14:07:56Z</time>
      </trkpt>
      <trkpt lat="45.08108" lon="5.6143">
        <ele>1652</ele>
        <time>2010-11-19T14:08:02Z</time>
      </trkpt>
      <trkpt lat="45.08105" lon="5.61429">
        <ele>1653</ele>
        <time>2010-11-19T14:08:07Z</time>
      </trkpt>
      <trkpt lat="45.08102" lon="5.61429">
        <ele>1653.8</ele>
        <time>2010-11-19T14:08:12Z</time>
      </trkpt>
      <trkpt lat="45.08101" lon="5.61426">
        <ele>1654.4</ele>
        <time>2010-11-19T14:08:16Z</time>
      </trkpt>
      <trkpt lat="45.081" lon="5.61424">
        <ele>1655.4</ele>
        <time>2010-11-19T14:08:22Z</time>
      </trkpt>
      <trkpt lat="45.08098" lon="5.61423">
        <ele>1656.2</ele>
        <time>2010-11-19T14:08:27Z</time>
      </trkpt>
      <trkpt lat="45.08097" lon="5.61422">
        <ele>1656.4</ele>
        <time>2010-11-19T14:08:29Z</time>
      </trkpt>
      <trkpt lat="45.08096" lon="5.61422">
        <ele>1656.8</ele>
        <time>2010-11-19T14:08:31Z</time>
      </trkpt>
      <trkpt lat="45.08094" lon="5.6142">
        <ele>1657.6</ele>
        <time>2010-11-19T14:08:37Z</time>
      </trkpt>
      <trkpt lat="45.08093" lon="5.61419">
        <ele>1658</ele>
        <time>2010-11-19T14:08:39Z</time>
      </trkpt>
      <trkpt lat="45.08092" lon="5.61418">
        <ele>1658.2</ele>
        <time>2010-11-19T14:08:41Z</time>
      </trkpt>
      <trkpt lat="45.0809" lon="5.61415">
        <ele>1659.6</ele>
        <time>2010-11-19T14:08:50Z</time>
      </trkpt>
      <trkpt lat="45.08089" lon="5.61412">
        <ele>1660.2</ele>
        <time>2010-11-19T14:08:56Z</time>
      </trkpt>
      <trkpt lat="45.08087" lon="5.61409">
        <ele>1661</ele>
        <time>2010-11-19T14:09:02Z</time>
      </trkpt>
      <trkpt lat="45.08088" lon="5.61406">
        <ele>1661.8</ele>
        <time>2010-11-19T14:09:08Z</time>
      </trkpt>
      <trkpt lat="45.08088" lon="5.61406">
        <ele>1662</ele>
        <time>2010-11-19T14:09:09Z</time>
      </trkpt>
      <trkpt lat="45.0809" lon="5.61404">
        <ele>1662.8</ele>
        <time>2010-11-19T14:09:14Z</time>
      </trkpt>
      <trkpt lat="45.08093" lon="5.61402">
        <ele>1663.6</ele>
        <time>2010-11-19T14:09:19Z</time>
      </trkpt>
      <trkpt lat="45.08095" lon="5.614">
        <ele>1664.4</ele>
        <time>2010-11-19T14:09:24Z</time>
      </trkpt>
      <trkpt lat="45.08097" lon="5.61398">
        <ele>1665.6</ele>
        <time>2010-11-19T14:09:31Z</time>
      </trkpt>
      <trkpt lat="45.08097" lon="5.61399">
        <ele>1666.6</ele>
        <time>2010-11-19T14:09:38Z</time>
      </trkpt>
      <trkpt lat="45.081" lon="5.61397">
        <ele>1668.8</ele>
        <time>2010-11-19T14:10:01Z</time>
      </trkpt>
      <trkpt lat="45.081" lon="5.61398">
        <ele>1671.8</ele>
        <time>2010-11-19T14:10:33Z</time>
      </trkpt>
      <trkpt lat="45.08101" lon="5.61396">
        <ele>1672.8</ele>
        <time>2010-11-19T14:10:43Z</time>
      </trkpt>
      <trkpt lat="45.08101" lon="5.61396">
        <ele>1673</ele>
        <time>2010-11-19T14:10:44Z</time>
      </trkpt>
      <trkpt lat="45.08097" lon="5.61395">
        <ele>1673.8</ele>
        <time>2010-11-19T14:10:51Z</time>
      </trkpt>
      <trkpt lat="45.08095" lon="5.61394">
        <ele>1674.2</ele>
        <time>2010-11-19T14:10:55Z</time>
      </trkpt>
      <trkpt lat="45.08093" lon="5.61393">
        <ele>1674.8</ele>
        <time>2010-11-19T14:11:00Z</time>
      </trkpt>
      <trkpt lat="45.08092" lon="5.61392">
        <ele>1675.6</ele>
        <time>2010-11-19T14:11:08Z</time>
      </trkpt>
      <trkpt lat="45.0809" lon="5.61391">
        <ele>1676.2</ele>
        <time>2010-11-19T14:11:15Z</time>
      </trkpt>
      <trkpt lat="45.08086" lon="5.6139">
        <ele>1677</ele>
        <time>2010-11-19T14:11:21Z</time>
      </trkpt>
      <trkpt lat="45.08085" lon="5.61389">
        <ele>1677.6</ele>
        <time>2010-11-19T14:11:25Z</time>
      </trkpt>
      <trkpt lat="45.08084" lon="5.61389">
        <ele>1677.8</ele>
        <time>2010-11-19T14:11:26Z</time>
      </trkpt>
      <trkpt lat="45.08083" lon="5.61387">
        <ele>1678.4</ele>
        <time>2010-11-19T14:11:30Z</time>
      </trkpt>
      <trkpt lat="45.08084" lon="5.61383">
        <ele>1679.6</ele>
        <time>2010-11-19T14:11:37Z</time>
      </trkpt>
      <trkpt lat="45.08085" lon="5.6138">
        <ele>1680.4</ele>
        <time>2010-11-19T14:11:42Z</time>
      </trkpt>
      <trkpt lat="45.08085" lon="5.61379">
        <ele>1681.2</ele>
        <time>2010-11-19T14:11:47Z</time>
      </trkpt>
      <trkpt lat="45.08088" lon="5.61376">
        <ele>1682.4</ele>
        <time>2010-11-19T14:11:56Z</time>
      </trkpt>
      <trkpt lat="45.0809" lon="5.61375">
        <ele>1683.2</ele>
        <time>2010-11-19T14:12:01Z</time>
      </trkpt>
      <trkpt lat="45.08093" lon="5.61375">
        <ele>1683.6</ele>
        <time>2010-11-19T14:12:05Z</time>
      </trkpt>
      <trkpt lat="45.08093" lon="5.61374">
        <ele>1683.8</ele>
        <time>2010-11-19T14:12:06Z</time>
      </trkpt>
      <trkpt lat="45.08096" lon="5.61374">
        <ele>1684.4</ele>
        <time>2010-11-19T14:12:10Z</time>
      </trkpt>
      <trkpt lat="45.08097" lon="5.61374">
        <ele>1684.8</ele>
        <time>2010-11-19T14:12:14Z</time>
      </trkpt>
      <trkpt lat="45.081" lon="5.61373">
        <ele>1685.6</ele>
        <time>2010-11-19T14:12:18Z</time>
      </trkpt>
      <trkpt lat="45.08102" lon="5.61372">
        <ele>1686.2</ele>
        <time>2010-11-19T14:12:23Z</time>
      </trkpt>
      <trkpt lat="45.08106" lon="5.6137">
        <ele>1687</ele>
        <time>2010-11-19T14:12:28Z</time>
      </trkpt>
      <trkpt lat="45.08109" lon="5.61369">
        <ele>1687.6</ele>
        <time>2010-11-19T14:12:33Z</time>
      </trkpt>
      <trkpt lat="45.0811" lon="5.61368">
        <ele>1687.8</ele>
        <time>2010-11-19T14:12:34Z</time>
      </trkpt>
      <trkpt lat="45.08114" lon="5.61368">
        <ele>1688.4</ele>
        <time>2010-11-19T14:12:39Z</time>
      </trkpt>
      <trkpt lat="45.08119" lon="5.61366">
        <ele>1689</ele>
        <time>2010-11-19T14:12:45Z</time>
      </trkpt>
      <trkpt lat="45.08122" lon="5.61366">
        <ele>1689.6</ele>
        <time>2010-11-19T14:12:49Z</time>
      </trkpt>
      <trkpt lat="45.08125" lon="5.61365">
        <ele>1689.8</ele>
        <time>2010-11-19T14:12:52Z</time>
      </trkpt>
      <trkpt lat="45.08126" lon="5.61364">
        <ele>1690</ele>
        <time>2010-11-19T14:12:54Z</time>
      </trkpt>
      <trkpt lat="45.08127" lon="5.61364">
        <ele>1690.2</ele>
        <time>2010-11-19T14:12:55Z</time>
      </trkpt>
      <trkpt lat="45.0813" lon="5.61363">
        <ele>1690.4</ele>
        <time>2010-11-19T14:12:58Z</time>
      </trkpt>
      <trkpt lat="45.08133" lon="5.61361">
        <ele>1691</ele>
        <time>2010-11-19T14:13:03Z</time>
      </trkpt>
      <trkpt lat="45.08136" lon="5.61359">
        <ele>1691.6</ele>
        <time>2010-11-19T14:13:07Z</time>
      </trkpt>
      <trkpt lat="45.08139" lon="5.61356">
        <ele>1692</ele>
        <time>2010-11-19T14:13:11Z</time>
      </trkpt>
      <trkpt lat="45.08141" lon="5.61354">
        <ele>1692.4</ele>
        <time>2010-11-19T14:13:16Z</time>
      </trkpt>
      <trkpt lat="45.08144" lon="5.61354">
        <ele>1693.2</ele>
        <time>2010-11-19T14:13:21Z</time>
      </trkpt>
      <trkpt lat="45.08147" lon="5.61353">
        <ele>1694</ele>
        <time>2010-11-19T14:13:26Z</time>
      </trkpt>
      <trkpt lat="45.0815" lon="5.61352">
        <ele>1694.4</ele>
        <time>2010-11-19T14:13:30Z</time>
      </trkpt>
      <trkpt lat="45.0815" lon="5.61352">
        <ele>1694.6</ele>
        <time>2010-11-19T14:13:31Z</time>
      </trkpt>
      <trkpt lat="45.08153" lon="5.61351">
        <ele>1695.4</ele>
        <time>2010-11-19T14:13:35Z</time>
      </trkpt>
      <trkpt lat="45.08156" lon="5.61348">
        <ele>1696.4</ele>
        <time>2010-11-19T14:13:41Z</time>
      </trkpt>
      <trkpt lat="45.08159" lon="5.61347">
        <ele>1696.8</ele>
        <time>2010-11-19T14:13:45Z</time>
      </trkpt>
      <trkpt lat="45.0816" lon="5.61346">
        <ele>1697.4</ele>
        <time>2010-11-19T14:13:48Z</time>
      </trkpt>
      <trkpt lat="45.08161" lon="5.61346">
        <ele>1697.6</ele>
        <time>2010-11-19T14:13:49Z</time>
      </trkpt>
      <trkpt lat="45.08164" lon="5.61345">
        <ele>1698.4</ele>
        <time>2010-11-19T14:13:54Z</time>
      </trkpt>
      <trkpt lat="45.08167" lon="5.61345">
        <ele>1699</ele>
        <time>2010-11-19T14:13:58Z</time>
      </trkpt>
      <trkpt lat="45.0817" lon="5.61345">
        <ele>1699.8</ele>
        <time>2010-11-19T14:14:02Z</time>
      </trkpt>
      <trkpt lat="45.08172" lon="5.61345">
        <ele>1700.6</ele>
        <time>2010-11-19T14:14:07Z</time>
      </trkpt>
      <trkpt lat="45.08175" lon="5.61345">
        <ele>1701.4</ele>
        <time>2010-11-19T14:14:11Z</time>
      </trkpt>
      <trkpt lat="45.08178" lon="5.61346">
        <ele>1703</ele>
        <time>2010-11-19T14:14:19Z</time>
      </trkpt>
      <trkpt lat="45.08182" lon="5.61346">
        <ele>1703.8</ele>
        <time>2010-11-19T14:14:24Z</time>
      </trkpt>
      <trkpt lat="45.08185" lon="5.61347">
        <ele>1705</ele>
        <time>2010-11-19T14:14:29Z</time>
      </trkpt>
      <trkpt lat="45.08189" lon="5.61348">
        <ele>1706</ele>
        <time>2010-11-19T14:14:34Z</time>
      </trkpt>
      <trkpt lat="45.08192" lon="5.61349">
        <ele>1707.2</ele>
        <time>2010-11-19T14:14:40Z</time>
      </trkpt>
      <trkpt lat="45.08194" lon="5.6135">
        <ele>1708.2</ele>
        <time>2010-11-19T14:14:44Z</time>
      </trkpt>
      <trkpt lat="45.08195" lon="5.61349">
        <ele>1708.6</ele>
        <time>2010-11-19T14:14:46Z</time>
      </trkpt>
      <trkpt lat="45.08196" lon="5.61348">
        <ele>1709.2</ele>
        <time>2010-11-19T14:14:49Z</time>
      </trkpt>
      <trkpt lat="45.08198" lon="5.61347">
        <ele>1710</ele>
        <time>2010-11-19T14:14:53Z</time>
      </trkpt>
      <trkpt lat="45.082" lon="5.61347">
        <ele>1710.8</ele>
        <time>2010-11-19T14:14:57Z</time>
      </trkpt>
      <trkpt lat="45.08202" lon="5.61346">
        <ele>1711.8</ele>
        <time>2010-11-19T14:15:02Z</time>
      </trkpt>
      <trkpt lat="45.08204" lon="5.61346">
        <ele>1712.6</ele>
        <time>2010-11-19T14:15:06Z</time>
      </trkpt>
      <trkpt lat="45.08207" lon="5.61347">
        <ele>1713.6</ele>
        <time>2010-11-19T14:15:12Z</time>
      </trkpt>
      <trkpt lat="45.08208" lon="5.61348">
        <ele>1714.4</ele>
        <time>2010-11-19T14:15:16Z</time>
      </trkpt>
      <trkpt lat="45.0821" lon="5.6135">
        <ele>1715</ele>
        <time>2010-11-19T14:15:19Z</time>
      </trkpt>
      <trkpt lat="45.08211" lon="5.6135">
        <ele>1715.2</ele>
        <time>2010-11-19T14:15:20Z</time>
      </trkpt>
      <trkpt lat="45.08213" lon="5.61352">
        <ele>1716</ele>
        <time>2010-11-19T14:15:24Z</time>
      </trkpt>
      <trkpt lat="45.08215" lon="5.61353">
        <ele>1716.6</ele>
        <time>2010-11-19T14:15:27Z</time>
      </trkpt>
      <trkpt lat="45.08216" lon="5.61355">
        <ele>1716.8</ele>
        <time>2010-11-19T14:15:29Z</time>
      </trkpt>
      <trkpt lat="45.08218" lon="5.61357">
        <ele>1717.8</ele>
        <time>2010-11-19T14:15:34Z</time>
      </trkpt>
      <trkpt lat="45.08219" lon="5.61358">
        <ele>1718</ele>
        <time>2010-11-19T14:15:35Z</time>
      </trkpt>
      <trkpt lat="45.08221" lon="5.61359">
        <ele>1718.4</ele>
        <time>2010-11-19T14:15:38Z</time>
      </trkpt>
      <trkpt lat="45.08224" lon="5.6136">
        <ele>1719.2</ele>
        <time>2010-11-19T14:15:43Z</time>
      </trkpt>
      <trkpt lat="45.08226" lon="5.6136">
        <ele>1719.6</ele>
        <time>2010-11-19T14:15:46Z</time>
      </trkpt>
      <trkpt lat="45.08228" lon="5.61361">
        <ele>1720.2</ele>
        <time>2010-11-19T14:15:49Z</time>
      </trkpt>
      <trkpt lat="45.08231" lon="5.61361">
        <ele>1721</ele>
        <time>2010-11-19T14:15:54Z</time>
      </trkpt>
      <trkpt lat="45.08235" lon="5.61361">
        <ele>1721.4</ele>
        <time>2010-11-19T14:15:58Z</time>
      </trkpt>
      <trkpt lat="45.0824" lon="5.61362">
        <ele>1722.2</ele>
        <time>2010-11-19T14:16:03Z</time>
      </trkpt>
      <trkpt lat="45.08242" lon="5.61362">
        <ele>1722.4</ele>
        <time>2010-11-19T14:16:04Z</time>
      </trkpt>
      <trkpt lat="45.08244" lon="5.61362">
        <ele>1722.8</ele>
        <time>2010-11-19T14:16:07Z</time>
      </trkpt>
      <trkpt lat="45.08247" lon="5.61361">
        <ele>1723.4</ele>
        <time>2010-11-19T14:16:11Z</time>
      </trkpt>
      <trkpt lat="45.08248" lon="5.61361">
        <ele>1723.6</ele>
        <time>2010-11-19T14:16:12Z</time>
      </trkpt>
      <trkpt lat="45.0825" lon="5.61361">
        <ele>1723.8</ele>
        <time>2010-11-19T14:16:14Z</time>
      </trkpt>
      <trkpt lat="45.08252" lon="5.6136">
        <ele>1724.4</ele>
        <time>2010-11-19T14:16:17Z</time>
      </trkpt>
      <trkpt lat="45.08253" lon="5.6136">
        <ele>1724.6</ele>
        <time>2010-11-19T14:16:19Z</time>
      </trkpt>
      <trkpt lat="45.08255" lon="5.61361">
        <ele>1725.2</ele>
        <time>2010-11-19T14:16:22Z</time>
      </trkpt>
      <trkpt lat="45.08258" lon="5.61361">
        <ele>1726</ele>
        <time>2010-11-19T14:16:28Z</time>
      </trkpt>
      <trkpt lat="45.08259" lon="5.61359">
        <ele>1726.4</ele>
        <time>2010-11-19T14:16:31Z</time>
      </trkpt>
      <trkpt lat="45.0826" lon="5.61358">
        <ele>1726.8</ele>
        <time>2010-11-19T14:16:33Z</time>
      </trkpt>
      <trkpt lat="45.08264" lon="5.61358">
        <ele>1727.6</ele>
        <time>2010-11-19T14:16:38Z</time>
      </trkpt>
      <trkpt lat="45.08266" lon="5.61358">
        <ele>1728.2</ele>
        <time>2010-11-19T14:16:42Z</time>
      </trkpt>
      <trkpt lat="45.08269" lon="5.61357">
        <ele>1728.8</ele>
        <time>2010-11-19T14:16:46Z</time>
      </trkpt>
      <trkpt lat="45.08269" lon="5.61356">
        <ele>1729</ele>
        <time>2010-11-19T14:16:47Z</time>
      </trkpt>
      <trkpt lat="45.08272" lon="5.61355">
        <ele>1729.6</ele>
        <time>2010-11-19T14:16:51Z</time>
      </trkpt>
      <trkpt lat="45.08274" lon="5.61354">
        <ele>1730.2</ele>
        <time>2010-11-19T14:16:56Z</time>
      </trkpt>
      <trkpt lat="45.08275" lon="5.61354">
        <ele>1730.4</ele>
        <time>2010-11-19T14:16:57Z</time>
      </trkpt>
      <trkpt lat="45.08278" lon="5.61356">
        <ele>1730.8</ele>
        <time>2010-11-19T14:17:01Z</time>
      </trkpt>
      <trkpt lat="45.08281" lon="5.61359">
        <ele>1731.8</ele>
        <time>2010-11-19T14:17:06Z</time>
      </trkpt>
      <trkpt lat="45.08283" lon="5.61363">
        <ele>1732.4</ele>
        <time>2010-11-19T14:17:11Z</time>
      </trkpt>
      <trkpt lat="45.08286" lon="5.61366">
        <ele>1733.4</ele>
        <time>2010-11-19T14:17:16Z</time>
      </trkpt>
      <trkpt lat="45.08289" lon="5.61365">
        <ele>1734.2</ele>
        <time>2010-11-19T14:17:20Z</time>
      </trkpt>
      <trkpt lat="45.08292" lon="5.61364">
        <ele>1735.8</ele>
        <time>2010-11-19T14:17:27Z</time>
      </trkpt>
      <trkpt lat="45.08294" lon="5.61364">
        <ele>1738</ele>
        <time>2010-11-19T14:17:35Z</time>
      </trkpt>
      <trkpt lat="45.08299" lon="5.61359">
        <ele>1739.8</ele>
        <time>2010-11-19T14:17:45Z</time>
      </trkpt>
      <trkpt lat="45.08303" lon="5.61356">
        <ele>1740.8</ele>
        <time>2010-11-19T14:17:52Z</time>
      </trkpt>
      <trkpt lat="45.08304" lon="5.61355">
        <ele>1741.2</ele>
        <time>2010-11-19T14:17:54Z</time>
      </trkpt>
      <trkpt lat="45.08308" lon="5.61352">
        <ele>1742</ele>
        <time>2010-11-19T14:18:00Z</time>
      </trkpt>
      <trkpt lat="45.08313" lon="5.61351">
        <ele>1742.6</ele>
        <time>2010-11-19T14:18:07Z</time>
      </trkpt>
      <trkpt lat="45.08318" lon="5.61344">
        <ele>1743</ele>
        <time>2010-11-19T14:18:15Z</time>
      </trkpt>
      <trkpt lat="45.08319" lon="5.61343">
        <ele>1743.2</ele>
        <time>2010-11-19T14:18:17Z</time>
      </trkpt>
      <trkpt lat="45.0832" lon="5.61343">
        <ele>1743.2</ele>
        <time>2010-11-19T14:18:21Z</time>
      </trkpt>
      <trkpt lat="45.08322" lon="5.61346">
        <ele>1744</ele>
        <time>2010-11-19T14:18:35Z</time>
      </trkpt>
      <trkpt lat="45.08329" lon="5.6135">
        <ele>1744</ele>
        <time>2010-11-19T14:18:43Z</time>
      </trkpt>
      <trkpt lat="45.08334" lon="5.61352">
        <ele>1744</ele>
        <time>2010-11-19T14:18:47Z</time>
      </trkpt>
      <trkpt lat="45.08338" lon="5.61355">
        <ele>1744.2</ele>
        <time>2010-11-19T14:18:52Z</time>
      </trkpt>
      <trkpt lat="45.08342" lon="5.6136">
        <ele>1744.2</ele>
        <time>2010-11-19T14:18:57Z</time>
      </trkpt>
      <trkpt lat="45.08344" lon="5.61361">
        <ele>1744.4</ele>
        <time>2010-11-19T14:18:59Z</time>
      </trkpt>
      <trkpt lat="45.08349" lon="5.61365">
        <ele>1744.6</ele>
        <time>2010-11-19T14:19:04Z</time>
      </trkpt>
      <trkpt lat="45.08351" lon="5.61365">
        <ele>1744.6</ele>
        <time>2010-11-19T14:19:06Z</time>
      </trkpt>
      <trkpt lat="45.08353" lon="5.61366">
        <ele>1744.6</ele>
        <time>2010-11-19T14:19:09Z</time>
      </trkpt>
      <trkpt lat="45.08355" lon="5.61367">
        <ele>1744.8</ele>
        <time>2010-11-19T14:19:12Z</time>
      </trkpt>
      <trkpt lat="45.08359" lon="5.61367">
        <ele>1745</ele>
        <time>2010-11-19T14:19:17Z</time>
      </trkpt>
      <trkpt lat="45.08361" lon="5.61367">
        <ele>1745.2</ele>
        <time>2010-11-19T14:19:19Z</time>
      </trkpt>
      <trkpt lat="45.08365" lon="5.6137">
        <ele>1745.6</ele>
        <time>2010-11-19T14:19:25Z</time>
      </trkpt>
      <trkpt lat="45.08365" lon="5.61372">
        <ele>1745.8</ele>
        <time>2010-11-19T14:19:27Z</time>
      </trkpt>
      <trkpt lat="45.08366" lon="5.61373">
        <ele>1746</ele>
        <time>2010-11-19T14:19:28Z</time>
      </trkpt>
      <trkpt lat="45.08367" lon="5.61374">
        <ele>1746.2</ele>
        <time>2010-11-19T14:19:30Z</time>
      </trkpt>
      <trkpt lat="45.0837" lon="5.61378">
        <ele>1746.6</ele>
        <time>2010-11-19T14:19:35Z</time>
      </trkpt>
      <trkpt lat="45.08371" lon="5.61381">
        <ele>1747.2</ele>
        <time>2010-11-19T14:19:39Z</time>
      </trkpt>
      <trkpt lat="45.08373" lon="5.61385">
        <ele>1747.8</ele>
        <time>2010-11-19T14:19:44Z</time>
      </trkpt>
      <trkpt lat="45.08375" lon="5.61389">
        <ele>1748.4</ele>
        <time>2010-11-19T14:19:50Z</time>
      </trkpt>
      <trkpt lat="45.08375" lon="5.6139">
        <ele>1750.6</ele>
        <time>2010-11-19T14:20:12Z</time>
      </trkpt>
      <trkpt lat="45.08375" lon="5.61389">
        <ele>1753.6</ele>
        <time>2010-11-19T14:20:49Z</time>
      </trkpt>
      <trkpt lat="45.08373" lon="5.61394">
        <ele>1754.6</ele>
        <time>2010-11-19T14:21:24Z</time>
      </trkpt>
      <trkpt lat="45.08373" lon="5.61399">
        <ele>1754.6</ele>
        <time>2010-11-19T14:21:28Z</time>
      </trkpt>
      <trkpt lat="45.08373" lon="5.61399">
        <ele>1754.6</ele>
        <time>2010-11-19T14:21:30Z</time>
      </trkpt>
      <trkpt lat="45.08372" lon="5.61394">
        <ele>1754.4</ele>
        <time>2010-11-19T14:21:35Z</time>
      </trkpt>
      <trkpt lat="45.08373" lon="5.61387">
        <ele>1754.4</ele>
        <time>2010-11-19T14:21:41Z</time>
      </trkpt>
      <trkpt lat="45.08372" lon="5.61383">
        <ele>1754.2</ele>
        <time>2010-11-19T14:21:46Z</time>
      </trkpt>
      <trkpt lat="45.08372" lon="5.61381">
        <ele>1754.2</ele>
        <time>2010-11-19T14:21:47Z</time>
      </trkpt>
      <trkpt lat="45.08372" lon="5.61374">
        <ele>1754.2</ele>
        <time>2010-11-19T14:21:51Z</time>
      </trkpt>
      <trkpt lat="45.08373" lon="5.61371">
        <ele>1754</ele>
        <time>2010-11-19T14:21:52Z</time>
      </trkpt>
      <trkpt lat="45.08376" lon="5.61364">
        <ele>1754</ele>
        <time>2010-11-19T14:21:56Z</time>
      </trkpt>
      <trkpt lat="45.08377" lon="5.61363">
        <ele>1754</ele>
        <time>2010-11-19T14:21:57Z</time>
      </trkpt>
      <trkpt lat="45.08381" lon="5.61362">
        <ele>1753.8</ele>
        <time>2010-11-19T14:22:02Z</time>
      </trkpt>
      <trkpt lat="45.08381" lon="5.61363">
        <ele>1753.8</ele>
        <time>2010-11-19T14:22:03Z</time>
      </trkpt>
      <trkpt lat="45.08382" lon="5.61366">
        <ele>1753.8</ele>
        <time>2010-11-19T14:22:07Z</time>
      </trkpt>
      <trkpt lat="45.08382" lon="5.61367">
        <ele>1753.8</ele>
        <time>2010-11-19T14:22:08Z</time>
      </trkpt>
      <trkpt lat="45.08384" lon="5.6137">
        <ele>1754</ele>
        <time>2010-11-19T14:22:14Z</time>
      </trkpt>
      <trkpt lat="45.08386" lon="5.61371">
        <ele>1754.2</ele>
        <time>2010-11-19T14:22:17Z</time>
      </trkpt>
      <trkpt lat="45.08387" lon="5.61372">
        <ele>1754.4</ele>
        <time>2010-11-19T14:22:27Z</time>
      </trkpt>
      <trkpt lat="45.08389" lon="5.61374">
        <ele>1754.6</ele>
        <time>2010-11-19T14:22:31Z</time>
      </trkpt>
      <trkpt lat="45.08389" lon="5.61375">
        <ele>1754.6</ele>
        <time>2010-11-19T14:22:32Z</time>
      </trkpt>
      <trkpt lat="45.0839" lon="5.61377">
        <ele>1755</ele>
        <time>2010-11-19T14:22:36Z</time>
      </trkpt>
      <trkpt lat="45.08392" lon="5.61381">
        <ele>1755.4</ele>
        <time>2010-11-19T14:22:41Z</time>
      </trkpt>
      <trkpt lat="45.08394" lon="5.61384">
        <ele>1756</ele>
        <time>2010-11-19T14:22:46Z</time>
      </trkpt>
      <trkpt lat="45.08396" lon="5.61387">
        <ele>1756.6</ele>
        <time>2010-11-19T14:22:50Z</time>
      </trkpt>
      <trkpt lat="45.08397" lon="5.61392">
        <ele>1757.4</ele>
        <time>2010-11-19T14:22:55Z</time>
      </trkpt>
      <trkpt lat="45.08398" lon="5.61394">
        <ele>1757.8</ele>
        <time>2010-11-19T14:22:58Z</time>
      </trkpt>
      <trkpt lat="45.08398" lon="5.61395">
        <ele>1758</ele>
        <time>2010-11-19T14:22:59Z</time>
      </trkpt>
      <trkpt lat="45.08398" lon="5.61398">
        <ele>1758.8</ele>
        <time>2010-11-19T14:23:05Z</time>
      </trkpt>
      <trkpt lat="45.084" lon="5.61401">
        <ele>1759.8</ele>
        <time>2010-11-19T14:23:10Z</time>
      </trkpt>
      <trkpt lat="45.08402" lon="5.61403">
        <ele>1760.6</ele>
        <time>2010-11-19T14:23:14Z</time>
      </trkpt>
      <trkpt lat="45.08404" lon="5.61404">
        <ele>1761.2</ele>
        <time>2010-11-19T14:23:18Z</time>
      </trkpt>
      <trkpt lat="45.08408" lon="5.61405">
        <ele>1762.2</ele>
        <time>2010-11-19T14:23:23Z</time>
      </trkpt>
      <trkpt lat="45.0841" lon="5.61405">
        <ele>1762.4</ele>
        <time>2010-11-19T14:23:25Z</time>
      </trkpt>
      <trkpt lat="45.08412" lon="5.61405">
        <ele>1762.8</ele>
        <time>2010-11-19T14:23:27Z</time>
      </trkpt>
      <trkpt lat="45.08416" lon="5.61406">
        <ele>1763.6</ele>
        <time>2010-11-19T14:23:33Z</time>
      </trkpt>
      <trkpt lat="45.08421" lon="5.61407">
        <ele>1764.4</ele>
        <time>2010-11-19T14:23:39Z</time>
      </trkpt>
      <trkpt lat="45.08426" lon="5.61409">
        <ele>1765.2</ele>
        <time>2010-11-19T14:23:44Z</time>
      </trkpt>
      <trkpt lat="45.08429" lon="5.61409">
        <ele>1765.6</ele>
        <time>2010-11-19T14:23:47Z</time>
      </trkpt>
      <trkpt lat="45.08431" lon="5.6141">
        <ele>1766</ele>
        <time>2010-11-19T14:23:50Z</time>
      </trkpt>
      <trkpt lat="45.08436" lon="5.61409">
        <ele>1766.6</ele>
        <time>2010-11-19T14:23:55Z</time>
      </trkpt>
      <trkpt lat="45.08436" lon="5.61409">
        <ele>1766.6</ele>
        <time>2010-11-19T14:23:56Z</time>
      </trkpt>
      <trkpt lat="45.08437" lon="5.61409">
        <ele>1766.8</ele>
        <time>2010-11-19T14:23:57Z</time>
      </trkpt>
      <trkpt lat="45.0844" lon="5.61409">
        <ele>1767</ele>
        <time>2010-11-19T14:24:01Z</time>
      </trkpt>
      <trkpt lat="45.08442" lon="5.61409">
        <ele>1767.6</ele>
        <time>2010-11-19T14:24:06Z</time>
      </trkpt>
      <trkpt lat="45.08445" lon="5.6141">
        <ele>1768.2</ele>
        <time>2010-11-19T14:24:11Z</time>
      </trkpt>
      <trkpt lat="45.08446" lon="5.6141">
        <ele>1768.2</ele>
        <time>2010-11-19T14:24:12Z</time>
      </trkpt>
      <trkpt lat="45.08449" lon="5.61411">
        <ele>1768.6</ele>
        <time>2010-11-19T14:24:16Z</time>
      </trkpt>
      <trkpt lat="45.08453" lon="5.61412">
        <ele>1769.2</ele>
        <time>2010-11-19T14:24:22Z</time>
      </trkpt>
      <trkpt lat="45.08456" lon="5.61412">
        <ele>1769.6</ele>
        <time>2010-11-19T14:24:27Z</time>
      </trkpt>
      <trkpt lat="45.08458" lon="5.61411">
        <ele>1770</ele>
        <time>2010-11-19T14:24:31Z</time>
      </trkpt>
      <trkpt lat="45.08461" lon="5.61412">
        <ele>1770.4</ele>
        <time>2010-11-19T14:24:36Z</time>
      </trkpt>
      <trkpt lat="45.08463" lon="5.61411">
        <ele>1770.8</ele>
        <time>2010-11-19T14:24:41Z</time>
      </trkpt>
      <trkpt lat="45.08463" lon="5.6141">
        <ele>1771</ele>
        <time>2010-11-19T14:24:43Z</time>
      </trkpt>
      <trkpt lat="45.08465" lon="5.6141">
        <ele>1771.2</ele>
        <time>2010-11-19T14:24:46Z</time>
      </trkpt>
      <trkpt lat="45.08467" lon="5.61411">
        <ele>1771.6</ele>
        <time>2010-11-19T14:24:50Z</time>
      </trkpt>
      <trkpt lat="45.08469" lon="5.61412">
        <ele>1772.2</ele>
        <time>2010-11-19T14:24:57Z</time>
      </trkpt>
      <trkpt lat="45.08471" lon="5.61413">
        <ele>1772.4</ele>
        <time>2010-11-19T14:25:01Z</time>
      </trkpt>
      <trkpt lat="45.08471" lon="5.61416">
        <ele>1773</ele>
        <time>2010-11-19T14:25:06Z</time>
      </trkpt>
      <trkpt lat="45.0847" lon="5.6142">
        <ele>1773.8</ele>
        <time>2010-11-19T14:25:13Z</time>
      </trkpt>
      <trkpt lat="45.08472" lon="5.61421">
        <ele>1774.2</ele>
        <time>2010-11-19T14:25:17Z</time>
      </trkpt>
      <trkpt lat="45.08473" lon="5.61421">
        <ele>1774.6</ele>
        <time>2010-11-19T14:25:20Z</time>
      </trkpt>
      <trkpt lat="45.08474" lon="5.61421">
        <ele>1774.8</ele>
        <time>2010-11-19T14:25:21Z</time>
      </trkpt>
      <trkpt lat="45.08477" lon="5.61422">
        <ele>1775.4</ele>
        <time>2010-11-19T14:25:26Z</time>
      </trkpt>
      <trkpt lat="45.0848" lon="5.61423">
        <ele>1776.2</ele>
        <time>2010-11-19T14:25:31Z</time>
      </trkpt>
      <trkpt lat="45.0848" lon="5.61422">
        <ele>1777</ele>
        <time>2010-11-19T14:25:35Z</time>
      </trkpt>
      <trkpt lat="45.08482" lon="5.61424">
        <ele>1777.8</ele>
        <time>2010-11-19T14:25:40Z</time>
      </trkpt>
      <trkpt lat="45.08482" lon="5.61425">
        <ele>1778.2</ele>
        <time>2010-11-19T14:25:44Z</time>
      </trkpt>
      <trkpt lat="45.08484" lon="5.61426">
        <ele>1779</ele>
        <time>2010-11-19T14:25:49Z</time>
      </trkpt>
      <trkpt lat="45.08486" lon="5.61426">
        <ele>1779.6</ele>
        <time>2010-11-19T14:25:54Z</time>
      </trkpt>
      <trkpt lat="45.08487" lon="5.61426">
        <ele>1780.2</ele>
        <time>2010-11-19T14:25:58Z</time>
      </trkpt>
      <trkpt lat="45.08489" lon="5.61426">
        <ele>1783.4</ele>
        <time>2010-11-19T14:26:54Z</time>
      </trkpt>
      <trkpt lat="45.0849" lon="5.61428">
        <ele>1783.4</ele>
        <time>2010-11-19T14:26:59Z</time>
      </trkpt>
      <trkpt lat="45.08489" lon="5.61431">
        <ele>1783.6</ele>
        <time>2010-11-19T14:27:04Z</time>
      </trkpt>
      <trkpt lat="45.08489" lon="5.61435">
        <ele>1784.2</ele>
        <time>2010-11-19T14:27:10Z</time>
      </trkpt>
      <trkpt lat="45.0849" lon="5.61438">
        <ele>1784.8</ele>
        <time>2010-11-19T14:27:14Z</time>
      </trkpt>
      <trkpt lat="45.08492" lon="5.61441">
        <ele>1785.4</ele>
        <time>2010-11-19T14:27:19Z</time>
      </trkpt>
      <trkpt lat="45.08494" lon="5.61445">
        <ele>1786.4</ele>
        <time>2010-11-19T14:27:25Z</time>
      </trkpt>
      <trkpt lat="45.08496" lon="5.61447">
        <ele>1787</ele>
        <time>2010-11-19T14:27:29Z</time>
      </trkpt>
      <trkpt lat="45.085" lon="5.61451">
        <ele>1787.8</ele>
        <time>2010-11-19T14:27:34Z</time>
      </trkpt>
      <trkpt lat="45.08502" lon="5.61452">
        <ele>1788.6</ele>
        <time>2010-11-19T14:27:38Z</time>
      </trkpt>
      <trkpt lat="45.08505" lon="5.61452">
        <ele>1789.4</ele>
        <time>2010-11-19T14:27:43Z</time>
      </trkpt>
      <trkpt lat="45.08508" lon="5.61451">
        <ele>1790.2</ele>
        <time>2010-11-19T14:27:47Z</time>
      </trkpt>
      <trkpt lat="45.08512" lon="5.61451">
        <ele>1791.2</ele>
        <time>2010-11-19T14:27:53Z</time>
      </trkpt>
      <trkpt lat="45.08515" lon="5.61452">
        <ele>1792.2</ele>
        <time>2010-11-19T14:27:58Z</time>
      </trkpt>
      <trkpt lat="45.08519" lon="5.61452">
        <ele>1793.2</ele>
        <time>2010-11-19T14:28:04Z</time>
      </trkpt>
      <trkpt lat="45.08522" lon="5.61451">
        <ele>1794.2</ele>
        <time>2010-11-19T14:28:09Z</time>
      </trkpt>
      <trkpt lat="45.08522" lon="5.61451">
        <ele>1794.2</ele>
        <time>2010-11-19T14:28:10Z</time>
      </trkpt>
      <trkpt lat="45.08526" lon="5.61451">
        <ele>1795.2</ele>
        <time>2010-11-19T14:28:16Z</time>
      </trkpt>
      <trkpt lat="45.0853" lon="5.6145">
        <ele>1796.4</ele>
        <time>2010-11-19T14:28:23Z</time>
      </trkpt>
      <trkpt lat="45.08533" lon="5.61449">
        <ele>1797.2</ele>
        <time>2010-11-19T14:28:28Z</time>
      </trkpt>
      <trkpt lat="45.08536" lon="5.61448">
        <ele>1798.2</ele>
        <time>2010-11-19T14:28:33Z</time>
      </trkpt>
      <trkpt lat="45.0854" lon="5.61448">
        <ele>1799.6</ele>
        <time>2010-11-19T14:28:40Z</time>
      </trkpt>
      <trkpt lat="45.08541" lon="5.6145">
        <ele>1800.4</ele>
        <time>2010-11-19T14:28:44Z</time>
      </trkpt>
      <trkpt lat="45.08542" lon="5.61454">
        <ele>1801.4</ele>
        <time>2010-11-19T14:28:49Z</time>
      </trkpt>
      <trkpt lat="45.08542" lon="5.61456">
        <ele>1802.6</ele>
        <time>2010-11-19T14:28:55Z</time>
      </trkpt>
      <trkpt lat="45.08544" lon="5.61458">
        <ele>1803.8</ele>
        <time>2010-11-19T14:29:01Z</time>
      </trkpt>
      <trkpt lat="45.08546" lon="5.61457">
        <ele>1804.8</ele>
        <time>2010-11-19T14:29:06Z</time>
      </trkpt>
      <trkpt lat="45.08549" lon="5.61458">
        <ele>1806</ele>
        <time>2010-11-19T14:29:12Z</time>
      </trkpt>
      <trkpt lat="45.08549" lon="5.61461">
        <ele>1806.6</ele>
        <time>2010-11-19T14:29:16Z</time>
      </trkpt>
      <trkpt lat="45.08549" lon="5.61461">
        <ele>1806.8</ele>
        <time>2010-11-19T14:29:17Z</time>
      </trkpt>
      <trkpt lat="45.08549" lon="5.61462">
        <ele>1807.8</ele>
        <time>2010-11-19T14:29:22Z</time>
      </trkpt>
      <trkpt lat="45.08552" lon="5.61463">
        <ele>1808.8</ele>
        <time>2010-11-19T14:29:28Z</time>
      </trkpt>
      <trkpt lat="45.08556" lon="5.61463">
        <ele>1812.4</ele>
        <time>2010-11-19T14:29:59Z</time>
      </trkpt>
      <trkpt lat="45.0856" lon="5.61461">
        <ele>1813.4</ele>
        <time>2010-11-19T14:30:08Z</time>
      </trkpt>
      <trkpt lat="45.08562" lon="5.61462">
        <ele>1814</ele>
        <time>2010-11-19T14:30:12Z</time>
      </trkpt>
      <trkpt lat="45.08563" lon="5.61462">
        <ele>1814.2</ele>
        <time>2010-11-19T14:30:13Z</time>
      </trkpt>
      <trkpt lat="45.08565" lon="5.61463">
        <ele>1814.8</ele>
        <time>2010-11-19T14:30:16Z</time>
      </trkpt>
      <trkpt lat="45.08566" lon="5.61463">
        <ele>1815.6</ele>
        <time>2010-11-19T14:30:21Z</time>
      </trkpt>
      <trkpt lat="45.08568" lon="5.61459">
        <ele>1816.2</ele>
        <time>2010-11-19T14:30:25Z</time>
      </trkpt>
      <trkpt lat="45.08571" lon="5.61456">
        <ele>1817</ele>
        <time>2010-11-19T14:30:30Z</time>
      </trkpt>
      <trkpt lat="45.08573" lon="5.61456">
        <ele>1817.6</ele>
        <time>2010-11-19T14:30:34Z</time>
      </trkpt>
      <trkpt lat="45.08576" lon="5.61454">
        <ele>1818.4</ele>
        <time>2010-11-19T14:30:39Z</time>
      </trkpt>
      <trkpt lat="45.08577" lon="5.61454">
        <ele>1818.4</ele>
        <time>2010-11-19T14:30:40Z</time>
      </trkpt>
      <trkpt lat="45.08579" lon="5.61452">
        <ele>1819.2</ele>
        <time>2010-11-19T14:30:44Z</time>
      </trkpt>
      <trkpt lat="45.08582" lon="5.61449">
        <ele>1820</ele>
        <time>2010-11-19T14:30:50Z</time>
      </trkpt>
      <trkpt lat="45.08586" lon="5.61448">
        <ele>1821.2</ele>
        <time>2010-11-19T14:30:57Z</time>
      </trkpt>
      <trkpt lat="45.0859" lon="5.61448">
        <ele>1822</ele>
        <time>2010-11-19T14:31:02Z</time>
      </trkpt>
      <trkpt lat="45.08593" lon="5.6145">
        <ele>1823</ele>
        <time>2010-11-19T14:31:08Z</time>
      </trkpt>
      <trkpt lat="45.08594" lon="5.6145">
        <ele>1823.2</ele>
        <time>2010-11-19T14:31:09Z</time>
      </trkpt>
      <trkpt lat="45.08595" lon="5.61452">
        <ele>1824</ele>
        <time>2010-11-19T14:31:14Z</time>
      </trkpt>
      <trkpt lat="45.08596" lon="5.61454">
        <ele>1825</ele>
        <time>2010-11-19T14:31:20Z</time>
      </trkpt>
      <trkpt lat="45.08598" lon="5.61457">
        <ele>1826</ele>
        <time>2010-11-19T14:31:26Z</time>
      </trkpt>
      <trkpt lat="45.08601" lon="5.61459">
        <ele>1826.8</ele>
        <time>2010-11-19T14:31:31Z</time>
      </trkpt>
      <trkpt lat="45.08604" lon="5.61459">
        <ele>1827.8</ele>
        <time>2010-11-19T14:31:37Z</time>
      </trkpt>
      <trkpt lat="45.08606" lon="5.6146">
        <ele>1828.4</ele>
        <time>2010-11-19T14:31:41Z</time>
      </trkpt>
      <trkpt lat="45.08608" lon="5.6146">
        <ele>1828.8</ele>
        <time>2010-11-19T14:31:44Z</time>
      </trkpt>
      <trkpt lat="45.08608" lon="5.61461">
        <ele>1829</ele>
        <time>2010-11-19T14:31:45Z</time>
      </trkpt>
      <trkpt lat="45.08612" lon="5.61462">
        <ele>1830.2</ele>
        <time>2010-11-19T14:31:52Z</time>
      </trkpt>
      <trkpt lat="45.08614" lon="5.61462">
        <ele>1831</ele>
        <time>2010-11-19T14:31:57Z</time>
      </trkpt>
      <trkpt lat="45.08618" lon="5.61462">
        <ele>1832</ele>
        <time>2010-11-19T14:32:04Z</time>
      </trkpt>
      <trkpt lat="45.08621" lon="5.61463">
        <ele>1833</ele>
        <time>2010-11-19T14:32:10Z</time>
      </trkpt>
      <trkpt lat="45.08623" lon="5.61466">
        <ele>1833.8</ele>
        <time>2010-11-19T14:32:16Z</time>
      </trkpt>
      <trkpt lat="45.08624" lon="5.61467">
        <ele>1834.2</ele>
        <time>2010-11-19T14:32:18Z</time>
      </trkpt>
      <trkpt lat="45.08624" lon="5.61469">
        <ele>1834.6</ele>
        <time>2010-11-19T14:32:21Z</time>
      </trkpt>
      <trkpt lat="45.08623" lon="5.61472">
        <ele>1835.4</ele>
        <time>2010-11-19T14:32:27Z</time>
      </trkpt>
      <trkpt lat="45.08623" lon="5.61474">
        <ele>1836</ele>
        <time>2010-11-19T14:32:32Z</time>
      </trkpt>
      <trkpt lat="45.08622" lon="5.61477">
        <ele>1837.2</ele>
        <time>2010-11-19T14:32:39Z</time>
      </trkpt>
      <trkpt lat="45.08618" lon="5.61479">
        <ele>1839.2</ele>
        <time>2010-11-19T14:32:51Z</time>
      </trkpt>
      <trkpt lat="45.08616" lon="5.6148">
        <ele>1840</ele>
        <time>2010-11-19T14:32:56Z</time>
      </trkpt>
      <trkpt lat="45.08614" lon="5.6148">
        <ele>1840.8</ele>
        <time>2010-11-19T14:33:01Z</time>
      </trkpt>
      <trkpt lat="45.08613" lon="5.61481">
        <ele>1841</ele>
        <time>2010-11-19T14:33:02Z</time>
      </trkpt>
      <trkpt lat="45.08611" lon="5.61483">
        <ele>1842.2</ele>
        <time>2010-11-19T14:33:09Z</time>
      </trkpt>
      <trkpt lat="45.08607" lon="5.61485">
        <ele>1843.4</ele>
        <time>2010-11-19T14:33:15Z</time>
      </trkpt>
      <trkpt lat="45.08605" lon="5.61486">
        <ele>1844.4</ele>
        <time>2010-11-19T14:33:21Z</time>
      </trkpt>
      <trkpt lat="45.08603" lon="5.61487">
        <ele>1845.2</ele>
        <time>2010-11-19T14:33:25Z</time>
      </trkpt>
      <trkpt lat="45.08602" lon="5.61488">
        <ele>1846.2</ele>
        <time>2010-11-19T14:33:31Z</time>
      </trkpt>
      <trkpt lat="45.08602" lon="5.61492">
        <ele>1847.4</ele>
        <time>2010-11-19T14:33:38Z</time>
      </trkpt>
      <trkpt lat="45.08601" lon="5.61495">
        <ele>1848</ele>
        <time>2010-11-19T14:33:41Z</time>
      </trkpt>
      <trkpt lat="45.08601" lon="5.61495">
        <ele>1848</ele>
        <time>2010-11-19T14:33:42Z</time>
      </trkpt>
      <trkpt lat="45.08597" lon="5.61498">
        <ele>1849.4</ele>
        <time>2010-11-19T14:33:49Z</time>
      </trkpt>
      <trkpt lat="45.086" lon="5.61503">
        <ele>1850.6</ele>
        <time>2010-11-19T14:33:56Z</time>
      </trkpt>
      <trkpt lat="45.08601" lon="5.61506">
        <ele>1851.4</ele>
        <time>2010-11-19T14:34:01Z</time>
      </trkpt>
      <trkpt lat="45.08602" lon="5.61508">
        <ele>1852.4</ele>
        <time>2010-11-19T14:34:06Z</time>
      </trkpt>
      <trkpt lat="45.08601" lon="5.61511">
        <ele>1853.2</ele>
        <time>2010-11-19T14:34:11Z</time>
      </trkpt>
      <trkpt lat="45.08601" lon="5.61513">
        <ele>1854</ele>
        <time>2010-11-19T14:34:15Z</time>
      </trkpt>
      <trkpt lat="45.08602" lon="5.61515">
        <ele>1854.6</ele>
        <time>2010-11-19T14:34:18Z</time>
      </trkpt>
      <trkpt lat="45.08602" lon="5.61517">
        <ele>1855.2</ele>
        <time>2010-11-19T14:34:21Z</time>
      </trkpt>
      <trkpt lat="45.08603" lon="5.61519">
        <ele>1856.2</ele>
        <time>2010-11-19T14:34:27Z</time>
      </trkpt>
      <trkpt lat="45.08605" lon="5.61521">
        <ele>1857</ele>
        <time>2010-11-19T14:34:31Z</time>
      </trkpt>
      <trkpt lat="45.08606" lon="5.61524">
        <ele>1858.8</ele>
        <time>2010-11-19T14:34:40Z</time>
      </trkpt>
      <trkpt lat="45.08607" lon="5.61525">
        <ele>1859.6</ele>
        <time>2010-11-19T14:34:45Z</time>
      </trkpt>
      <trkpt lat="45.08609" lon="5.61528">
        <ele>1860.6</ele>
        <time>2010-11-19T14:34:51Z</time>
      </trkpt>
      <trkpt lat="45.08613" lon="5.61528">
        <ele>1862.2</ele>
        <time>2010-11-19T14:35:00Z</time>
      </trkpt>
      <trkpt lat="45.08614" lon="5.6153">
        <ele>1862.8</ele>
        <time>2010-11-19T14:35:03Z</time>
      </trkpt>
      <trkpt lat="45.08614" lon="5.61531">
        <ele>1863.2</ele>
        <time>2010-11-19T14:35:05Z</time>
      </trkpt>
      <trkpt lat="45.08614" lon="5.61536">
        <ele>1864.2</ele>
        <time>2010-11-19T14:35:11Z</time>
      </trkpt>
      <trkpt lat="45.08615" lon="5.61539">
        <ele>1865.2</ele>
        <time>2010-11-19T14:35:16Z</time>
      </trkpt>
      <trkpt lat="45.08617" lon="5.61544">
        <ele>1866.2</ele>
        <time>2010-11-19T14:35:22Z</time>
      </trkpt>
      <trkpt lat="45.08618" lon="5.61545">
        <ele>1867</ele>
        <time>2010-11-19T14:35:28Z</time>
      </trkpt>
      <trkpt lat="45.08619" lon="5.61545">
        <ele>1868</ele>
        <time>2010-11-19T14:35:36Z</time>
      </trkpt>
      <trkpt lat="45.08623" lon="5.61547">
        <ele>1871.2</ele>
        <time>2010-11-19T14:36:11Z</time>
      </trkpt>
      <trkpt lat="45.08625" lon="5.61549">
        <ele>1871.4</ele>
        <time>2010-11-19T14:36:14Z</time>
      </trkpt>
      <trkpt lat="45.08629" lon="5.61553">
        <ele>1871.8</ele>
        <time>2010-11-19T14:36:19Z</time>
      </trkpt>
      <trkpt lat="45.0863" lon="5.61556">
        <ele>1872.2</ele>
        <time>2010-11-19T14:36:22Z</time>
      </trkpt>
      <trkpt lat="45.08631" lon="5.61557">
        <ele>1872.2</ele>
        <time>2010-11-19T14:36:24Z</time>
      </trkpt>
      <trkpt lat="45.08633" lon="5.6156">
        <ele>1872.8</ele>
        <time>2010-11-19T14:36:29Z</time>
      </trkpt>
      <trkpt lat="45.08634" lon="5.61562">
        <ele>1873.2</ele>
        <time>2010-11-19T14:36:33Z</time>
      </trkpt>
      <trkpt lat="45.08635" lon="5.61565">
        <ele>1873.6</ele>
        <time>2010-11-19T14:36:37Z</time>
      </trkpt>
      <trkpt lat="45.08634" lon="5.61566">
        <ele>1873.8</ele>
        <time>2010-11-19T14:36:38Z</time>
      </trkpt>
      <trkpt lat="45.08634" lon="5.61569">
        <ele>1874.2</ele>
        <time>2010-11-19T14:36:42Z</time>
      </trkpt>
      <trkpt lat="45.08634" lon="5.6157">
        <ele>1875.6</ele>
        <time>2010-11-19T14:36:54Z</time>
      </trkpt>
      <trkpt lat="45.08635" lon="5.61571">
        <ele>1877</ele>
        <time>2010-11-19T14:37:07Z</time>
      </trkpt>
      <trkpt lat="45.08637" lon="5.61572">
        <ele>1877.2</ele>
        <time>2010-11-19T14:37:09Z</time>
      </trkpt>
      <trkpt lat="45.08638" lon="5.61574">
        <ele>1877.4</ele>
        <time>2010-11-19T14:37:11Z</time>
      </trkpt>
      <trkpt lat="45.08641" lon="5.61576">
        <ele>1877.8</ele>
        <time>2010-11-19T14:37:14Z</time>
      </trkpt>
      <trkpt lat="45.08642" lon="5.61577">
        <ele>1878.2</ele>
        <time>2010-11-19T14:37:16Z</time>
      </trkpt>
      <trkpt lat="45.08644" lon="5.61578">
        <ele>1878.6</ele>
        <time>2010-11-19T14:37:18Z</time>
      </trkpt>
      <trkpt lat="45.08647" lon="5.61579">
        <ele>1879</ele>
        <time>2010-11-19T14:37:22Z</time>
      </trkpt>
      <trkpt lat="45.08648" lon="5.61579">
        <ele>1879.2</ele>
        <time>2010-11-19T14:37:23Z</time>
      </trkpt>
      <trkpt lat="45.08649" lon="5.61579">
        <ele>1879.6</ele>
        <time>2010-11-19T14:37:25Z</time>
      </trkpt>
      <trkpt lat="45.08653" lon="5.61583">
        <ele>1880.2</ele>
        <time>2010-11-19T14:37:31Z</time>
      </trkpt>
      <trkpt lat="45.08656" lon="5.61584">
        <ele>1880.8</ele>
        <time>2010-11-19T14:37:36Z</time>
      </trkpt>
      <trkpt lat="45.0866" lon="5.61585">
        <ele>1881.4</ele>
        <time>2010-11-19T14:37:42Z</time>
      </trkpt>
      <trkpt lat="45.08662" lon="5.61587">
        <ele>1882</ele>
        <time>2010-11-19T14:37:46Z</time>
      </trkpt>
      <trkpt lat="45.08663" lon="5.61589">
        <ele>1882.8</ele>
        <time>2010-11-19T14:37:51Z</time>
      </trkpt>
      <trkpt lat="45.08664" lon="5.61591">
        <ele>1883</ele>
        <time>2010-11-19T14:37:52Z</time>
      </trkpt>
      <trkpt lat="45.08666" lon="5.61593">
        <ele>1883.6</ele>
        <time>2010-11-19T14:37:56Z</time>
      </trkpt>
      <trkpt lat="45.08669" lon="5.61594">
        <ele>1884.2</ele>
        <time>2010-11-19T14:38:00Z</time>
      </trkpt>
      <trkpt lat="45.08673" lon="5.61595">
        <ele>1885</ele>
        <time>2010-11-19T14:38:06Z</time>
      </trkpt>
      <trkpt lat="45.08676" lon="5.61595">
        <ele>1885.6</ele>
        <time>2010-11-19T14:38:10Z</time>
      </trkpt>
      <trkpt lat="45.08679" lon="5.61595">
        <ele>1886</ele>
        <time>2010-11-19T14:38:14Z</time>
      </trkpt>
      <trkpt lat="45.08681" lon="5.61595">
        <ele>1886.4</ele>
        <time>2010-11-19T14:38:17Z</time>
      </trkpt>
      <trkpt lat="45.08682" lon="5.61595">
        <ele>1886.6</ele>
        <time>2010-11-19T14:38:19Z</time>
      </trkpt>
      <trkpt lat="45.08686" lon="5.61594">
        <ele>1887</ele>
        <time>2010-11-19T14:38:24Z</time>
      </trkpt>
      <trkpt lat="45.08689" lon="5.61596">
        <ele>1887.6</ele>
        <time>2010-11-19T14:38:30Z</time>
      </trkpt>
      <trkpt lat="45.08691" lon="5.61597">
        <ele>1888.2</ele>
        <time>2010-11-19T14:38:35Z</time>
      </trkpt>
      <trkpt lat="45.08694" lon="5.61598">
        <ele>1888.8</ele>
        <time>2010-11-19T14:38:41Z</time>
      </trkpt>
      <trkpt lat="45.08695" lon="5.61599">
        <ele>1889.4</ele>
        <time>2010-11-19T14:38:46Z</time>
      </trkpt>
      <trkpt lat="45.08697" lon="5.61601">
        <ele>1889.8</ele>
        <time>2010-11-19T14:38:50Z</time>
      </trkpt>
      <trkpt lat="45.08698" lon="5.61601">
        <ele>1890.2</ele>
        <time>2010-11-19T14:38:52Z</time>
      </trkpt>
      <trkpt lat="45.08699" lon="5.61602">
        <ele>1890.4</ele>
        <time>2010-11-19T14:38:55Z</time>
      </trkpt>
      <trkpt lat="45.08704" lon="5.61603">
        <ele>1891.4</ele>
        <time>2010-11-19T14:39:02Z</time>
      </trkpt>
      <trkpt lat="45.08706" lon="5.61605">
        <ele>1892</ele>
        <time>2010-11-19T14:39:07Z</time>
      </trkpt>
      <trkpt lat="45.08709" lon="5.61606">
        <ele>1892.6</ele>
        <time>2010-11-19T14:39:13Z</time>
      </trkpt>
      <trkpt lat="45.08711" lon="5.61609">
        <ele>1893.2</ele>
        <time>2010-11-19T14:39:17Z</time>
      </trkpt>
      <trkpt lat="45.08713" lon="5.6161">
        <ele>1894</ele>
        <time>2010-11-19T14:39:21Z</time>
      </trkpt>
      <trkpt lat="45.08714" lon="5.6161">
        <ele>1894.4</ele>
        <time>2010-11-19T14:39:24Z</time>
      </trkpt>
      <trkpt lat="45.08716" lon="5.6161">
        <ele>1894.6</ele>
        <time>2010-11-19T14:39:26Z</time>
      </trkpt>
      <trkpt lat="45.0872" lon="5.6161">
        <ele>1895.2</ele>
        <time>2010-11-19T14:39:31Z</time>
      </trkpt>
      <trkpt lat="45.08724" lon="5.61612">
        <ele>1896</ele>
        <time>2010-11-19T14:39:37Z</time>
      </trkpt>
      <trkpt lat="45.08728" lon="5.61612">
        <ele>1896.8</ele>
        <time>2010-11-19T14:39:43Z</time>
      </trkpt>
      <trkpt lat="45.08733" lon="5.61613">
        <ele>1897.4</ele>
        <time>2010-11-19T14:39:49Z</time>
      </trkpt>
      <trkpt lat="45.08735" lon="5.61614">
        <ele>1898</ele>
        <time>2010-11-19T14:39:53Z</time>
      </trkpt>
      <trkpt lat="45.08737" lon="5.61616">
        <ele>1898.6</ele>
        <time>2010-11-19T14:39:58Z</time>
      </trkpt>
      <trkpt lat="45.0874" lon="5.61618">
        <ele>1899.6</ele>
        <time>2010-11-19T14:40:04Z</time>
      </trkpt>
      <trkpt lat="45.08742" lon="5.6162">
        <ele>1900.2</ele>
        <time>2010-11-19T14:40:08Z</time>
      </trkpt>
      <trkpt lat="45.08744" lon="5.61623">
        <ele>1901.2</ele>
        <time>2010-11-19T14:40:14Z</time>
      </trkpt>
      <trkpt lat="45.08746" lon="5.61625">
        <ele>1902</ele>
        <time>2010-11-19T14:40:19Z</time>
      </trkpt>
      <trkpt lat="45.08747" lon="5.61628">
        <ele>1903</ele>
        <time>2010-11-19T14:40:25Z</time>
      </trkpt>
      <trkpt lat="45.08747" lon="5.61632">
        <ele>1903.8</ele>
        <time>2010-11-19T14:40:29Z</time>
      </trkpt>
      <trkpt lat="45.08747" lon="5.61637">
        <ele>1904.6</ele>
        <time>2010-11-19T14:40:34Z</time>
      </trkpt>
      <trkpt lat="45.08747" lon="5.61641">
        <ele>1905.6</ele>
        <time>2010-11-19T14:40:39Z</time>
      </trkpt>
      <trkpt lat="45.08746" lon="5.61646">
        <ele>1906.4</ele>
        <time>2010-11-19T14:40:44Z</time>
      </trkpt>
      <trkpt lat="45.08746" lon="5.61651">
        <ele>1907.2</ele>
        <time>2010-11-19T14:40:49Z</time>
      </trkpt>
      <trkpt lat="45.08746" lon="5.61654">
        <ele>1907.8</ele>
        <time>2010-11-19T14:40:53Z</time>
      </trkpt>
      <trkpt lat="45.08748" lon="5.61657">
        <ele>1908.4</ele>
        <time>2010-11-19T14:40:57Z</time>
      </trkpt>
      <trkpt lat="45.0875" lon="5.61659">
        <ele>1908.8</ele>
        <time>2010-11-19T14:41:01Z</time>
      </trkpt>
      <trkpt lat="45.08752" lon="5.6166">
        <ele>1909.6</ele>
        <time>2010-11-19T14:41:07Z</time>
      </trkpt>
      <trkpt lat="45.08757" lon="5.61662">
        <ele>1910.4</ele>
        <time>2010-11-19T14:41:14Z</time>
      </trkpt>
      <trkpt lat="45.08762" lon="5.61665">
        <ele>1911</ele>
        <time>2010-11-19T14:41:19Z</time>
      </trkpt>
      <trkpt lat="45.08762" lon="5.61666">
        <ele>1911</ele>
        <time>2010-11-19T14:41:20Z</time>
      </trkpt>
      <trkpt lat="45.08766" lon="5.61671">
        <ele>1911.4</ele>
        <time>2010-11-19T14:41:25Z</time>
      </trkpt>
      <trkpt lat="45.08769" lon="5.61677">
        <ele>1912</ele>
        <time>2010-11-19T14:41:31Z</time>
      </trkpt>
      <trkpt lat="45.08771" lon="5.61681">
        <ele>1912.6</ele>
        <time>2010-11-19T14:41:35Z</time>
      </trkpt>
      <trkpt lat="45.08773" lon="5.61684">
        <ele>1913</ele>
        <time>2010-11-19T14:41:40Z</time>
      </trkpt>
      <trkpt lat="45.08774" lon="5.61686">
        <ele>1913.4</ele>
        <time>2010-11-19T14:41:43Z</time>
      </trkpt>
      <trkpt lat="45.08774" lon="5.61687">
        <ele>1913.8</ele>
        <time>2010-11-19T14:41:45Z</time>
      </trkpt>
      <trkpt lat="45.08777" lon="5.61692">
        <ele>1914.8</ele>
        <time>2010-11-19T14:41:52Z</time>
      </trkpt>
      <trkpt lat="45.08777" lon="5.61696">
        <ele>1915.6</ele>
        <time>2010-11-19T14:41:57Z</time>
      </trkpt>
      <trkpt lat="45.08778" lon="5.61699">
        <ele>1916.6</ele>
        <time>2010-11-19T14:42:03Z</time>
      </trkpt>
      <trkpt lat="45.08778" lon="5.61703">
        <ele>1917.4</ele>
        <time>2010-11-19T14:42:08Z</time>
      </trkpt>
      <trkpt lat="45.08779" lon="5.61706">
        <ele>1918.4</ele>
        <time>2010-11-19T14:42:14Z</time>
      </trkpt>
      <trkpt lat="45.08779" lon="5.61709">
        <ele>1919.2</ele>
        <time>2010-11-19T14:42:19Z</time>
      </trkpt>
      <trkpt lat="45.08779" lon="5.61709">
        <ele>1919.4</ele>
        <time>2010-11-19T14:42:20Z</time>
      </trkpt>
      <trkpt lat="45.0878" lon="5.61711">
        <ele>1920</ele>
        <time>2010-11-19T14:42:24Z</time>
      </trkpt>
      <trkpt lat="45.0878" lon="5.61715">
        <ele>1921.6</ele>
        <time>2010-11-19T14:42:34Z</time>
      </trkpt>
      <trkpt lat="45.08782" lon="5.61718">
        <ele>1922.6</ele>
        <time>2010-11-19T14:42:40Z</time>
      </trkpt>
      <trkpt lat="45.08782" lon="5.61721">
        <ele>1923.2</ele>
        <time>2010-11-19T14:42:44Z</time>
      </trkpt>
      <trkpt lat="45.08782" lon="5.61724">
        <ele>1924.2</ele>
        <time>2010-11-19T14:42:49Z</time>
      </trkpt>
      <trkpt lat="45.08782" lon="5.6173">
        <ele>1925.4</ele>
        <time>2010-11-19T14:42:56Z</time>
      </trkpt>
      <trkpt lat="45.08782" lon="5.61733">
        <ele>1926.2</ele>
        <time>2010-11-19T14:43:00Z</time>
      </trkpt>
      <trkpt lat="45.08783" lon="5.61734">
        <ele>1926.8</ele>
        <time>2010-11-19T14:43:03Z</time>
      </trkpt>
      <trkpt lat="45.08783" lon="5.61737">
        <ele>1927.2</ele>
        <time>2010-11-19T14:43:06Z</time>
      </trkpt>
      <trkpt lat="45.08783" lon="5.61739">
        <ele>1928.2</ele>
        <time>2010-11-19T14:43:12Z</time>
      </trkpt>
      <trkpt lat="45.08787" lon="5.61745">
        <ele>1931.6</ele>
        <time>2010-11-19T14:44:26Z</time>
      </trkpt>
      <trkpt lat="45.0879" lon="5.61754">
        <ele>1931.8</ele>
        <time>2010-11-19T14:44:31Z</time>
      </trkpt>
      <trkpt lat="45.0879" lon="5.61758">
        <ele>1932</ele>
        <time>2010-11-19T14:44:34Z</time>
      </trkpt>
      <trkpt lat="45.08791" lon="5.61759">
        <ele>1932.2</ele>
        <time>2010-11-19T14:44:36Z</time>
      </trkpt>
      <trkpt lat="45.08792" lon="5.61763">
        <ele>1932.2</ele>
        <time>2010-11-19T14:44:40Z</time>
      </trkpt>
      <trkpt lat="45.08792" lon="5.61764">
        <ele>1932.2</ele>
        <time>2010-11-19T14:44:41Z</time>
      </trkpt>
      <trkpt lat="45.08793" lon="5.61771">
        <ele>1932.4</ele>
        <time>2010-11-19T14:44:45Z</time>
      </trkpt>
      <trkpt lat="45.08794" lon="5.61775">
        <ele>1932.6</ele>
        <time>2010-11-19T14:44:47Z</time>
      </trkpt>
      <trkpt lat="45.08795" lon="5.61779">
        <ele>1932.8</ele>
        <time>2010-11-19T14:44:50Z</time>
      </trkpt>
      <trkpt lat="45.08796" lon="5.61782">
        <ele>1933</ele>
        <time>2010-11-19T14:44:55Z</time>
      </trkpt>
      <trkpt lat="45.08797" lon="5.61786">
        <ele>1933.6</ele>
        <time>2010-11-19T14:45:00Z</time>
      </trkpt>
      <trkpt lat="45.08798" lon="5.61792">
        <ele>1934.2</ele>
        <time>2010-11-19T14:45:07Z</time>
      </trkpt>
      <trkpt lat="45.08799" lon="5.61797">
        <ele>1935</ele>
        <time>2010-11-19T14:45:13Z</time>
      </trkpt>
      <trkpt lat="45.088" lon="5.61801">
        <ele>1935.4</ele>
        <time>2010-11-19T14:45:17Z</time>
      </trkpt>
      <trkpt lat="45.088" lon="5.61803">
        <ele>1935.8</ele>
        <time>2010-11-19T14:45:20Z</time>
      </trkpt>
      <trkpt lat="45.08801" lon="5.61805">
        <ele>1936</ele>
        <time>2010-11-19T14:45:22Z</time>
      </trkpt>
      <trkpt lat="45.08804" lon="5.6181">
        <ele>1936.6</ele>
        <time>2010-11-19T14:45:27Z</time>
      </trkpt>
      <trkpt lat="45.08805" lon="5.61815">
        <ele>1937.2</ele>
        <time>2010-11-19T14:45:33Z</time>
      </trkpt>
      <trkpt lat="45.08805" lon="5.61816">
        <ele>1937.2</ele>
        <time>2010-11-19T14:45:34Z</time>
      </trkpt>
      <trkpt lat="45.08808" lon="5.61823">
        <ele>1937.4</ele>
        <time>2010-11-19T14:45:39Z</time>
      </trkpt>
      <trkpt lat="45.08809" lon="5.61825">
        <ele>1937.4</ele>
        <time>2010-11-19T14:45:41Z</time>
      </trkpt>
      <trkpt lat="45.08809" lon="5.61825">
        <ele>1937.4</ele>
        <time>2010-11-19T14:45:42Z</time>
      </trkpt>
      <trkpt lat="45.0881" lon="5.61827">
        <ele>1937.4</ele>
        <time>2010-11-19T14:45:44Z</time>
      </trkpt>
      <trkpt lat="45.08811" lon="5.6183">
        <ele>1937.4</ele>
        <time>2010-11-19T14:45:48Z</time>
      </trkpt>
      <trkpt lat="45.08812" lon="5.61835">
        <ele>1937.4</ele>
        <time>2010-11-19T14:45:53Z</time>
      </trkpt>
      <trkpt lat="45.08813" lon="5.61839">
        <ele>1937.6</ele>
        <time>2010-11-19T14:45:57Z</time>
      </trkpt>
      <trkpt lat="45.08814" lon="5.61842">
        <ele>1937.8</ele>
        <time>2010-11-19T14:46:02Z</time>
      </trkpt>
      <trkpt lat="45.08816" lon="5.61847">
        <ele>1938.4</ele>
        <time>2010-11-19T14:46:09Z</time>
      </trkpt>
      <trkpt lat="45.08817" lon="5.61849">
        <ele>1938.6</ele>
        <time>2010-11-19T14:46:12Z</time>
      </trkpt>
      <trkpt lat="45.08817" lon="5.6185">
        <ele>1938.6</ele>
        <time>2010-11-19T14:46:14Z</time>
      </trkpt>
      <trkpt lat="45.08817" lon="5.61853">
        <ele>1939.2</ele>
        <time>2010-11-19T14:46:19Z</time>
      </trkpt>
      <trkpt lat="45.08818" lon="5.61856">
        <ele>1939.8</ele>
        <time>2010-11-19T14:46:24Z</time>
      </trkpt>
      <trkpt lat="45.08821" lon="5.6186">
        <ele>1940.6</ele>
        <time>2010-11-19T14:46:30Z</time>
      </trkpt>
      <trkpt lat="45.08823" lon="5.61862">
        <ele>1941</ele>
        <time>2010-11-19T14:46:34Z</time>
      </trkpt>
      <trkpt lat="45.08824" lon="5.61862">
        <ele>1941.6</ele>
        <time>2010-11-19T14:46:38Z</time>
      </trkpt>
      <trkpt lat="45.08826" lon="5.61865">
        <ele>1942</ele>
        <time>2010-11-19T14:46:42Z</time>
      </trkpt>
      <trkpt lat="45.08828" lon="5.61867">
        <ele>1942.8</ele>
        <time>2010-11-19T14:46:47Z</time>
      </trkpt>
      <trkpt lat="45.0883" lon="5.6187">
        <ele>1943.6</ele>
        <time>2010-11-19T14:46:52Z</time>
      </trkpt>
      <trkpt lat="45.08832" lon="5.61873">
        <ele>1944.4</ele>
        <time>2010-11-19T14:46:58Z</time>
      </trkpt>
      <trkpt lat="45.08834" lon="5.61876">
        <ele>1945.2</ele>
        <time>2010-11-19T14:47:03Z</time>
      </trkpt>
      <trkpt lat="45.08835" lon="5.61879">
        <ele>1945.8</ele>
        <time>2010-11-19T14:47:07Z</time>
      </trkpt>
      <trkpt lat="45.08837" lon="5.61883">
        <ele>1946.8</ele>
        <time>2010-11-19T14:47:13Z</time>
      </trkpt>
      <trkpt lat="45.08838" lon="5.61885">
        <ele>1947.6</ele>
        <time>2010-11-19T14:47:18Z</time>
      </trkpt>
      <trkpt lat="45.08839" lon="5.61888">
        <ele>1948.2</ele>
        <time>2010-11-19T14:47:22Z</time>
      </trkpt>
      <trkpt lat="45.08841" lon="5.61892">
        <ele>1949</ele>
        <time>2010-11-19T14:47:28Z</time>
      </trkpt>
      <trkpt lat="45.08841" lon="5.61897">
        <ele>1950</ele>
        <time>2010-11-19T14:47:34Z</time>
      </trkpt>
      <trkpt lat="45.08841" lon="5.619">
        <ele>1950.6</ele>
        <time>2010-11-19T14:47:39Z</time>
      </trkpt>
      <trkpt lat="45.08841" lon="5.61901">
        <ele>1951.4</ele>
        <time>2010-11-19T14:47:44Z</time>
      </trkpt>
      <trkpt lat="45.08841" lon="5.61901">
        <ele>1952.2</ele>
        <time>2010-11-19T14:47:50Z</time>
      </trkpt>
      <trkpt lat="45.08843" lon="5.61905">
        <ele>1954.6</ele>
        <time>2010-11-19T14:48:23Z</time>
      </trkpt>
      <trkpt lat="45.08843" lon="5.61906">
        <ele>1954.8</ele>
        <time>2010-11-19T14:48:24Z</time>
      </trkpt>
      <trkpt lat="45.08845" lon="5.61909">
        <ele>1955.2</ele>
        <time>2010-11-19T14:48:28Z</time>
      </trkpt>
      <trkpt lat="45.08845" lon="5.6191">
        <ele>1955.2</ele>
        <time>2010-11-19T14:48:29Z</time>
      </trkpt>
      <trkpt lat="45.08847" lon="5.61915">
        <ele>1955.6</ele>
        <time>2010-11-19T14:48:33Z</time>
      </trkpt>
      <trkpt lat="45.08848" lon="5.61916">
        <ele>1955.6</ele>
        <time>2010-11-19T14:48:34Z</time>
      </trkpt>
      <trkpt lat="45.08853" lon="5.61922">
        <ele>1955.8</ele>
        <time>2010-11-19T14:48:40Z</time>
      </trkpt>
      <trkpt lat="45.08857" lon="5.61925">
        <ele>1955.6</ele>
        <time>2010-11-19T14:48:44Z</time>
      </trkpt>
      <trkpt lat="45.08858" lon="5.61927">
        <ele>1955.6</ele>
        <time>2010-11-19T14:48:45Z</time>
      </trkpt>
      <trkpt lat="45.08859" lon="5.61928">
        <ele>1955.6</ele>
        <time>2010-11-19T14:48:46Z</time>
      </trkpt>
      <trkpt lat="45.08863" lon="5.61931">
        <ele>1955.6</ele>
        <time>2010-11-19T14:48:49Z</time>
      </trkpt>
      <trkpt lat="45.08865" lon="5.61932">
        <ele>1955.6</ele>
        <time>2010-11-19T14:48:50Z</time>
      </trkpt>
      <trkpt lat="45.08874" lon="5.61941">
        <ele>1955</ele>
        <time>2010-11-19T14:48:56Z</time>
      </trkpt>
      <trkpt lat="45.08884" lon="5.61948">
        <ele>1954.4</ele>
        <time>2010-11-19T14:49:01Z</time>
      </trkpt>
      <trkpt lat="45.08891" lon="5.61954">
        <ele>1954</ele>
        <time>2010-11-19T14:49:05Z</time>
      </trkpt>
      <trkpt lat="45.08892" lon="5.61955">
        <ele>1953.8</ele>
        <time>2010-11-19T14:49:06Z</time>
      </trkpt>
      <trkpt lat="45.08893" lon="5.61956">
        <ele>1953</ele>
        <time>2010-11-19T14:49:12Z</time>
      </trkpt>
      <trkpt lat="45.08898" lon="5.61958">
        <ele>1950</ele>
        <time>2010-11-19T14:49:41Z</time>
      </trkpt>
      <trkpt lat="45.08909" lon="5.61965">
        <ele>1949.4</ele>
        <time>2010-11-19T14:49:46Z</time>
      </trkpt>
      <trkpt lat="45.08911" lon="5.61966">
        <ele>1949.4</ele>
        <time>2010-11-19T14:49:47Z</time>
      </trkpt>
      <trkpt lat="45.08922" lon="5.61969">
        <ele>1948.8</ele>
        <time>2010-11-19T14:49:54Z</time>
      </trkpt>
      <trkpt lat="45.08927" lon="5.6197">
        <ele>1948.4</ele>
        <time>2010-11-19T14:49:59Z</time>
      </trkpt>
      <trkpt lat="45.08928" lon="5.61971">
        <ele>1948.2</ele>
        <time>2010-11-19T14:50:00Z</time>
      </trkpt>
      <trkpt lat="45.08933" lon="5.61973">
        <ele>1948</ele>
        <time>2010-11-19T14:50:06Z</time>
      </trkpt>
      <trkpt lat="45.08935" lon="5.61974">
        <ele>1947.8</ele>
        <time>2010-11-19T14:50:08Z</time>
      </trkpt>
      <trkpt lat="45.08938" lon="5.61975">
        <ele>1947.6</ele>
        <time>2010-11-19T14:50:11Z</time>
      </trkpt>
      <trkpt lat="45.08942" lon="5.61977">
        <ele>1947.6</ele>
        <time>2010-11-19T14:50:18Z</time>
      </trkpt>
      <trkpt lat="45.08945" lon="5.61978">
        <ele>1947.4</ele>
        <time>2010-11-19T14:50:23Z</time>
      </trkpt>
      <trkpt lat="45.08949" lon="5.61979">
        <ele>1947.6</ele>
        <time>2010-11-19T14:50:28Z</time>
      </trkpt>
      <trkpt lat="45.08951" lon="5.6198">
        <ele>1947.8</ele>
        <time>2010-11-19T14:50:32Z</time>
      </trkpt>
      <trkpt lat="45.08953" lon="5.61982">
        <ele>1948</ele>
        <time>2010-11-19T14:50:36Z</time>
      </trkpt>
      <trkpt lat="45.08956" lon="5.61983">
        <ele>1948.4</ele>
        <time>2010-11-19T14:50:41Z</time>
      </trkpt>
      <trkpt lat="45.08959" lon="5.61984">
        <ele>1948.6</ele>
        <time>2010-11-19T14:50:45Z</time>
      </trkpt>
      <trkpt lat="45.08962" lon="5.61985">
        <ele>1949</ele>
        <time>2010-11-19T14:50:49Z</time>
      </trkpt>
      <trkpt lat="45.08962" lon="5.61986">
        <ele>1949</ele>
        <time>2010-11-19T14:50:50Z</time>
      </trkpt>
      <trkpt lat="45.08965" lon="5.61986">
        <ele>1949.2</ele>
        <time>2010-11-19T14:50:53Z</time>
      </trkpt>
      <trkpt lat="45.08968" lon="5.61985">
        <ele>1949.6</ele>
        <time>2010-11-19T14:50:57Z</time>
      </trkpt>
      <trkpt lat="45.0897" lon="5.61984">
        <ele>1950</ele>
        <time>2010-11-19T14:51:01Z</time>
      </trkpt>
      <trkpt lat="45.08973" lon="5.61983">
        <ele>1950.6</ele>
        <time>2010-11-19T14:51:07Z</time>
      </trkpt>
      <trkpt lat="45.08976" lon="5.61983">
        <ele>1951.2</ele>
        <time>2010-11-19T14:51:12Z</time>
      </trkpt>
      <trkpt lat="45.08979" lon="5.61982">
        <ele>1951.8</ele>
        <time>2010-11-19T14:51:17Z</time>
      </trkpt>
      <trkpt lat="45.0898" lon="5.61982">
        <ele>1952</ele>
        <time>2010-11-19T14:51:18Z</time>
      </trkpt>
      <trkpt lat="45.08981" lon="5.61982">
        <ele>1952.4</ele>
        <time>2010-11-19T14:51:21Z</time>
      </trkpt>
      <trkpt lat="45.08983" lon="5.61982">
        <ele>1953</ele>
        <time>2010-11-19T14:51:26Z</time>
      </trkpt>
      <trkpt lat="45.08986" lon="5.61983">
        <ele>1953.8</ele>
        <time>2010-11-19T14:51:31Z</time>
      </trkpt>
      <trkpt lat="45.08989" lon="5.61984">
        <ele>1954.8</ele>
        <time>2010-11-19T14:51:37Z</time>
      </trkpt>
      <trkpt lat="45.08992" lon="5.61985">
        <ele>1955.6</ele>
        <time>2010-11-19T14:51:42Z</time>
      </trkpt>
      <trkpt lat="45.08995" lon="5.61986">
        <ele>1956.2</ele>
        <time>2010-11-19T14:51:46Z</time>
      </trkpt>
      <trkpt lat="45.08997" lon="5.61989">
        <ele>1957</ele>
        <time>2010-11-19T14:51:51Z</time>
      </trkpt>
      <trkpt lat="45.09" lon="5.61991">
        <ele>1958</ele>
        <time>2010-11-19T14:51:57Z</time>
      </trkpt>
      <trkpt lat="45.09003" lon="5.61993">
        <ele>1958.8</ele>
        <time>2010-11-19T14:52:02Z</time>
      </trkpt>
      <trkpt lat="45.09006" lon="5.61996">
        <ele>1959.6</ele>
        <time>2010-11-19T14:52:07Z</time>
      </trkpt>
      <trkpt lat="45.0901" lon="5.61999">
        <ele>1960.6</ele>
        <time>2010-11-19T14:52:13Z</time>
      </trkpt>
      <trkpt lat="45.09012" lon="5.62002">
        <ele>1961.6</ele>
        <time>2010-11-19T14:52:19Z</time>
      </trkpt>
      <trkpt lat="45.09014" lon="5.62005">
        <ele>1962.8</ele>
        <time>2010-11-19T14:52:27Z</time>
      </trkpt>
      <trkpt lat="45.09018" lon="5.62007">
        <ele>1963.6</ele>
        <time>2010-11-19T14:52:33Z</time>
      </trkpt>
      <trkpt lat="45.09021" lon="5.62008">
        <ele>1964</ele>
        <time>2010-11-19T14:52:37Z</time>
      </trkpt>
      <trkpt lat="45.09023" lon="5.62007">
        <ele>1964.4</ele>
        <time>2010-11-19T14:52:42Z</time>
      </trkpt>
      <trkpt lat="45.09024" lon="5.62008">
        <ele>1964.6</ele>
        <time>2010-11-19T14:52:46Z</time>
      </trkpt>
      <trkpt lat="45.09022" lon="5.62007">
        <ele>1965.2</ele>
        <time>2010-11-19T14:52:55Z</time>
      </trkpt>
      <trkpt lat="45.0902" lon="5.62006">
        <ele>1965.4</ele>
        <time>2010-11-19T14:52:58Z</time>
      </trkpt>
      <trkpt lat="45.09017" lon="5.62001">
        <ele>1965.6</ele>
        <time>2010-11-19T14:53:02Z</time>
      </trkpt>
      <trkpt lat="45.09009" lon="5.61995">
        <ele>1965.6</ele>
        <time>2010-11-19T14:53:08Z</time>
      </trkpt>
      <trkpt lat="45.09004" lon="5.61989">
        <ele>1965.6</ele>
        <time>2010-11-19T14:53:11Z</time>
      </trkpt>
      <trkpt lat="45.09" lon="5.61986">
        <ele>1965.4</ele>
        <time>2010-11-19T14:53:13Z</time>
      </trkpt>
      <trkpt lat="45.08989" lon="5.61982">
        <ele>1965.2</ele>
        <time>2010-11-19T14:53:18Z</time>
      </trkpt>
      <trkpt lat="45.08987" lon="5.61982">
        <ele>1965.2</ele>
        <time>2010-11-19T14:53:19Z</time>
      </trkpt>
      <trkpt lat="45.08983" lon="5.61981">
        <ele>1965</ele>
        <time>2010-11-19T14:53:21Z</time>
      </trkpt>
      <trkpt lat="45.0898" lon="5.6198">
        <ele>1964.8</ele>
        <time>2010-11-19T14:53:23Z</time>
      </trkpt>
      <trkpt lat="45.08973" lon="5.6198">
        <ele>1964.4</ele>
        <time>2010-11-19T14:53:27Z</time>
      </trkpt>
      <trkpt lat="45.08968" lon="5.61976">
        <ele>1964</ele>
        <time>2010-11-19T14:53:30Z</time>
      </trkpt>
      <trkpt lat="45.08965" lon="5.61975">
        <ele>1963.8</ele>
        <time>2010-11-19T14:53:32Z</time>
      </trkpt>
      <trkpt lat="45.08958" lon="5.61974">
        <ele>1963.2</ele>
        <time>2010-11-19T14:53:36Z</time>
      </trkpt>
      <trkpt lat="45.08957" lon="5.61974">
        <ele>1963.2</ele>
        <time>2010-11-19T14:53:37Z</time>
      </trkpt>
      <trkpt lat="45.0895" lon="5.61973">
        <ele>1962.6</ele>
        <time>2010-11-19T14:53:41Z</time>
      </trkpt>
      <trkpt lat="45.08946" lon="5.61972">
        <ele>1962.2</ele>
        <time>2010-11-19T14:53:43Z</time>
      </trkpt>
      <trkpt lat="45.08942" lon="5.61974">
        <ele>1961.4</ele>
        <time>2010-11-19T14:53:48Z</time>
      </trkpt>
      <trkpt lat="45.08941" lon="5.61974">
        <ele>1961.2</ele>
        <time>2010-11-19T14:53:49Z</time>
      </trkpt>
      <trkpt lat="45.08936" lon="5.61973">
        <ele>1960.4</ele>
        <time>2010-11-19T14:53:54Z</time>
      </trkpt>
      <trkpt lat="45.08935" lon="5.61972">
        <ele>1960.4</ele>
        <time>2010-11-19T14:53:55Z</time>
      </trkpt>
      <trkpt lat="45.08932" lon="5.61972">
        <ele>1959.8</ele>
        <time>2010-11-19T14:53:58Z</time>
      </trkpt>
      <trkpt lat="45.08929" lon="5.61973">
        <ele>1959.4</ele>
        <time>2010-11-19T14:54:01Z</time>
      </trkpt>
      <trkpt lat="45.08927" lon="5.61973">
        <ele>1959</ele>
        <time>2010-11-19T14:54:03Z</time>
      </trkpt>
      <trkpt lat="45.08922" lon="5.61972">
        <ele>1958.2</ele>
        <time>2010-11-19T14:54:07Z</time>
      </trkpt>
      <trkpt lat="45.08916" lon="5.61967">
        <ele>1957.6</ele>
        <time>2010-11-19T14:54:11Z</time>
      </trkpt>
      <trkpt lat="45.08915" lon="5.61966">
        <ele>1957.4</ele>
        <time>2010-11-19T14:54:12Z</time>
      </trkpt>
      <trkpt lat="45.08911" lon="5.61959">
        <ele>1956.6</ele>
        <time>2010-11-19T14:54:16Z</time>
      </trkpt>
      <trkpt lat="45.0891" lon="5.61957">
        <ele>1956.4</ele>
        <time>2010-11-19T14:54:17Z</time>
      </trkpt>
      <trkpt lat="45.08907" lon="5.61955">
        <ele>1955.8</ele>
        <time>2010-11-19T14:54:21Z</time>
      </trkpt>
      <trkpt lat="45.08907" lon="5.61954">
        <ele>1955.6</ele>
        <time>2010-11-19T14:54:22Z</time>
      </trkpt>
      <trkpt lat="45.08907" lon="5.61954">
        <ele>1954.8</ele>
        <time>2010-11-19T14:54:27Z</time>
      </trkpt>
      <trkpt lat="45.08906" lon="5.61953">
        <ele>1952.8</ele>
        <time>2010-11-19T14:54:39Z</time>
      </trkpt>
      <trkpt lat="45.08905" lon="5.61954">
        <ele>1952.8</ele>
        <time>2010-11-19T14:54:40Z</time>
      </trkpt>
      <trkpt lat="45.08904" lon="5.61956">
        <ele>1952.2</ele>
        <time>2010-11-19T14:54:43Z</time>
      </trkpt>
      <trkpt lat="45.08906" lon="5.61955">
        <ele>1949.8</ele>
        <time>2010-11-19T14:55:03Z</time>
      </trkpt>
      <trkpt lat="45.08906" lon="5.61955">
        <ele>1948.6</ele>
        <time>2010-11-19T14:55:16Z</time>
      </trkpt>
      <trkpt lat="45.08907" lon="5.61955">
        <ele>1945.2</ele>
        <time>2010-11-19T14:56:17Z</time>
      </trkpt>
      <trkpt lat="45.08906" lon="5.61955">
        <ele>1944.8</ele>
        <time>2010-11-19T14:56:24Z</time>
      </trkpt>
      <trkpt lat="45.08904" lon="5.61949">
        <ele>1944.4</ele>
        <time>2010-11-19T14:56:30Z</time>
      </trkpt>
      <trkpt lat="45.089" lon="5.61937">
        <ele>1944</ele>
        <time>2010-11-19T14:56:36Z</time>
      </trkpt>
      <trkpt lat="45.089" lon="5.61936">
        <ele>1944</ele>
        <time>2010-11-19T14:56:37Z</time>
      </trkpt>
      <trkpt lat="45.08897" lon="5.61924">
        <ele>1943.4</ele>
        <time>2010-11-19T14:56:44Z</time>
      </trkpt>
      <trkpt lat="45.08896" lon="5.61921">
        <ele>1943.2</ele>
        <time>2010-11-19T14:56:47Z</time>
      </trkpt>
      <trkpt lat="45.08894" lon="5.61919">
        <ele>1943</ele>
        <time>2010-11-19T14:56:49Z</time>
      </trkpt>
      <trkpt lat="45.08894" lon="5.61918">
        <ele>1943</ele>
        <time>2010-11-19T14:56:50Z</time>
      </trkpt>
      <trkpt lat="45.08893" lon="5.6191">
        <ele>1942.6</ele>
        <time>2010-11-19T14:56:54Z</time>
      </trkpt>
      <trkpt lat="45.08892" lon="5.61908">
        <ele>1942.6</ele>
        <time>2010-11-19T14:56:55Z</time>
      </trkpt>
      <trkpt lat="45.08891" lon="5.61901">
        <ele>1942.2</ele>
        <time>2010-11-19T14:57:00Z</time>
      </trkpt>
      <trkpt lat="45.0889" lon="5.61896">
        <ele>1941.8</ele>
        <time>2010-11-19T14:57:04Z</time>
      </trkpt>
      <trkpt lat="45.08888" lon="5.61894">
        <ele>1941.6</ele>
        <time>2010-11-19T14:57:06Z</time>
      </trkpt>
      <trkpt lat="45.08888" lon="5.61892">
        <ele>1941.6</ele>
        <time>2010-11-19T14:57:07Z</time>
      </trkpt>
      <trkpt lat="45.08887" lon="5.61889">
        <ele>1941.2</ele>
        <time>2010-11-19T14:57:11Z</time>
      </trkpt>
      <trkpt lat="45.08888" lon="5.61887">
        <ele>1941.2</ele>
        <time>2010-11-19T14:57:13Z</time>
      </trkpt>
      <trkpt lat="45.08887" lon="5.61883">
        <ele>1940.8</ele>
        <time>2010-11-19T14:57:17Z</time>
      </trkpt>
      <trkpt lat="45.08885" lon="5.61877">
        <ele>1940.6</ele>
        <time>2010-11-19T14:57:22Z</time>
      </trkpt>
      <trkpt lat="45.08881" lon="5.61869">
        <ele>1940.2</ele>
        <time>2010-11-19T14:57:29Z</time>
      </trkpt>
      <trkpt lat="45.0888" lon="5.61868">
        <ele>1940</ele>
        <time>2010-11-19T14:57:30Z</time>
      </trkpt>
      <trkpt lat="45.08878" lon="5.61864">
        <ele>1940</ele>
        <time>2010-11-19T14:57:33Z</time>
      </trkpt>
      <trkpt lat="45.08877" lon="5.61863">
        <ele>1939.8</ele>
        <time>2010-11-19T14:57:34Z</time>
      </trkpt>
      <trkpt lat="45.08876" lon="5.61859">
        <ele>1939.6</ele>
        <time>2010-11-19T14:57:38Z</time>
      </trkpt>
      <trkpt lat="45.08875" lon="5.61858">
        <ele>1939.6</ele>
        <time>2010-11-19T14:57:39Z</time>
      </trkpt>
      <trkpt lat="45.08873" lon="5.61854">
        <ele>1939.2</ele>
        <time>2010-11-19T14:57:43Z</time>
      </trkpt>
      <trkpt lat="45.08872" lon="5.61853">
        <ele>1939.2</ele>
        <time>2010-11-19T14:57:44Z</time>
      </trkpt>
      <trkpt lat="45.0887" lon="5.6185">
        <ele>1939</ele>
        <time>2010-11-19T14:57:48Z</time>
      </trkpt>
      <trkpt lat="45.08866" lon="5.61846">
        <ele>1938.6</ele>
        <time>2010-11-19T14:57:54Z</time>
      </trkpt>
      <trkpt lat="45.08865" lon="5.61846">
        <ele>1938.6</ele>
        <time>2010-11-19T14:57:55Z</time>
      </trkpt>
      <trkpt lat="45.08864" lon="5.61844">
        <ele>1938.4</ele>
        <time>2010-11-19T14:57:57Z</time>
      </trkpt>
      <trkpt lat="45.08861" lon="5.61841">
        <ele>1938</ele>
        <time>2010-11-19T14:58:02Z</time>
      </trkpt>
      <trkpt lat="45.08858" lon="5.6184">
        <ele>1937.8</ele>
        <time>2010-11-19T14:58:06Z</time>
      </trkpt>
      <trkpt lat="45.08856" lon="5.6184">
        <ele>1937.8</ele>
        <time>2010-11-19T14:58:08Z</time>
      </trkpt>
      <trkpt lat="45.08854" lon="5.61838">
        <ele>1937.6</ele>
        <time>2010-11-19T14:58:11Z</time>
      </trkpt>
      <trkpt lat="45.08851" lon="5.61837">
        <ele>1937.4</ele>
        <time>2010-11-19T14:58:15Z</time>
      </trkpt>
      <trkpt lat="45.08849" lon="5.61835">
        <ele>1937.2</ele>
        <time>2010-11-19T14:58:17Z</time>
      </trkpt>
      <trkpt lat="45.08848" lon="5.61835">
        <ele>1937.2</ele>
        <time>2010-11-19T14:58:18Z</time>
      </trkpt>
      <trkpt lat="45.08847" lon="5.61834">
        <ele>1937.2</ele>
        <time>2010-11-19T14:58:19Z</time>
      </trkpt>
      <trkpt lat="45.08845" lon="5.61833">
        <ele>1937</ele>
        <time>2010-11-19T14:58:22Z</time>
      </trkpt>
      <trkpt lat="45.08844" lon="5.61833">
        <ele>1937</ele>
        <time>2010-11-19T14:58:23Z</time>
      </trkpt>
      <trkpt lat="45.08842" lon="5.6183">
        <ele>1936.8</ele>
        <time>2010-11-19T14:58:26Z</time>
      </trkpt>
      <trkpt lat="45.0884" lon="5.61829">
        <ele>1936.8</ele>
        <time>2010-11-19T14:58:28Z</time>
      </trkpt>
      <trkpt lat="45.08839" lon="5.61828">
        <ele>1936.6</ele>
        <time>2010-11-19T14:58:30Z</time>
      </trkpt>
      <trkpt lat="45.08837" lon="5.61828">
        <ele>1936.6</ele>
        <time>2010-11-19T14:58:32Z</time>
      </trkpt>
      <trkpt lat="45.08832" lon="5.61825">
        <ele>1936.2</ele>
        <time>2010-11-19T14:58:37Z</time>
      </trkpt>
      <trkpt lat="45.08831" lon="5.61825">
        <ele>1936.2</ele>
        <time>2010-11-19T14:58:38Z</time>
      </trkpt>
      <trkpt lat="45.08829" lon="5.61824">
        <ele>1936</ele>
        <time>2010-11-19T14:58:43Z</time>
      </trkpt>
      <trkpt lat="45.08825" lon="5.61822">
        <ele>1935.8</ele>
        <time>2010-11-19T14:58:49Z</time>
      </trkpt>
      <trkpt lat="45.08821" lon="5.61821">
        <ele>1935.8</ele>
        <time>2010-11-19T14:58:53Z</time>
      </trkpt>
      <trkpt lat="45.08821" lon="5.61821">
        <ele>1935.6</ele>
        <time>2010-11-19T14:58:54Z</time>
      </trkpt>
      <trkpt lat="45.08817" lon="5.61817">
        <ele>1935.6</ele>
        <time>2010-11-19T14:58:59Z</time>
      </trkpt>
      <trkpt lat="45.08815" lon="5.61814">
        <ele>1935.6</ele>
        <time>2010-11-19T14:59:02Z</time>
      </trkpt>
      <trkpt lat="45.08814" lon="5.61812">
        <ele>1935.6</ele>
        <time>2010-11-19T14:59:05Z</time>
      </trkpt>
      <trkpt lat="45.08812" lon="5.61808">
        <ele>1935.6</ele>
        <time>2010-11-19T14:59:09Z</time>
      </trkpt>
      <trkpt lat="45.0881" lon="5.61803">
        <ele>1935.6</ele>
        <time>2010-11-19T14:59:14Z</time>
      </trkpt>
      <trkpt lat="45.08808" lon="5.618">
        <ele>1935.6</ele>
        <time>2010-11-19T14:59:18Z</time>
      </trkpt>
      <trkpt lat="45.08804" lon="5.61796">
        <ele>1935.6</ele>
        <time>2010-11-19T14:59:23Z</time>
      </trkpt>
      <trkpt lat="45.08803" lon="5.61795">
        <ele>1935.6</ele>
        <time>2010-11-19T14:59:25Z</time>
      </trkpt>
      <trkpt lat="45.08802" lon="5.61794">
        <ele>1935.6</ele>
        <time>2010-11-19T14:59:26Z</time>
      </trkpt>
      <trkpt lat="45.08801" lon="5.61792">
        <ele>1935.6</ele>
        <time>2010-11-19T14:59:29Z</time>
      </trkpt>
      <trkpt lat="45.08797" lon="5.61786">
        <ele>1935.6</ele>
        <time>2010-11-19T14:59:35Z</time>
      </trkpt>
      <trkpt lat="45.08796" lon="5.61784">
        <ele>1935.6</ele>
        <time>2010-11-19T14:59:37Z</time>
      </trkpt>
      <trkpt lat="45.08795" lon="5.61782">
        <ele>1935.6</ele>
        <time>2010-11-19T14:59:40Z</time>
      </trkpt>
      <trkpt lat="45.08792" lon="5.61776">
        <ele>1935.6</ele>
        <time>2010-11-19T14:59:46Z</time>
      </trkpt>
      <trkpt lat="45.08792" lon="5.61775">
        <ele>1935.6</ele>
        <time>2010-11-19T14:59:47Z</time>
      </trkpt>
      <trkpt lat="45.08792" lon="5.61774">
        <ele>1935.6</ele>
        <time>2010-11-19T14:59:48Z</time>
      </trkpt>
      <trkpt lat="45.08791" lon="5.61771">
        <ele>1935.6</ele>
        <time>2010-11-19T14:59:50Z</time>
      </trkpt>
      <trkpt lat="45.0879" lon="5.61764">
        <ele>1935.4</ele>
        <time>2010-11-19T14:59:56Z</time>
      </trkpt>
      <trkpt lat="45.08789" lon="5.6176">
        <ele>1935.4</ele>
        <time>2010-11-19T15:00:01Z</time>
      </trkpt>
      <trkpt lat="45.08788" lon="5.61755">
        <ele>1935.2</ele>
        <time>2010-11-19T15:00:05Z</time>
      </trkpt>
      <trkpt lat="45.08786" lon="5.6175">
        <ele>1935.2</ele>
        <time>2010-11-19T15:00:09Z</time>
      </trkpt>
      <trkpt lat="45.08786" lon="5.6175">
        <ele>1935.2</ele>
        <time>2010-11-19T15:00:10Z</time>
      </trkpt>
      <trkpt lat="45.08784" lon="5.61744">
        <ele>1935</ele>
        <time>2010-11-19T15:00:15Z</time>
      </trkpt>
      <trkpt lat="45.08783" lon="5.61741">
        <ele>1934.8</ele>
        <time>2010-11-19T15:00:18Z</time>
      </trkpt>
      <trkpt lat="45.08783" lon="5.6174">
        <ele>1934.8</ele>
        <time>2010-11-19T15:00:21Z</time>
      </trkpt>
      <trkpt lat="45.08782" lon="5.61737">
        <ele>1934.6</ele>
        <time>2010-11-19T15:00:24Z</time>
      </trkpt>
      <trkpt lat="45.08781" lon="5.61736">
        <ele>1934.6</ele>
        <time>2010-11-19T15:00:25Z</time>
      </trkpt>
      <trkpt lat="45.0878" lon="5.61728">
        <ele>1934.4</ele>
        <time>2010-11-19T15:00:30Z</time>
      </trkpt>
      <trkpt lat="45.08781" lon="5.61724">
        <ele>1934.2</ele>
        <time>2010-11-19T15:00:33Z</time>
      </trkpt>
      <trkpt lat="45.08781" lon="5.61722">
        <ele>1934.2</ele>
        <time>2010-11-19T15:00:35Z</time>
      </trkpt>
      <trkpt lat="45.0878" lon="5.61719">
        <ele>1934.2</ele>
        <time>2010-11-19T15:00:37Z</time>
      </trkpt>
      <trkpt lat="45.08779" lon="5.61716">
        <ele>1934</ele>
        <time>2010-11-19T15:00:40Z</time>
      </trkpt>
      <trkpt lat="45.08778" lon="5.61712">
        <ele>1933.6</ele>
        <time>2010-11-19T15:00:45Z</time>
      </trkpt>
      <trkpt lat="45.08778" lon="5.61707">
        <ele>1933.2</ele>
        <time>2010-11-19T15:00:51Z</time>
      </trkpt>
      <trkpt lat="45.08776" lon="5.61698">
        <ele>1932.6</ele>
        <time>2010-11-19T15:00:57Z</time>
      </trkpt>
      <trkpt lat="45.08774" lon="5.6169">
        <ele>1932</ele>
        <time>2010-11-19T15:01:02Z</time>
      </trkpt>
      <trkpt lat="45.08771" lon="5.61686">
        <ele>1931.4</ele>
        <time>2010-11-19T15:01:06Z</time>
      </trkpt>
      <trkpt lat="45.08771" lon="5.61685">
        <ele>1931.2</ele>
        <time>2010-11-19T15:01:07Z</time>
      </trkpt>
      <trkpt lat="45.08769" lon="5.61681">
        <ele>1930.6</ele>
        <time>2010-11-19T15:01:11Z</time>
      </trkpt>
      <trkpt lat="45.08769" lon="5.61678">
        <ele>1930.2</ele>
        <time>2010-11-19T15:01:13Z</time>
      </trkpt>
      <trkpt lat="45.08767" lon="5.61676">
        <ele>1930</ele>
        <time>2010-11-19T15:01:15Z</time>
      </trkpt>
      <trkpt lat="45.08765" lon="5.61672">
        <ele>1929.6</ele>
        <time>2010-11-19T15:01:18Z</time>
      </trkpt>
      <trkpt lat="45.08764" lon="5.6167">
        <ele>1929.4</ele>
        <time>2010-11-19T15:01:19Z</time>
      </trkpt>
      <trkpt lat="45.0876" lon="5.61666">
        <ele>1928.8</ele>
        <time>2010-11-19T15:01:23Z</time>
      </trkpt>
      <trkpt lat="45.08759" lon="5.61664">
        <ele>1928.6</ele>
        <time>2010-11-19T15:01:24Z</time>
      </trkpt>
      <trkpt lat="45.08751" lon="5.61662">
        <ele>1928</ele>
        <time>2010-11-19T15:01:28Z</time>
      </trkpt>
      <trkpt lat="45.08749" lon="5.61661">
        <ele>1927.8</ele>
        <time>2010-11-19T15:01:30Z</time>
      </trkpt>
      <trkpt lat="45.08747" lon="5.6166">
        <ele>1927.6</ele>
        <time>2010-11-19T15:01:31Z</time>
      </trkpt>
      <trkpt lat="45.08744" lon="5.61655">
        <ele>1927.2</ele>
        <time>2010-11-19T15:01:34Z</time>
      </trkpt>
      <trkpt lat="45.08745" lon="5.61644">
        <ele>1926.6</ele>
        <time>2010-11-19T15:01:38Z</time>
      </trkpt>
      <trkpt lat="45.08745" lon="5.61641">
        <ele>1926.4</ele>
        <time>2010-11-19T15:01:39Z</time>
      </trkpt>
      <trkpt lat="45.08744" lon="5.61631">
        <ele>1925.8</ele>
        <time>2010-11-19T15:01:43Z</time>
      </trkpt>
      <trkpt lat="45.08744" lon="5.61629">
        <ele>1925.6</ele>
        <time>2010-11-19T15:01:44Z</time>
      </trkpt>
      <trkpt lat="45.08742" lon="5.61623">
        <ele>1924.6</ele>
        <time>2010-11-19T15:01:49Z</time>
      </trkpt>
      <trkpt lat="45.08738" lon="5.61619">
        <ele>1924</ele>
        <time>2010-11-19T15:01:52Z</time>
      </trkpt>
      <trkpt lat="45.08734" lon="5.61616">
        <ele>1923.4</ele>
        <time>2010-11-19T15:01:55Z</time>
      </trkpt>
      <trkpt lat="45.08729" lon="5.61612">
        <ele>1922.4</ele>
        <time>2010-11-19T15:02:00Z</time>
      </trkpt>
      <trkpt lat="45.08726" lon="5.61612">
        <ele>1921</ele>
        <time>2010-11-19T15:02:07Z</time>
      </trkpt>
      <trkpt lat="45.08721" lon="5.61611">
        <ele>1920.2</ele>
        <time>2010-11-19T15:02:12Z</time>
      </trkpt>
      <trkpt lat="45.0872" lon="5.61611">
        <ele>1920</ele>
        <time>2010-11-19T15:02:13Z</time>
      </trkpt>
      <trkpt lat="45.08714" lon="5.6161">
        <ele>1919</ele>
        <time>2010-11-19T15:02:18Z</time>
      </trkpt>
      <trkpt lat="45.08706" lon="5.61606">
        <ele>1917.8</ele>
        <time>2010-11-19T15:02:24Z</time>
      </trkpt>
      <trkpt lat="45.08704" lon="5.61605">
        <ele>1917.6</ele>
        <time>2010-11-19T15:02:25Z</time>
      </trkpt>
      <trkpt lat="45.08698" lon="5.61602">
        <ele>1916.8</ele>
        <time>2010-11-19T15:02:29Z</time>
      </trkpt>
      <trkpt lat="45.08688" lon="5.61598">
        <ele>1915.4</ele>
        <time>2010-11-19T15:02:35Z</time>
      </trkpt>
      <trkpt lat="45.08686" lon="5.61597">
        <ele>1915</ele>
        <time>2010-11-19T15:02:36Z</time>
      </trkpt>
      <trkpt lat="45.08678" lon="5.61594">
        <ele>1913.8</ele>
        <time>2010-11-19T15:02:41Z</time>
      </trkpt>
      <trkpt lat="45.08668" lon="5.61589">
        <ele>1912.4</ele>
        <time>2010-11-19T15:02:46Z</time>
      </trkpt>
      <trkpt lat="45.08666" lon="5.61587">
        <ele>1912.2</ele>
        <time>2010-11-19T15:02:47Z</time>
      </trkpt>
      <trkpt lat="45.08654" lon="5.61581">
        <ele>1910.6</ele>
        <time>2010-11-19T15:02:53Z</time>
      </trkpt>
      <trkpt lat="45.08651" lon="5.61579">
        <ele>1910</ele>
        <time>2010-11-19T15:02:55Z</time>
      </trkpt>
      <trkpt lat="45.08646" lon="5.61575">
        <ele>1909.2</ele>
        <time>2010-11-19T15:02:58Z</time>
      </trkpt>
      <trkpt lat="45.08634" lon="5.61566">
        <ele>1907.4</ele>
        <time>2010-11-19T15:03:04Z</time>
      </trkpt>
      <trkpt lat="45.08633" lon="5.61564">
        <ele>1907</ele>
        <time>2010-11-19T15:03:05Z</time>
      </trkpt>
      <trkpt lat="45.08628" lon="5.61557">
        <ele>1905.6</ele>
        <time>2010-11-19T15:03:10Z</time>
      </trkpt>
      <trkpt lat="45.08622" lon="5.61548">
        <ele>1904</ele>
        <time>2010-11-19T15:03:15Z</time>
      </trkpt>
      <trkpt lat="45.0862" lon="5.61547">
        <ele>1903.6</ele>
        <time>2010-11-19T15:03:16Z</time>
      </trkpt>
      <trkpt lat="45.08614" lon="5.61543">
        <ele>1902.8</ele>
        <time>2010-11-19T15:03:19Z</time>
      </trkpt>
      <trkpt lat="45.08613" lon="5.61541">
        <ele>1902.4</ele>
        <time>2010-11-19T15:03:20Z</time>
      </trkpt>
      <trkpt lat="45.08612" lon="5.61534">
        <ele>1900.8</ele>
        <time>2010-11-19T15:03:25Z</time>
      </trkpt>
      <trkpt lat="45.08612" lon="5.6153">
        <ele>1899.6</ele>
        <time>2010-11-19T15:03:29Z</time>
      </trkpt>
      <trkpt lat="45.08611" lon="5.61529">
        <ele>1899.2</ele>
        <time>2010-11-19T15:03:30Z</time>
      </trkpt>
      <trkpt lat="45.08609" lon="5.61529">
        <ele>1898.6</ele>
        <time>2010-11-19T15:03:32Z</time>
      </trkpt>
      <trkpt lat="45.08608" lon="5.61529">
        <ele>1897.6</ele>
        <time>2010-11-19T15:03:35Z</time>
      </trkpt>
      <trkpt lat="45.08606" lon="5.61527">
        <ele>1896.4</ele>
        <time>2010-11-19T15:03:39Z</time>
      </trkpt>
      <trkpt lat="45.08604" lon="5.61527">
        <ele>1895.8</ele>
        <time>2010-11-19T15:03:41Z</time>
      </trkpt>
      <trkpt lat="45.08602" lon="5.61524">
        <ele>1894.8</ele>
        <time>2010-11-19T15:03:44Z</time>
      </trkpt>
      <trkpt lat="45.08602" lon="5.61522">
        <ele>1894.6</ele>
        <time>2010-11-19T15:03:45Z</time>
      </trkpt>
      <trkpt lat="45.08601" lon="5.61518">
        <ele>1893.6</ele>
        <time>2010-11-19T15:03:49Z</time>
      </trkpt>
      <trkpt lat="45.086" lon="5.61516">
        <ele>1893</ele>
        <time>2010-11-19T15:03:50Z</time>
      </trkpt>
      <trkpt lat="45.08598" lon="5.61511">
        <ele>1892</ele>
        <time>2010-11-19T15:03:53Z</time>
      </trkpt>
      <trkpt lat="45.08599" lon="5.6151">
        <ele>1891.6</ele>
        <time>2010-11-19T15:03:54Z</time>
      </trkpt>
      <trkpt lat="45.086" lon="5.61508">
        <ele>1891</ele>
        <time>2010-11-19T15:03:56Z</time>
      </trkpt>
      <trkpt lat="45.08602" lon="5.61506">
        <ele>1890.4</ele>
        <time>2010-11-19T15:03:58Z</time>
      </trkpt>
      <trkpt lat="45.08604" lon="5.61504">
        <ele>1889.4</ele>
        <time>2010-11-19T15:04:01Z</time>
      </trkpt>
      <trkpt lat="45.08607" lon="5.61503">
        <ele>1888.8</ele>
        <time>2010-11-19T15:04:03Z</time>
      </trkpt>
      <trkpt lat="45.08613" lon="5.61498">
        <ele>1886.8</ele>
        <time>2010-11-19T15:04:09Z</time>
      </trkpt>
      <trkpt lat="45.08613" lon="5.61497">
        <ele>1886.4</ele>
        <time>2010-11-19T15:04:10Z</time>
      </trkpt>
      <trkpt lat="45.08616" lon="5.61494">
        <ele>1885</ele>
        <time>2010-11-19T15:04:14Z</time>
      </trkpt>
      <trkpt lat="45.08619" lon="5.6149">
        <ele>1883.4</ele>
        <time>2010-11-19T15:04:19Z</time>
      </trkpt>
      <trkpt lat="45.08623" lon="5.61483">
        <ele>1881</ele>
        <time>2010-11-19T15:04:26Z</time>
      </trkpt>
      <trkpt lat="45.08624" lon="5.61482">
        <ele>1880.2</ele>
        <time>2010-11-19T15:04:28Z</time>
      </trkpt>
      <trkpt lat="45.08625" lon="5.61478">
        <ele>1879.2</ele>
        <time>2010-11-19T15:04:31Z</time>
      </trkpt>
      <trkpt lat="45.08624" lon="5.61476">
        <ele>1878.8</ele>
        <time>2010-11-19T15:04:32Z</time>
      </trkpt>
      <trkpt lat="45.08624" lon="5.61474">
        <ele>1877.8</ele>
        <time>2010-11-19T15:04:35Z</time>
      </trkpt>
      <trkpt lat="45.08623" lon="5.61473">
        <ele>1877.4</ele>
        <time>2010-11-19T15:04:36Z</time>
      </trkpt>
      <trkpt lat="45.08621" lon="5.61466">
        <ele>1875.6</ele>
        <time>2010-11-19T15:04:41Z</time>
      </trkpt>
      <trkpt lat="45.0862" lon="5.61463">
        <ele>1874.8</ele>
        <time>2010-11-19T15:04:43Z</time>
      </trkpt>
      <trkpt lat="45.08616" lon="5.61462">
        <ele>1873.8</ele>
        <time>2010-11-19T15:04:46Z</time>
      </trkpt>
      <trkpt lat="45.08613" lon="5.61462">
        <ele>1873</ele>
        <time>2010-11-19T15:04:48Z</time>
      </trkpt>
      <trkpt lat="45.0861" lon="5.61462">
        <ele>1872</ele>
        <time>2010-11-19T15:04:51Z</time>
      </trkpt>
      <trkpt lat="45.08602" lon="5.6146">
        <ele>1870.2</ele>
        <time>2010-11-19T15:04:56Z</time>
      </trkpt>
      <trkpt lat="45.08595" lon="5.61456">
        <ele>1868</ele>
        <time>2010-11-19T15:05:02Z</time>
      </trkpt>
      <trkpt lat="45.08591" lon="5.61451">
        <ele>1866</ele>
        <time>2010-11-19T15:05:07Z</time>
      </trkpt>
      <trkpt lat="45.08589" lon="5.61448">
        <ele>1865</ele>
        <time>2010-11-19T15:05:10Z</time>
      </trkpt>
      <trkpt lat="45.08588" lon="5.61447">
        <ele>1864.2</ele>
        <time>2010-11-19T15:05:12Z</time>
      </trkpt>
      <trkpt lat="45.08586" lon="5.61443">
        <ele>1863</ele>
        <time>2010-11-19T15:05:15Z</time>
      </trkpt>
      <trkpt lat="45.08584" lon="5.6144">
        <ele>1861.8</ele>
        <time>2010-11-19T15:05:18Z</time>
      </trkpt>
      <trkpt lat="45.08581" lon="5.61439">
        <ele>1860.8</ele>
        <time>2010-11-19T15:05:21Z</time>
      </trkpt>
      <trkpt lat="45.08578" lon="5.61443">
        <ele>1859.6</ele>
        <time>2010-11-19T15:05:24Z</time>
      </trkpt>
      <trkpt lat="45.08573" lon="5.61448">
        <ele>1857.8</ele>
        <time>2010-11-19T15:05:29Z</time>
      </trkpt>
      <trkpt lat="45.08569" lon="5.61449">
        <ele>1856.4</ele>
        <time>2010-11-19T15:05:33Z</time>
      </trkpt>
      <trkpt lat="45.08567" lon="5.61448">
        <ele>1855.6</ele>
        <time>2010-11-19T15:05:35Z</time>
      </trkpt>
      <trkpt lat="45.08564" lon="5.61447">
        <ele>1854.8</ele>
        <time>2010-11-19T15:05:37Z</time>
      </trkpt>
      <trkpt lat="45.0856" lon="5.61448">
        <ele>1854.2</ele>
        <time>2010-11-19T15:05:39Z</time>
      </trkpt>
      <trkpt lat="45.08551" lon="5.6145">
        <ele>1852.2</ele>
        <time>2010-11-19T15:05:44Z</time>
      </trkpt>
      <trkpt lat="45.08549" lon="5.6145">
        <ele>1851.8</ele>
        <time>2010-11-19T15:05:45Z</time>
      </trkpt>
      <trkpt lat="45.08549" lon="5.6145">
        <ele>1850.6</ele>
        <time>2010-11-19T15:05:48Z</time>
      </trkpt>
      <trkpt lat="45.08546" lon="5.6145">
        <ele>1849.8</ele>
        <time>2010-11-19T15:05:50Z</time>
      </trkpt>
      <trkpt lat="45.08543" lon="5.6145">
        <ele>1849</ele>
        <time>2010-11-19T15:05:52Z</time>
      </trkpt>
      <trkpt lat="45.08543" lon="5.6145">
        <ele>1848.6</ele>
        <time>2010-11-19T15:05:53Z</time>
      </trkpt>
      <trkpt lat="45.08538" lon="5.61451">
        <ele>1847</ele>
        <time>2010-11-19T15:05:57Z</time>
      </trkpt>
      <trkpt lat="45.08533" lon="5.61449">
        <ele>1845.8</ele>
        <time>2010-11-19T15:06:00Z</time>
      </trkpt>
      <trkpt lat="45.08528" lon="5.61451">
        <ele>1844.6</ele>
        <time>2010-11-19T15:06:03Z</time>
      </trkpt>
      <trkpt lat="45.08518" lon="5.61452">
        <ele>1842</ele>
        <time>2010-11-19T15:06:09Z</time>
      </trkpt>
      <trkpt lat="45.0851" lon="5.61452">
        <ele>1840.4</ele>
        <time>2010-11-19T15:06:13Z</time>
      </trkpt>
      <trkpt lat="45.08506" lon="5.61452">
        <ele>1839.4</ele>
        <time>2010-11-19T15:06:15Z</time>
      </trkpt>
      <trkpt lat="45.08496" lon="5.61451">
        <ele>1836.8</ele>
        <time>2010-11-19T15:06:21Z</time>
      </trkpt>
      <trkpt lat="45.08492" lon="5.61445">
        <ele>1835.6</ele>
        <time>2010-11-19T15:06:24Z</time>
      </trkpt>
      <trkpt lat="45.08489" lon="5.61436">
        <ele>1833.8</ele>
        <time>2010-11-19T15:06:28Z</time>
      </trkpt>
      <trkpt lat="45.0849" lon="5.61428">
        <ele>1832</ele>
        <time>2010-11-19T15:06:32Z</time>
      </trkpt>
      <trkpt lat="45.08491" lon="5.61425">
        <ele>1831.2</ele>
        <time>2010-11-19T15:06:34Z</time>
      </trkpt>
      <trkpt lat="45.08491" lon="5.61423">
        <ele>1830.2</ele>
        <time>2010-11-19T15:06:36Z</time>
      </trkpt>
      <trkpt lat="45.0849" lon="5.61422">
        <ele>1829.8</ele>
        <time>2010-11-19T15:06:37Z</time>
      </trkpt>
      <trkpt lat="45.08489" lon="5.61422">
        <ele>1829.4</ele>
        <time>2010-11-19T15:06:38Z</time>
      </trkpt>
      <trkpt lat="45.08486" lon="5.61422">
        <ele>1828.4</ele>
        <time>2010-11-19T15:06:40Z</time>
      </trkpt>
      <trkpt lat="45.08476" lon="5.61423">
        <ele>1826.2</ele>
        <time>2010-11-19T15:06:45Z</time>
      </trkpt>
      <trkpt lat="45.08471" lon="5.61423">
        <ele>1824.8</ele>
        <time>2010-11-19T15:06:48Z</time>
      </trkpt>
      <trkpt lat="45.08469" lon="5.61422">
        <ele>1824.4</ele>
        <time>2010-11-19T15:06:49Z</time>
      </trkpt>
      <trkpt lat="45.08468" lon="5.6142">
        <ele>1823.8</ele>
        <time>2010-11-19T15:06:50Z</time>
      </trkpt>
      <trkpt lat="45.08463" lon="5.61415">
        <ele>1821.6</ele>
        <time>2010-11-19T15:06:55Z</time>
      </trkpt>
      <trkpt lat="45.08459" lon="5.61412">
        <ele>1819.4</ele>
        <time>2010-11-19T15:07:00Z</time>
      </trkpt>
      <trkpt lat="45.08454" lon="5.61412">
        <ele>1817.6</ele>
        <time>2010-11-19T15:07:04Z</time>
      </trkpt>
      <trkpt lat="45.08453" lon="5.61412">
        <ele>1817.2</ele>
        <time>2010-11-19T15:07:05Z</time>
      </trkpt>
      <trkpt lat="45.08442" lon="5.61409">
        <ele>1814.2</ele>
        <time>2010-11-19T15:07:12Z</time>
      </trkpt>
      <trkpt lat="45.08435" lon="5.61409">
        <ele>1811.6</ele>
        <time>2010-11-19T15:07:18Z</time>
      </trkpt>
      <trkpt lat="45.08421" lon="5.61407">
        <ele>1808.6</ele>
        <time>2010-11-19T15:07:25Z</time>
      </trkpt>
      <trkpt lat="45.08416" lon="5.61406">
        <ele>1807.8</ele>
        <time>2010-11-19T15:07:27Z</time>
      </trkpt>
      <trkpt lat="45.08408" lon="5.61404">
        <ele>1806</ele>
        <time>2010-11-19T15:07:31Z</time>
      </trkpt>
      <trkpt lat="45.08397" lon="5.61402">
        <ele>1803.6</ele>
        <time>2010-11-19T15:07:37Z</time>
      </trkpt>
      <trkpt lat="45.08394" lon="5.61393">
        <ele>1801.8</ele>
        <time>2010-11-19T15:07:41Z</time>
      </trkpt>
      <trkpt lat="45.08391" lon="5.61379">
        <ele>1799.2</ele>
        <time>2010-11-19T15:07:47Z</time>
      </trkpt>
      <trkpt lat="45.08386" lon="5.61371">
        <ele>1797.4</ele>
        <time>2010-11-19T15:07:51Z</time>
      </trkpt>
      <trkpt lat="45.08384" lon="5.6137">
        <ele>1797</ele>
        <time>2010-11-19T15:07:52Z</time>
      </trkpt>
      <trkpt lat="45.0838" lon="5.61367">
        <ele>1795.8</ele>
        <time>2010-11-19T15:07:55Z</time>
      </trkpt>
      <trkpt lat="45.0838" lon="5.61363">
        <ele>1794.8</ele>
        <time>2010-11-19T15:07:57Z</time>
      </trkpt>
      <trkpt lat="45.08379" lon="5.61361">
        <ele>1794.4</ele>
        <time>2010-11-19T15:07:58Z</time>
      </trkpt>
      <trkpt lat="45.08375" lon="5.61363">
        <ele>1793</ele>
        <time>2010-11-19T15:08:01Z</time>
      </trkpt>
      <trkpt lat="45.08374" lon="5.61363">
        <ele>1792.6</ele>
        <time>2010-11-19T15:08:02Z</time>
      </trkpt>
      <trkpt lat="45.08363" lon="5.61366">
        <ele>1790.8</ele>
        <time>2010-11-19T15:08:06Z</time>
      </trkpt>
      <trkpt lat="45.0836" lon="5.61366">
        <ele>1790.4</ele>
        <time>2010-11-19T15:08:07Z</time>
      </trkpt>
      <trkpt lat="45.08347" lon="5.61365">
        <ele>1788.2</ele>
        <time>2010-11-19T15:08:12Z</time>
      </trkpt>
      <trkpt lat="45.08341" lon="5.61362">
        <ele>1786.8</ele>
        <time>2010-11-19T15:08:15Z</time>
      </trkpt>
      <trkpt lat="45.08335" lon="5.61358">
        <ele>1785.6</ele>
        <time>2010-11-19T15:08:18Z</time>
      </trkpt>
      <trkpt lat="45.08325" lon="5.6135">
        <ele>1783.6</ele>
        <time>2010-11-19T15:08:23Z</time>
      </trkpt>
      <trkpt lat="45.08324" lon="5.6135">
        <ele>1783.2</ele>
        <time>2010-11-19T15:08:24Z</time>
      </trkpt>
      <trkpt lat="45.08315" lon="5.61347">
        <ele>1781.2</ele>
        <time>2010-11-19T15:08:29Z</time>
      </trkpt>
      <trkpt lat="45.08314" lon="5.61349">
        <ele>1781</ele>
        <time>2010-11-19T15:08:30Z</time>
      </trkpt>
      <trkpt lat="45.08308" lon="5.61353">
        <ele>1779</ele>
        <time>2010-11-19T15:08:35Z</time>
      </trkpt>
      <trkpt lat="45.08307" lon="5.61352">
        <ele>1778.6</ele>
        <time>2010-11-19T15:08:36Z</time>
      </trkpt>
      <trkpt lat="45.08302" lon="5.61355">
        <ele>1777.2</ele>
        <time>2010-11-19T15:08:40Z</time>
      </trkpt>
      <trkpt lat="45.08301" lon="5.61356">
        <ele>1776.8</ele>
        <time>2010-11-19T15:08:41Z</time>
      </trkpt>
      <trkpt lat="45.08292" lon="5.61362">
        <ele>1775</ele>
        <time>2010-11-19T15:08:46Z</time>
      </trkpt>
      <trkpt lat="45.0829" lon="5.61362">
        <ele>1774.6</ele>
        <time>2010-11-19T15:08:47Z</time>
      </trkpt>
      <trkpt lat="45.08287" lon="5.61364">
        <ele>1773.2</ele>
        <time>2010-11-19T15:08:51Z</time>
      </trkpt>
      <trkpt lat="45.08283" lon="5.61366">
        <ele>1772</ele>
        <time>2010-11-19T15:08:54Z</time>
      </trkpt>
      <trkpt lat="45.0828" lon="5.61362">
        <ele>1771.2</ele>
        <time>2010-11-19T15:08:56Z</time>
      </trkpt>
      <trkpt lat="45.08274" lon="5.61354">
        <ele>1769.8</ele>
        <time>2010-11-19T15:09:00Z</time>
      </trkpt>
      <trkpt lat="45.08273" lon="5.61354">
        <ele>1769.4</ele>
        <time>2010-11-19T15:09:01Z</time>
      </trkpt>
      <trkpt lat="45.08267" lon="5.61356">
        <ele>1767.8</ele>
        <time>2010-11-19T15:09:05Z</time>
      </trkpt>
      <trkpt lat="45.08263" lon="5.61357">
        <ele>1767.2</ele>
        <time>2010-11-19T15:09:07Z</time>
      </trkpt>
      <trkpt lat="45.08259" lon="5.61357">
        <ele>1766</ele>
        <time>2010-11-19T15:09:10Z</time>
      </trkpt>
      <trkpt lat="45.08257" lon="5.61358">
        <ele>1765.6</ele>
        <time>2010-11-19T15:09:11Z</time>
      </trkpt>
      <trkpt lat="45.08256" lon="5.61359">
        <ele>1765.2</ele>
        <time>2010-11-19T15:09:12Z</time>
      </trkpt>
      <trkpt lat="45.08254" lon="5.61362">
        <ele>1764.4</ele>
        <time>2010-11-19T15:09:14Z</time>
      </trkpt>
      <trkpt lat="45.08247" lon="5.61361">
        <ele>1763</ele>
        <time>2010-11-19T15:09:18Z</time>
      </trkpt>
      <trkpt lat="45.08241" lon="5.61363">
        <ele>1761.8</ele>
        <time>2010-11-19T15:09:21Z</time>
      </trkpt>
      <trkpt lat="45.08239" lon="5.61363">
        <ele>1761.4</ele>
        <time>2010-11-19T15:09:22Z</time>
      </trkpt>
      <trkpt lat="45.08235" lon="5.61363">
        <ele>1760.8</ele>
        <time>2010-11-19T15:09:24Z</time>
      </trkpt>
      <trkpt lat="45.08223" lon="5.61362">
        <ele>1758.6</ele>
        <time>2010-11-19T15:09:30Z</time>
      </trkpt>
      <trkpt lat="45.08221" lon="5.61362">
        <ele>1758.2</ele>
        <time>2010-11-19T15:09:31Z</time>
      </trkpt>
      <trkpt lat="45.08213" lon="5.61357">
        <ele>1756.4</ele>
        <time>2010-11-19T15:09:36Z</time>
      </trkpt>
      <trkpt lat="45.08207" lon="5.61349">
        <ele>1754.6</ele>
        <time>2010-11-19T15:09:41Z</time>
      </trkpt>
      <trkpt lat="45.08205" lon="5.61348">
        <ele>1754.2</ele>
        <time>2010-11-19T15:09:42Z</time>
      </trkpt>
      <trkpt lat="45.08202" lon="5.61346">
        <ele>1753</ele>
        <time>2010-11-19T15:09:45Z</time>
      </trkpt>
      <trkpt lat="45.08201" lon="5.61347">
        <ele>1752.6</ele>
        <time>2010-11-19T15:09:46Z</time>
      </trkpt>
      <trkpt lat="45.08197" lon="5.61347">
        <ele>1750.8</ele>
        <time>2010-11-19T15:09:51Z</time>
      </trkpt>
      <trkpt lat="45.08193" lon="5.6135">
        <ele>1749.6</ele>
        <time>2010-11-19T15:09:54Z</time>
      </trkpt>
      <trkpt lat="45.08191" lon="5.6135">
        <ele>1749.2</ele>
        <time>2010-11-19T15:09:55Z</time>
      </trkpt>
      <trkpt lat="45.08187" lon="5.61349">
        <ele>1748.4</ele>
        <time>2010-11-19T15:09:57Z</time>
      </trkpt>
      <trkpt lat="45.08176" lon="5.61347">
        <ele>1746.2</ele>
        <time>2010-11-19T15:10:03Z</time>
      </trkpt>
      <trkpt lat="45.08168" lon="5.61347">
        <ele>1744.2</ele>
        <time>2010-11-19T15:10:08Z</time>
      </trkpt>
      <trkpt lat="45.08163" lon="5.61347">
        <ele>1743.2</ele>
        <time>2010-11-19T15:10:11Z</time>
      </trkpt>
      <trkpt lat="45.08157" lon="5.61349">
        <ele>1741.2</ele>
        <time>2010-11-19T15:10:16Z</time>
      </trkpt>
      <trkpt lat="45.08153" lon="5.61351">
        <ele>1733.2</ele>
        <time>2010-11-19T15:10:38Z</time>
      </trkpt>
      <trkpt lat="45.08151" lon="5.61352">
        <ele>1733</ele>
        <time>2010-11-19T15:10:39Z</time>
      </trkpt>
      <trkpt lat="45.08141" lon="5.61355">
        <ele>1730.8</ele>
        <time>2010-11-19T15:10:45Z</time>
      </trkpt>
      <trkpt lat="45.08133" lon="5.61362">
        <ele>1728.6</ele>
        <time>2010-11-19T15:10:51Z</time>
      </trkpt>
      <trkpt lat="45.08122" lon="5.61367">
        <ele>1726.6</ele>
        <time>2010-11-19T15:10:57Z</time>
      </trkpt>
      <trkpt lat="45.08116" lon="5.6137">
        <ele>1725.6</ele>
        <time>2010-11-19T15:11:00Z</time>
      </trkpt>
      <trkpt lat="45.0811" lon="5.61372">
        <ele>1724.6</ele>
        <time>2010-11-19T15:11:03Z</time>
      </trkpt>
      <trkpt lat="45.08101" lon="5.61375">
        <ele>1722.4</ele>
        <time>2010-11-19T15:11:10Z</time>
      </trkpt>
      <trkpt lat="45.08098" lon="5.61376">
        <ele>1721.8</ele>
        <time>2010-11-19T15:11:12Z</time>
      </trkpt>
      <trkpt lat="45.08095" lon="5.61376">
        <ele>1720.8</ele>
        <time>2010-11-19T15:11:15Z</time>
      </trkpt>
      <trkpt lat="45.0809" lon="5.61377">
        <ele>1719.4</ele>
        <time>2010-11-19T15:11:19Z</time>
      </trkpt>
      <trkpt lat="45.0809" lon="5.61378">
        <ele>1719</ele>
        <time>2010-11-19T15:11:20Z</time>
      </trkpt>
      <trkpt lat="45.08089" lon="5.61384">
        <ele>1717.2</ele>
        <time>2010-11-19T15:11:25Z</time>
      </trkpt>
      <trkpt lat="45.0809" lon="5.61385">
        <ele>1716.8</ele>
        <time>2010-11-19T15:11:26Z</time>
      </trkpt>
      <trkpt lat="45.08094" lon="5.61389">
        <ele>1715.6</ele>
        <time>2010-11-19T15:11:29Z</time>
      </trkpt>
      <trkpt lat="45.08095" lon="5.6139">
        <ele>1715.2</ele>
        <time>2010-11-19T15:11:30Z</time>
      </trkpt>
      <trkpt lat="45.08097" lon="5.61392">
        <ele>1714.4</ele>
        <time>2010-11-19T15:11:32Z</time>
      </trkpt>
      <trkpt lat="45.08103" lon="5.61397">
        <ele>1712.2</ele>
        <time>2010-11-19T15:11:38Z</time>
      </trkpt>
      <trkpt lat="45.08104" lon="5.61398">
        <ele>1711.8</ele>
        <time>2010-11-19T15:11:39Z</time>
      </trkpt>
      <trkpt lat="45.08107" lon="5.61404">
        <ele>1710.2</ele>
        <time>2010-11-19T15:11:43Z</time>
      </trkpt>
      <trkpt lat="45.08107" lon="5.61405">
        <ele>1709.8</ele>
        <time>2010-11-19T15:11:44Z</time>
      </trkpt>
      <trkpt lat="45.08108" lon="5.61408">
        <ele>1709</ele>
        <time>2010-11-19T15:11:46Z</time>
      </trkpt>
      <trkpt lat="45.08113" lon="5.61417">
        <ele>1706</ele>
        <time>2010-11-19T15:11:53Z</time>
      </trkpt>
      <trkpt lat="45.08117" lon="5.61425">
        <ele>1703.4</ele>
        <time>2010-11-19T15:11:59Z</time>
      </trkpt>
      <trkpt lat="45.08118" lon="5.61426">
        <ele>1703</ele>
        <time>2010-11-19T15:12:00Z</time>
      </trkpt>
      <trkpt lat="45.08122" lon="5.61432">
        <ele>1700.8</ele>
        <time>2010-11-19T15:12:05Z</time>
      </trkpt>
      <trkpt lat="45.08126" lon="5.61438">
        <ele>1698.6</ele>
        <time>2010-11-19T15:12:10Z</time>
      </trkpt>
      <trkpt lat="45.08131" lon="5.61445">
        <ele>1696.2</ele>
        <time>2010-11-19T15:12:15Z</time>
      </trkpt>
      <trkpt lat="45.08133" lon="5.61447">
        <ele>1695.4</ele>
        <time>2010-11-19T15:12:17Z</time>
      </trkpt>
      <trkpt lat="45.08133" lon="5.61448">
        <ele>1694.6</ele>
        <time>2010-11-19T15:12:19Z</time>
      </trkpt>
      <trkpt lat="45.08133" lon="5.61449">
        <ele>1693.6</ele>
        <time>2010-11-19T15:12:21Z</time>
      </trkpt>
      <trkpt lat="45.08136" lon="5.61455">
        <ele>1689</ele>
        <time>2010-11-19T15:12:32Z</time>
      </trkpt>
      <trkpt lat="45.0814" lon="5.61467">
        <ele>1685.8</ele>
        <time>2010-11-19T15:12:39Z</time>
      </trkpt>
      <trkpt lat="45.08141" lon="5.61468">
        <ele>1685.4</ele>
        <time>2010-11-19T15:12:40Z</time>
      </trkpt>
      <trkpt lat="45.08144" lon="5.61475">
        <ele>1683</ele>
        <time>2010-11-19T15:12:45Z</time>
      </trkpt>
      <trkpt lat="45.08145" lon="5.61489">
        <ele>1679.6</ele>
        <time>2010-11-19T15:12:52Z</time>
      </trkpt>
      <trkpt lat="45.08145" lon="5.61491">
        <ele>1679.2</ele>
        <time>2010-11-19T15:12:53Z</time>
      </trkpt>
      <trkpt lat="45.08146" lon="5.615">
        <ele>1676.6</ele>
        <time>2010-11-19T15:12:58Z</time>
      </trkpt>
      <trkpt lat="45.08149" lon="5.6151">
        <ele>1673.6</ele>
        <time>2010-11-19T15:13:04Z</time>
      </trkpt>
      <trkpt lat="45.0815" lon="5.61515">
        <ele>1672.2</ele>
        <time>2010-11-19T15:13:07Z</time>
      </trkpt>
      <trkpt lat="45.08151" lon="5.61521">
        <ele>1670.6</ele>
        <time>2010-11-19T15:13:10Z</time>
      </trkpt>
      <trkpt lat="45.08157" lon="5.61533">
        <ele>1666.6</ele>
        <time>2010-11-19T15:13:18Z</time>
      </trkpt>
      <trkpt lat="45.08159" lon="5.61538">
        <ele>1665</ele>
        <time>2010-11-19T15:13:21Z</time>
      </trkpt>
      <trkpt lat="45.08161" lon="5.61543">
        <ele>1663.4</ele>
        <time>2010-11-19T15:13:24Z</time>
      </trkpt>
      <trkpt lat="45.08162" lon="5.61545">
        <ele>1662.8</ele>
        <time>2010-11-19T15:13:25Z</time>
      </trkpt>
      <trkpt lat="45.08165" lon="5.61552">
        <ele>1660.8</ele>
        <time>2010-11-19T15:13:29Z</time>
      </trkpt>
      <trkpt lat="45.08167" lon="5.61561">
        <ele>1657.6</ele>
        <time>2010-11-19T15:13:35Z</time>
      </trkpt>
      <trkpt lat="45.08168" lon="5.61562">
        <ele>1657</ele>
        <time>2010-11-19T15:13:36Z</time>
      </trkpt>
      <trkpt lat="45.0817" lon="5.61569">
        <ele>1653.8</ele>
        <time>2010-11-19T15:13:42Z</time>
      </trkpt>
      <trkpt lat="45.08175" lon="5.61576">
        <ele>1650.2</ele>
        <time>2010-11-19T15:13:49Z</time>
      </trkpt>
      <trkpt lat="45.08177" lon="5.61578">
        <ele>1649.2</ele>
        <time>2010-11-19T15:13:51Z</time>
      </trkpt>
      <trkpt lat="45.08179" lon="5.6158">
        <ele>1648.2</ele>
        <time>2010-11-19T15:13:53Z</time>
      </trkpt>
      <trkpt lat="45.08181" lon="5.61582">
        <ele>1647</ele>
        <time>2010-11-19T15:13:55Z</time>
      </trkpt>
      <trkpt lat="45.08183" lon="5.61583">
        <ele>1646</ele>
        <time>2010-11-19T15:13:57Z</time>
      </trkpt>
      <trkpt lat="45.08186" lon="5.61585">
        <ele>1644.6</ele>
        <time>2010-11-19T15:14:00Z</time>
      </trkpt>
      <trkpt lat="45.08191" lon="5.6159">
        <ele>1641.8</ele>
        <time>2010-11-19T15:14:05Z</time>
      </trkpt>
      <trkpt lat="45.08192" lon="5.61591">
        <ele>1641.4</ele>
        <time>2010-11-19T15:14:06Z</time>
      </trkpt>
      <trkpt lat="45.08196" lon="5.61594">
        <ele>1639.2</ele>
        <time>2010-11-19T15:14:10Z</time>
      </trkpt>
      <trkpt lat="45.08198" lon="5.61596">
        <ele>1638.2</ele>
        <time>2010-11-19T15:14:12Z</time>
      </trkpt>
      <trkpt lat="45.082" lon="5.616">
        <ele>1636</ele>
        <time>2010-11-19T15:14:16Z</time>
      </trkpt>
      <trkpt lat="45.08201" lon="5.61601">
        <ele>1635.6</ele>
        <time>2010-11-19T15:14:17Z</time>
      </trkpt>
      <trkpt lat="45.08202" lon="5.61603">
        <ele>1634.4</ele>
        <time>2010-11-19T15:14:19Z</time>
      </trkpt>
      <trkpt lat="45.08205" lon="5.61605">
        <ele>1632.8</ele>
        <time>2010-11-19T15:14:22Z</time>
      </trkpt>
      <trkpt lat="45.08211" lon="5.61607">
        <ele>1630.2</ele>
        <time>2010-11-19T15:14:27Z</time>
      </trkpt>
      <trkpt lat="45.08215" lon="5.61608">
        <ele>1628.6</ele>
        <time>2010-11-19T15:14:30Z</time>
      </trkpt>
      <trkpt lat="45.08221" lon="5.61615">
        <ele>1625.6</ele>
        <time>2010-11-19T15:14:36Z</time>
      </trkpt>
      <trkpt lat="45.08226" lon="5.61621">
        <ele>1622</ele>
        <time>2010-11-19T15:14:43Z</time>
      </trkpt>
      <trkpt lat="45.08227" lon="5.61627">
        <ele>1618.8</ele>
        <time>2010-11-19T15:14:49Z</time>
      </trkpt>
      <trkpt lat="45.08228" lon="5.61627">
        <ele>1618.2</ele>
        <time>2010-11-19T15:14:50Z</time>
      </trkpt>
      <trkpt lat="45.08234" lon="5.61626">
        <ele>1616.8</ele>
        <time>2010-11-19T15:14:54Z</time>
      </trkpt>
      <trkpt lat="45.08235" lon="5.61626">
        <ele>1615.8</ele>
        <time>2010-11-19T15:14:55Z</time>
      </trkpt>
      <trkpt lat="45.08239" lon="5.61622">
        <ele>1610.6</ele>
        <time>2010-11-19T15:15:06Z</time>
      </trkpt>
      <trkpt lat="45.0824" lon="5.61621">
        <ele>1610.2</ele>
        <time>2010-11-19T15:15:07Z</time>
      </trkpt>
      <trkpt lat="45.08245" lon="5.61617">
        <ele>1608</ele>
        <time>2010-11-19T15:15:12Z</time>
      </trkpt>
      <trkpt lat="45.08247" lon="5.61616">
        <ele>1606.6</ele>
        <time>2010-11-19T15:15:15Z</time>
      </trkpt>
      <trkpt lat="45.08248" lon="5.61617">
        <ele>1605.4</ele>
        <time>2010-11-19T15:15:18Z</time>
      </trkpt>
      <trkpt lat="45.08246" lon="5.61621">
        <ele>1604</ele>
        <time>2010-11-19T15:15:21Z</time>
      </trkpt>
      <trkpt lat="45.08246" lon="5.61622">
        <ele>1603.6</ele>
        <time>2010-11-19T15:15:22Z</time>
      </trkpt>
      <trkpt lat="45.08251" lon="5.61622">
        <ele>1602.4</ele>
        <time>2010-11-19T15:15:25Z</time>
      </trkpt>
      <trkpt lat="45.08252" lon="5.61622">
        <ele>1601.8</ele>
        <time>2010-11-19T15:15:26Z</time>
      </trkpt>
      <trkpt lat="45.08256" lon="5.61625">
        <ele>1600.2</ele>
        <time>2010-11-19T15:15:30Z</time>
      </trkpt>
      <trkpt lat="45.08256" lon="5.61627">
        <ele>1599.6</ele>
        <time>2010-11-19T15:15:31Z</time>
      </trkpt>
      <trkpt lat="45.08256" lon="5.61628">
        <ele>1599.2</ele>
        <time>2010-11-19T15:15:32Z</time>
      </trkpt>
      <trkpt lat="45.08257" lon="5.61629">
        <ele>1598.4</ele>
        <time>2010-11-19T15:15:34Z</time>
      </trkpt>
      <trkpt lat="45.0826" lon="5.61631">
        <ele>1597</ele>
        <time>2010-11-19T15:15:37Z</time>
      </trkpt>
      <trkpt lat="45.0826" lon="5.61635">
        <ele>1596</ele>
        <time>2010-11-19T15:15:39Z</time>
      </trkpt>
      <trkpt lat="45.08258" lon="5.61639">
        <ele>1595.2</ele>
        <time>2010-11-19T15:15:41Z</time>
      </trkpt>
      <trkpt lat="45.08255" lon="5.61642">
        <ele>1594.2</ele>
        <time>2010-11-19T15:15:43Z</time>
      </trkpt>
      <trkpt lat="45.08251" lon="5.61646">
        <ele>1591.8</ele>
        <time>2010-11-19T15:15:48Z</time>
      </trkpt>
      <trkpt lat="45.08252" lon="5.61647">
        <ele>1591.4</ele>
        <time>2010-11-19T15:15:49Z</time>
      </trkpt>
      <trkpt lat="45.08254" lon="5.61651">
        <ele>1589.8</ele>
        <time>2010-11-19T15:15:52Z</time>
      </trkpt>
      <trkpt lat="45.08254" lon="5.61653">
        <ele>1589.4</ele>
        <time>2010-11-19T15:15:53Z</time>
      </trkpt>
      <trkpt lat="45.08252" lon="5.61654">
        <ele>1588.2</ele>
        <time>2010-11-19T15:15:55Z</time>
      </trkpt>
      <trkpt lat="45.08249" lon="5.6166">
        <ele>1586.2</ele>
        <time>2010-11-19T15:15:59Z</time>
      </trkpt>
      <trkpt lat="45.08246" lon="5.61667">
        <ele>1584.2</ele>
        <time>2010-11-19T15:16:03Z</time>
      </trkpt>
      <trkpt lat="45.08244" lon="5.61669">
        <ele>1583.2</ele>
        <time>2010-11-19T15:16:05Z</time>
      </trkpt>
      <trkpt lat="45.08242" lon="5.61672">
        <ele>1582.2</ele>
        <time>2010-11-19T15:16:07Z</time>
      </trkpt>
      <trkpt lat="45.08243" lon="5.61675">
        <ele>1581.2</ele>
        <time>2010-11-19T15:16:09Z</time>
      </trkpt>
      <trkpt lat="45.08243" lon="5.61678">
        <ele>1580.6</ele>
        <time>2010-11-19T15:16:10Z</time>
      </trkpt>
      <trkpt lat="45.08241" lon="5.6168">
        <ele>1580.2</ele>
        <time>2010-11-19T15:16:11Z</time>
      </trkpt>
      <trkpt lat="45.08237" lon="5.61686">
        <ele>1578.6</ele>
        <time>2010-11-19T15:16:14Z</time>
      </trkpt>
      <trkpt lat="45.08235" lon="5.61691">
        <ele>1577.2</ele>
        <time>2010-11-19T15:16:17Z</time>
      </trkpt>
      <trkpt lat="45.08233" lon="5.61695">
        <ele>1576.2</ele>
        <time>2010-11-19T15:16:19Z</time>
      </trkpt>
      <trkpt lat="45.08232" lon="5.61701">
        <ele>1575.4</ele>
        <time>2010-11-19T15:16:21Z</time>
      </trkpt>
      <trkpt lat="45.0823" lon="5.61706">
        <ele>1574.6</ele>
        <time>2010-11-19T15:16:23Z</time>
      </trkpt>
      <trkpt lat="45.08228" lon="5.61712">
        <ele>1573.8</ele>
        <time>2010-11-19T15:16:25Z</time>
      </trkpt>
      <trkpt lat="45.08222" lon="5.61718">
        <ele>1572</ele>
        <time>2010-11-19T15:16:29Z</time>
      </trkpt>
      <trkpt lat="45.08218" lon="5.6172">
        <ele>1571</ele>
        <time>2010-11-19T15:16:31Z</time>
      </trkpt>
      <trkpt lat="45.08217" lon="5.61721">
        <ele>1570.8</ele>
        <time>2010-11-19T15:16:32Z</time>
      </trkpt>
      <trkpt lat="45.08215" lon="5.61724">
        <ele>1569.8</ele>
        <time>2010-11-19T15:16:34Z</time>
      </trkpt>
      <trkpt lat="45.08211" lon="5.61732">
        <ele>1568</ele>
        <time>2010-11-19T15:16:38Z</time>
      </trkpt>
      <trkpt lat="45.08209" lon="5.61736">
        <ele>1567</ele>
        <time>2010-11-19T15:16:40Z</time>
      </trkpt>
      <trkpt lat="45.08208" lon="5.61738">
        <ele>1566.6</ele>
        <time>2010-11-19T15:16:41Z</time>
      </trkpt>
      <trkpt lat="45.08207" lon="5.6174">
        <ele>1566.2</ele>
        <time>2010-11-19T15:16:42Z</time>
      </trkpt>
      <trkpt lat="45.08204" lon="5.61742">
        <ele>1564.6</ele>
        <time>2010-11-19T15:16:45Z</time>
      </trkpt>
      <trkpt lat="45.08202" lon="5.61744">
        <ele>1564.2</ele>
        <time>2010-11-19T15:16:46Z</time>
      </trkpt>
      <trkpt lat="45.08197" lon="5.61752">
        <ele>1562.4</ele>
        <time>2010-11-19T15:16:50Z</time>
      </trkpt>
      <trkpt lat="45.08193" lon="5.61757">
        <ele>1560.6</ele>
        <time>2010-11-19T15:16:54Z</time>
      </trkpt>
      <trkpt lat="45.08193" lon="5.61758">
        <ele>1560</ele>
        <time>2010-11-19T15:16:55Z</time>
      </trkpt>
      <trkpt lat="45.08198" lon="5.61762">
        <ele>1557.6</ele>
        <time>2010-11-19T15:17:00Z</time>
      </trkpt>
      <trkpt lat="45.08202" lon="5.61762">
        <ele>1555.6</ele>
        <time>2010-11-19T15:17:04Z</time>
      </trkpt>
      <trkpt lat="45.08202" lon="5.61763">
        <ele>1555</ele>
        <time>2010-11-19T15:17:05Z</time>
      </trkpt>
      <trkpt lat="45.08198" lon="5.61769">
        <ele>1553</ele>
        <time>2010-11-19T15:17:09Z</time>
      </trkpt>
      <trkpt lat="45.08197" lon="5.6177">
        <ele>1552.6</ele>
        <time>2010-11-19T15:17:10Z</time>
      </trkpt>
      <trkpt lat="45.08193" lon="5.61772">
        <ele>1551.6</ele>
        <time>2010-11-19T15:17:12Z</time>
      </trkpt>
      <trkpt lat="45.08188" lon="5.61779">
        <ele>1549.6</ele>
        <time>2010-11-19T15:17:16Z</time>
      </trkpt>
      <trkpt lat="45.08187" lon="5.61785">
        <ele>1547.2</ele>
        <time>2010-11-19T15:17:21Z</time>
      </trkpt>
      <trkpt lat="45.08188" lon="5.61786">
        <ele>1546.8</ele>
        <time>2010-11-19T15:17:22Z</time>
      </trkpt>
      <trkpt lat="45.08193" lon="5.61791">
        <ele>1545</ele>
        <time>2010-11-19T15:17:26Z</time>
      </trkpt>
      <trkpt lat="45.082" lon="5.61793">
        <ele>1542.6</ele>
        <time>2010-11-19T15:17:31Z</time>
      </trkpt>
      <trkpt lat="45.08202" lon="5.61793">
        <ele>1541.6</ele>
        <time>2010-11-19T15:17:33Z</time>
      </trkpt>
      <trkpt lat="45.08206" lon="5.61793">
        <ele>1540.8</ele>
        <time>2010-11-19T15:17:35Z</time>
      </trkpt>
      <trkpt lat="45.08209" lon="5.6179">
        <ele>1539.8</ele>
        <time>2010-11-19T15:17:37Z</time>
      </trkpt>
      <trkpt lat="45.08219" lon="5.61787">
        <ele>1537.2</ele>
        <time>2010-11-19T15:17:42Z</time>
      </trkpt>
      <trkpt lat="45.08221" lon="5.61788">
        <ele>1536.8</ele>
        <time>2010-11-19T15:17:43Z</time>
      </trkpt>
      <trkpt lat="45.08224" lon="5.61787">
        <ele>1535.8</ele>
        <time>2010-11-19T15:17:45Z</time>
      </trkpt>
      <trkpt lat="45.08228" lon="5.61788">
        <ele>1534.4</ele>
        <time>2010-11-19T15:17:48Z</time>
      </trkpt>
      <trkpt lat="45.08231" lon="5.61789">
        <ele>1533.4</ele>
        <time>2010-11-19T15:17:50Z</time>
      </trkpt>
      <trkpt lat="45.08233" lon="5.61789">
        <ele>1532.8</ele>
        <time>2010-11-19T15:17:51Z</time>
      </trkpt>
      <trkpt lat="45.08243" lon="5.61792">
        <ele>1530.2</ele>
        <time>2010-11-19T15:17:56Z</time>
      </trkpt>
      <trkpt lat="45.08248" lon="5.61794">
        <ele>1528.2</ele>
        <time>2010-11-19T15:18:00Z</time>
      </trkpt>
      <trkpt lat="45.08249" lon="5.61795">
        <ele>1527.6</ele>
        <time>2010-11-19T15:18:01Z</time>
      </trkpt>
      <trkpt lat="45.08256" lon="5.618">
        <ele>1525.4</ele>
        <time>2010-11-19T15:18:05Z</time>
      </trkpt>
      <trkpt lat="45.08257" lon="5.61802">
        <ele>1524.8</ele>
        <time>2010-11-19T15:18:06Z</time>
      </trkpt>
      <trkpt lat="45.08255" lon="5.61806">
        <ele>1523.4</ele>
        <time>2010-11-19T15:18:09Z</time>
      </trkpt>
      <trkpt lat="45.08255" lon="5.61807">
        <ele>1522.8</ele>
        <time>2010-11-19T15:18:10Z</time>
      </trkpt>
      <trkpt lat="45.08255" lon="5.61811">
        <ele>1521.2</ele>
        <time>2010-11-19T15:18:13Z</time>
      </trkpt>
      <trkpt lat="45.08255" lon="5.61814">
        <ele>1520.4</ele>
        <time>2010-11-19T15:18:15Z</time>
      </trkpt>
      <trkpt lat="45.08254" lon="5.61818">
        <ele>1518.4</ele>
        <time>2010-11-19T15:18:19Z</time>
      </trkpt>
      <trkpt lat="45.08252" lon="5.61825">
        <ele>1516.6</ele>
        <time>2010-11-19T15:18:23Z</time>
      </trkpt>
      <trkpt lat="45.08252" lon="5.61826">
        <ele>1516.2</ele>
        <time>2010-11-19T15:18:24Z</time>
      </trkpt>
      <trkpt lat="45.08249" lon="5.61834">
        <ele>1514.4</ele>
        <time>2010-11-19T15:18:28Z</time>
      </trkpt>
      <trkpt lat="45.08246" lon="5.61842">
        <ele>1512.4</ele>
        <time>2010-11-19T15:18:32Z</time>
      </trkpt>
      <trkpt lat="45.08247" lon="5.61843">
        <ele>1512</ele>
        <time>2010-11-19T15:18:33Z</time>
      </trkpt>
      <trkpt lat="45.08249" lon="5.61848">
        <ele>1510</ele>
        <time>2010-11-19T15:18:37Z</time>
      </trkpt>
      <trkpt lat="45.08249" lon="5.6185">
        <ele>1509.6</ele>
        <time>2010-11-19T15:18:38Z</time>
      </trkpt>
      <trkpt lat="45.0825" lon="5.61851">
        <ele>1509</ele>
        <time>2010-11-19T15:18:39Z</time>
      </trkpt>
      <trkpt lat="45.08253" lon="5.61853">
        <ele>1508.2</ele>
        <time>2010-11-19T15:18:41Z</time>
      </trkpt>
      <trkpt lat="45.08261" lon="5.61855">
        <ele>1506.4</ele>
        <time>2010-11-19T15:18:45Z</time>
      </trkpt>
      <trkpt lat="45.08265" lon="5.6186">
        <ele>1505.2</ele>
        <time>2010-11-19T15:18:48Z</time>
      </trkpt>
      <trkpt lat="45.08269" lon="5.61862">
        <ele>1504.2</ele>
        <time>2010-11-19T15:18:50Z</time>
      </trkpt>
      <trkpt lat="45.08276" lon="5.61865">
        <ele>1502</ele>
        <time>2010-11-19T15:18:55Z</time>
      </trkpt>
      <trkpt lat="45.08281" lon="5.61871">
        <ele>1500.2</ele>
        <time>2010-11-19T15:18:59Z</time>
      </trkpt>
      <trkpt lat="45.08283" lon="5.61874">
        <ele>1499</ele>
        <time>2010-11-19T15:19:01Z</time>
      </trkpt>
      <trkpt lat="45.08285" lon="5.61875">
        <ele>1496.4</ele>
        <time>2010-11-19T15:19:07Z</time>
      </trkpt>
      <trkpt lat="45.08283" lon="5.61876">
        <ele>1486.4</ele>
        <time>2010-11-19T15:19:34Z</time>
      </trkpt>
      <trkpt lat="45.08287" lon="5.61874">
        <ele>1482.6</ele>
        <time>2010-11-19T15:19:48Z</time>
      </trkpt>
      <trkpt lat="45.08291" lon="5.61878">
        <ele>1481.6</ele>
        <time>2010-11-19T15:19:51Z</time>
      </trkpt>
      <trkpt lat="45.08294" lon="5.6188">
        <ele>1480.8</ele>
        <time>2010-11-19T15:19:53Z</time>
      </trkpt>
      <trkpt lat="45.08295" lon="5.6188">
        <ele>1480.4</ele>
        <time>2010-11-19T15:19:54Z</time>
      </trkpt>
      <trkpt lat="45.08296" lon="5.61881">
        <ele>1480</ele>
        <time>2010-11-19T15:19:55Z</time>
      </trkpt>
      <trkpt lat="45.08299" lon="5.61885">
        <ele>1479</ele>
        <time>2010-11-19T15:19:58Z</time>
      </trkpt>
      <trkpt lat="45.08299" lon="5.61886">
        <ele>1478.6</ele>
        <time>2010-11-19T15:19:59Z</time>
      </trkpt>
      <trkpt lat="45.08297" lon="5.61891">
        <ele>1477.6</ele>
        <time>2010-11-19T15:20:02Z</time>
      </trkpt>
      <trkpt lat="45.08295" lon="5.61893">
        <ele>1476.8</ele>
        <time>2010-11-19T15:20:04Z</time>
      </trkpt>
      <trkpt lat="45.08293" lon="5.61893">
        <ele>1476</ele>
        <time>2010-11-19T15:20:06Z</time>
      </trkpt>
      <trkpt lat="45.08291" lon="5.61895">
        <ele>1475.4</ele>
        <time>2010-11-19T15:20:08Z</time>
      </trkpt>
      <trkpt lat="45.08288" lon="5.61896">
        <ele>1474.2</ele>
        <time>2010-11-19T15:20:11Z</time>
      </trkpt>
      <trkpt lat="45.08284" lon="5.619">
        <ele>1472.8</ele>
        <time>2010-11-19T15:20:15Z</time>
      </trkpt>
      <trkpt lat="45.0828" lon="5.61905">
        <ele>1471.8</ele>
        <time>2010-11-19T15:20:18Z</time>
      </trkpt>
      <trkpt lat="45.08278" lon="5.61908">
        <ele>1471</ele>
        <time>2010-11-19T15:20:20Z</time>
      </trkpt>
      <trkpt lat="45.08277" lon="5.6191">
        <ele>1470.6</ele>
        <time>2010-11-19T15:20:21Z</time>
      </trkpt>
      <trkpt lat="45.08274" lon="5.61915">
        <ele>1469.6</ele>
        <time>2010-11-19T15:20:24Z</time>
      </trkpt>
      <trkpt lat="45.08272" lon="5.61917">
        <ele>1469</ele>
        <time>2010-11-19T15:20:26Z</time>
      </trkpt>
      <trkpt lat="45.08267" lon="5.6192">
        <ele>1466.8</ele>
        <time>2010-11-19T15:20:32Z</time>
      </trkpt>
      <trkpt lat="45.08266" lon="5.61921">
        <ele>1466.6</ele>
        <time>2010-11-19T15:20:33Z</time>
      </trkpt>
      <trkpt lat="45.08263" lon="5.61923">
        <ele>1465.4</ele>
        <time>2010-11-19T15:20:36Z</time>
      </trkpt>
      <trkpt lat="45.08261" lon="5.61925">
        <ele>1464.2</ele>
        <time>2010-11-19T15:20:39Z</time>
      </trkpt>
      <trkpt lat="45.08259" lon="5.61926">
        <ele>1463.8</ele>
        <time>2010-11-19T15:20:40Z</time>
      </trkpt>
      <trkpt lat="45.08256" lon="5.61928">
        <ele>1462.8</ele>
        <time>2010-11-19T15:20:43Z</time>
      </trkpt>
      <trkpt lat="45.08252" lon="5.61931">
        <ele>1462</ele>
        <time>2010-11-19T15:20:45Z</time>
      </trkpt>
      <trkpt lat="45.0825" lon="5.61938">
        <ele>1460.6</ele>
        <time>2010-11-19T15:20:49Z</time>
      </trkpt>
      <trkpt lat="45.08249" lon="5.61939">
        <ele>1460.4</ele>
        <time>2010-11-19T15:20:50Z</time>
      </trkpt>
      <trkpt lat="45.08255" lon="5.61943">
        <ele>1458.2</ele>
        <time>2010-11-19T15:20:55Z</time>
      </trkpt>
      <trkpt lat="45.0826" lon="5.6195">
        <ele>1456.2</ele>
        <time>2010-11-19T15:21:00Z</time>
      </trkpt>
      <trkpt lat="45.08262" lon="5.61956">
        <ele>1454.6</ele>
        <time>2010-11-19T15:21:04Z</time>
      </trkpt>
      <trkpt lat="45.08261" lon="5.61957">
        <ele>1454.2</ele>
        <time>2010-11-19T15:21:05Z</time>
      </trkpt>
      <trkpt lat="45.08259" lon="5.61957">
        <ele>1453.2</ele>
        <time>2010-11-19T15:21:07Z</time>
      </trkpt>
      <trkpt lat="45.08254" lon="5.61961">
        <ele>1451.6</ele>
        <time>2010-11-19T15:21:11Z</time>
      </trkpt>
      <trkpt lat="45.08252" lon="5.61963">
        <ele>1450.8</ele>
        <time>2010-11-19T15:21:13Z</time>
      </trkpt>
      <trkpt lat="45.08249" lon="5.61966">
        <ele>1449.6</ele>
        <time>2010-11-19T15:21:16Z</time>
      </trkpt>
      <trkpt lat="45.08245" lon="5.61965">
        <ele>1448.4</ele>
        <time>2010-11-19T15:21:19Z</time>
      </trkpt>
      <trkpt lat="45.08245" lon="5.61966">
        <ele>1448</ele>
        <time>2010-11-19T15:21:20Z</time>
      </trkpt>
      <trkpt lat="45.08244" lon="5.61967">
        <ele>1447.6</ele>
        <time>2010-11-19T15:21:21Z</time>
      </trkpt>
      <trkpt lat="45.08244" lon="5.61968">
        <ele>1447.2</ele>
        <time>2010-11-19T15:21:22Z</time>
      </trkpt>
      <trkpt lat="45.08243" lon="5.61975">
        <ele>1445.6</ele>
        <time>2010-11-19T15:21:26Z</time>
      </trkpt>
      <trkpt lat="45.08242" lon="5.61979">
        <ele>1445</ele>
        <time>2010-11-19T15:21:28Z</time>
      </trkpt>
      <trkpt lat="45.08241" lon="5.61981">
        <ele>1444.2</ele>
        <time>2010-11-19T15:21:30Z</time>
      </trkpt>
      <trkpt lat="45.0824" lon="5.61984">
        <ele>1442.8</ele>
        <time>2010-11-19T15:21:33Z</time>
      </trkpt>
      <trkpt lat="45.08238" lon="5.61985">
        <ele>1441.6</ele>
        <time>2010-11-19T15:21:36Z</time>
      </trkpt>
      <trkpt lat="45.08237" lon="5.61985">
        <ele>1441.2</ele>
        <time>2010-11-19T15:21:37Z</time>
      </trkpt>
      <trkpt lat="45.08236" lon="5.61984">
        <ele>1440.8</ele>
        <time>2010-11-19T15:21:38Z</time>
      </trkpt>
      <trkpt lat="45.08234" lon="5.61987">
        <ele>1439</ele>
        <time>2010-11-19T15:21:42Z</time>
      </trkpt>
      <trkpt lat="45.08234" lon="5.61989">
        <ele>1438.6</ele>
        <time>2010-11-19T15:21:43Z</time>
      </trkpt>
      <trkpt lat="45.08234" lon="5.61989">
        <ele>1437.6</ele>
        <time>2010-11-19T15:21:45Z</time>
      </trkpt>
      <trkpt lat="45.08231" lon="5.61992">
        <ele>1436.4</ele>
        <time>2010-11-19T15:21:48Z</time>
      </trkpt>
      <trkpt lat="45.08229" lon="5.61993">
        <ele>1436</ele>
        <time>2010-11-19T15:21:49Z</time>
      </trkpt>
      <trkpt lat="45.08227" lon="5.61994">
        <ele>1435.2</ele>
        <time>2010-11-19T15:21:51Z</time>
      </trkpt>
      <trkpt lat="45.08224" lon="5.61993">
        <ele>1433.8</ele>
        <time>2010-11-19T15:21:54Z</time>
      </trkpt>
      <trkpt lat="45.08222" lon="5.61993">
        <ele>1432.6</ele>
        <time>2010-11-19T15:21:57Z</time>
      </trkpt>
      <trkpt lat="45.08221" lon="5.61993">
        <ele>1432.2</ele>
        <time>2010-11-19T15:21:58Z</time>
      </trkpt>
      <trkpt lat="45.08219" lon="5.61994">
        <ele>1431.4</ele>
        <time>2010-11-19T15:22:00Z</time>
      </trkpt>
      <trkpt lat="45.08217" lon="5.61997">
        <ele>1430.6</ele>
        <time>2010-11-19T15:22:02Z</time>
      </trkpt>
      <trkpt lat="45.08218" lon="5.62003">
        <ele>1429.2</ele>
        <time>2010-11-19T15:22:05Z</time>
      </trkpt>
      <trkpt lat="45.08215" lon="5.62013">
        <ele>1427</ele>
        <time>2010-11-19T15:22:11Z</time>
      </trkpt>
      <trkpt lat="45.08215" lon="5.62017">
        <ele>1426.4</ele>
        <time>2010-11-19T15:22:13Z</time>
      </trkpt>
      <trkpt lat="45.08214" lon="5.62018">
        <ele>1425.6</ele>
        <time>2010-11-19T15:22:15Z</time>
      </trkpt>
      <trkpt lat="45.08213" lon="5.62019">
        <ele>1425.2</ele>
        <time>2010-11-19T15:22:16Z</time>
      </trkpt>
      <trkpt lat="45.08209" lon="5.62019">
        <ele>1424.2</ele>
        <time>2010-11-19T15:22:19Z</time>
      </trkpt>
      <trkpt lat="45.08206" lon="5.62022">
        <ele>1422.8</ele>
        <time>2010-11-19T15:22:23Z</time>
      </trkpt>
      <trkpt lat="45.08209" lon="5.62028">
        <ele>1421</ele>
        <time>2010-11-19T15:22:28Z</time>
      </trkpt>
      <trkpt lat="45.0821" lon="5.62029">
        <ele>1420</ele>
        <time>2010-11-19T15:22:30Z</time>
      </trkpt>
      <trkpt lat="45.08212" lon="5.6203">
        <ele>1419.6</ele>
        <time>2010-11-19T15:22:31Z</time>
      </trkpt>
      <trkpt lat="45.08212" lon="5.62031">
        <ele>1419.2</ele>
        <time>2010-11-19T15:22:32Z</time>
      </trkpt>
      <trkpt lat="45.08209" lon="5.62032">
        <ele>1418.4</ele>
        <time>2010-11-19T15:22:34Z</time>
      </trkpt>
      <trkpt lat="45.08205" lon="5.62034">
        <ele>1416.2</ele>
        <time>2010-11-19T15:22:39Z</time>
      </trkpt>
      <trkpt lat="45.08204" lon="5.62034">
        <ele>1415.4</ele>
        <time>2010-11-19T15:22:41Z</time>
      </trkpt>
      <trkpt lat="45.08206" lon="5.62041">
        <ele>1413</ele>
        <time>2010-11-19T15:22:47Z</time>
      </trkpt>
      <trkpt lat="45.08201" lon="5.62042">
        <ele>1411.4</ele>
        <time>2010-11-19T15:22:51Z</time>
      </trkpt>
      <trkpt lat="45.082" lon="5.62042">
        <ele>1411</ele>
        <time>2010-11-19T15:22:52Z</time>
      </trkpt>
      <trkpt lat="45.08195" lon="5.62045">
        <ele>1409</ele>
        <time>2010-11-19T15:22:57Z</time>
      </trkpt>
      <trkpt lat="45.08196" lon="5.6205">
        <ele>1407.4</ele>
        <time>2010-11-19T15:23:01Z</time>
      </trkpt>
      <trkpt lat="45.082" lon="5.62053">
        <ele>1405.4</ele>
        <time>2010-11-19T15:23:06Z</time>
      </trkpt>
      <trkpt lat="45.08202" lon="5.62055">
        <ele>1404.6</ele>
        <time>2010-11-19T15:23:08Z</time>
      </trkpt>
      <trkpt lat="45.08202" lon="5.62056">
        <ele>1404.2</ele>
        <time>2010-11-19T15:23:09Z</time>
      </trkpt>
      <trkpt lat="45.08208" lon="5.62062">
        <ele>1401.6</ele>
        <time>2010-11-19T15:23:15Z</time>
      </trkpt>
      <trkpt lat="45.08209" lon="5.62063">
        <ele>1401</ele>
        <time>2010-11-19T15:23:16Z</time>
      </trkpt>
      <trkpt lat="45.08215" lon="5.62064">
        <ele>1399.4</ele>
        <time>2010-11-19T15:23:20Z</time>
      </trkpt>
      <trkpt lat="45.08216" lon="5.62064">
        <ele>1399</ele>
        <time>2010-11-19T15:23:21Z</time>
      </trkpt>
      <trkpt lat="45.08217" lon="5.62066">
        <ele>1398.2</ele>
        <time>2010-11-19T15:23:23Z</time>
      </trkpt>
      <trkpt lat="45.08218" lon="5.62068">
        <ele>1397.8</ele>
        <time>2010-11-19T15:23:24Z</time>
      </trkpt>
      <trkpt lat="45.08222" lon="5.62072">
        <ele>1396.8</ele>
        <time>2010-11-19T15:23:27Z</time>
      </trkpt>
      <trkpt lat="45.08224" lon="5.62085">
        <ele>1395.2</ele>
        <time>2010-11-19T15:23:32Z</time>
      </trkpt>
      <trkpt lat="45.08223" lon="5.6209">
        <ele>1394.8</ele>
        <time>2010-11-19T15:23:34Z</time>
      </trkpt>
      <trkpt lat="45.08224" lon="5.62091">
        <ele>1394.6</ele>
        <time>2010-11-19T15:23:35Z</time>
      </trkpt>
      <trkpt lat="45.08224" lon="5.62094">
        <ele>1394</ele>
        <time>2010-11-19T15:23:37Z</time>
      </trkpt>
      <trkpt lat="45.08227" lon="5.62104">
        <ele>1392</ele>
        <time>2010-11-19T15:23:43Z</time>
      </trkpt>
      <trkpt lat="45.08228" lon="5.62106">
        <ele>1391.8</ele>
        <time>2010-11-19T15:23:44Z</time>
      </trkpt>
      <trkpt lat="45.08231" lon="5.62108">
        <ele>1390.6</ele>
        <time>2010-11-19T15:23:47Z</time>
      </trkpt>
      <trkpt lat="45.08232" lon="5.62109">
        <ele>1390.4</ele>
        <time>2010-11-19T15:23:48Z</time>
      </trkpt>
      <trkpt lat="45.08234" lon="5.62112">
        <ele>1389.2</ele>
        <time>2010-11-19T15:23:51Z</time>
      </trkpt>
      <trkpt lat="45.08235" lon="5.62113">
        <ele>1388.8</ele>
        <time>2010-11-19T15:23:52Z</time>
      </trkpt>
      <trkpt lat="45.08236" lon="5.62115">
        <ele>1388</ele>
        <time>2010-11-19T15:23:54Z</time>
      </trkpt>
      <trkpt lat="45.08237" lon="5.62116">
        <ele>1387.6</ele>
        <time>2010-11-19T15:23:55Z</time>
      </trkpt>
      <trkpt lat="45.08238" lon="5.62116">
        <ele>1387.2</ele>
        <time>2010-11-19T15:23:56Z</time>
      </trkpt>
      <trkpt lat="45.08241" lon="5.6212">
        <ele>1385.6</ele>
        <time>2010-11-19T15:24:00Z</time>
      </trkpt>
      <trkpt lat="45.08244" lon="5.62122">
        <ele>1384.8</ele>
        <time>2010-11-19T15:24:02Z</time>
      </trkpt>
      <trkpt lat="45.08246" lon="5.62123">
        <ele>1384</ele>
        <time>2010-11-19T15:24:04Z</time>
      </trkpt>
      <trkpt lat="45.08249" lon="5.62127">
        <ele>1382.6</ele>
        <time>2010-11-19T15:24:07Z</time>
      </trkpt>
      <trkpt lat="45.08249" lon="5.62129">
        <ele>1382.2</ele>
        <time>2010-11-19T15:24:08Z</time>
      </trkpt>
      <trkpt lat="45.08251" lon="5.62132">
        <ele>1381.2</ele>
        <time>2010-11-19T15:24:10Z</time>
      </trkpt>
      <trkpt lat="45.08259" lon="5.6214">
        <ele>1378.8</ele>
        <time>2010-11-19T15:24:16Z</time>
      </trkpt>
      <trkpt lat="45.08264" lon="5.62146">
        <ele>1377.8</ele>
        <time>2010-11-19T15:24:19Z</time>
      </trkpt>
      <trkpt lat="45.08267" lon="5.62151">
        <ele>1377</ele>
        <time>2010-11-19T15:24:22Z</time>
      </trkpt>
      <trkpt lat="45.08268" lon="5.62153">
        <ele>1376.6</ele>
        <time>2010-11-19T15:24:23Z</time>
      </trkpt>
      <trkpt lat="45.08267" lon="5.62159">
        <ele>1375.4</ele>
        <time>2010-11-19T15:24:27Z</time>
      </trkpt>
      <trkpt lat="45.08266" lon="5.62167">
        <ele>1373.6</ele>
        <time>2010-11-19T15:24:33Z</time>
      </trkpt>
      <trkpt lat="45.08266" lon="5.62169">
        <ele>1373.2</ele>
        <time>2010-11-19T15:24:34Z</time>
      </trkpt>
      <trkpt lat="45.08266" lon="5.62171">
        <ele>1373</ele>
        <time>2010-11-19T15:24:35Z</time>
      </trkpt>
      <trkpt lat="45.08264" lon="5.62175">
        <ele>1372</ele>
        <time>2010-11-19T15:24:38Z</time>
      </trkpt>
      <trkpt lat="45.08261" lon="5.62178">
        <ele>1371</ele>
        <time>2010-11-19T15:24:41Z</time>
      </trkpt>
      <trkpt lat="45.08257" lon="5.6218">
        <ele>1369.6</ele>
        <time>2010-11-19T15:24:45Z</time>
      </trkpt>
      <trkpt lat="45.08255" lon="5.62181">
        <ele>1369</ele>
        <time>2010-11-19T15:24:47Z</time>
      </trkpt>
      <trkpt lat="45.0825" lon="5.62185">
        <ele>1367.4</ele>
        <time>2010-11-19T15:24:52Z</time>
      </trkpt>
      <trkpt lat="45.08249" lon="5.62186">
        <ele>1367</ele>
        <time>2010-11-19T15:24:53Z</time>
      </trkpt>
      <trkpt lat="45.08248" lon="5.62189">
        <ele>1366.4</ele>
        <time>2010-11-19T15:24:55Z</time>
      </trkpt>
      <trkpt lat="45.08247" lon="5.62194">
        <ele>1365.4</ele>
        <time>2010-11-19T15:24:58Z</time>
      </trkpt>
      <trkpt lat="45.08247" lon="5.62196">
        <ele>1364.4</ele>
        <time>2010-11-19T15:25:01Z</time>
      </trkpt>
      <trkpt lat="45.08245" lon="5.62201">
        <ele>1363.6</ele>
        <time>2010-11-19T15:25:04Z</time>
      </trkpt>
      <trkpt lat="45.08246" lon="5.62202">
        <ele>1362.8</ele>
        <time>2010-11-19T15:25:06Z</time>
      </trkpt>
      <trkpt lat="45.08249" lon="5.62208">
        <ele>1360.6</ele>
        <time>2010-11-19T15:25:12Z</time>
      </trkpt>
      <trkpt lat="45.08252" lon="5.62214">
        <ele>1358.8</ele>
        <time>2010-11-19T15:25:17Z</time>
      </trkpt>
      <trkpt lat="45.08252" lon="5.62218">
        <ele>1358</ele>
        <time>2010-11-19T15:25:19Z</time>
      </trkpt>
      <trkpt lat="45.08252" lon="5.62221">
        <ele>1357.4</ele>
        <time>2010-11-19T15:25:21Z</time>
      </trkpt>
      <trkpt lat="45.08252" lon="5.62223">
        <ele>1357</ele>
        <time>2010-11-19T15:25:22Z</time>
      </trkpt>
      <trkpt lat="45.08253" lon="5.62229">
        <ele>1355.8</ele>
        <time>2010-11-19T15:25:26Z</time>
      </trkpt>
      <trkpt lat="45.08254" lon="5.6223">
        <ele>1355.4</ele>
        <time>2010-11-19T15:25:27Z</time>
      </trkpt>
      <trkpt lat="45.08255" lon="5.62233">
        <ele>1354.8</ele>
        <time>2010-11-19T15:25:29Z</time>
      </trkpt>
      <trkpt lat="45.08256" lon="5.62236">
        <ele>1353.8</ele>
        <time>2010-11-19T15:25:32Z</time>
      </trkpt>
      <trkpt lat="45.08257" lon="5.62239">
        <ele>1353.4</ele>
        <time>2010-11-19T15:25:34Z</time>
      </trkpt>
      <trkpt lat="45.08258" lon="5.62242">
        <ele>1352.4</ele>
        <time>2010-11-19T15:25:37Z</time>
      </trkpt>
      <trkpt lat="45.08259" lon="5.62243">
        <ele>1352</ele>
        <time>2010-11-19T15:25:38Z</time>
      </trkpt>
      <trkpt lat="45.0826" lon="5.62248">
        <ele>1351</ele>
        <time>2010-11-19T15:25:41Z</time>
      </trkpt>
      <trkpt lat="45.08261" lon="5.62254">
        <ele>1349.4</ele>
        <time>2010-11-19T15:25:46Z</time>
      </trkpt>
      <trkpt lat="45.08261" lon="5.62257">
        <ele>1348.4</ele>
        <time>2010-11-19T15:25:49Z</time>
      </trkpt>
      <trkpt lat="45.08264" lon="5.62267">
        <ele>1345.4</ele>
        <time>2010-11-19T15:25:57Z</time>
      </trkpt>
      <trkpt lat="45.08264" lon="5.6227">
        <ele>1344.4</ele>
        <time>2010-11-19T15:26:00Z</time>
      </trkpt>
      <trkpt lat="45.08264" lon="5.62274">
        <ele>1343.2</ele>
        <time>2010-11-19T15:26:03Z</time>
      </trkpt>
      <trkpt lat="45.08264" lon="5.62277">
        <ele>1342.4</ele>
        <time>2010-11-19T15:26:05Z</time>
      </trkpt>
      <trkpt lat="45.08264" lon="5.62281">
        <ele>1341.2</ele>
        <time>2010-11-19T15:26:08Z</time>
      </trkpt>
      <trkpt lat="45.08264" lon="5.62282">
        <ele>1340.8</ele>
        <time>2010-11-19T15:26:09Z</time>
      </trkpt>
      <trkpt lat="45.08263" lon="5.62288">
        <ele>1339.2</ele>
        <time>2010-11-19T15:26:14Z</time>
      </trkpt>
      <trkpt lat="45.08263" lon="5.62291">
        <ele>1338.6</ele>
        <time>2010-11-19T15:26:16Z</time>
      </trkpt>
      <trkpt lat="45.08263" lon="5.62294">
        <ele>1337.8</ele>
        <time>2010-11-19T15:26:18Z</time>
      </trkpt>
      <trkpt lat="45.08262" lon="5.62298">
        <ele>1336.8</ele>
        <time>2010-11-19T15:26:21Z</time>
      </trkpt>
      <trkpt lat="45.0826" lon="5.623">
        <ele>1336</ele>
        <time>2010-11-19T15:26:23Z</time>
      </trkpt>
      <trkpt lat="45.08257" lon="5.62304">
        <ele>1335.2</ele>
        <time>2010-11-19T15:26:26Z</time>
      </trkpt>
      <trkpt lat="45.08256" lon="5.62306">
        <ele>1334.8</ele>
        <time>2010-11-19T15:26:27Z</time>
      </trkpt>
      <trkpt lat="45.08254" lon="5.6231">
        <ele>1333.8</ele>
        <time>2010-11-19T15:26:30Z</time>
      </trkpt>
      <trkpt lat="45.08253" lon="5.6232">
        <ele>1332.6</ele>
        <time>2010-11-19T15:26:34Z</time>
      </trkpt>
      <trkpt lat="45.08252" lon="5.62323">
        <ele>1331.8</ele>
        <time>2010-11-19T15:26:36Z</time>
      </trkpt>
      <trkpt lat="45.08247" lon="5.62329">
        <ele>1330.2</ele>
        <time>2010-11-19T15:26:41Z</time>
      </trkpt>
      <trkpt lat="45.08244" lon="5.62332">
        <ele>1329.6</ele>
        <time>2010-11-19T15:26:43Z</time>
      </trkpt>
      <trkpt lat="45.0824" lon="5.62342">
        <ele>1327.2</ele>
        <time>2010-11-19T15:26:50Z</time>
      </trkpt>
      <trkpt lat="45.08238" lon="5.62352">
        <ele>1325.2</ele>
        <time>2010-11-19T15:26:56Z</time>
      </trkpt>
      <trkpt lat="45.08236" lon="5.62352">
        <ele>1323.2</ele>
        <time>2010-11-19T15:27:02Z</time>
      </trkpt>
      <trkpt lat="45.08233" lon="5.62351">
        <ele>1310.2</ele>
        <time>2010-11-19T15:27:57Z</time>
      </trkpt>
      <trkpt lat="45.08235" lon="5.6236">
        <ele>1306.2</ele>
        <time>2010-11-19T15:28:23Z</time>
      </trkpt>
      <trkpt lat="45.08235" lon="5.62362">
        <ele>1306.2</ele>
        <time>2010-11-19T15:28:24Z</time>
      </trkpt>
      <trkpt lat="45.08237" lon="5.62368">
        <ele>1305.6</ele>
        <time>2010-11-19T15:28:28Z</time>
      </trkpt>
      <trkpt lat="45.08236" lon="5.6237">
        <ele>1305.2</ele>
        <time>2010-11-19T15:28:30Z</time>
      </trkpt>
      <trkpt lat="45.08234" lon="5.62367">
        <ele>1304.6</ele>
        <time>2010-11-19T15:28:33Z</time>
      </trkpt>
      <trkpt lat="45.08234" lon="5.62366">
        <ele>1304.2</ele>
        <time>2010-11-19T15:28:35Z</time>
      </trkpt>
      <trkpt lat="45.08232" lon="5.62367">
        <ele>1303.6</ele>
        <time>2010-11-19T15:28:38Z</time>
      </trkpt>
      <trkpt lat="45.08231" lon="5.62366">
        <ele>1303.4</ele>
        <time>2010-11-19T15:28:39Z</time>
      </trkpt>
      <trkpt lat="45.08226" lon="5.62363">
        <ele>1302.6</ele>
        <time>2010-11-19T15:28:44Z</time>
      </trkpt>
      <trkpt lat="45.08225" lon="5.62361">
        <ele>1302.4</ele>
        <time>2010-11-19T15:28:45Z</time>
      </trkpt>
      <trkpt lat="45.08222" lon="5.62354">
        <ele>1301.6</ele>
        <time>2010-11-19T15:28:49Z</time>
      </trkpt>
      <trkpt lat="45.08222" lon="5.62354">
        <ele>1301.4</ele>
        <time>2010-11-19T15:28:50Z</time>
      </trkpt>
      <trkpt lat="45.08221" lon="5.62354">
        <ele>1300.4</ele>
        <time>2010-11-19T15:28:54Z</time>
      </trkpt>
      <trkpt lat="45.08219" lon="5.6235">
        <ele>1299.6</ele>
        <time>2010-11-19T15:28:58Z</time>
      </trkpt>
      <trkpt lat="45.08217" lon="5.62351">
        <ele>1299</ele>
        <time>2010-11-19T15:29:02Z</time>
      </trkpt>
      <trkpt lat="45.08216" lon="5.62354">
        <ele>1298.6</ele>
        <time>2010-11-19T15:29:03Z</time>
      </trkpt>
      <trkpt lat="45.08215" lon="5.62356">
        <ele>1298.2</ele>
        <time>2010-11-19T15:29:05Z</time>
      </trkpt>
      <trkpt lat="45.08214" lon="5.62357">
        <ele>1297.8</ele>
        <time>2010-11-19T15:29:07Z</time>
      </trkpt>
      <trkpt lat="45.08212" lon="5.62359">
        <ele>1296.8</ele>
        <time>2010-11-19T15:29:12Z</time>
      </trkpt>
      <trkpt lat="45.0821" lon="5.62362">
        <ele>1296</ele>
        <time>2010-11-19T15:29:16Z</time>
      </trkpt>
      <trkpt lat="45.0821" lon="5.62363">
        <ele>1295</ele>
        <time>2010-11-19T15:29:21Z</time>
      </trkpt>
      <trkpt lat="45.08207" lon="5.62363">
        <ele>1293.4</ele>
        <time>2010-11-19T15:29:28Z</time>
      </trkpt>
      <trkpt lat="45.08204" lon="5.62373">
        <ele>1292.2</ele>
        <time>2010-11-19T15:29:34Z</time>
      </trkpt>
      <trkpt lat="45.08203" lon="5.62376">
        <ele>1291.8</ele>
        <time>2010-11-19T15:29:36Z</time>
      </trkpt>
      <trkpt lat="45.08202" lon="5.62379">
        <ele>1291.4</ele>
        <time>2010-11-19T15:29:38Z</time>
      </trkpt>
      <trkpt lat="45.08201" lon="5.62382">
        <ele>1291</ele>
        <time>2010-11-19T15:29:40Z</time>
      </trkpt>
      <trkpt lat="45.08202" lon="5.62394">
        <ele>1290</ele>
        <time>2010-11-19T15:29:44Z</time>
      </trkpt>
      <trkpt lat="45.08204" lon="5.62402">
        <ele>1289.2</ele>
        <time>2010-11-19T15:29:47Z</time>
      </trkpt>
      <trkpt lat="45.08203" lon="5.62407">
        <ele>1288.6</ele>
        <time>2010-11-19T15:29:49Z</time>
      </trkpt>
      <trkpt lat="45.08201" lon="5.62411">
        <ele>1288.2</ele>
        <time>2010-11-19T15:29:51Z</time>
      </trkpt>
      <trkpt lat="45.08201" lon="5.62414">
        <ele>1287.4</ele>
        <time>2010-11-19T15:29:55Z</time>
      </trkpt>
      <trkpt lat="45.08201" lon="5.62419">
        <ele>1286.6</ele>
        <time>2010-11-19T15:29:59Z</time>
      </trkpt>
      <trkpt lat="45.082" lon="5.6242">
        <ele>1286.4</ele>
        <time>2010-11-19T15:30:00Z</time>
      </trkpt>
      <trkpt lat="45.08199" lon="5.62421">
        <ele>1285.6</ele>
        <time>2010-11-19T15:30:03Z</time>
      </trkpt>
      <trkpt lat="45.08196" lon="5.62425">
        <ele>1284.2</ele>
        <time>2010-11-19T15:30:08Z</time>
      </trkpt>
      <trkpt lat="45.08196" lon="5.62427">
        <ele>1284</ele>
        <time>2010-11-19T15:30:09Z</time>
      </trkpt>
      <trkpt lat="45.08196" lon="5.62428">
        <ele>1283.8</ele>
        <time>2010-11-19T15:30:10Z</time>
      </trkpt>
      <trkpt lat="45.08193" lon="5.6243">
        <ele>1283.2</ele>
        <time>2010-11-19T15:30:13Z</time>
      </trkpt>
      <trkpt lat="45.08188" lon="5.62434">
        <ele>1282.2</ele>
        <time>2010-11-19T15:30:18Z</time>
      </trkpt>
      <trkpt lat="45.08186" lon="5.62435">
        <ele>1282</ele>
        <time>2010-11-19T15:30:19Z</time>
      </trkpt>
      <trkpt lat="45.08183" lon="5.6244">
        <ele>1281.4</ele>
        <time>2010-11-19T15:30:22Z</time>
      </trkpt>
      <trkpt lat="45.08182" lon="5.62441">
        <ele>1281.2</ele>
        <time>2010-11-19T15:30:23Z</time>
      </trkpt>
      <trkpt lat="45.08177" lon="5.62449">
        <ele>1279.8</ele>
        <time>2010-11-19T15:30:29Z</time>
      </trkpt>
      <trkpt lat="45.08177" lon="5.62451">
        <ele>1279.2</ele>
        <time>2010-11-19T15:30:31Z</time>
      </trkpt>
      <trkpt lat="45.08174" lon="5.62457">
        <ele>1278</ele>
        <time>2010-11-19T15:30:35Z</time>
      </trkpt>
      <trkpt lat="45.08174" lon="5.62459">
        <ele>1277.8</ele>
        <time>2010-11-19T15:30:36Z</time>
      </trkpt>
      <trkpt lat="45.08172" lon="5.62462">
        <ele>1277.2</ele>
        <time>2010-11-19T15:30:38Z</time>
      </trkpt>
      <trkpt lat="45.08171" lon="5.62463">
        <ele>1277</ele>
        <time>2010-11-19T15:30:39Z</time>
      </trkpt>
      <trkpt lat="45.08169" lon="5.62466">
        <ele>1276.4</ele>
        <time>2010-11-19T15:30:41Z</time>
      </trkpt>
      <trkpt lat="45.08165" lon="5.62472">
        <ele>1275.2</ele>
        <time>2010-11-19T15:30:45Z</time>
      </trkpt>
      <trkpt lat="45.08164" lon="5.62475">
        <ele>1274.6</ele>
        <time>2010-11-19T15:30:47Z</time>
      </trkpt>
      <trkpt lat="45.08162" lon="5.62477">
        <ele>1274</ele>
        <time>2010-11-19T15:30:49Z</time>
      </trkpt>
      <trkpt lat="45.0816" lon="5.62481">
        <ele>1273.4</ele>
        <time>2010-11-19T15:30:51Z</time>
      </trkpt>
      <trkpt lat="45.08158" lon="5.62482">
        <ele>1273.2</ele>
        <time>2010-11-19T15:30:52Z</time>
      </trkpt>
      <trkpt lat="45.08153" lon="5.6249">
        <ele>1271.6</ele>
        <time>2010-11-19T15:30:57Z</time>
      </trkpt>
      <trkpt lat="45.08146" lon="5.62497">
        <ele>1270</ele>
        <time>2010-11-19T15:31:02Z</time>
      </trkpt>
      <trkpt lat="45.08144" lon="5.62499">
        <ele>1269.6</ele>
        <time>2010-11-19T15:31:03Z</time>
      </trkpt>
      <trkpt lat="45.08138" lon="5.62505">
        <ele>1268.2</ele>
        <time>2010-11-19T15:31:07Z</time>
      </trkpt>
      <trkpt lat="45.08132" lon="5.62514">
        <ele>1266.8</ele>
        <time>2010-11-19T15:31:11Z</time>
      </trkpt>
      <trkpt lat="45.0813" lon="5.62516">
        <ele>1266.4</ele>
        <time>2010-11-19T15:31:12Z</time>
      </trkpt>
      <trkpt lat="45.08127" lon="5.62518">
        <ele>1265.8</ele>
        <time>2010-11-19T15:31:14Z</time>
      </trkpt>
      <trkpt lat="45.08125" lon="5.62519">
        <ele>1265.4</ele>
        <time>2010-11-19T15:31:15Z</time>
      </trkpt>
      <trkpt lat="45.08121" lon="5.62525">
        <ele>1264.2</ele>
        <time>2010-11-19T15:31:18Z</time>
      </trkpt>
      <trkpt lat="45.08117" lon="5.62532">
        <ele>1263.2</ele>
        <time>2010-11-19T15:31:21Z</time>
      </trkpt>
      <trkpt lat="45.08116" lon="5.62534">
        <ele>1262.8</ele>
        <time>2010-11-19T15:31:22Z</time>
      </trkpt>
      <trkpt lat="45.08112" lon="5.62544">
        <ele>1261.2</ele>
        <time>2010-11-19T15:31:26Z</time>
      </trkpt>
      <trkpt lat="45.08112" lon="5.62552">
        <ele>1260</ele>
        <time>2010-11-19T15:31:29Z</time>
      </trkpt>
      <trkpt lat="45.08113" lon="5.62559">
        <ele>1258.8</ele>
        <time>2010-11-19T15:31:32Z</time>
      </trkpt>
      <trkpt lat="45.08112" lon="5.62567">
        <ele>1257.6</ele>
        <time>2010-11-19T15:31:35Z</time>
      </trkpt>
      <trkpt lat="45.08108" lon="5.62575">
        <ele>1256.6</ele>
        <time>2010-11-19T15:31:38Z</time>
      </trkpt>
      <trkpt lat="45.08105" lon="5.62583">
        <ele>1254.8</ele>
        <time>2010-11-19T15:31:42Z</time>
      </trkpt>
      <trkpt lat="45.08105" lon="5.62585">
        <ele>1254.4</ele>
        <time>2010-11-19T15:31:43Z</time>
      </trkpt>
      <trkpt lat="45.08108" lon="5.62595">
        <ele>1252.8</ele>
        <time>2010-11-19T15:31:48Z</time>
      </trkpt>
      <trkpt lat="45.08108" lon="5.62596">
        <ele>1252.4</ele>
        <time>2010-11-19T15:31:49Z</time>
      </trkpt>
      <trkpt lat="45.08108" lon="5.62605">
        <ele>1251</ele>
        <time>2010-11-19T15:31:53Z</time>
      </trkpt>
      <trkpt lat="45.08109" lon="5.6261">
        <ele>1250.2</ele>
        <time>2010-11-19T15:31:55Z</time>
      </trkpt>
      <trkpt lat="45.08111" lon="5.62617">
        <ele>1249.2</ele>
        <time>2010-11-19T15:31:58Z</time>
      </trkpt>
      <trkpt lat="45.08112" lon="5.62619">
        <ele>1248.4</ele>
        <time>2010-11-19T15:32:00Z</time>
      </trkpt>
      <trkpt lat="45.08112" lon="5.62631">
        <ele>1245.8</ele>
        <time>2010-11-19T15:32:07Z</time>
      </trkpt>
      <trkpt lat="45.08112" lon="5.62632">
        <ele>1245.4</ele>
        <time>2010-11-19T15:32:08Z</time>
      </trkpt>
      <trkpt lat="45.08112" lon="5.62634">
        <ele>1244</ele>
        <time>2010-11-19T15:32:12Z</time>
      </trkpt>
      <trkpt lat="45.08113" lon="5.62634">
        <ele>1241.6</ele>
        <time>2010-11-19T15:32:20Z</time>
      </trkpt>
      <trkpt lat="45.08117" lon="5.6264">
        <ele>1237.4</ele>
        <time>2010-11-19T15:32:34Z</time>
      </trkpt>
      <trkpt lat="45.08119" lon="5.6265">
        <ele>1236</ele>
        <time>2010-11-19T15:32:40Z</time>
      </trkpt>
      <trkpt lat="45.0812" lon="5.62654">
        <ele>1235.6</ele>
        <time>2010-11-19T15:32:42Z</time>
      </trkpt>
      <trkpt lat="45.0812" lon="5.62658">
        <ele>1235</ele>
        <time>2010-11-19T15:32:44Z</time>
      </trkpt>
      <trkpt lat="45.08121" lon="5.62661">
        <ele>1234.6</ele>
        <time>2010-11-19T15:32:46Z</time>
      </trkpt>
      <trkpt lat="45.08119" lon="5.6267">
        <ele>1233.8</ele>
        <time>2010-11-19T15:32:50Z</time>
      </trkpt>
      <trkpt lat="45.08118" lon="5.62675">
        <ele>1233.4</ele>
        <time>2010-11-19T15:32:52Z</time>
      </trkpt>
      <trkpt lat="45.08115" lon="5.62684">
        <ele>1233</ele>
        <time>2010-11-19T15:32:54Z</time>
      </trkpt>
      <trkpt lat="45.08114" lon="5.62686">
        <ele>1232.8</ele>
        <time>2010-11-19T15:32:55Z</time>
      </trkpt>
      <trkpt lat="45.08113" lon="5.62692">
        <ele>1232.4</ele>
        <time>2010-11-19T15:32:57Z</time>
      </trkpt>
      <trkpt lat="45.08111" lon="5.62694">
        <ele>1232.2</ele>
        <time>2010-11-19T15:32:59Z</time>
      </trkpt>
      <trkpt lat="45.08104" lon="5.62703">
        <ele>1231.2</ele>
        <time>2010-11-19T15:33:04Z</time>
      </trkpt>
      <trkpt lat="45.08102" lon="5.62704">
        <ele>1231.2</ele>
        <time>2010-11-19T15:33:05Z</time>
      </trkpt>
      <trkpt lat="45.08098" lon="5.62705">
        <ele>1230.8</ele>
        <time>2010-11-19T15:33:07Z</time>
      </trkpt>
      <trkpt lat="45.08095" lon="5.62704">
        <ele>1230.4</ele>
        <time>2010-11-19T15:33:09Z</time>
      </trkpt>
      <trkpt lat="45.08094" lon="5.62702">
        <ele>1230.2</ele>
        <time>2010-11-19T15:33:10Z</time>
      </trkpt>
      <trkpt lat="45.08094" lon="5.62695">
        <ele>1229.2</ele>
        <time>2010-11-19T15:33:14Z</time>
      </trkpt>
      <trkpt lat="45.08095" lon="5.62692">
        <ele>1228.8</ele>
        <time>2010-11-19T15:33:16Z</time>
      </trkpt>
      <trkpt lat="45.08095" lon="5.62689">
        <ele>1228.2</ele>
        <time>2010-11-19T15:33:18Z</time>
      </trkpt>
      <trkpt lat="45.08095" lon="5.62686">
        <ele>1227.6</ele>
        <time>2010-11-19T15:33:20Z</time>
      </trkpt>
      <trkpt lat="45.08095" lon="5.62682">
        <ele>1226.8</ele>
        <time>2010-11-19T15:33:23Z</time>
      </trkpt>
      <trkpt lat="45.08094" lon="5.62677">
        <ele>1225.8</ele>
        <time>2010-11-19T15:33:26Z</time>
      </trkpt>
      <trkpt lat="45.08091" lon="5.6267">
        <ele>1224.6</ele>
        <time>2010-11-19T15:33:30Z</time>
      </trkpt>
      <trkpt lat="45.08091" lon="5.62669">
        <ele>1224.2</ele>
        <time>2010-11-19T15:33:31Z</time>
      </trkpt>
      <trkpt lat="45.08093" lon="5.62665">
        <ele>1223.4</ele>
        <time>2010-11-19T15:33:34Z</time>
      </trkpt>
      <trkpt lat="45.08096" lon="5.62659">
        <ele>1222</ele>
        <time>2010-11-19T15:33:38Z</time>
      </trkpt>
      <trkpt lat="45.08094" lon="5.62657">
        <ele>1220.6</ele>
        <time>2010-11-19T15:33:43Z</time>
      </trkpt>
      <trkpt lat="45.08089" lon="5.6266">
        <ele>1219.8</ele>
        <time>2010-11-19T15:33:48Z</time>
      </trkpt>
      <trkpt lat="45.08086" lon="5.6266">
        <ele>1219.2</ele>
        <time>2010-11-19T15:33:51Z</time>
      </trkpt>
      <trkpt lat="45.08086" lon="5.62661">
        <ele>1219</ele>
        <time>2010-11-19T15:33:52Z</time>
      </trkpt>
      <trkpt lat="45.08085" lon="5.62656">
        <ele>1217.8</ele>
        <time>2010-11-19T15:33:57Z</time>
      </trkpt>
      <trkpt lat="45.08085" lon="5.62653">
        <ele>1217.2</ele>
        <time>2010-11-19T15:33:59Z</time>
      </trkpt>
      <trkpt lat="45.08083" lon="5.62648">
        <ele>1216.4</ele>
        <time>2010-11-19T15:34:02Z</time>
      </trkpt>
      <trkpt lat="45.08082" lon="5.62648">
        <ele>1216.2</ele>
        <time>2010-11-19T15:34:03Z</time>
      </trkpt>
      <trkpt lat="45.08081" lon="5.62649">
        <ele>1215.8</ele>
        <time>2010-11-19T15:34:05Z</time>
      </trkpt>
      <trkpt lat="45.08081" lon="5.62649">
        <ele>1215.4</ele>
        <time>2010-11-19T15:34:06Z</time>
      </trkpt>
      <trkpt lat="45.08081" lon="5.6265">
        <ele>1215.2</ele>
        <time>2010-11-19T15:34:07Z</time>
      </trkpt>
      <trkpt lat="45.0808" lon="5.62655">
        <ele>1214.2</ele>
        <time>2010-11-19T15:34:11Z</time>
      </trkpt>
      <trkpt lat="45.08079" lon="5.62658">
        <ele>1213.6</ele>
        <time>2010-11-19T15:34:13Z</time>
      </trkpt>
      <trkpt lat="45.08079" lon="5.62659">
        <ele>1213.4</ele>
        <time>2010-11-19T15:34:14Z</time>
      </trkpt>
      <trkpt lat="45.08078" lon="5.62663">
        <ele>1212</ele>
        <time>2010-11-19T15:34:20Z</time>
      </trkpt>
      <trkpt lat="45.08075" lon="5.62665">
        <ele>1210.8</ele>
        <time>2010-11-19T15:34:25Z</time>
      </trkpt>
      <trkpt lat="45.08074" lon="5.62666">
        <ele>1210.6</ele>
        <time>2010-11-19T15:34:26Z</time>
      </trkpt>
      <trkpt lat="45.08072" lon="5.62668">
        <ele>1210.2</ele>
        <time>2010-11-19T15:34:28Z</time>
      </trkpt>
      <trkpt lat="45.08072" lon="5.62669">
        <ele>1210</ele>
        <time>2010-11-19T15:34:29Z</time>
      </trkpt>
      <trkpt lat="45.08071" lon="5.62674">
        <ele>1209.2</ele>
        <time>2010-11-19T15:34:33Z</time>
      </trkpt>
      <trkpt lat="45.08071" lon="5.62674">
        <ele>1209</ele>
        <time>2010-11-19T15:34:34Z</time>
      </trkpt>
      <trkpt lat="45.08071" lon="5.62675">
        <ele>1209</ele>
        <time>2010-11-19T15:34:35Z</time>
      </trkpt>
      <trkpt lat="45.08068" lon="5.62678">
        <ele>1208.2</ele>
        <time>2010-11-19T15:34:40Z</time>
      </trkpt>
      <trkpt lat="45.08065" lon="5.62679">
        <ele>1208</ele>
        <time>2010-11-19T15:34:42Z</time>
      </trkpt>
      <trkpt lat="45.08063" lon="5.6268">
        <ele>1207.6</ele>
        <time>2010-11-19T15:34:45Z</time>
      </trkpt>
      <trkpt lat="45.08059" lon="5.62681">
        <ele>1207</ele>
        <time>2010-11-19T15:34:49Z</time>
      </trkpt>
      <trkpt lat="45.08058" lon="5.62683">
        <ele>1206.8</ele>
        <time>2010-11-19T15:34:50Z</time>
      </trkpt>
      <trkpt lat="45.08053" lon="5.62681">
        <ele>1206</ele>
        <time>2010-11-19T15:34:55Z</time>
      </trkpt>
      <trkpt lat="45.08052" lon="5.6268">
        <ele>1205.8</ele>
        <time>2010-11-19T15:34:56Z</time>
      </trkpt>
      <trkpt lat="45.08047" lon="5.62675">
        <ele>1204.8</ele>
        <time>2010-11-19T15:35:01Z</time>
      </trkpt>
      <trkpt lat="45.08043" lon="5.62671">
        <ele>1203.8</ele>
        <time>2010-11-19T15:35:05Z</time>
      </trkpt>
      <trkpt lat="45.08041" lon="5.6267">
        <ele>1203.4</ele>
        <time>2010-11-19T15:35:07Z</time>
      </trkpt>
      <trkpt lat="45.08036" lon="5.62665">
        <ele>1201.8</ele>
        <time>2010-11-19T15:35:13Z</time>
      </trkpt>
      <trkpt lat="45.08029" lon="5.6266">
        <ele>1200.4</ele>
        <time>2010-11-19T15:35:17Z</time>
      </trkpt>
      <trkpt lat="45.08027" lon="5.62658">
        <ele>1200.2</ele>
        <time>2010-11-19T15:35:18Z</time>
      </trkpt>
      <trkpt lat="45.08022" lon="5.62655">
        <ele>1199.2</ele>
        <time>2010-11-19T15:35:21Z</time>
      </trkpt>
      <trkpt lat="45.0802" lon="5.62654">
        <ele>1198.8</ele>
        <time>2010-11-19T15:35:22Z</time>
      </trkpt>
      <trkpt lat="45.08014" lon="5.62652">
        <ele>1197.8</ele>
        <time>2010-11-19T15:35:25Z</time>
      </trkpt>
      <trkpt lat="45.08009" lon="5.62653">
        <ele>1196.8</ele>
        <time>2010-11-19T15:35:28Z</time>
      </trkpt>
      <trkpt lat="45.08007" lon="5.62653">
        <ele>1196.4</ele>
        <time>2010-11-19T15:35:29Z</time>
      </trkpt>
      <trkpt lat="45.08005" lon="5.62652">
        <ele>1196</ele>
        <time>2010-11-19T15:35:30Z</time>
      </trkpt>
      <trkpt lat="45.07996" lon="5.6265">
        <ele>1194.6</ele>
        <time>2010-11-19T15:35:34Z</time>
      </trkpt>
      <trkpt lat="45.07991" lon="5.6265">
        <ele>1194</ele>
        <time>2010-11-19T15:35:36Z</time>
      </trkpt>
      <trkpt lat="45.07987" lon="5.62651">
        <ele>1193.2</ele>
        <time>2010-11-19T15:35:38Z</time>
      </trkpt>
      <trkpt lat="45.07981" lon="5.62656">
        <ele>1192</ele>
        <time>2010-11-19T15:35:42Z</time>
      </trkpt>
      <trkpt lat="45.07977" lon="5.62659">
        <ele>1190.8</ele>
        <time>2010-11-19T15:35:46Z</time>
      </trkpt>
      <trkpt lat="45.07976" lon="5.62659">
        <ele>1190.2</ele>
        <time>2010-11-19T15:35:48Z</time>
      </trkpt>
      <trkpt lat="45.07975" lon="5.6266">
        <ele>1189.6</ele>
        <time>2010-11-19T15:35:50Z</time>
      </trkpt>
      <trkpt lat="45.07975" lon="5.62661">
        <ele>1188.8</ele>
        <time>2010-11-19T15:35:52Z</time>
      </trkpt>
      <trkpt lat="45.07973" lon="5.62662">
        <ele>1188.2</ele>
        <time>2010-11-19T15:35:54Z</time>
      </trkpt>
      <trkpt lat="45.0797" lon="5.62663">
        <ele>1186.2</ele>
        <time>2010-11-19T15:35:59Z</time>
      </trkpt>
      <trkpt lat="45.07969" lon="5.62662">
        <ele>1185.8</ele>
        <time>2010-11-19T15:36:00Z</time>
      </trkpt>
      <trkpt lat="45.07964" lon="5.62662">
        <ele>1184.4</ele>
        <time>2010-11-19T15:36:04Z</time>
      </trkpt>
      <trkpt lat="45.0796" lon="5.62663">
        <ele>1182.4</ele>
        <time>2010-11-19T15:36:09Z</time>
      </trkpt>
      <trkpt lat="45.07959" lon="5.62664">
        <ele>1182</ele>
        <time>2010-11-19T15:36:10Z</time>
      </trkpt>
      <trkpt lat="45.07958" lon="5.62664">
        <ele>1181.6</ele>
        <time>2010-11-19T15:36:11Z</time>
      </trkpt>
      <trkpt lat="45.07955" lon="5.62663">
        <ele>1180</ele>
        <time>2010-11-19T15:36:15Z</time>
      </trkpt>
      <trkpt lat="45.07949" lon="5.62666">
        <ele>1178</ele>
        <time>2010-11-19T15:36:20Z</time>
      </trkpt>
      <trkpt lat="45.07946" lon="5.62668">
        <ele>1176.8</ele>
        <time>2010-11-19T15:36:23Z</time>
      </trkpt>
      <trkpt lat="45.07944" lon="5.6267">
        <ele>1176.2</ele>
        <time>2010-11-19T15:36:25Z</time>
      </trkpt>
      <trkpt lat="45.07942" lon="5.62672">
        <ele>1175</ele>
        <time>2010-11-19T15:36:28Z</time>
      </trkpt>
      <trkpt lat="45.07941" lon="5.62674">
        <ele>1174.6</ele>
        <time>2010-11-19T15:36:29Z</time>
      </trkpt>
      <trkpt lat="45.07933" lon="5.62678">
        <ele>1171.6</ele>
        <time>2010-11-19T15:36:37Z</time>
      </trkpt>
      <trkpt lat="45.07932" lon="5.62678">
        <ele>1171.2</ele>
        <time>2010-11-19T15:36:38Z</time>
      </trkpt>
      <trkpt lat="45.07928" lon="5.62679">
        <ele>1169.2</ele>
        <time>2010-11-19T15:36:43Z</time>
      </trkpt>
      <trkpt lat="45.07926" lon="5.62677">
        <ele>1167</ele>
        <time>2010-11-19T15:36:49Z</time>
      </trkpt>
      <trkpt lat="45.07925" lon="5.62678">
        <ele>1166.6</ele>
        <time>2010-11-19T15:36:50Z</time>
      </trkpt>
      <trkpt lat="45.07922" lon="5.6268">
        <ele>1165.2</ele>
        <time>2010-11-19T15:36:54Z</time>
      </trkpt>
      <trkpt lat="45.07922" lon="5.62681">
        <ele>1164.8</ele>
        <time>2010-11-19T15:36:55Z</time>
      </trkpt>
      <trkpt lat="45.07916" lon="5.62681">
        <ele>1162.6</ele>
        <time>2010-11-19T15:37:01Z</time>
      </trkpt>
      <trkpt lat="45.07915" lon="5.62681">
        <ele>1162.2</ele>
        <time>2010-11-19T15:37:02Z</time>
      </trkpt>
      <trkpt lat="45.07915" lon="5.62682">
        <ele>1161.4</ele>
        <time>2010-11-19T15:37:04Z</time>
      </trkpt>
      <trkpt lat="45.07912" lon="5.62683">
        <ele>1160.6</ele>
        <time>2010-11-19T15:37:06Z</time>
      </trkpt>
      <trkpt lat="45.07909" lon="5.62685">
        <ele>1160</ele>
        <time>2010-11-19T15:37:08Z</time>
      </trkpt>
      <trkpt lat="45.07908" lon="5.62685">
        <ele>1159.6</ele>
        <time>2010-11-19T15:37:09Z</time>
      </trkpt>
      <trkpt lat="45.07908" lon="5.62686">
        <ele>1159.2</ele>
        <time>2010-11-19T15:37:10Z</time>
      </trkpt>
      <trkpt lat="45.07902" lon="5.62694">
        <ele>1157</ele>
        <time>2010-11-19T15:37:16Z</time>
      </trkpt>
      <trkpt lat="45.07896" lon="5.62703">
        <ele>1154.6</ele>
        <time>2010-11-19T15:37:22Z</time>
      </trkpt>
      <trkpt lat="45.07894" lon="5.62704">
        <ele>1154.4</ele>
        <time>2010-11-19T15:37:23Z</time>
      </trkpt>
      <trkpt lat="45.0789" lon="5.62708">
        <ele>1152.4</ele>
        <time>2010-11-19T15:37:28Z</time>
      </trkpt>
      <trkpt lat="45.07889" lon="5.62709">
        <ele>1152</ele>
        <time>2010-11-19T15:37:29Z</time>
      </trkpt>
      <trkpt lat="45.07879" lon="5.62711">
        <ele>1149.2</ele>
        <time>2010-11-19T15:37:36Z</time>
      </trkpt>
      <trkpt lat="45.07878" lon="5.62711">
        <ele>1148.8</ele>
        <time>2010-11-19T15:37:37Z</time>
      </trkpt>
      <trkpt lat="45.07873" lon="5.62707">
        <ele>1146.8</ele>
        <time>2010-11-19T15:37:42Z</time>
      </trkpt>
      <trkpt lat="45.07871" lon="5.62704">
        <ele>1145.2</ele>
        <time>2010-11-19T15:37:46Z</time>
      </trkpt>
      <trkpt lat="45.0787" lon="5.62703">
        <ele>1144.8</ele>
        <time>2010-11-19T15:37:47Z</time>
      </trkpt>
      <trkpt lat="45.07869" lon="5.62703">
        <ele>1144.4</ele>
        <time>2010-11-19T15:37:48Z</time>
      </trkpt>
      <trkpt lat="45.07863" lon="5.62699">
        <ele>1141.4</ele>
        <time>2010-11-19T15:37:56Z</time>
      </trkpt>
      <trkpt lat="45.07862" lon="5.62698">
        <ele>1139.4</ele>
        <time>2010-11-19T15:38:02Z</time>
      </trkpt>
      <trkpt lat="45.07863" lon="5.62692">
        <ele>1137.8</ele>
        <time>2010-11-19T15:38:07Z</time>
      </trkpt>
      <trkpt lat="45.07865" lon="5.62692">
        <ele>1137</ele>
        <time>2010-11-19T15:38:09Z</time>
      </trkpt>
      <trkpt lat="45.07866" lon="5.62691">
        <ele>1136.6</ele>
        <time>2010-11-19T15:38:11Z</time>
      </trkpt>
      <trkpt lat="45.07872" lon="5.6269">
        <ele>1135</ele>
        <time>2010-11-19T15:38:16Z</time>
      </trkpt>
      <trkpt lat="45.07872" lon="5.6269">
        <ele>1134.6</ele>
        <time>2010-11-19T15:38:17Z</time>
      </trkpt>
      <trkpt lat="45.07873" lon="5.62686">
        <ele>1133</ele>
        <time>2010-11-19T15:38:22Z</time>
      </trkpt>
      <trkpt lat="45.07873" lon="5.62685">
        <ele>1132.8</ele>
        <time>2010-11-19T15:38:23Z</time>
      </trkpt>
      <trkpt lat="45.07874" lon="5.62683">
        <ele>1132</ele>
        <time>2010-11-19T15:38:25Z</time>
      </trkpt>
      <trkpt lat="45.07876" lon="5.62678">
        <ele>1130.6</ele>
        <time>2010-11-19T15:38:29Z</time>
      </trkpt>
      <trkpt lat="45.07878" lon="5.62675">
        <ele>1129.2</ele>
        <time>2010-11-19T15:38:33Z</time>
      </trkpt>
      <trkpt lat="45.07879" lon="5.62671">
        <ele>1128.6</ele>
        <time>2010-11-19T15:38:35Z</time>
      </trkpt>
      <trkpt lat="45.07881" lon="5.62664">
        <ele>1126.8</ele>
        <time>2010-11-19T15:38:40Z</time>
      </trkpt>
      <trkpt lat="45.07878" lon="5.62663">
        <ele>1125.8</ele>
        <time>2010-11-19T15:38:43Z</time>
      </trkpt>
      <trkpt lat="45.07877" lon="5.62661">
        <ele>1125.2</ele>
        <time>2010-11-19T15:38:45Z</time>
      </trkpt>
      <trkpt lat="45.07873" lon="5.62657">
        <ele>1123.4</ele>
        <time>2010-11-19T15:38:50Z</time>
      </trkpt>
      <trkpt lat="45.07875" lon="5.62651">
        <ele>1122.2</ele>
        <time>2010-11-19T15:38:54Z</time>
      </trkpt>
      <trkpt lat="45.07876" lon="5.62647">
        <ele>1121.4</ele>
        <time>2010-11-19T15:38:56Z</time>
      </trkpt>
      <trkpt lat="45.07875" lon="5.62644">
        <ele>1120.6</ele>
        <time>2010-11-19T15:38:59Z</time>
      </trkpt>
      <trkpt lat="45.07875" lon="5.62641">
        <ele>1119.2</ele>
        <time>2010-11-19T15:39:03Z</time>
      </trkpt>
      <trkpt lat="45.07875" lon="5.62641">
        <ele>1119</ele>
        <time>2010-11-19T15:39:04Z</time>
      </trkpt>
      <trkpt lat="45.07872" lon="5.62641">
        <ele>1118.2</ele>
        <time>2010-11-19T15:39:07Z</time>
      </trkpt>
      <trkpt lat="45.07868" lon="5.62639">
        <ele>1117.6</ele>
        <time>2010-11-19T15:39:09Z</time>
      </trkpt>
      <trkpt lat="45.07867" lon="5.62637">
        <ele>1117.4</ele>
        <time>2010-11-19T15:39:10Z</time>
      </trkpt>
      <trkpt lat="45.07866" lon="5.62629">
        <ele>1116.6</ele>
        <time>2010-11-19T15:39:13Z</time>
      </trkpt>
      <trkpt lat="45.0787" lon="5.62624">
        <ele>1115.8</ele>
        <time>2010-11-19T15:39:17Z</time>
      </trkpt>
      <trkpt lat="45.07873" lon="5.62617">
        <ele>1114.2</ele>
        <time>2010-11-19T15:39:22Z</time>
      </trkpt>
      <trkpt lat="45.07877" lon="5.6261">
        <ele>1113.2</ele>
        <time>2010-11-19T15:39:25Z</time>
      </trkpt>
      <trkpt lat="45.07879" lon="5.62608">
        <ele>1112.8</ele>
        <time>2010-11-19T15:39:26Z</time>
      </trkpt>
      <trkpt lat="45.07881" lon="5.62605">
        <ele>1112.2</ele>
        <time>2010-11-19T15:39:28Z</time>
      </trkpt>
      <trkpt lat="45.07884" lon="5.62601">
        <ele>1110.4</ele>
        <time>2010-11-19T15:39:33Z</time>
      </trkpt>
      <trkpt lat="45.07881" lon="5.62599">
        <ele>1109.8</ele>
        <time>2010-11-19T15:39:35Z</time>
      </trkpt>
      <trkpt lat="45.07878" lon="5.62598">
        <ele>1109.4</ele>
        <time>2010-11-19T15:39:37Z</time>
      </trkpt>
      <trkpt lat="45.07874" lon="5.62599">
        <ele>1108.4</ele>
        <time>2010-11-19T15:39:40Z</time>
      </trkpt>
      <trkpt lat="45.07871" lon="5.62598">
        <ele>1108</ele>
        <time>2010-11-19T15:39:42Z</time>
      </trkpt>
      <trkpt lat="45.07867" lon="5.62595">
        <ele>1107</ele>
        <time>2010-11-19T15:39:46Z</time>
      </trkpt>
      <trkpt lat="45.07866" lon="5.62595">
        <ele>1106.8</ele>
        <time>2010-11-19T15:39:47Z</time>
      </trkpt>
      <trkpt lat="45.07859" lon="5.6259">
        <ele>1105.6</ele>
        <time>2010-11-19T15:39:52Z</time>
      </trkpt>
      <trkpt lat="45.07856" lon="5.62587">
        <ele>1104.8</ele>
        <time>2010-11-19T15:39:55Z</time>
      </trkpt>
      <trkpt lat="45.07855" lon="5.62586">
        <ele>1104.6</ele>
        <time>2010-11-19T15:39:56Z</time>
      </trkpt>
      <trkpt lat="45.07854" lon="5.62583">
        <ele>1104</ele>
        <time>2010-11-19T15:39:59Z</time>
      </trkpt>
      <trkpt lat="45.07855" lon="5.6258">
        <ele>1103.4</ele>
        <time>2010-11-19T15:40:02Z</time>
      </trkpt>
      <trkpt lat="45.07857" lon="5.62577">
        <ele>1103</ele>
        <time>2010-11-19T15:40:04Z</time>
      </trkpt>
      <trkpt lat="45.07858" lon="5.62576">
        <ele>1102.6</ele>
        <time>2010-11-19T15:40:06Z</time>
      </trkpt>
      <trkpt lat="45.07858" lon="5.62574">
        <ele>1102</ele>
        <time>2010-11-19T15:40:09Z</time>
      </trkpt>
      <trkpt lat="45.07853" lon="5.62565">
        <ele>1101</ele>
        <time>2010-11-19T15:40:14Z</time>
      </trkpt>
      <trkpt lat="45.07847" lon="5.62557">
        <ele>1100</ele>
        <time>2010-11-19T15:40:19Z</time>
      </trkpt>
      <trkpt lat="45.07845" lon="5.62554">
        <ele>1098.8</ele>
        <time>2010-11-19T15:40:24Z</time>
      </trkpt>
      <trkpt lat="45.07844" lon="5.62551">
        <ele>1098</ele>
        <time>2010-11-19T15:40:26Z</time>
      </trkpt>
      <trkpt lat="45.07846" lon="5.62548">
        <ele>1097.4</ele>
        <time>2010-11-19T15:40:28Z</time>
      </trkpt>
      <trkpt lat="45.07848" lon="5.62545">
        <ele>1096.6</ele>
        <time>2010-11-19T15:40:30Z</time>
      </trkpt>
      <trkpt lat="45.07848" lon="5.62544">
        <ele>1096.4</ele>
        <time>2010-11-19T15:40:31Z</time>
      </trkpt>
      <trkpt lat="45.07847" lon="5.62541">
        <ele>1095.6</ele>
        <time>2010-11-19T15:40:33Z</time>
      </trkpt>
      <trkpt lat="45.07845" lon="5.62536">
        <ele>1093.2</ele>
        <time>2010-11-19T15:40:39Z</time>
      </trkpt>
      <trkpt lat="45.07843" lon="5.6253">
        <ele>1091.8</ele>
        <time>2010-11-19T15:40:43Z</time>
      </trkpt>
      <trkpt lat="45.07841" lon="5.6253">
        <ele>1091</ele>
        <time>2010-11-19T15:40:45Z</time>
      </trkpt>
      <trkpt lat="45.07837" lon="5.62528">
        <ele>1088.6</ele>
        <time>2010-11-19T15:40:51Z</time>
      </trkpt>
      <trkpt lat="45.07836" lon="5.62525">
        <ele>1087.4</ele>
        <time>2010-11-19T15:40:54Z</time>
      </trkpt>
      <trkpt lat="45.07835" lon="5.62522">
        <ele>1085.8</ele>
        <time>2010-11-19T15:40:58Z</time>
      </trkpt>
      <trkpt lat="45.07836" lon="5.6252">
        <ele>1082.8</ele>
        <time>2010-11-19T15:41:09Z</time>
      </trkpt>
      <trkpt lat="45.07838" lon="5.62511">
        <ele>1066.4</ele>
        <time>2010-11-19T15:42:45Z</time>
      </trkpt>
      <trkpt lat="45.07836" lon="5.62512">
        <ele>1066.2</ele>
        <time>2010-11-19T15:42:49Z</time>
      </trkpt>
      <trkpt lat="45.07835" lon="5.62512">
        <ele>1066</ele>
        <time>2010-11-19T15:42:51Z</time>
      </trkpt>
      <trkpt lat="45.07833" lon="5.62512">
        <ele>1066</ele>
        <time>2010-11-19T15:42:53Z</time>
      </trkpt>
      <trkpt lat="45.07831" lon="5.62512">
        <ele>1066</ele>
        <time>2010-11-19T15:42:55Z</time>
      </trkpt>
      <trkpt lat="45.0783" lon="5.62515">
        <ele>1065.8</ele>
        <time>2010-11-19T15:42:58Z</time>
      </trkpt>
      <trkpt lat="45.07829" lon="5.62515">
        <ele>1065.6</ele>
        <time>2010-11-19T15:42:59Z</time>
      </trkpt>
      <trkpt lat="45.07825" lon="5.62514">
        <ele>1065.4</ele>
        <time>2010-11-19T15:43:04Z</time>
      </trkpt>
      <trkpt lat="45.07818" lon="5.62511">
        <ele>1065.2</ele>
        <time>2010-11-19T15:43:08Z</time>
      </trkpt>
      <trkpt lat="45.07816" lon="5.62508">
        <ele>1065</ele>
        <time>2010-11-19T15:43:10Z</time>
      </trkpt>
      <trkpt lat="45.07812" lon="5.62506">
        <ele>1064.4</ele>
        <time>2010-11-19T15:43:16Z</time>
      </trkpt>
      <trkpt lat="45.0781" lon="5.62503">
        <ele>1063.4</ele>
        <time>2010-11-19T15:43:24Z</time>
      </trkpt>
      <trkpt lat="45.07807" lon="5.62501">
        <ele>1062.6</ele>
        <time>2010-11-19T15:43:30Z</time>
      </trkpt>
      <trkpt lat="45.07804" lon="5.625">
        <ele>1061.8</ele>
        <time>2010-11-19T15:43:34Z</time>
      </trkpt>
      <trkpt lat="45.07801" lon="5.62499">
        <ele>1061</ele>
        <time>2010-11-19T15:43:39Z</time>
      </trkpt>
      <trkpt lat="45.07794" lon="5.62497">
        <ele>1059.6</ele>
        <time>2010-11-19T15:43:45Z</time>
      </trkpt>
      <trkpt lat="45.07786" lon="5.62497">
        <ele>1058.6</ele>
        <time>2010-11-19T15:43:50Z</time>
      </trkpt>
      <trkpt lat="45.07783" lon="5.62495">
        <ele>1058</ele>
        <time>2010-11-19T15:43:53Z</time>
      </trkpt>
      <trkpt lat="45.07781" lon="5.62493">
        <ele>1057.6</ele>
        <time>2010-11-19T15:43:55Z</time>
      </trkpt>
      <trkpt lat="45.07766" lon="5.6248">
        <ele>1056.8</ele>
        <time>2010-11-19T15:44:01Z</time>
      </trkpt>
      <trkpt lat="45.07762" lon="5.62473">
        <ele>1055.8</ele>
        <time>2010-11-19T15:44:06Z</time>
      </trkpt>
      <trkpt lat="45.07761" lon="5.62473">
        <ele>1055.6</ele>
        <time>2010-11-19T15:44:07Z</time>
      </trkpt>
      <trkpt lat="45.0776" lon="5.6247">
        <ele>1054.6</ele>
        <time>2010-11-19T15:44:11Z</time>
      </trkpt>
      <trkpt lat="45.07757" lon="5.62469">
        <ele>1053</ele>
        <time>2010-11-19T15:44:17Z</time>
      </trkpt>
      <trkpt lat="45.07753" lon="5.62466">
        <ele>1050.8</ele>
        <time>2010-11-19T15:44:23Z</time>
      </trkpt>
      <trkpt lat="45.07751" lon="5.62465">
        <ele>1050</ele>
        <time>2010-11-19T15:44:25Z</time>
      </trkpt>
      <trkpt lat="45.0775" lon="5.62464">
        <ele>1049.6</ele>
        <time>2010-11-19T15:44:26Z</time>
      </trkpt>
      <trkpt lat="45.07749" lon="5.62463">
        <ele>1049.4</ele>
        <time>2010-11-19T15:44:27Z</time>
      </trkpt>
      <trkpt lat="45.07746" lon="5.6246">
        <ele>1048.6</ele>
        <time>2010-11-19T15:44:29Z</time>
      </trkpt>
      <trkpt lat="45.07741" lon="5.62457">
        <ele>1047.4</ele>
        <time>2010-11-19T15:44:32Z</time>
      </trkpt>
      <trkpt lat="45.07739" lon="5.62457">
        <ele>1046.8</ele>
        <time>2010-11-19T15:44:34Z</time>
      </trkpt>
      <trkpt lat="45.07739" lon="5.62453">
        <ele>1045.6</ele>
        <time>2010-11-19T15:44:37Z</time>
      </trkpt>
      <trkpt lat="45.07737" lon="5.62448">
        <ele>1043</ele>
        <time>2010-11-19T15:44:43Z</time>
      </trkpt>
      <trkpt lat="45.07737" lon="5.62446">
        <ele>1042.6</ele>
        <time>2010-11-19T15:44:44Z</time>
      </trkpt>
      <trkpt lat="45.07736" lon="5.62444">
        <ele>1041.4</ele>
        <time>2010-11-19T15:44:47Z</time>
      </trkpt>
      <trkpt lat="45.07734" lon="5.62442">
        <ele>1039.6</ele>
        <time>2010-11-19T15:44:52Z</time>
      </trkpt>
      <trkpt lat="45.0773" lon="5.62443">
        <ele>1038.2</ele>
        <time>2010-11-19T15:44:56Z</time>
      </trkpt>
      <trkpt lat="45.0773" lon="5.62443">
        <ele>1037.2</ele>
        <time>2010-11-19T15:44:59Z</time>
      </trkpt>
      <trkpt lat="45.07726" lon="5.62442">
        <ele>1033.6</ele>
        <time>2010-11-19T15:45:11Z</time>
      </trkpt>
      <trkpt lat="45.07722" lon="5.62447">
        <ele>1031.6</ele>
        <time>2010-11-19T15:45:17Z</time>
      </trkpt>
      <trkpt lat="45.07722" lon="5.62449">
        <ele>1029</ele>
        <time>2010-11-19T15:45:24Z</time>
      </trkpt>
      <trkpt lat="45.07721" lon="5.62451">
        <ele>1028.2</ele>
        <time>2010-11-19T15:45:26Z</time>
      </trkpt>
      <trkpt lat="45.07718" lon="5.62455">
        <ele>1027.2</ele>
        <time>2010-11-19T15:45:29Z</time>
      </trkpt>
      <trkpt lat="45.0772" lon="5.62467">
        <ele>1025.2</ele>
        <time>2010-11-19T15:45:34Z</time>
      </trkpt>
      <trkpt lat="45.0772" lon="5.62472">
        <ele>1024.6</ele>
        <time>2010-11-19T15:45:36Z</time>
      </trkpt>
      <trkpt lat="45.0772" lon="5.62476">
        <ele>1023</ele>
        <time>2010-11-19T15:45:40Z</time>
      </trkpt>
      <trkpt lat="45.07719" lon="5.6248">
        <ele>1021.2</ele>
        <time>2010-11-19T15:45:45Z</time>
      </trkpt>
      <trkpt lat="45.07717" lon="5.62484">
        <ele>1019.2</ele>
        <time>2010-11-19T15:45:51Z</time>
      </trkpt>
      <trkpt lat="45.07717" lon="5.62485">
        <ele>1017.4</ele>
        <time>2010-11-19T15:45:56Z</time>
      </trkpt>
      <trkpt lat="45.07717" lon="5.62489">
        <ele>1015.8</ele>
        <time>2010-11-19T15:46:01Z</time>
      </trkpt>
      <trkpt lat="45.07714" lon="5.62493">
        <ele>1014.4</ele>
        <time>2010-11-19T15:46:05Z</time>
      </trkpt>
      <trkpt lat="45.07713" lon="5.62495">
        <ele>1013.6</ele>
        <time>2010-11-19T15:46:07Z</time>
      </trkpt>
      <trkpt lat="45.07713" lon="5.625">
        <ele>1012.6</ele>
        <time>2010-11-19T15:46:10Z</time>
      </trkpt>
      <trkpt lat="45.07714" lon="5.62503">
        <ele>1012.2</ele>
        <time>2010-11-19T15:46:11Z</time>
      </trkpt>
      <trkpt lat="45.07715" lon="5.62512">
        <ele>1010.2</ele>
        <time>2010-11-19T15:46:16Z</time>
      </trkpt>
      <trkpt lat="45.07718" lon="5.62521">
        <ele>1008</ele>
        <time>2010-11-19T15:46:22Z</time>
      </trkpt>
      <trkpt lat="45.07719" lon="5.62529">
        <ele>1006</ele>
        <time>2010-11-19T15:46:27Z</time>
      </trkpt>
      <trkpt lat="45.07719" lon="5.62531">
        <ele>1005.2</ele>
        <time>2010-11-19T15:46:29Z</time>
      </trkpt>
      <trkpt lat="45.07719" lon="5.62534">
        <ele>1004.6</ele>
        <time>2010-11-19T15:46:31Z</time>
      </trkpt>
      <trkpt lat="45.07718" lon="5.62537">
        <ele>1002.8</ele>
        <time>2010-11-19T15:46:36Z</time>
      </trkpt>
      <trkpt lat="45.07719" lon="5.62544">
        <ele>1001</ele>
        <time>2010-11-19T15:46:41Z</time>
      </trkpt>
      <trkpt lat="45.0772" lon="5.62547">
        <ele>1000.4</ele>
        <time>2010-11-19T15:46:43Z</time>
      </trkpt>
      <trkpt lat="45.07721" lon="5.62556">
        <ele>998.2</ele>
        <time>2010-11-19T15:46:49Z</time>
      </trkpt>
      <trkpt lat="45.07723" lon="5.62563">
        <ele>996</ele>
        <time>2010-11-19T15:46:55Z</time>
      </trkpt>
      <trkpt lat="45.07722" lon="5.62565">
        <ele>995.6</ele>
        <time>2010-11-19T15:46:56Z</time>
      </trkpt>
      <trkpt lat="45.07723" lon="5.6257">
        <ele>994</ele>
        <time>2010-11-19T15:47:01Z</time>
      </trkpt>
      <trkpt lat="45.07723" lon="5.62572">
        <ele>993.2</ele>
        <time>2010-11-19T15:47:03Z</time>
      </trkpt>
      <trkpt lat="45.07723" lon="5.62575">
        <ele>992.4</ele>
        <time>2010-11-19T15:47:05Z</time>
      </trkpt>
      <trkpt lat="45.07725" lon="5.62581">
        <ele>991.2</ele>
        <time>2010-11-19T15:47:09Z</time>
      </trkpt>
      <trkpt lat="45.07724" lon="5.62589">
        <ele>989.6</ele>
        <time>2010-11-19T15:47:14Z</time>
      </trkpt>
      <trkpt lat="45.07724" lon="5.6259">
        <ele>989.2</ele>
        <time>2010-11-19T15:47:15Z</time>
      </trkpt>
      <trkpt lat="45.07724" lon="5.62594">
        <ele>988.4</ele>
        <time>2010-11-19T15:47:18Z</time>
      </trkpt>
      <trkpt lat="45.07724" lon="5.62597">
        <ele>987.2</ele>
        <time>2010-11-19T15:47:22Z</time>
      </trkpt>
      <trkpt lat="45.07724" lon="5.62599">
        <ele>987</ele>
        <time>2010-11-19T15:47:23Z</time>
      </trkpt>
      <trkpt lat="45.07722" lon="5.62609">
        <ele>985.4</ele>
        <time>2010-11-19T15:47:29Z</time>
      </trkpt>
      <trkpt lat="45.0772" lon="5.62621">
        <ele>984</ele>
        <time>2010-11-19T15:47:34Z</time>
      </trkpt>
      <trkpt lat="45.0772" lon="5.62623">
        <ele>983.6</ele>
        <time>2010-11-19T15:47:35Z</time>
      </trkpt>
      <trkpt lat="45.0772" lon="5.62626">
        <ele>983.2</ele>
        <time>2010-11-19T15:47:36Z</time>
      </trkpt>
      <trkpt lat="45.07719" lon="5.62632">
        <ele>982.4</ele>
        <time>2010-11-19T15:47:39Z</time>
      </trkpt>
      <trkpt lat="45.0772" lon="5.62637">
        <ele>981.2</ele>
        <time>2010-11-19T15:47:42Z</time>
      </trkpt>
      <trkpt lat="45.07719" lon="5.62642">
        <ele>980.4</ele>
        <time>2010-11-19T15:47:45Z</time>
      </trkpt>
      <trkpt lat="45.07719" lon="5.62647">
        <ele>979.4</ele>
        <time>2010-11-19T15:47:48Z</time>
      </trkpt>
      <trkpt lat="45.07718" lon="5.6265">
        <ele>978.8</ele>
        <time>2010-11-19T15:47:50Z</time>
      </trkpt>
      <trkpt lat="45.07718" lon="5.62652">
        <ele>978.6</ele>
        <time>2010-11-19T15:47:51Z</time>
      </trkpt>
      <trkpt lat="45.07718" lon="5.62655">
        <ele>977.8</ele>
        <time>2010-11-19T15:47:53Z</time>
      </trkpt>
      <trkpt lat="45.07719" lon="5.62663">
        <ele>976.6</ele>
        <time>2010-11-19T15:47:57Z</time>
      </trkpt>
      <trkpt lat="45.0772" lon="5.62667">
        <ele>975.8</ele>
        <time>2010-11-19T15:47:59Z</time>
      </trkpt>
      <trkpt lat="45.0772" lon="5.62674">
        <ele>974.4</ele>
        <time>2010-11-19T15:48:03Z</time>
      </trkpt>
      <trkpt lat="45.0772" lon="5.62676">
        <ele>974.2</ele>
        <time>2010-11-19T15:48:04Z</time>
      </trkpt>
      <trkpt lat="45.07719" lon="5.62676">
        <ele>973</ele>
        <time>2010-11-19T15:48:08Z</time>
      </trkpt>
      <trkpt lat="45.07719" lon="5.62679">
        <ele>972.6</ele>
        <time>2010-11-19T15:48:10Z</time>
      </trkpt>
      <trkpt lat="45.0772" lon="5.62682">
        <ele>972</ele>
        <time>2010-11-19T15:48:12Z</time>
      </trkpt>
      <trkpt lat="45.07721" lon="5.62684">
        <ele>971.2</ele>
        <time>2010-11-19T15:48:15Z</time>
      </trkpt>
      <trkpt lat="45.07721" lon="5.62685">
        <ele>970.8</ele>
        <time>2010-11-19T15:48:17Z</time>
      </trkpt>
      <trkpt lat="45.07723" lon="5.62689">
        <ele>969.6</ele>
        <time>2010-11-19T15:48:22Z</time>
      </trkpt>
      <trkpt lat="45.07726" lon="5.62692">
        <ele>968.2</ele>
        <time>2010-11-19T15:48:28Z</time>
      </trkpt>
      <trkpt lat="45.07728" lon="5.62695">
        <ele>967</ele>
        <time>2010-11-19T15:48:33Z</time>
      </trkpt>
      <trkpt lat="45.07729" lon="5.62697">
        <ele>966.6</ele>
        <time>2010-11-19T15:48:35Z</time>
      </trkpt>
      <trkpt lat="45.07729" lon="5.62698">
        <ele>966</ele>
        <time>2010-11-19T15:48:38Z</time>
      </trkpt>
      <trkpt lat="45.07731" lon="5.62701">
        <ele>965</ele>
        <time>2010-11-19T15:48:43Z</time>
      </trkpt>
      <trkpt lat="45.07732" lon="5.62705">
        <ele>964.2</ele>
        <time>2010-11-19T15:48:47Z</time>
      </trkpt>
      <trkpt lat="45.07734" lon="5.62707">
        <ele>963.2</ele>
        <time>2010-11-19T15:48:52Z</time>
      </trkpt>
      <trkpt lat="45.07736" lon="5.62712">
        <ele>962.6</ele>
        <time>2010-11-19T15:48:56Z</time>
      </trkpt>
      <trkpt lat="45.07737" lon="5.62713">
        <ele>962.4</ele>
        <time>2010-11-19T15:48:58Z</time>
      </trkpt>
      <trkpt lat="45.07738" lon="5.62714">
        <ele>962.2</ele>
        <time>2010-11-19T15:48:59Z</time>
      </trkpt>
      <trkpt lat="45.0774" lon="5.62718">
        <ele>961.6</ele>
        <time>2010-11-19T15:49:03Z</time>
      </trkpt>
      <trkpt lat="45.0774" lon="5.62718">
        <ele>961.4</ele>
        <time>2010-11-19T15:49:04Z</time>
      </trkpt>
      <trkpt lat="45.07741" lon="5.62719">
        <ele>961.4</ele>
        <time>2010-11-19T15:49:05Z</time>
      </trkpt>
      <trkpt lat="45.07742" lon="5.62721">
        <ele>961.2</ele>
        <time>2010-11-19T15:49:07Z</time>
      </trkpt>
      <trkpt lat="45.07745" lon="5.62725">
        <ele>960.6</ele>
        <time>2010-11-19T15:49:11Z</time>
      </trkpt>
      <trkpt lat="45.07745" lon="5.62725">
        <ele>960.4</ele>
        <time>2010-11-19T15:49:12Z</time>
      </trkpt>
      <trkpt lat="45.07747" lon="5.62727">
        <ele>960</ele>
        <time>2010-11-19T15:49:15Z</time>
      </trkpt>
      <trkpt lat="45.07749" lon="5.62728">
        <ele>959.8</ele>
        <time>2010-11-19T15:49:17Z</time>
      </trkpt>
      <trkpt lat="45.0775" lon="5.62729">
        <ele>959.6</ele>
        <time>2010-11-19T15:49:19Z</time>
      </trkpt>
      <trkpt lat="45.07753" lon="5.62732">
        <ele>959</ele>
        <time>2010-11-19T15:49:24Z</time>
      </trkpt>
      <trkpt lat="45.07754" lon="5.62734">
        <ele>958.8</ele>
        <time>2010-11-19T15:49:27Z</time>
      </trkpt>
      <trkpt lat="45.07754" lon="5.62735">
        <ele>958.6</ele>
        <time>2010-11-19T15:49:29Z</time>
      </trkpt>
      <trkpt lat="45.07756" lon="5.62739">
        <ele>958</ele>
        <time>2010-11-19T15:49:35Z</time>
      </trkpt>
      <trkpt lat="45.07758" lon="5.62743">
        <ele>957.6</ele>
        <time>2010-11-19T15:49:40Z</time>
      </trkpt>
      <trkpt lat="45.07758" lon="5.62746">
        <ele>957</ele>
        <time>2010-11-19T15:49:46Z</time>
      </trkpt>
      <trkpt lat="45.07759" lon="5.62749">
        <ele>956.4</ele>
        <time>2010-11-19T15:49:58Z</time>
      </trkpt>
      <trkpt lat="45.0776" lon="5.62752">
        <ele>956</ele>
        <time>2010-11-19T15:50:03Z</time>
      </trkpt>
      <trkpt lat="45.0776" lon="5.62755">
        <ele>955.8</ele>
        <time>2010-11-19T15:50:07Z</time>
      </trkpt>
      <trkpt lat="45.0776" lon="5.62757">
        <ele>955.6</ele>
        <time>2010-11-19T15:50:09Z</time>
      </trkpt>
      <trkpt lat="45.07759" lon="5.62758">
        <ele>955.4</ele>
        <time>2010-11-19T15:50:12Z</time>
      </trkpt>
      <trkpt lat="45.07758" lon="5.62759">
        <ele>955.2</ele>
        <time>2010-11-19T15:50:18Z</time>
      </trkpt>
      <trkpt lat="45.07756" lon="5.62759">
        <ele>954.6</ele>
        <time>2010-11-19T15:50:25Z</time>
      </trkpt>
      <trkpt lat="45.07755" lon="5.62762">
        <ele>954</ele>
        <time>2010-11-19T15:50:31Z</time>
      </trkpt>
      <trkpt lat="45.07755" lon="5.62763">
        <ele>953.6</ele>
        <time>2010-11-19T15:50:35Z</time>
      </trkpt>
      <trkpt lat="45.07755" lon="5.62766">
        <ele>953.4</ele>
        <time>2010-11-19T15:50:39Z</time>
      </trkpt>
      <trkpt lat="45.07755" lon="5.62769">
        <ele>952.8</ele>
        <time>2010-11-19T15:50:44Z</time>
      </trkpt>
      <trkpt lat="45.07752" lon="5.6277">
        <ele>952.2</ele>
        <time>2010-11-19T15:50:50Z</time>
      </trkpt>
      <trkpt lat="45.07751" lon="5.62772">
        <ele>951.8</ele>
        <time>2010-11-19T15:50:54Z</time>
      </trkpt>
      <trkpt lat="45.0775" lon="5.62775">
        <ele>951.2</ele>
        <time>2010-11-19T15:50:59Z</time>
      </trkpt>
      <trkpt lat="45.07749" lon="5.62776">
        <ele>951.2</ele>
        <time>2010-11-19T15:51:00Z</time>
      </trkpt>
      <trkpt lat="45.07747" lon="5.62779">
        <ele>950.6</ele>
        <time>2010-11-19T15:51:06Z</time>
      </trkpt>
      <trkpt lat="45.07746" lon="5.62782">
        <ele>949.6</ele>
        <time>2010-11-19T15:51:14Z</time>
      </trkpt>
      <trkpt lat="45.07744" lon="5.62783">
        <ele>949.2</ele>
        <time>2010-11-19T15:51:18Z</time>
      </trkpt>
      <trkpt lat="45.07742" lon="5.62781">
        <ele>948.4</ele>
        <time>2010-11-19T15:51:24Z</time>
      </trkpt>
      <trkpt lat="45.07739" lon="5.62782">
        <ele>946.8</ele>
        <time>2010-11-19T15:51:35Z</time>
      </trkpt>
      <trkpt lat="45.07738" lon="5.62782">
        <ele>945.8</ele>
        <time>2010-11-19T15:51:41Z</time>
      </trkpt>
      <trkpt lat="45.07737" lon="5.62784">
        <ele>944.6</ele>
        <time>2010-11-19T15:51:49Z</time>
      </trkpt>
      <trkpt lat="45.07736" lon="5.62786">
        <ele>943.8</ele>
        <time>2010-11-19T15:51:54Z</time>
      </trkpt>
      <trkpt lat="45.07735" lon="5.62786">
        <ele>943.6</ele>
        <time>2010-11-19T15:51:55Z</time>
      </trkpt>
      <trkpt lat="45.07734" lon="5.62787">
        <ele>943</ele>
        <time>2010-11-19T15:51:59Z</time>
      </trkpt>
      <trkpt lat="45.07732" lon="5.62785">
        <ele>941.6</ele>
        <time>2010-11-19T15:52:08Z</time>
      </trkpt>
      <trkpt lat="45.07731" lon="5.62783">
        <ele>940.6</ele>
        <time>2010-11-19T15:52:13Z</time>
      </trkpt>
      <trkpt lat="45.07729" lon="5.62782">
        <ele>939.6</ele>
        <time>2010-11-19T15:52:18Z</time>
      </trkpt>
      <trkpt lat="45.07727" lon="5.62784">
        <ele>938.4</ele>
        <time>2010-11-19T15:52:25Z</time>
      </trkpt>
      <trkpt lat="45.07725" lon="5.62788">
        <ele>937.4</ele>
        <time>2010-11-19T15:52:31Z</time>
      </trkpt>
      <trkpt lat="45.07728" lon="5.62793">
        <ele>936.6</ele>
        <time>2010-11-19T15:52:35Z</time>
      </trkpt>
      <trkpt lat="45.07729" lon="5.62794">
        <ele>936.4</ele>
        <time>2010-11-19T15:52:36Z</time>
      </trkpt>
      <trkpt lat="45.07731" lon="5.62799">
        <ele>935.8</ele>
        <time>2010-11-19T15:52:40Z</time>
      </trkpt>
      <trkpt lat="45.07732" lon="5.62802">
        <ele>935.4</ele>
        <time>2010-11-19T15:52:41Z</time>
      </trkpt>
      <trkpt lat="45.07737" lon="5.62815">
        <ele>934.4</ele>
        <time>2010-11-19T15:52:46Z</time>
      </trkpt>
      <trkpt lat="45.07744" lon="5.62831">
        <ele>933</ele>
        <time>2010-11-19T15:52:52Z</time>
      </trkpt>
      <trkpt lat="45.07749" lon="5.62837">
        <ele>932.2</ele>
        <time>2010-11-19T15:52:55Z</time>
      </trkpt>
      <trkpt lat="45.0775" lon="5.62839">
        <ele>932</ele>
        <time>2010-11-19T15:52:56Z</time>
      </trkpt>
      <trkpt lat="45.07755" lon="5.6285">
        <ele>930</ele>
        <time>2010-11-19T15:53:03Z</time>
      </trkpt>
      <trkpt lat="45.07759" lon="5.62861">
        <ele>928.8</ele>
        <time>2010-11-19T15:53:09Z</time>
      </trkpt>
      <trkpt lat="45.0776" lon="5.62862">
        <ele>928.6</ele>
        <time>2010-11-19T15:53:10Z</time>
      </trkpt>
      <trkpt lat="45.07762" lon="5.62867">
        <ele>927.8</ele>
        <time>2010-11-19T15:53:14Z</time>
      </trkpt>
      <trkpt lat="45.07763" lon="5.6287">
        <ele>927.6</ele>
        <time>2010-11-19T15:53:16Z</time>
      </trkpt>
      <trkpt lat="45.07763" lon="5.62872">
        <ele>927.4</ele>
        <time>2010-11-19T15:53:17Z</time>
      </trkpt>
      <trkpt lat="45.07763" lon="5.62875">
        <ele>927.2</ele>
        <time>2010-11-19T15:53:18Z</time>
      </trkpt>
      <trkpt lat="45.07765" lon="5.62879">
        <ele>926.8</ele>
        <time>2010-11-19T15:53:21Z</time>
      </trkpt>
      <trkpt lat="45.07767" lon="5.62885">
        <ele>926.4</ele>
        <time>2010-11-19T15:53:24Z</time>
      </trkpt>
      <trkpt lat="45.07769" lon="5.62891">
        <ele>926</ele>
        <time>2010-11-19T15:53:28Z</time>
      </trkpt>
      <trkpt lat="45.07771" lon="5.62897">
        <ele>925.8</ele>
        <time>2010-11-19T15:53:30Z</time>
      </trkpt>
      <trkpt lat="45.07775" lon="5.6291">
        <ele>925</ele>
        <time>2010-11-19T15:53:35Z</time>
      </trkpt>
      <trkpt lat="45.0778" lon="5.62925">
        <ele>924</ele>
        <time>2010-11-19T15:53:41Z</time>
      </trkpt>
      <trkpt lat="45.07782" lon="5.62935">
        <ele>923.2</ele>
        <time>2010-11-19T15:53:45Z</time>
      </trkpt>
      <trkpt lat="45.07784" lon="5.62941">
        <ele>922.8</ele>
        <time>2010-11-19T15:53:47Z</time>
      </trkpt>
      <trkpt lat="45.07788" lon="5.62951">
        <ele>922</ele>
        <time>2010-11-19T15:53:51Z</time>
      </trkpt>
      <trkpt lat="45.07791" lon="5.62959">
        <ele>921.4</ele>
        <time>2010-11-19T15:53:54Z</time>
      </trkpt>
      <trkpt lat="45.07792" lon="5.6296">
        <ele>921</ele>
        <time>2010-11-19T15:53:55Z</time>
      </trkpt>
      <trkpt lat="45.07797" lon="5.62967">
        <ele>920</ele>
        <time>2010-11-19T15:53:59Z</time>
      </trkpt>
      <trkpt lat="45.07803" lon="5.6298">
        <ele>918.2</ele>
        <time>2010-11-19T15:54:05Z</time>
      </trkpt>
      <trkpt lat="45.07804" lon="5.62983">
        <ele>918</ele>
        <time>2010-11-19T15:54:06Z</time>
      </trkpt>
      <trkpt lat="45.07811" lon="5.62993">
        <ele>916.4</ele>
        <time>2010-11-19T15:54:11Z</time>
      </trkpt>
      <trkpt lat="45.07815" lon="5.63003">
        <ele>915</ele>
        <time>2010-11-19T15:54:15Z</time>
      </trkpt>
      <trkpt lat="45.0782" lon="5.63017">
        <ele>913.6</ele>
        <time>2010-11-19T15:54:20Z</time>
      </trkpt>
      <trkpt lat="45.07823" lon="5.63024">
        <ele>912.6</ele>
        <time>2010-11-19T15:54:23Z</time>
      </trkpt>
      <trkpt lat="45.07824" lon="5.63025">
        <ele>912.2</ele>
        <time>2010-11-19T15:54:24Z</time>
      </trkpt>
      <trkpt lat="45.07825" lon="5.63027">
        <ele>911.8</ele>
        <time>2010-11-19T15:54:25Z</time>
      </trkpt>
      <trkpt lat="45.07831" lon="5.63038">
        <ele>910</ele>
        <time>2010-11-19T15:54:31Z</time>
      </trkpt>
      <trkpt lat="45.07835" lon="5.63047">
        <ele>908.6</ele>
        <time>2010-11-19T15:54:36Z</time>
      </trkpt>
      <trkpt lat="45.07837" lon="5.63048">
        <ele>908.2</ele>
        <time>2010-11-19T15:54:37Z</time>
      </trkpt>
      <trkpt lat="45.07841" lon="5.63053">
        <ele>907.4</ele>
        <time>2010-11-19T15:54:40Z</time>
      </trkpt>
      <trkpt lat="45.07842" lon="5.63058">
        <ele>906.8</ele>
        <time>2010-11-19T15:54:42Z</time>
      </trkpt>
      <trkpt lat="45.07845" lon="5.63068">
        <ele>905.6</ele>
        <time>2010-11-19T15:54:46Z</time>
      </trkpt>
      <trkpt lat="45.07846" lon="5.63071">
        <ele>905.2</ele>
        <time>2010-11-19T15:54:47Z</time>
      </trkpt>
      <trkpt lat="45.07847" lon="5.63072">
        <ele>905</ele>
        <time>2010-11-19T15:54:48Z</time>
      </trkpt>
      <trkpt lat="45.07848" lon="5.63084">
        <ele>903.6</ele>
        <time>2010-11-19T15:54:53Z</time>
      </trkpt>
      <trkpt lat="45.07848" lon="5.63086">
        <ele>903.2</ele>
        <time>2010-11-19T15:54:54Z</time>
      </trkpt>
      <trkpt lat="45.07847" lon="5.63094">
        <ele>902.6</ele>
        <time>2010-11-19T15:54:57Z</time>
      </trkpt>
      <trkpt lat="45.07847" lon="5.631">
        <ele>902.2</ele>
        <time>2010-11-19T15:55:00Z</time>
      </trkpt>
      <trkpt lat="45.07845" lon="5.63116">
        <ele>901</ele>
        <time>2010-11-19T15:55:06Z</time>
      </trkpt>
      <trkpt lat="45.07845" lon="5.63119">
        <ele>900.8</ele>
        <time>2010-11-19T15:55:07Z</time>
      </trkpt>
      <trkpt lat="45.07844" lon="5.63121">
        <ele>900.8</ele>
        <time>2010-11-19T15:55:08Z</time>
      </trkpt>
      <trkpt lat="45.07845" lon="5.63127">
        <ele>900.4</ele>
        <time>2010-11-19T15:55:10Z</time>
      </trkpt>
      <trkpt lat="45.07848" lon="5.63134">
        <ele>899.8</ele>
        <time>2010-11-19T15:55:13Z</time>
      </trkpt>
      <trkpt lat="45.0785" lon="5.63143">
        <ele>899.2</ele>
        <time>2010-11-19T15:55:16Z</time>
      </trkpt>
      <trkpt lat="45.0785" lon="5.63149">
        <ele>898.8</ele>
        <time>2010-11-19T15:55:19Z</time>
      </trkpt>
      <trkpt lat="45.0785" lon="5.63153">
        <ele>898.6</ele>
        <time>2010-11-19T15:55:20Z</time>
      </trkpt>
      <trkpt lat="45.0785" lon="5.63161">
        <ele>897.8</ele>
        <time>2010-11-19T15:55:24Z</time>
      </trkpt>
      <trkpt lat="45.0785" lon="5.63168">
        <ele>897</ele>
        <time>2010-11-19T15:55:28Z</time>
      </trkpt>
      <trkpt lat="45.07851" lon="5.6317">
        <ele>896.8</ele>
        <time>2010-11-19T15:55:29Z</time>
      </trkpt>
      <trkpt lat="45.07852" lon="5.63176">
        <ele>895.8</ele>
        <time>2010-11-19T15:55:34Z</time>
      </trkpt>
      <trkpt lat="45.07851" lon="5.63182">
        <ele>895.2</ele>
        <time>2010-11-19T15:55:37Z</time>
      </trkpt>
      <trkpt lat="45.0785" lon="5.63184">
        <ele>895</ele>
        <time>2010-11-19T15:55:38Z</time>
      </trkpt>
      <trkpt lat="45.07849" lon="5.63192">
        <ele>894</ele>
        <time>2010-11-19T15:55:43Z</time>
      </trkpt>
      <trkpt lat="45.07847" lon="5.63194">
        <ele>893.6</ele>
        <time>2010-11-19T15:55:45Z</time>
      </trkpt>
      <trkpt lat="45.07846" lon="5.63201">
        <ele>892.8</ele>
        <time>2010-11-19T15:55:49Z</time>
      </trkpt>
      <trkpt lat="45.07846" lon="5.6321">
        <ele>891.8</ele>
        <time>2010-11-19T15:55:53Z</time>
      </trkpt>
      <trkpt lat="45.07845" lon="5.63221">
        <ele>891</ele>
        <time>2010-11-19T15:55:58Z</time>
      </trkpt>
      <trkpt lat="45.07844" lon="5.6323">
        <ele>890</ele>
        <time>2010-11-19T15:56:02Z</time>
      </trkpt>
      <trkpt lat="45.07844" lon="5.63235">
        <ele>889.4</ele>
        <time>2010-11-19T15:56:04Z</time>
      </trkpt>
      <trkpt lat="45.07846" lon="5.63243">
        <ele>888.6</ele>
        <time>2010-11-19T15:56:07Z</time>
      </trkpt>
      <trkpt lat="45.07848" lon="5.63246">
        <ele>888</ele>
        <time>2010-11-19T15:56:09Z</time>
      </trkpt>
      <trkpt lat="45.07848" lon="5.63255">
        <ele>887.2</ele>
        <time>2010-11-19T15:56:12Z</time>
      </trkpt>
      <trkpt lat="45.07852" lon="5.6327">
        <ele>885.6</ele>
        <time>2010-11-19T15:56:18Z</time>
      </trkpt>
      <trkpt lat="45.07852" lon="5.63272">
        <ele>885.2</ele>
        <time>2010-11-19T15:56:19Z</time>
      </trkpt>
      <trkpt lat="45.07855" lon="5.63277">
        <ele>884.4</ele>
        <time>2010-11-19T15:56:22Z</time>
      </trkpt>
      <trkpt lat="45.07855" lon="5.6328">
        <ele>884.2</ele>
        <time>2010-11-19T15:56:23Z</time>
      </trkpt>
      <trkpt lat="45.07859" lon="5.63288">
        <ele>882.8</ele>
        <time>2010-11-19T15:56:27Z</time>
      </trkpt>
      <trkpt lat="45.07859" lon="5.6329">
        <ele>882.6</ele>
        <time>2010-11-19T15:56:28Z</time>
      </trkpt>
      <trkpt lat="45.07858" lon="5.63294">
        <ele>881.8</ele>
        <time>2010-11-19T15:56:31Z</time>
      </trkpt>
      <trkpt lat="45.07858" lon="5.63296">
        <ele>881.2</ele>
        <time>2010-11-19T15:56:33Z</time>
      </trkpt>
      <trkpt lat="45.07859" lon="5.63299">
        <ele>880.8</ele>
        <time>2010-11-19T15:56:35Z</time>
      </trkpt>
      <trkpt lat="45.07858" lon="5.63301">
        <ele>879.6</ele>
        <time>2010-11-19T15:56:39Z</time>
      </trkpt>
      <trkpt lat="45.07858" lon="5.63307">
        <ele>871.4</ele>
        <time>2010-11-19T15:57:23Z</time>
      </trkpt>
      <trkpt lat="45.07861" lon="5.63313">
        <ele>870.6</ele>
        <time>2010-11-19T15:57:28Z</time>
      </trkpt>
      <trkpt lat="45.07862" lon="5.63317">
        <ele>870.2</ele>
        <time>2010-11-19T15:57:30Z</time>
      </trkpt>
      <trkpt lat="45.07867" lon="5.6333">
        <ele>869</ele>
        <time>2010-11-19T15:57:38Z</time>
      </trkpt>
      <trkpt lat="45.07869" lon="5.63335">
        <ele>868.4</ele>
        <time>2010-11-19T15:57:41Z</time>
      </trkpt>
      <trkpt lat="45.07869" lon="5.63337">
        <ele>868.2</ele>
        <time>2010-11-19T15:57:42Z</time>
      </trkpt>
      <trkpt lat="45.07869" lon="5.6334">
        <ele>868</ele>
        <time>2010-11-19T15:57:43Z</time>
      </trkpt>
      <trkpt lat="45.07873" lon="5.6335">
        <ele>867.2</ele>
        <time>2010-11-19T15:57:48Z</time>
      </trkpt>
      <trkpt lat="45.07874" lon="5.63354">
        <ele>866</ele>
        <time>2010-11-19T15:57:53Z</time>
      </trkpt>
      <trkpt lat="45.07873" lon="5.6336">
        <ele>865.2</ele>
        <time>2010-11-19T15:57:57Z</time>
      </trkpt>
      <trkpt lat="45.07873" lon="5.63361">
        <ele>865</ele>
        <time>2010-11-19T15:57:58Z</time>
      </trkpt>
      <trkpt lat="45.07874" lon="5.63371">
        <ele>863.8</ele>
        <time>2010-11-19T15:58:03Z</time>
      </trkpt>
      <trkpt lat="45.07875" lon="5.63381">
        <ele>862.8</ele>
        <time>2010-11-19T15:58:08Z</time>
      </trkpt>
      <trkpt lat="45.07875" lon="5.63384">
        <ele>862.4</ele>
        <time>2010-11-19T15:58:10Z</time>
      </trkpt>
      <trkpt lat="45.07875" lon="5.63385">
        <ele>862</ele>
        <time>2010-11-19T15:58:11Z</time>
      </trkpt>
      <trkpt lat="45.07876" lon="5.63388">
        <ele>861.6</ele>
        <time>2010-11-19T15:58:13Z</time>
      </trkpt>
      <trkpt lat="45.07875" lon="5.63392">
        <ele>861.2</ele>
        <time>2010-11-19T15:58:15Z</time>
      </trkpt>
      <trkpt lat="45.07876" lon="5.634">
        <ele>860.2</ele>
        <time>2010-11-19T15:58:19Z</time>
      </trkpt>
      <trkpt lat="45.0788" lon="5.63411">
        <ele>858.8</ele>
        <time>2010-11-19T15:58:25Z</time>
      </trkpt>
      <trkpt lat="45.07881" lon="5.63413">
        <ele>858.6</ele>
        <time>2010-11-19T15:58:26Z</time>
      </trkpt>
      <trkpt lat="45.07883" lon="5.63421">
        <ele>858</ele>
        <time>2010-11-19T15:58:29Z</time>
      </trkpt>
      <trkpt lat="45.07884" lon="5.63426">
        <ele>857.4</ele>
        <time>2010-11-19T15:58:31Z</time>
      </trkpt>
      <trkpt lat="45.07885" lon="5.63432">
        <ele>856.6</ele>
        <time>2010-11-19T15:58:34Z</time>
      </trkpt>
      <trkpt lat="45.07885" lon="5.63437">
        <ele>856.2</ele>
        <time>2010-11-19T15:58:36Z</time>
      </trkpt>
      <trkpt lat="45.07884" lon="5.63449">
        <ele>855.2</ele>
        <time>2010-11-19T15:58:40Z</time>
      </trkpt>
      <trkpt lat="45.07883" lon="5.63455">
        <ele>854.4</ele>
        <time>2010-11-19T15:58:43Z</time>
      </trkpt>
      <trkpt lat="45.07882" lon="5.6346">
        <ele>853.4</ele>
        <time>2010-11-19T15:58:46Z</time>
      </trkpt>
      <trkpt lat="45.07882" lon="5.63462">
        <ele>853.2</ele>
        <time>2010-11-19T15:58:47Z</time>
      </trkpt>
      <trkpt lat="45.07882" lon="5.63463">
        <ele>852.8</ele>
        <time>2010-11-19T15:58:48Z</time>
      </trkpt>
      <trkpt lat="45.07879" lon="5.63464">
        <ele>852</ele>
        <time>2010-11-19T15:58:51Z</time>
      </trkpt>
      <trkpt lat="45.07877" lon="5.6346">
        <ele>850.8</ele>
        <time>2010-11-19T15:58:55Z</time>
      </trkpt>
      <trkpt lat="45.07876" lon="5.63459">
        <ele>850.4</ele>
        <time>2010-11-19T15:58:56Z</time>
      </trkpt>
      <trkpt lat="45.07874" lon="5.63447">
        <ele>848.6</ele>
        <time>2010-11-19T15:59:01Z</time>
      </trkpt>
      <trkpt lat="45.07873" lon="5.63445">
        <ele>848.4</ele>
        <time>2010-11-19T15:59:02Z</time>
      </trkpt>
      <trkpt lat="45.07872" lon="5.63444">
        <ele>848</ele>
        <time>2010-11-19T15:59:03Z</time>
      </trkpt>
      <trkpt lat="45.07871" lon="5.63442">
        <ele>847.6</ele>
        <time>2010-11-19T15:59:05Z</time>
      </trkpt>
      <trkpt lat="45.07867" lon="5.63439">
        <ele>847</ele>
        <time>2010-11-19T15:59:06Z</time>
      </trkpt>
      <trkpt lat="45.07857" lon="5.63436">
        <ele>845.6</ele>
        <time>2010-11-19T15:59:10Z</time>
      </trkpt>
      <trkpt lat="45.07855" lon="5.63435">
        <ele>845.4</ele>
        <time>2010-11-19T15:59:11Z</time>
      </trkpt>
      <trkpt lat="45.0784" lon="5.63432">
        <ele>843.4</ele>
        <time>2010-11-19T15:59:17Z</time>
      </trkpt>
      <trkpt lat="45.07837" lon="5.63431">
        <ele>843.2</ele>
        <time>2010-11-19T15:59:18Z</time>
      </trkpt>
      <trkpt lat="45.0783" lon="5.6343">
        <ele>842.2</ele>
        <time>2010-11-19T15:59:21Z</time>
      </trkpt>
      <trkpt lat="45.07829" lon="5.63431">
        <ele>842</ele>
        <time>2010-11-19T15:59:22Z</time>
      </trkpt>
      <trkpt lat="45.07823" lon="5.63427">
        <ele>840.2</ele>
        <time>2010-11-19T15:59:27Z</time>
      </trkpt>
      <trkpt lat="45.07823" lon="5.63423">
        <ele>839.6</ele>
        <time>2010-11-19T15:59:29Z</time>
      </trkpt>
      <trkpt lat="45.07825" lon="5.63415">
        <ele>838.2</ele>
        <time>2010-11-19T15:59:33Z</time>
      </trkpt>
      <trkpt lat="45.07826" lon="5.63413">
        <ele>837.8</ele>
        <time>2010-11-19T15:59:34Z</time>
      </trkpt>
      <trkpt lat="45.07829" lon="5.63403">
        <ele>836.2</ele>
        <time>2010-11-19T15:59:38Z</time>
      </trkpt>
      <trkpt lat="45.07829" lon="5.63402">
        <ele>835.8</ele>
        <time>2010-11-19T15:59:39Z</time>
      </trkpt>
      <trkpt lat="45.07828" lon="5.63401">
        <ele>835.4</ele>
        <time>2010-11-19T15:59:40Z</time>
      </trkpt>
      <trkpt lat="45.07826" lon="5.63398">
        <ele>834.6</ele>
        <time>2010-11-19T15:59:42Z</time>
      </trkpt>
      <trkpt lat="45.07825" lon="5.63389">
        <ele>832.6</ele>
        <time>2010-11-19T15:59:47Z</time>
      </trkpt>
      <trkpt lat="45.07824" lon="5.63388">
        <ele>832.2</ele>
        <time>2010-11-19T15:59:48Z</time>
      </trkpt>
      <trkpt lat="45.07819" lon="5.63389">
        <ele>830.2</ele>
        <time>2010-11-19T15:59:53Z</time>
      </trkpt>
      <trkpt lat="45.07819" lon="5.63391">
        <ele>829.8</ele>
        <time>2010-11-19T15:59:54Z</time>
      </trkpt>
      <trkpt lat="45.07817" lon="5.63394">
        <ele>829.2</ele>
        <time>2010-11-19T15:59:56Z</time>
      </trkpt>
      <trkpt lat="45.07816" lon="5.63395">
        <ele>828.8</ele>
        <time>2010-11-19T15:59:57Z</time>
      </trkpt>
      <trkpt lat="45.07815" lon="5.63396">
        <ele>828.4</ele>
        <time>2010-11-19T15:59:58Z</time>
      </trkpt>
      <trkpt lat="45.07811" lon="5.63401">
        <ele>827.2</ele>
        <time>2010-11-19T16:00:01Z</time>
      </trkpt>
      <trkpt lat="45.07809" lon="5.63402">
        <ele>827</ele>
        <time>2010-11-19T16:00:02Z</time>
      </trkpt>
      <trkpt lat="45.07803" lon="5.63405">
        <ele>825.6</ele>
        <time>2010-11-19T16:00:06Z</time>
      </trkpt>
      <trkpt lat="45.07801" lon="5.63406">
        <ele>825.2</ele>
        <time>2010-11-19T16:00:07Z</time>
      </trkpt>
      <trkpt lat="45.07797" lon="5.63411">
        <ele>824.2</ele>
        <time>2010-11-19T16:00:10Z</time>
      </trkpt>
      <trkpt lat="45.07796" lon="5.63413">
        <ele>823.8</ele>
        <time>2010-11-19T16:00:11Z</time>
      </trkpt>
      <trkpt lat="45.07792" lon="5.63418">
        <ele>822.8</ele>
        <time>2010-11-19T16:00:14Z</time>
      </trkpt>
      <trkpt lat="45.07791" lon="5.6342">
        <ele>822.4</ele>
        <time>2010-11-19T16:00:15Z</time>
      </trkpt>
      <trkpt lat="45.07789" lon="5.63425">
        <ele>821.4</ele>
        <time>2010-11-19T16:00:18Z</time>
      </trkpt>
      <trkpt lat="45.07789" lon="5.63428">
        <ele>821</ele>
        <time>2010-11-19T16:00:19Z</time>
      </trkpt>
      <trkpt lat="45.07786" lon="5.63436">
        <ele>819.4</ele>
        <time>2010-11-19T16:00:23Z</time>
      </trkpt>
      <trkpt lat="45.07784" lon="5.63442">
        <ele>818</ele>
        <time>2010-11-19T16:00:27Z</time>
      </trkpt>
      <trkpt lat="45.07785" lon="5.63443">
        <ele>817</ele>
        <time>2010-11-19T16:00:29Z</time>
      </trkpt>
      <trkpt lat="45.07785" lon="5.63446">
        <ele>816.8</ele>
        <time>2010-11-19T16:00:30Z</time>
      </trkpt>
      <trkpt lat="45.07784" lon="5.63448">
        <ele>815.4</ele>
        <time>2010-11-19T16:00:33Z</time>
      </trkpt>
      <trkpt lat="45.07784" lon="5.6345">
        <ele>815</ele>
        <time>2010-11-19T16:00:34Z</time>
      </trkpt>
      <trkpt lat="45.07784" lon="5.63456">
        <ele>813.4</ele>
        <time>2010-11-19T16:00:38Z</time>
      </trkpt>
      <trkpt lat="45.07784" lon="5.63457">
        <ele>813</ele>
        <time>2010-11-19T16:00:39Z</time>
      </trkpt>
      <trkpt lat="45.07786" lon="5.63464">
        <ele>811.4</ele>
        <time>2010-11-19T16:00:43Z</time>
      </trkpt>
      <trkpt lat="45.07786" lon="5.63465">
        <ele>811.2</ele>
        <time>2010-11-19T16:00:44Z</time>
      </trkpt>
      <trkpt lat="45.07786" lon="5.63467">
        <ele>810.8</ele>
        <time>2010-11-19T16:00:45Z</time>
      </trkpt>
      <trkpt lat="45.07785" lon="5.6347">
        <ele>810</ele>
        <time>2010-11-19T16:00:47Z</time>
      </trkpt>
      <trkpt lat="45.07785" lon="5.63474">
        <ele>809.2</ele>
        <time>2010-11-19T16:00:49Z</time>
      </trkpt>
      <trkpt lat="45.07784" lon="5.63478">
        <ele>808.4</ele>
        <time>2010-11-19T16:00:51Z</time>
      </trkpt>
      <trkpt lat="45.07779" lon="5.63478">
        <ele>806.2</ele>
        <time>2010-11-19T16:00:56Z</time>
      </trkpt>
      <trkpt lat="45.07778" lon="5.63478">
        <ele>805.8</ele>
        <time>2010-11-19T16:00:57Z</time>
      </trkpt>
      <trkpt lat="45.0777" lon="5.63478">
        <ele>803.8</ele>
        <time>2010-11-19T16:01:02Z</time>
      </trkpt>
      <trkpt lat="45.07767" lon="5.63479">
        <ele>803.4</ele>
        <time>2010-11-19T16:01:03Z</time>
      </trkpt>
      <trkpt lat="45.07765" lon="5.63481">
        <ele>802.6</ele>
        <time>2010-11-19T16:01:05Z</time>
      </trkpt>
      <trkpt lat="45.07765" lon="5.63483">
        <ele>801.4</ele>
        <time>2010-11-19T16:01:08Z</time>
      </trkpt>
      <trkpt lat="45.07763" lon="5.63485">
        <ele>800.4</ele>
        <time>2010-11-19T16:01:11Z</time>
      </trkpt>
      <trkpt lat="45.07764" lon="5.63484">
        <ele>798.6</ele>
        <time>2010-11-19T16:01:16Z</time>
      </trkpt>
      <trkpt lat="45.07763" lon="5.63481">
        <ele>784.2</ele>
        <time>2010-11-19T16:02:07Z</time>
      </trkpt>
      <trkpt lat="45.07764" lon="5.63479">
        <ele>783.8</ele>
        <time>2010-11-19T16:02:09Z</time>
      </trkpt>
      <trkpt lat="45.07765" lon="5.63475">
        <ele>782.8</ele>
        <time>2010-11-19T16:02:13Z</time>
      </trkpt>
      <trkpt lat="45.07765" lon="5.63474">
        <ele>782.4</ele>
        <time>2010-11-19T16:02:14Z</time>
      </trkpt>
      <trkpt lat="45.07765" lon="5.63472">
        <ele>782</ele>
        <time>2010-11-19T16:02:16Z</time>
      </trkpt>
      <trkpt lat="45.07762" lon="5.63467">
        <ele>780.4</ele>
        <time>2010-11-19T16:02:21Z</time>
      </trkpt>
      <trkpt lat="45.07762" lon="5.63466">
        <ele>780.2</ele>
        <time>2010-11-19T16:02:22Z</time>
      </trkpt>
      <trkpt lat="45.07759" lon="5.6346">
        <ele>778.4</ele>
        <time>2010-11-19T16:02:28Z</time>
      </trkpt>
      <trkpt lat="45.07755" lon="5.63463">
        <ele>776.6</ele>
        <time>2010-11-19T16:02:34Z</time>
      </trkpt>
      <trkpt lat="45.07755" lon="5.63466">
        <ele>775.8</ele>
        <time>2010-11-19T16:02:37Z</time>
      </trkpt>
      <trkpt lat="45.07755" lon="5.63467">
        <ele>775.6</ele>
        <time>2010-11-19T16:02:38Z</time>
      </trkpt>
      <trkpt lat="45.07755" lon="5.63469">
        <ele>774.8</ele>
        <time>2010-11-19T16:02:41Z</time>
      </trkpt>
      <trkpt lat="45.07755" lon="5.63474">
        <ele>773.8</ele>
        <time>2010-11-19T16:02:45Z</time>
      </trkpt>
      <trkpt lat="45.07753" lon="5.63483">
        <ele>772.6</ele>
        <time>2010-11-19T16:02:50Z</time>
      </trkpt>
      <trkpt lat="45.07753" lon="5.63486">
        <ele>772.4</ele>
        <time>2010-11-19T16:02:51Z</time>
      </trkpt>
      <trkpt lat="45.07751" lon="5.63492">
        <ele>771.6</ele>
        <time>2010-11-19T16:02:54Z</time>
      </trkpt>
      <trkpt lat="45.07751" lon="5.63494">
        <ele>771.4</ele>
        <time>2010-11-19T16:02:55Z</time>
      </trkpt>
      <trkpt lat="45.07749" lon="5.63496">
        <ele>771.2</ele>
        <time>2010-11-19T16:02:56Z</time>
      </trkpt>
      <trkpt lat="45.07746" lon="5.63501">
        <ele>770.2</ele>
        <time>2010-11-19T16:03:00Z</time>
      </trkpt>
      <trkpt lat="45.07745" lon="5.63507">
        <ele>768.8</ele>
        <time>2010-11-19T16:03:06Z</time>
      </trkpt>
      <trkpt lat="45.07744" lon="5.63515">
        <ele>767.2</ele>
        <time>2010-11-19T16:03:12Z</time>
      </trkpt>
      <trkpt lat="45.07745" lon="5.63518">
        <ele>767</ele>
        <time>2010-11-19T16:03:13Z</time>
      </trkpt>
      <trkpt lat="45.07744" lon="5.63525">
        <ele>765.6</ele>
        <time>2010-11-19T16:03:18Z</time>
      </trkpt>
      <trkpt lat="45.07737" lon="5.6353">
        <ele>763.8</ele>
        <time>2010-11-19T16:03:25Z</time>
      </trkpt>
      <trkpt lat="45.07734" lon="5.63532">
        <ele>763.2</ele>
        <time>2010-11-19T16:03:28Z</time>
      </trkpt>
      <trkpt lat="45.07731" lon="5.63531">
        <ele>762.4</ele>
        <time>2010-11-19T16:03:31Z</time>
      </trkpt>
      <trkpt lat="45.07728" lon="5.63532">
        <ele>761.6</ele>
        <time>2010-11-19T16:03:34Z</time>
      </trkpt>
      <trkpt lat="45.07725" lon="5.63531">
        <ele>761</ele>
        <time>2010-11-19T16:03:36Z</time>
      </trkpt>
      <trkpt lat="45.07725" lon="5.6353">
        <ele>760.6</ele>
        <time>2010-11-19T16:03:37Z</time>
      </trkpt>
      <trkpt lat="45.07724" lon="5.63524">
        <ele>759.6</ele>
        <time>2010-11-19T16:03:40Z</time>
      </trkpt>
      <trkpt lat="45.07725" lon="5.6352">
        <ele>758.8</ele>
        <time>2010-11-19T16:03:43Z</time>
      </trkpt>
      <trkpt lat="45.07726" lon="5.63518">
        <ele>758</ele>
        <time>2010-11-19T16:03:45Z</time>
      </trkpt>
      <trkpt lat="45.07727" lon="5.63511">
        <ele>756.4</ele>
        <time>2010-11-19T16:03:50Z</time>
      </trkpt>
      <trkpt lat="45.07728" lon="5.63501">
        <ele>753.8</ele>
        <time>2010-11-19T16:03:57Z</time>
      </trkpt>
      <trkpt lat="45.07727" lon="5.63495">
        <ele>752.4</ele>
        <time>2010-11-19T16:04:01Z</time>
      </trkpt>
      <trkpt lat="45.07724" lon="5.63491">
        <ele>751</ele>
        <time>2010-11-19T16:04:05Z</time>
      </trkpt>
      <trkpt lat="45.0772" lon="5.63494">
        <ele>749</ele>
        <time>2010-11-19T16:04:12Z</time>
      </trkpt>
      <trkpt lat="45.07719" lon="5.63497">
        <ele>748.6</ele>
        <time>2010-11-19T16:04:15Z</time>
      </trkpt>
      <trkpt lat="45.07717" lon="5.635">
        <ele>748</ele>
        <time>2010-11-19T16:04:16Z</time>
      </trkpt>
      <trkpt lat="45.07715" lon="5.635">
        <ele>747.6</ele>
        <time>2010-11-19T16:04:18Z</time>
      </trkpt>
      <trkpt lat="45.07713" lon="5.63501">
        <ele>747</ele>
        <time>2010-11-19T16:04:20Z</time>
      </trkpt>
      <trkpt lat="45.07712" lon="5.635">
        <ele>746.8</ele>
        <time>2010-11-19T16:04:21Z</time>
      </trkpt>
      <trkpt lat="45.07709" lon="5.63497">
        <ele>746</ele>
        <time>2010-11-19T16:04:24Z</time>
      </trkpt>
      <trkpt lat="45.07708" lon="5.63491">
        <ele>744.8</ele>
        <time>2010-11-19T16:04:28Z</time>
      </trkpt>
      <trkpt lat="45.07707" lon="5.6349">
        <ele>744.6</ele>
        <time>2010-11-19T16:04:29Z</time>
      </trkpt>
      <trkpt lat="45.07702" lon="5.63485">
        <ele>742.8</ele>
        <time>2010-11-19T16:04:35Z</time>
      </trkpt>
      <trkpt lat="45.077" lon="5.63485">
        <ele>742.2</ele>
        <time>2010-11-19T16:04:37Z</time>
      </trkpt>
      <trkpt lat="45.07696" lon="5.63477">
        <ele>740.6</ele>
        <time>2010-11-19T16:04:42Z</time>
      </trkpt>
      <trkpt lat="45.07695" lon="5.63473">
        <ele>739.6</ele>
        <time>2010-11-19T16:04:45Z</time>
      </trkpt>
      <trkpt lat="45.07695" lon="5.63471">
        <ele>739</ele>
        <time>2010-11-19T16:04:47Z</time>
      </trkpt>
      <trkpt lat="45.07694" lon="5.6347">
        <ele>738.6</ele>
        <time>2010-11-19T16:04:48Z</time>
      </trkpt>
      <trkpt lat="45.07693" lon="5.63468">
        <ele>738</ele>
        <time>2010-11-19T16:04:50Z</time>
      </trkpt>
      <trkpt lat="45.0769" lon="5.63465">
        <ele>736.8</ele>
        <time>2010-11-19T16:04:54Z</time>
      </trkpt>
      <trkpt lat="45.07689" lon="5.63464">
        <ele>736</ele>
        <time>2010-11-19T16:04:56Z</time>
      </trkpt>
      <trkpt lat="45.07688" lon="5.63461">
        <ele>735</ele>
        <time>2010-11-19T16:04:59Z</time>
      </trkpt>
      <trkpt lat="45.07686" lon="5.63459">
        <ele>734.4</ele>
        <time>2010-11-19T16:05:01Z</time>
      </trkpt>
      <trkpt lat="45.07685" lon="5.63456">
        <ele>733</ele>
        <time>2010-11-19T16:05:06Z</time>
      </trkpt>
      <trkpt lat="45.0768" lon="5.6345">
        <ele>730.4</ele>
        <time>2010-11-19T16:05:14Z</time>
      </trkpt>
      <trkpt lat="45.07679" lon="5.63446">
        <ele>729.2</ele>
        <time>2010-11-19T16:05:18Z</time>
      </trkpt>
      <trkpt lat="45.07679" lon="5.63446">
        <ele>729</ele>
        <time>2010-11-19T16:05:19Z</time>
      </trkpt>
      <trkpt lat="45.07679" lon="5.63441">
        <ele>727.4</ele>
        <time>2010-11-19T16:05:24Z</time>
      </trkpt>
      <trkpt lat="45.07679" lon="5.63439">
        <ele>726.4</ele>
        <time>2010-11-19T16:05:27Z</time>
      </trkpt>
      <trkpt lat="45.07672" lon="5.63441">
        <ele>723.6</ele>
        <time>2010-11-19T16:05:37Z</time>
      </trkpt>
      <trkpt lat="45.07669" lon="5.6344">
        <ele>722.8</ele>
        <time>2010-11-19T16:05:40Z</time>
      </trkpt>
      <trkpt lat="45.07668" lon="5.63437">
        <ele>721.8</ele>
        <time>2010-11-19T16:05:43Z</time>
      </trkpt>
      <trkpt lat="45.07666" lon="5.63434">
        <ele>721</ele>
        <time>2010-11-19T16:05:46Z</time>
      </trkpt>
      <trkpt lat="45.07665" lon="5.63432">
        <ele>720.2</ele>
        <time>2010-11-19T16:05:49Z</time>
      </trkpt>
      <trkpt lat="45.07662" lon="5.63423">
        <ele>717.8</ele>
        <time>2010-11-19T16:05:57Z</time>
      </trkpt>
      <trkpt lat="45.07662" lon="5.63422">
        <ele>717.6</ele>
        <time>2010-11-19T16:05:58Z</time>
      </trkpt>
      <trkpt lat="45.07659" lon="5.63424">
        <ele>716</ele>
        <time>2010-11-19T16:06:03Z</time>
      </trkpt>
      <trkpt lat="45.07658" lon="5.63429">
        <ele>714.8</ele>
        <time>2010-11-19T16:06:08Z</time>
      </trkpt>
      <trkpt lat="45.07655" lon="5.63432">
        <ele>713.6</ele>
        <time>2010-11-19T16:06:12Z</time>
      </trkpt>
      <trkpt lat="45.07652" lon="5.6343">
        <ele>712.2</ele>
        <time>2010-11-19T16:06:17Z</time>
      </trkpt>
      <trkpt lat="45.07649" lon="5.63425">
        <ele>710.2</ele>
        <time>2010-11-19T16:06:23Z</time>
      </trkpt>
      <trkpt lat="45.07644" lon="5.63419">
        <ele>708</ele>
        <time>2010-11-19T16:06:30Z</time>
      </trkpt>
      <trkpt lat="45.07644" lon="5.63417">
        <ele>707.6</ele>
        <time>2010-11-19T16:06:31Z</time>
      </trkpt>
      <trkpt lat="45.07643" lon="5.63414">
        <ele>706.6</ele>
        <time>2010-11-19T16:06:34Z</time>
      </trkpt>
      <trkpt lat="45.07643" lon="5.63413">
        <ele>706.2</ele>
        <time>2010-11-19T16:06:35Z</time>
      </trkpt>
      <trkpt lat="45.07642" lon="5.63411">
        <ele>705.8</ele>
        <time>2010-11-19T16:06:36Z</time>
      </trkpt>
      <trkpt lat="45.07638" lon="5.63404">
        <ele>703.6</ele>
        <time>2010-11-19T16:06:42Z</time>
      </trkpt>
      <trkpt lat="45.07637" lon="5.63403">
        <ele>703.2</ele>
        <time>2010-11-19T16:06:43Z</time>
      </trkpt>
      <trkpt lat="45.07636" lon="5.634">
        <ele>702.2</ele>
        <time>2010-11-19T16:06:46Z</time>
      </trkpt>
      <trkpt lat="45.07635" lon="5.63398">
        <ele>701.4</ele>
        <time>2010-11-19T16:06:48Z</time>
      </trkpt>
      <trkpt lat="45.07635" lon="5.63397">
        <ele>701</ele>
        <time>2010-11-19T16:06:49Z</time>
      </trkpt>
      <trkpt lat="45.0763" lon="5.63392">
        <ele>699.8</ele>
        <time>2010-11-19T16:06:53Z</time>
      </trkpt>
      <trkpt lat="45.07629" lon="5.63391">
        <ele>699.4</ele>
        <time>2010-11-19T16:06:54Z</time>
      </trkpt>
      <trkpt lat="45.07629" lon="5.63391">
        <ele>699.2</ele>
        <time>2010-11-19T16:06:55Z</time>
      </trkpt>
      <trkpt lat="45.07626" lon="5.63391">
        <ele>698</ele>
        <time>2010-11-19T16:06:58Z</time>
      </trkpt>
      <trkpt lat="45.07625" lon="5.63393">
        <ele>697.4</ele>
        <time>2010-11-19T16:07:00Z</time>
      </trkpt>
      <trkpt lat="45.07623" lon="5.63395">
        <ele>696.8</ele>
        <time>2010-11-19T16:07:02Z</time>
      </trkpt>
      <trkpt lat="45.07622" lon="5.63396">
        <ele>696.6</ele>
        <time>2010-11-19T16:07:03Z</time>
      </trkpt>
      <trkpt lat="45.07619" lon="5.63401">
        <ele>695.6</ele>
        <time>2010-11-19T16:07:06Z</time>
      </trkpt>
      <trkpt lat="45.07617" lon="5.63401">
        <ele>695.2</ele>
        <time>2010-11-19T16:07:07Z</time>
      </trkpt>
      <trkpt lat="45.07616" lon="5.63402">
        <ele>695</ele>
        <time>2010-11-19T16:07:08Z</time>
      </trkpt>
      <trkpt lat="45.07609" lon="5.634">
        <ele>693.4</ele>
        <time>2010-11-19T16:07:13Z</time>
      </trkpt>
      <trkpt lat="45.07607" lon="5.63399">
        <ele>692.8</ele>
        <time>2010-11-19T16:07:15Z</time>
      </trkpt>
      <trkpt lat="45.07604" lon="5.63402">
        <ele>691.8</ele>
        <time>2010-11-19T16:07:18Z</time>
      </trkpt>
      <trkpt lat="45.076" lon="5.63409">
        <ele>690.4</ele>
        <time>2010-11-19T16:07:23Z</time>
      </trkpt>
      <trkpt lat="45.07597" lon="5.63418">
        <ele>688.8</ele>
        <time>2010-11-19T16:07:28Z</time>
      </trkpt>
      <trkpt lat="45.07594" lon="5.63429">
        <ele>686.6</ele>
        <time>2010-11-19T16:07:34Z</time>
      </trkpt>
      <trkpt lat="45.07593" lon="5.63434">
        <ele>686</ele>
        <time>2010-11-19T16:07:36Z</time>
      </trkpt>
      <trkpt lat="45.07591" lon="5.63446">
        <ele>684.8</ele>
        <time>2010-11-19T16:07:40Z</time>
      </trkpt>
      <trkpt lat="45.07587" lon="5.63456">
        <ele>683.4</ele>
        <time>2010-11-19T16:07:45Z</time>
      </trkpt>
      <trkpt lat="45.07587" lon="5.63458">
        <ele>683</ele>
        <time>2010-11-19T16:07:46Z</time>
      </trkpt>
      <trkpt lat="45.07586" lon="5.63463">
        <ele>682.4</ele>
        <time>2010-11-19T16:07:48Z</time>
      </trkpt>
      <trkpt lat="45.07586" lon="5.63466">
        <ele>681.8</ele>
        <time>2010-11-19T16:07:50Z</time>
      </trkpt>
      <trkpt lat="45.07582" lon="5.63474">
        <ele>680.4</ele>
        <time>2010-11-19T16:07:55Z</time>
      </trkpt>
      <trkpt lat="45.0758" lon="5.63482">
        <ele>679.2</ele>
        <time>2010-11-19T16:07:59Z</time>
      </trkpt>
      <trkpt lat="45.07579" lon="5.63485">
        <ele>678.4</ele>
        <time>2010-11-19T16:08:01Z</time>
      </trkpt>
      <trkpt lat="45.07577" lon="5.63495">
        <ele>676.4</ele>
        <time>2010-11-19T16:08:07Z</time>
      </trkpt>
      <trkpt lat="45.07574" lon="5.63506">
        <ele>674.8</ele>
        <time>2010-11-19T16:08:12Z</time>
      </trkpt>
      <trkpt lat="45.07573" lon="5.63508">
        <ele>674.4</ele>
        <time>2010-11-19T16:08:13Z</time>
      </trkpt>
      <trkpt lat="45.07572" lon="5.6351">
        <ele>674</ele>
        <time>2010-11-19T16:08:14Z</time>
      </trkpt>
      <trkpt lat="45.0757" lon="5.63517">
        <ele>672.6</ele>
        <time>2010-11-19T16:08:18Z</time>
      </trkpt>
      <trkpt lat="45.07569" lon="5.63524">
        <ele>671.4</ele>
        <time>2010-11-19T16:08:21Z</time>
      </trkpt>
      <trkpt lat="45.07569" lon="5.63531">
        <ele>670.2</ele>
        <time>2010-11-19T16:08:24Z</time>
      </trkpt>
      <trkpt lat="45.0757" lon="5.63537">
        <ele>668.8</ele>
        <time>2010-11-19T16:08:28Z</time>
      </trkpt>
      <trkpt lat="45.0757" lon="5.6354">
        <ele>668</ele>
        <time>2010-11-19T16:08:30Z</time>
      </trkpt>
      <trkpt lat="45.07568" lon="5.63551">
        <ele>665.8</ele>
        <time>2010-11-19T16:08:36Z</time>
      </trkpt>
      <trkpt lat="45.07567" lon="5.63556">
        <ele>665</ele>
        <time>2010-11-19T16:08:38Z</time>
      </trkpt>
      <trkpt lat="45.07565" lon="5.63562">
        <ele>663.6</ele>
        <time>2010-11-19T16:08:42Z</time>
      </trkpt>
      <trkpt lat="45.07565" lon="5.63573">
        <ele>661.2</ele>
        <time>2010-11-19T16:08:48Z</time>
      </trkpt>
      <trkpt lat="45.07567" lon="5.6358">
        <ele>659.6</ele>
        <time>2010-11-19T16:08:52Z</time>
      </trkpt>
      <trkpt lat="45.07568" lon="5.63583">
        <ele>659</ele>
        <time>2010-11-19T16:08:55Z</time>
      </trkpt>
      <trkpt lat="45.07571" lon="5.63596">
        <ele>655.6</ele>
        <time>2010-11-19T16:09:02Z</time>
      </trkpt>
      <trkpt lat="45.07572" lon="5.63604">
        <ele>654</ele>
        <time>2010-11-19T16:09:06Z</time>
      </trkpt>
      <trkpt lat="45.07573" lon="5.63606">
        <ele>653.6</ele>
        <time>2010-11-19T16:09:07Z</time>
      </trkpt>
      <trkpt lat="45.07573" lon="5.63614">
        <ele>652</ele>
        <time>2010-11-19T16:09:11Z</time>
      </trkpt>
      <trkpt lat="45.07572" lon="5.63616">
        <ele>651.2</ele>
        <time>2010-11-19T16:09:13Z</time>
      </trkpt>
      <trkpt lat="45.07569" lon="5.63625">
        <ele>649.2</ele>
        <time>2010-11-19T16:09:18Z</time>
      </trkpt>
      <trkpt lat="45.07569" lon="5.63629">
        <ele>648.4</ele>
        <time>2010-11-19T16:09:20Z</time>
      </trkpt>
      <trkpt lat="45.07569" lon="5.63634">
        <ele>647.2</ele>
        <time>2010-11-19T16:09:23Z</time>
      </trkpt>
      <trkpt lat="45.07569" lon="5.6364">
        <ele>646</ele>
        <time>2010-11-19T16:09:26Z</time>
      </trkpt>
      <trkpt lat="45.07569" lon="5.63642">
        <ele>645.2</ele>
        <time>2010-11-19T16:09:28Z</time>
      </trkpt>
      <trkpt lat="45.07567" lon="5.63651">
        <ele>642.4</ele>
        <time>2010-11-19T16:09:35Z</time>
      </trkpt>
      <trkpt lat="45.07567" lon="5.63655">
        <ele>641.6</ele>
        <time>2010-11-19T16:09:37Z</time>
      </trkpt>
      <trkpt lat="45.07567" lon="5.63658">
        <ele>640.8</ele>
        <time>2010-11-19T16:09:39Z</time>
      </trkpt>
      <trkpt lat="45.07566" lon="5.63659">
        <ele>640.4</ele>
        <time>2010-11-19T16:09:40Z</time>
      </trkpt>
      <trkpt lat="45.07565" lon="5.63661">
        <ele>639.4</ele>
        <time>2010-11-19T16:09:42Z</time>
      </trkpt>
      <trkpt lat="45.07563" lon="5.63663">
        <ele>638.6</ele>
        <time>2010-11-19T16:09:44Z</time>
      </trkpt>
      <trkpt lat="45.07561" lon="5.63666">
        <ele>637.6</ele>
        <time>2010-11-19T16:09:47Z</time>
      </trkpt>
      <trkpt lat="45.07558" lon="5.63671">
        <ele>636</ele>
        <time>2010-11-19T16:09:51Z</time>
      </trkpt>
      <trkpt lat="45.07558" lon="5.63672">
        <ele>635.6</ele>
        <time>2010-11-19T16:09:52Z</time>
      </trkpt>
      <trkpt lat="45.07557" lon="5.63673">
        <ele>635.2</ele>
        <time>2010-11-19T16:09:53Z</time>
      </trkpt>
      <trkpt lat="45.07557" lon="5.63675">
        <ele>634.8</ele>
        <time>2010-11-19T16:09:54Z</time>
      </trkpt>
      <trkpt lat="45.07557" lon="5.63677">
        <ele>634.2</ele>
        <time>2010-11-19T16:09:56Z</time>
      </trkpt>
      <trkpt lat="45.07557" lon="5.63684">
        <ele>632.6</ele>
        <time>2010-11-19T16:10:00Z</time>
      </trkpt>
      <trkpt lat="45.07557" lon="5.63685">
        <ele>632.2</ele>
        <time>2010-11-19T16:10:01Z</time>
      </trkpt>
      <trkpt lat="45.07556" lon="5.63698">
        <ele>629.4</ele>
        <time>2010-11-19T16:10:08Z</time>
      </trkpt>
      <trkpt lat="45.07557" lon="5.63702">
        <ele>629</ele>
        <time>2010-11-19T16:10:09Z</time>
      </trkpt>
      <trkpt lat="45.07557" lon="5.63711">
        <ele>627.8</ele>
        <time>2010-11-19T16:10:12Z</time>
      </trkpt>
      <trkpt lat="45.07563" lon="5.6372">
        <ele>625.2</ele>
        <time>2010-11-19T16:10:19Z</time>
      </trkpt>
      <trkpt lat="45.07566" lon="5.63723">
        <ele>623.8</ele>
        <time>2010-11-19T16:10:23Z</time>
      </trkpt>
      <trkpt lat="45.07571" lon="5.63726">
        <ele>622.4</ele>
        <time>2010-11-19T16:10:27Z</time>
      </trkpt>
      <trkpt lat="45.07578" lon="5.63732">
        <ele>620</ele>
        <time>2010-11-19T16:10:35Z</time>
      </trkpt>
      <trkpt lat="45.07583" lon="5.63736">
        <ele>618.4</ele>
        <time>2010-11-19T16:10:40Z</time>
      </trkpt>
      <trkpt lat="45.07585" lon="5.63737">
        <ele>617.8</ele>
        <time>2010-11-19T16:10:42Z</time>
      </trkpt>
      <trkpt lat="45.07591" lon="5.63739">
        <ele>616.4</ele>
        <time>2010-11-19T16:10:46Z</time>
      </trkpt>
      <trkpt lat="45.07594" lon="5.63741">
        <ele>615.6</ele>
        <time>2010-11-19T16:10:49Z</time>
      </trkpt>
      <trkpt lat="45.07599" lon="5.63743">
        <ele>614.2</ele>
        <time>2010-11-19T16:10:53Z</time>
      </trkpt>
      <trkpt lat="45.07601" lon="5.63744">
        <ele>613.6</ele>
        <time>2010-11-19T16:10:55Z</time>
      </trkpt>
      <trkpt lat="45.07604" lon="5.63746">
        <ele>612.8</ele>
        <time>2010-11-19T16:10:57Z</time>
      </trkpt>
      <trkpt lat="45.07608" lon="5.63746">
        <ele>612.2</ele>
        <time>2010-11-19T16:10:59Z</time>
      </trkpt>
      <trkpt lat="45.0761" lon="5.63749">
        <ele>611.4</ele>
        <time>2010-11-19T16:11:02Z</time>
      </trkpt>
      <trkpt lat="45.07614" lon="5.63751">
        <ele>610.6</ele>
        <time>2010-11-19T16:11:05Z</time>
      </trkpt>
      <trkpt lat="45.07616" lon="5.63752">
        <ele>610.2</ele>
        <time>2010-11-19T16:11:06Z</time>
      </trkpt>
      <trkpt lat="45.07617" lon="5.63753">
        <ele>610</ele>
        <time>2010-11-19T16:11:07Z</time>
      </trkpt>
      <trkpt lat="45.07618" lon="5.63754">
        <ele>609.4</ele>
        <time>2010-11-19T16:11:09Z</time>
      </trkpt>
      <trkpt lat="45.07619" lon="5.63754">
        <ele>609.2</ele>
        <time>2010-11-19T16:11:10Z</time>
      </trkpt>
      <trkpt lat="45.07623" lon="5.63754">
        <ele>608.4</ele>
        <time>2010-11-19T16:11:13Z</time>
      </trkpt>
      <trkpt lat="45.07623" lon="5.63755">
        <ele>608.2</ele>
        <time>2010-11-19T16:11:14Z</time>
      </trkpt>
      <trkpt lat="45.07625" lon="5.63758">
        <ele>606.8</ele>
        <time>2010-11-19T16:11:20Z</time>
      </trkpt>
      <trkpt lat="45.07627" lon="5.63762">
        <ele>603.2</ele>
        <time>2010-11-19T16:11:44Z</time>
      </trkpt>
      <trkpt lat="45.07628" lon="5.63761">
        <ele>603.2</ele>
        <time>2010-11-19T16:11:45Z</time>
      </trkpt>
      <trkpt lat="45.07631" lon="5.63762">
        <ele>602.6</ele>
        <time>2010-11-19T16:11:49Z</time>
      </trkpt>
      <trkpt lat="45.07633" lon="5.63761">
        <ele>602.6</ele>
        <time>2010-11-19T16:11:50Z</time>
      </trkpt>
      <trkpt lat="45.07634" lon="5.63761">
        <ele>602.4</ele>
        <time>2010-11-19T16:11:51Z</time>
      </trkpt>
      <trkpt lat="45.0764" lon="5.63756">
        <ele>602</ele>
        <time>2010-11-19T16:11:56Z</time>
      </trkpt>
      <trkpt lat="45.07641" lon="5.63756">
        <ele>602</ele>
        <time>2010-11-19T16:11:57Z</time>
      </trkpt>
      <trkpt lat="45.07645" lon="5.63756">
        <ele>601.8</ele>
        <time>2010-11-19T16:11:59Z</time>
      </trkpt>
      <trkpt lat="45.0765" lon="5.63756">
        <ele>601.4</ele>
        <time>2010-11-19T16:12:02Z</time>
      </trkpt>
      <trkpt lat="45.07652" lon="5.63757">
        <ele>601.2</ele>
        <time>2010-11-19T16:12:04Z</time>
      </trkpt>
      <trkpt lat="45.07653" lon="5.63758">
        <ele>601.2</ele>
        <time>2010-11-19T16:12:05Z</time>
      </trkpt>
      <trkpt lat="45.07655" lon="5.63762">
        <ele>601.2</ele>
        <time>2010-11-19T16:12:07Z</time>
      </trkpt>
      <trkpt lat="45.07656" lon="5.63764">
        <ele>601.2</ele>
        <time>2010-11-19T16:12:08Z</time>
      </trkpt>
      <trkpt lat="45.07657" lon="5.63764">
        <ele>601.2</ele>
        <time>2010-11-19T16:12:10Z</time>
      </trkpt>
      <trkpt lat="45.0766" lon="5.63763">
        <ele>601</ele>
        <time>2010-11-19T16:12:12Z</time>
      </trkpt>
      <trkpt lat="45.07666" lon="5.63766">
        <ele>600.8</ele>
        <time>2010-11-19T16:12:16Z</time>
      </trkpt>
      <trkpt lat="45.0767" lon="5.63765">
        <ele>600.4</ele>
        <time>2010-11-19T16:12:19Z</time>
      </trkpt>
      <trkpt lat="45.07672" lon="5.63765">
        <ele>600.4</ele>
        <time>2010-11-19T16:12:20Z</time>
      </trkpt>
      <trkpt lat="45.07679" lon="5.63765">
        <ele>600</ele>
        <time>2010-11-19T16:12:24Z</time>
      </trkpt>
      <trkpt lat="45.07689" lon="5.63767">
        <ele>599</ele>
        <time>2010-11-19T16:12:29Z</time>
      </trkpt>
      <trkpt lat="45.07692" lon="5.63767">
        <ele>599</ele>
        <time>2010-11-19T16:12:30Z</time>
      </trkpt>
      <trkpt lat="45.07694" lon="5.63768">
        <ele>598.8</ele>
        <time>2010-11-19T16:12:31Z</time>
      </trkpt>
      <trkpt lat="45.07698" lon="5.6377">
        <ele>598.4</ele>
        <time>2010-11-19T16:12:33Z</time>
      </trkpt>
      <trkpt lat="45.07706" lon="5.63779">
        <ele>597.8</ele>
        <time>2010-11-19T16:12:37Z</time>
      </trkpt>
      <trkpt lat="45.07708" lon="5.63782">
        <ele>597.6</ele>
        <time>2010-11-19T16:12:38Z</time>
      </trkpt>
      <trkpt lat="45.07711" lon="5.63788">
        <ele>597.2</ele>
        <time>2010-11-19T16:12:41Z</time>
      </trkpt>
      <trkpt lat="45.07717" lon="5.63796">
        <ele>596.4</ele>
        <time>2010-11-19T16:12:44Z</time>
      </trkpt>
      <trkpt lat="45.0772" lon="5.63798">
        <ele>596.2</ele>
        <time>2010-11-19T16:12:45Z</time>
      </trkpt>
      <trkpt lat="45.07723" lon="5.63799">
        <ele>596</ele>
        <time>2010-11-19T16:12:46Z</time>
      </trkpt>
      <trkpt lat="45.07728" lon="5.63802">
        <ele>595.6</ele>
        <time>2010-11-19T16:12:48Z</time>
      </trkpt>
      <trkpt lat="45.07735" lon="5.6381">
        <ele>595</ele>
        <time>2010-11-19T16:12:52Z</time>
      </trkpt>
      <trkpt lat="45.07741" lon="5.63813">
        <ele>594.6</ele>
        <time>2010-11-19T16:12:55Z</time>
      </trkpt>
      <trkpt lat="45.07743" lon="5.63814">
        <ele>594.2</ele>
        <time>2010-11-19T16:12:57Z</time>
      </trkpt>
      <trkpt lat="45.07745" lon="5.63815">
        <ele>594</ele>
        <time>2010-11-19T16:12:58Z</time>
      </trkpt>
      <trkpt lat="45.07749" lon="5.63826">
        <ele>593</ele>
        <time>2010-11-19T16:13:04Z</time>
      </trkpt>
      <trkpt lat="45.07751" lon="5.63833">
        <ele>592.4</ele>
        <time>2010-11-19T16:13:08Z</time>
      </trkpt>
      <trkpt lat="45.07752" lon="5.63837">
        <ele>592.2</ele>
        <time>2010-11-19T16:13:10Z</time>
      </trkpt>
      <trkpt lat="45.07753" lon="5.63848">
        <ele>591.6</ele>
        <time>2010-11-19T16:13:15Z</time>
      </trkpt>
      <trkpt lat="45.07752" lon="5.63852">
        <ele>591.2</ele>
        <time>2010-11-19T16:13:17Z</time>
      </trkpt>
      <trkpt lat="45.07749" lon="5.63858">
        <ele>590.8</ele>
        <time>2010-11-19T16:13:21Z</time>
      </trkpt>
      <trkpt lat="45.07749" lon="5.63861">
        <ele>590.4</ele>
        <time>2010-11-19T16:13:23Z</time>
      </trkpt>
      <trkpt lat="45.07751" lon="5.63869">
        <ele>589.8</ele>
        <time>2010-11-19T16:13:28Z</time>
      </trkpt>
      <trkpt lat="45.07751" lon="5.6387">
        <ele>589.8</ele>
        <time>2010-11-19T16:13:29Z</time>
      </trkpt>
      <trkpt lat="45.07759" lon="5.63872">
        <ele>589.2</ele>
        <time>2010-11-19T16:13:34Z</time>
      </trkpt>
      <trkpt lat="45.07761" lon="5.63873">
        <ele>589</ele>
        <time>2010-11-19T16:13:35Z</time>
      </trkpt>
      <trkpt lat="45.07763" lon="5.63873">
        <ele>588.8</ele>
        <time>2010-11-19T16:13:36Z</time>
      </trkpt>
      <trkpt lat="45.07768" lon="5.6388">
        <ele>588.4</ele>
        <time>2010-11-19T16:13:39Z</time>
      </trkpt>
      <trkpt lat="45.07777" lon="5.6389">
        <ele>587.6</ele>
        <time>2010-11-19T16:13:44Z</time>
      </trkpt>
      <trkpt lat="45.07788" lon="5.63905">
        <ele>586.6</ele>
        <time>2010-11-19T16:13:50Z</time>
      </trkpt>
      <trkpt lat="45.0779" lon="5.63911">
        <ele>586.2</ele>
        <time>2010-11-19T16:13:52Z</time>
      </trkpt>
      <trkpt lat="45.07791" lon="5.63917">
        <ele>585.8</ele>
        <time>2010-11-19T16:13:54Z</time>
      </trkpt>
      <trkpt lat="45.07793" lon="5.63924">
        <ele>585.4</ele>
        <time>2010-11-19T16:13:57Z</time>
      </trkpt>
      <trkpt lat="45.07794" lon="5.63933">
        <ele>584.8</ele>
        <time>2010-11-19T16:14:00Z</time>
      </trkpt>
      <trkpt lat="45.07795" lon="5.63934">
        <ele>584.6</ele>
        <time>2010-11-19T16:14:01Z</time>
      </trkpt>
      <trkpt lat="45.07796" lon="5.63936">
        <ele>584.4</ele>
        <time>2010-11-19T16:14:02Z</time>
      </trkpt>
      <trkpt lat="45.07797" lon="5.63941">
        <ele>584</ele>
        <time>2010-11-19T16:14:04Z</time>
      </trkpt>
      <trkpt lat="45.07798" lon="5.63955">
        <ele>582.8</ele>
        <time>2010-11-19T16:14:10Z</time>
      </trkpt>
      <trkpt lat="45.07798" lon="5.63963">
        <ele>582.2</ele>
        <time>2010-11-19T16:14:13Z</time>
      </trkpt>
      <trkpt lat="45.07797" lon="5.63969">
        <ele>581.8</ele>
        <time>2010-11-19T16:14:15Z</time>
      </trkpt>
      <trkpt lat="45.0779" lon="5.6398">
        <ele>581.2</ele>
        <time>2010-11-19T16:14:19Z</time>
      </trkpt>
      <trkpt lat="45.07788" lon="5.63985">
        <ele>581</ele>
        <time>2010-11-19T16:14:21Z</time>
      </trkpt>
      <trkpt lat="45.07786" lon="5.63989">
        <ele>580.6</ele>
        <time>2010-11-19T16:14:23Z</time>
      </trkpt>
      <trkpt lat="45.07783" lon="5.64005">
        <ele>579.4</ele>
        <time>2010-11-19T16:14:29Z</time>
      </trkpt>
      <trkpt lat="45.07785" lon="5.64008">
        <ele>578.8</ele>
        <time>2010-11-19T16:14:31Z</time>
      </trkpt>
      <trkpt lat="45.07787" lon="5.64012">
        <ele>578.4</ele>
        <time>2010-11-19T16:14:33Z</time>
      </trkpt>
      <trkpt lat="45.07792" lon="5.64029">
        <ele>576.6</ele>
        <time>2010-11-19T16:14:40Z</time>
      </trkpt>
      <trkpt lat="45.07794" lon="5.64035">
        <ele>576</ele>
        <time>2010-11-19T16:14:42Z</time>
      </trkpt>
      <trkpt lat="45.07793" lon="5.64042">
        <ele>575.4</ele>
        <time>2010-11-19T16:14:45Z</time>
      </trkpt>
      <trkpt lat="45.07791" lon="5.64058">
        <ele>574.4</ele>
        <time>2010-11-19T16:14:50Z</time>
      </trkpt>
      <trkpt lat="45.07792" lon="5.64061">
        <ele>574.2</ele>
        <time>2010-11-19T16:14:51Z</time>
      </trkpt>
      <trkpt lat="45.07794" lon="5.6407">
        <ele>573.4</ele>
        <time>2010-11-19T16:14:55Z</time>
      </trkpt>
      <trkpt lat="45.07794" lon="5.64085">
        <ele>572.8</ele>
        <time>2010-11-19T16:15:00Z</time>
      </trkpt>
      <trkpt lat="45.07794" lon="5.64088">
        <ele>572.6</ele>
        <time>2010-11-19T16:15:01Z</time>
      </trkpt>
      <trkpt lat="45.07791" lon="5.64096">
        <ele>572.2</ele>
        <time>2010-11-19T16:15:04Z</time>
      </trkpt>
      <trkpt lat="45.0779" lon="5.64098">
        <ele>572.2</ele>
        <time>2010-11-19T16:15:05Z</time>
      </trkpt>
      <trkpt lat="45.07789" lon="5.64107">
        <ele>571.6</ele>
        <time>2010-11-19T16:15:09Z</time>
      </trkpt>
      <trkpt lat="45.07788" lon="5.64112">
        <ele>571.2</ele>
        <time>2010-11-19T16:15:11Z</time>
      </trkpt>
      <trkpt lat="45.07785" lon="5.64124">
        <ele>570.8</ele>
        <time>2010-11-19T16:15:14Z</time>
      </trkpt>
      <trkpt lat="45.07781" lon="5.64136">
        <ele>570.4</ele>
        <time>2010-11-19T16:15:18Z</time>
      </trkpt>
      <trkpt lat="45.0778" lon="5.64138">
        <ele>570.2</ele>
        <time>2010-11-19T16:15:19Z</time>
      </trkpt>
      <trkpt lat="45.07778" lon="5.64143">
        <ele>570</ele>
        <time>2010-11-19T16:15:21Z</time>
      </trkpt>
      <trkpt lat="45.07776" lon="5.64145">
        <ele>569.6</ele>
        <time>2010-11-19T16:15:23Z</time>
      </trkpt>
      <trkpt lat="45.07774" lon="5.6415">
        <ele>569.4</ele>
        <time>2010-11-19T16:15:25Z</time>
      </trkpt>
      <trkpt lat="45.07771" lon="5.64154">
        <ele>569.2</ele>
        <time>2010-11-19T16:15:27Z</time>
      </trkpt>
      <trkpt lat="45.0777" lon="5.64157">
        <ele>569</ele>
        <time>2010-11-19T16:15:28Z</time>
      </trkpt>
      <trkpt lat="45.07768" lon="5.64159">
        <ele>568.8</ele>
        <time>2010-11-19T16:15:29Z</time>
      </trkpt>
      <trkpt lat="45.07763" lon="5.64167">
        <ele>568</ele>
        <time>2010-11-19T16:15:33Z</time>
      </trkpt>
      <trkpt lat="45.07764" lon="5.64174">
        <ele>567</ele>
        <time>2010-11-19T16:15:36Z</time>
      </trkpt>
      <trkpt lat="45.07765" lon="5.64179">
        <ele>566.4</ele>
        <time>2010-11-19T16:15:38Z</time>
      </trkpt>
      <trkpt lat="45.07765" lon="5.64185">
        <ele>565.8</ele>
        <time>2010-11-19T16:15:40Z</time>
      </trkpt>
      <trkpt lat="45.07765" lon="5.6419">
        <ele>564.8</ele>
        <time>2010-11-19T16:15:43Z</time>
      </trkpt>
      <trkpt lat="45.07764" lon="5.64204">
        <ele>562.4</ele>
        <time>2010-11-19T16:15:49Z</time>
      </trkpt>
      <trkpt lat="45.07764" lon="5.64206">
        <ele>562</ele>
        <time>2010-11-19T16:15:50Z</time>
      </trkpt>
      <trkpt lat="45.07766" lon="5.64215">
        <ele>560.4</ele>
        <time>2010-11-19T16:15:54Z</time>
      </trkpt>
      <trkpt lat="45.07767" lon="5.64225">
        <ele>558.2</ele>
        <time>2010-11-19T16:15:59Z</time>
      </trkpt>
      <trkpt lat="45.07767" lon="5.64232">
        <ele>557</ele>
        <time>2010-11-19T16:16:02Z</time>
      </trkpt>
      <trkpt lat="45.07768" lon="5.64237">
        <ele>555.6</ele>
        <time>2010-11-19T16:16:05Z</time>
      </trkpt>
      <trkpt lat="45.07776" lon="5.64245">
        <ele>552.8</ele>
        <time>2010-11-19T16:16:11Z</time>
      </trkpt>
      <trkpt lat="45.0778" lon="5.64248">
        <ele>551.4</ele>
        <time>2010-11-19T16:16:14Z</time>
      </trkpt>
      <trkpt lat="45.07787" lon="5.6425">
        <ele>550</ele>
        <time>2010-11-19T16:16:17Z</time>
      </trkpt>
      <trkpt lat="45.07795" lon="5.64254">
        <ele>548.2</ele>
        <time>2010-11-19T16:16:21Z</time>
      </trkpt>
      <trkpt lat="45.07796" lon="5.64256">
        <ele>547.8</ele>
        <time>2010-11-19T16:16:22Z</time>
      </trkpt>
      <trkpt lat="45.07797" lon="5.64258">
        <ele>547.4</ele>
        <time>2010-11-19T16:16:23Z</time>
      </trkpt>
      <trkpt lat="45.07807" lon="5.64269">
        <ele>545.8</ele>
        <time>2010-11-19T16:16:27Z</time>
      </trkpt>
      <trkpt lat="45.07813" lon="5.64274">
        <ele>544.8</ele>
        <time>2010-11-19T16:16:30Z</time>
      </trkpt>
      <trkpt lat="45.07818" lon="5.64282">
        <ele>543.4</ele>
        <time>2010-11-19T16:16:33Z</time>
      </trkpt>
      <trkpt lat="45.0782" lon="5.64283">
        <ele>543</ele>
        <time>2010-11-19T16:16:34Z</time>
      </trkpt>
      <trkpt lat="45.07821" lon="5.64292">
        <ele>541.8</ele>
        <time>2010-11-19T16:16:37Z</time>
      </trkpt>
      <trkpt lat="45.07823" lon="5.64297">
        <ele>541</ele>
        <time>2010-11-19T16:16:40Z</time>
      </trkpt>
      <trkpt lat="45.07824" lon="5.64303">
        <ele>540.2</ele>
        <time>2010-11-19T16:16:41Z</time>
      </trkpt>
      <trkpt lat="45.07824" lon="5.6431">
        <ele>538.8</ele>
        <time>2010-11-19T16:16:44Z</time>
      </trkpt>
      <trkpt lat="45.07822" lon="5.64312">
        <ele>538.4</ele>
        <time>2010-11-19T16:16:45Z</time>
      </trkpt>
      <trkpt lat="45.07818" lon="5.6432">
        <ele>537</ele>
        <time>2010-11-19T16:16:48Z</time>
      </trkpt>
      <trkpt lat="45.07818" lon="5.64323">
        <ele>536.6</ele>
        <time>2010-11-19T16:16:49Z</time>
      </trkpt>
      <trkpt lat="45.07817" lon="5.64326">
        <ele>535.8</ele>
        <time>2010-11-19T16:16:51Z</time>
      </trkpt>
      <trkpt lat="45.07816" lon="5.64332">
        <ele>535</ele>
        <time>2010-11-19T16:16:53Z</time>
      </trkpt>
      <trkpt lat="45.07816" lon="5.64336">
        <ele>534.2</ele>
        <time>2010-11-19T16:16:55Z</time>
      </trkpt>
      <trkpt lat="45.07816" lon="5.64343">
        <ele>532.8</ele>
        <time>2010-11-19T16:16:58Z</time>
      </trkpt>
      <trkpt lat="45.07816" lon="5.64347">
        <ele>532</ele>
        <time>2010-11-19T16:17:00Z</time>
      </trkpt>
      <trkpt lat="45.07814" lon="5.64356">
        <ele>530.2</ele>
        <time>2010-11-19T16:17:04Z</time>
      </trkpt>
      <trkpt lat="45.07812" lon="5.64358">
        <ele>529.8</ele>
        <time>2010-11-19T16:17:05Z</time>
      </trkpt>
      <trkpt lat="45.07804" lon="5.64359">
        <ele>528</ele>
        <time>2010-11-19T16:17:09Z</time>
      </trkpt>
      <trkpt lat="45.07794" lon="5.64355">
        <ele>525.8</ele>
        <time>2010-11-19T16:17:14Z</time>
      </trkpt>
      <trkpt lat="45.07792" lon="5.64353">
        <ele>525.4</ele>
        <time>2010-11-19T16:17:15Z</time>
      </trkpt>
      <trkpt lat="45.07789" lon="5.6435">
        <ele>524.6</ele>
        <time>2010-11-19T16:17:17Z</time>
      </trkpt>
      <trkpt lat="45.07787" lon="5.64349">
        <ele>524.2</ele>
        <time>2010-11-19T16:17:18Z</time>
      </trkpt>
      <trkpt lat="45.07783" lon="5.64348">
        <ele>523.4</ele>
        <time>2010-11-19T16:17:20Z</time>
      </trkpt>
      <trkpt lat="45.07773" lon="5.64348">
        <ele>520.8</ele>
        <time>2010-11-19T16:17:26Z</time>
      </trkpt>
      <trkpt lat="45.07768" lon="5.64351">
        <ele>519.6</ele>
        <time>2010-11-19T16:17:29Z</time>
      </trkpt>
      <trkpt lat="45.07766" lon="5.64352">
        <ele>518.8</ele>
        <time>2010-11-19T16:17:31Z</time>
      </trkpt>
      <trkpt lat="45.07765" lon="5.64353">
        <ele>518.4</ele>
        <time>2010-11-19T16:17:32Z</time>
      </trkpt>
      <trkpt lat="45.07764" lon="5.64354">
        <ele>517.2</ele>
        <time>2010-11-19T16:17:35Z</time>
      </trkpt>
      <trkpt lat="45.0776" lon="5.64352">
        <ele>509.8</ele>
        <time>2010-11-19T16:17:57Z</time>
      </trkpt>
      <trkpt lat="45.07757" lon="5.64351">
        <ele>508.8</ele>
        <time>2010-11-19T16:18:00Z</time>
      </trkpt>
      <trkpt lat="45.07753" lon="5.6435">
        <ele>507.8</ele>
        <time>2010-11-19T16:18:03Z</time>
      </trkpt>
      <trkpt lat="45.07748" lon="5.64349">
        <ele>506.6</ele>
        <time>2010-11-19T16:18:06Z</time>
      </trkpt>
      <trkpt lat="45.07741" lon="5.64346">
        <ele>505.4</ele>
        <time>2010-11-19T16:18:11Z</time>
      </trkpt>
      <trkpt lat="45.0774" lon="5.64347">
        <ele>504.6</ele>
        <time>2010-11-19T16:18:12Z</time>
      </trkpt>
      <trkpt lat="45.07739" lon="5.64347">
        <ele>504</ele>
        <time>2010-11-19T16:18:15Z</time>
      </trkpt>
      <trkpt lat="45.07736" lon="5.64353">
        <ele>502.2</ele>
        <time>2010-11-19T16:18:20Z</time>
      </trkpt>
      <trkpt lat="45.07734" lon="5.64357">
        <ele>501.6</ele>
        <time>2010-11-19T16:18:22Z</time>
      </trkpt>
      <trkpt lat="45.07732" lon="5.64363">
        <ele>500.8</ele>
        <time>2010-11-19T16:18:25Z</time>
      </trkpt>
      <trkpt lat="45.07729" lon="5.6437">
        <ele>498.8</ele>
        <time>2010-11-19T16:18:31Z</time>
      </trkpt>
      <trkpt lat="45.07729" lon="5.64374">
        <ele>498.2</ele>
        <time>2010-11-19T16:18:33Z</time>
      </trkpt>
      <trkpt lat="45.07727" lon="5.64384">
        <ele>496.8</ele>
        <time>2010-11-19T16:18:37Z</time>
      </trkpt>
      <trkpt lat="45.07724" lon="5.64398">
        <ele>494.6</ele>
        <time>2010-11-19T16:18:43Z</time>
      </trkpt>
      <trkpt lat="45.07723" lon="5.644">
        <ele>494.2</ele>
        <time>2010-11-19T16:18:45Z</time>
      </trkpt>
      <trkpt lat="45.07719" lon="5.64412">
        <ele>492.6</ele>
        <time>2010-11-19T16:18:49Z</time>
      </trkpt>
      <trkpt lat="45.0772" lon="5.64424">
        <ele>490.6</ele>
        <time>2010-11-19T16:18:54Z</time>
      </trkpt>
      <trkpt lat="45.07721" lon="5.64425">
        <ele>490.4</ele>
        <time>2010-11-19T16:18:55Z</time>
      </trkpt>
      <trkpt lat="45.0773" lon="5.64431">
        <ele>488.6</ele>
        <time>2010-11-19T16:19:00Z</time>
      </trkpt>
      <trkpt lat="45.07737" lon="5.6444">
        <ele>486.8</ele>
        <time>2010-11-19T16:19:05Z</time>
      </trkpt>
      <trkpt lat="45.07739" lon="5.64442">
        <ele>486.4</ele>
        <time>2010-11-19T16:19:06Z</time>
      </trkpt>
      <trkpt lat="45.07745" lon="5.64452">
        <ele>485.2</ele>
        <time>2010-11-19T16:19:11Z</time>
      </trkpt>
      <trkpt lat="45.07746" lon="5.64456">
        <ele>484.8</ele>
        <time>2010-11-19T16:19:12Z</time>
      </trkpt>
      <trkpt lat="45.07749" lon="5.64465">
        <ele>484.2</ele>
        <time>2010-11-19T16:19:14Z</time>
      </trkpt>
      <trkpt lat="45.07751" lon="5.64466">
        <ele>483.8</ele>
        <time>2010-11-19T16:19:16Z</time>
      </trkpt>
      <trkpt lat="45.07754" lon="5.64469">
        <ele>483.2</ele>
        <time>2010-11-19T16:19:17Z</time>
      </trkpt>
      <trkpt lat="45.07757" lon="5.64471">
        <ele>482.8</ele>
        <time>2010-11-19T16:19:20Z</time>
      </trkpt>
      <trkpt lat="45.07761" lon="5.64471">
        <ele>482.2</ele>
        <time>2010-11-19T16:19:21Z</time>
      </trkpt>
      <trkpt lat="45.07762" lon="5.64472">
        <ele>482</ele>
        <time>2010-11-19T16:19:22Z</time>
      </trkpt>
      <trkpt lat="45.07767" lon="5.64472">
        <ele>481.4</ele>
        <time>2010-11-19T16:19:25Z</time>
      </trkpt>
      <trkpt lat="45.0777" lon="5.64472">
        <ele>481.2</ele>
        <time>2010-11-19T16:19:26Z</time>
      </trkpt>
      <trkpt lat="45.07773" lon="5.64478">
        <ele>480.4</ele>
        <time>2010-11-19T16:19:29Z</time>
      </trkpt>
      <trkpt lat="45.07773" lon="5.6448">
        <ele>480.2</ele>
        <time>2010-11-19T16:19:30Z</time>
      </trkpt>
      <trkpt lat="45.07768" lon="5.64491">
        <ele>479</ele>
        <time>2010-11-19T16:19:33Z</time>
      </trkpt>
      <trkpt lat="45.07765" lon="5.64507">
        <ele>477.8</ele>
        <time>2010-11-19T16:19:38Z</time>
      </trkpt>
      <trkpt lat="45.07767" lon="5.64515">
        <ele>476.6</ele>
        <time>2010-11-19T16:19:43Z</time>
      </trkpt>
      <trkpt lat="45.07768" lon="5.64515">
        <ele>476.4</ele>
        <time>2010-11-19T16:19:44Z</time>
      </trkpt>
      <trkpt lat="45.07774" lon="5.64514">
        <ele>475</ele>
        <time>2010-11-19T16:19:49Z</time>
      </trkpt>
      <trkpt lat="45.07778" lon="5.64517">
        <ele>474</ele>
        <time>2010-11-19T16:19:53Z</time>
      </trkpt>
      <trkpt lat="45.07779" lon="5.64517">
        <ele>473.8</ele>
        <time>2010-11-19T16:19:54Z</time>
      </trkpt>
      <trkpt lat="45.07787" lon="5.64513">
        <ele>472.6</ele>
        <time>2010-11-19T16:20:00Z</time>
      </trkpt>
      <trkpt lat="45.07788" lon="5.64512">
        <ele>472.4</ele>
        <time>2010-11-19T16:20:01Z</time>
      </trkpt>
      <trkpt lat="45.07795" lon="5.64509">
        <ele>471.6</ele>
        <time>2010-11-19T16:20:06Z</time>
      </trkpt>
      <trkpt lat="45.07795" lon="5.6451">
        <ele>471.2</ele>
        <time>2010-11-19T16:20:10Z</time>
      </trkpt>
      <trkpt lat="45.07797" lon="5.6451">
        <ele>471</ele>
        <time>2010-11-19T16:20:11Z</time>
      </trkpt>
      <trkpt lat="45.078" lon="5.64512">
        <ele>470.6</ele>
        <time>2010-11-19T16:20:14Z</time>
      </trkpt>
      <trkpt lat="45.07801" lon="5.64513">
        <ele>470.4</ele>
        <time>2010-11-19T16:20:15Z</time>
      </trkpt>
      <trkpt lat="45.07805" lon="5.64517">
        <ele>470.2</ele>
        <time>2010-11-19T16:20:18Z</time>
      </trkpt>
      <trkpt lat="45.07816" lon="5.64519">
        <ele>469.6</ele>
        <time>2010-11-19T16:20:23Z</time>
      </trkpt>
      <trkpt lat="45.07816" lon="5.64524">
        <ele>469</ele>
        <time>2010-11-19T16:20:26Z</time>
      </trkpt>
      <trkpt lat="45.07816" lon="5.64525">
        <ele>468.8</ele>
        <time>2010-11-19T16:20:27Z</time>
      </trkpt>
      <trkpt lat="45.07816" lon="5.64529">
        <ele>468.6</ele>
        <time>2010-11-19T16:20:29Z</time>
      </trkpt>
      <trkpt lat="45.07816" lon="5.64532">
        <ele>468.2</ele>
        <time>2010-11-19T16:20:31Z</time>
      </trkpt>
      <trkpt lat="45.07816" lon="5.64533">
        <ele>468.2</ele>
        <time>2010-11-19T16:20:32Z</time>
      </trkpt>
      <trkpt lat="45.07815" lon="5.64544">
        <ele>467.8</ele>
        <time>2010-11-19T16:20:37Z</time>
      </trkpt>
      <trkpt lat="45.07815" lon="5.64549">
        <ele>467.6</ele>
        <time>2010-11-19T16:20:41Z</time>
      </trkpt>
      <trkpt lat="45.07815" lon="5.64556">
        <ele>467.4</ele>
        <time>2010-11-19T16:20:45Z</time>
      </trkpt>
      <trkpt lat="45.07817" lon="5.64563">
        <ele>467.2</ele>
        <time>2010-11-19T16:20:49Z</time>
      </trkpt>
      <trkpt lat="45.07817" lon="5.64564">
        <ele>467.2</ele>
        <time>2010-11-19T16:20:50Z</time>
      </trkpt>
      <trkpt lat="45.0782" lon="5.6457">
        <ele>466.8</ele>
        <time>2010-11-19T16:20:55Z</time>
      </trkpt>
      <trkpt lat="45.07819" lon="5.64578">
        <ele>466.4</ele>
        <time>2010-11-19T16:21:00Z</time>
      </trkpt>
      <trkpt lat="45.07816" lon="5.64581">
        <ele>466</ele>
        <time>2010-11-19T16:21:05Z</time>
      </trkpt>
      <trkpt lat="45.07817" lon="5.64584">
        <ele>465.8</ele>
        <time>2010-11-19T16:21:07Z</time>
      </trkpt>
      <trkpt lat="45.07818" lon="5.64588">
        <ele>465.6</ele>
        <time>2010-11-19T16:21:09Z</time>
      </trkpt>
      <trkpt lat="45.07818" lon="5.64589">
        <ele>465.4</ele>
        <time>2010-11-19T16:21:10Z</time>
      </trkpt>
      <trkpt lat="45.07814" lon="5.64594">
        <ele>465.2</ele>
        <time>2010-11-19T16:21:13Z</time>
      </trkpt>
      <trkpt lat="45.07812" lon="5.64594">
        <ele>465.2</ele>
        <time>2010-11-19T16:21:14Z</time>
      </trkpt>
      <trkpt lat="45.0781" lon="5.64595">
        <ele>465.2</ele>
        <time>2010-11-19T16:21:15Z</time>
      </trkpt>
      <trkpt lat="45.07808" lon="5.64596">
        <ele>465</ele>
        <time>2010-11-19T16:21:16Z</time>
      </trkpt>
      <trkpt lat="45.07805" lon="5.64599">
        <ele>465</ele>
        <time>2010-11-19T16:21:18Z</time>
      </trkpt>
      <trkpt lat="45.07803" lon="5.64604">
        <ele>464.8</ele>
        <time>2010-11-19T16:21:20Z</time>
      </trkpt>
      <trkpt lat="45.07794" lon="5.64612">
        <ele>464.4</ele>
        <time>2010-11-19T16:21:26Z</time>
      </trkpt>
      <trkpt lat="45.07791" lon="5.64615">
        <ele>464.2</ele>
        <time>2010-11-19T16:21:28Z</time>
      </trkpt>
      <trkpt lat="45.07789" lon="5.64621">
        <ele>464</ele>
        <time>2010-11-19T16:21:31Z</time>
      </trkpt>
      <trkpt lat="45.07794" lon="5.64631">
        <ele>463.2</ele>
        <time>2010-11-19T16:21:36Z</time>
      </trkpt>
      <trkpt lat="45.07796" lon="5.64635">
        <ele>463</ele>
        <time>2010-11-19T16:21:38Z</time>
      </trkpt>
      <trkpt lat="45.07798" lon="5.6464">
        <ele>462.6</ele>
        <time>2010-11-19T16:21:41Z</time>
      </trkpt>
      <trkpt lat="45.07803" lon="5.64648">
        <ele>461.6</ele>
        <time>2010-11-19T16:21:46Z</time>
      </trkpt>
      <trkpt lat="45.07807" lon="5.64652">
        <ele>461</ele>
        <time>2010-11-19T16:21:50Z</time>
      </trkpt>
      <trkpt lat="45.07807" lon="5.64655">
        <ele>460.8</ele>
        <time>2010-11-19T16:21:51Z</time>
      </trkpt>
      <trkpt lat="45.07806" lon="5.64658">
        <ele>460.6</ele>
        <time>2010-11-19T16:21:52Z</time>
      </trkpt>
      <trkpt lat="45.07808" lon="5.64665">
        <ele>460.4</ele>
        <time>2010-11-19T16:21:54Z</time>
      </trkpt>
      <trkpt lat="45.07809" lon="5.64668">
        <ele>460.2</ele>
        <time>2010-11-19T16:21:55Z</time>
      </trkpt>
      <trkpt lat="45.07813" lon="5.64679">
        <ele>459.4</ele>
        <time>2010-11-19T16:21:59Z</time>
      </trkpt>
      <trkpt lat="45.07815" lon="5.64682">
        <ele>459.4</ele>
        <time>2010-11-19T16:22:00Z</time>
      </trkpt>
      <trkpt lat="45.07817" lon="5.64688">
        <ele>459</ele>
        <time>2010-11-19T16:22:02Z</time>
      </trkpt>
      <trkpt lat="45.0782" lon="5.64692">
        <ele>458.6</ele>
        <time>2010-11-19T16:22:04Z</time>
      </trkpt>
      <trkpt lat="45.07824" lon="5.64704">
        <ele>458</ele>
        <time>2010-11-19T16:22:08Z</time>
      </trkpt>
      <trkpt lat="45.0783" lon="5.64709">
        <ele>457.8</ele>
        <time>2010-11-19T16:22:10Z</time>
      </trkpt>
      <trkpt lat="45.07834" lon="5.64727">
        <ele>457.2</ele>
        <time>2010-11-19T16:22:15Z</time>
      </trkpt>
      <trkpt lat="45.07836" lon="5.64746">
        <ele>456.4</ele>
        <time>2010-11-19T16:22:20Z</time>
      </trkpt>
      <trkpt lat="45.07839" lon="5.64753">
        <ele>455.8</ele>
        <time>2010-11-19T16:22:23Z</time>
      </trkpt>
      <trkpt lat="45.0784" lon="5.6476">
        <ele>455.6</ele>
        <time>2010-11-19T16:22:25Z</time>
      </trkpt>
      <trkpt lat="45.0784" lon="5.64774">
        <ele>454.8</ele>
        <time>2010-11-19T16:22:29Z</time>
      </trkpt>
      <trkpt lat="45.07841" lon="5.64777">
        <ele>454.6</ele>
        <time>2010-11-19T16:22:30Z</time>
      </trkpt>
      <trkpt lat="45.07846" lon="5.64786">
        <ele>454</ele>
        <time>2010-11-19T16:22:33Z</time>
      </trkpt>
      <trkpt lat="45.07854" lon="5.64797">
        <ele>453.2</ele>
        <time>2010-11-19T16:22:37Z</time>
      </trkpt>
      <trkpt lat="45.07858" lon="5.6481">
        <ele>452.4</ele>
        <time>2010-11-19T16:22:41Z</time>
      </trkpt>
      <trkpt lat="45.07862" lon="5.64821">
        <ele>451.2</ele>
        <time>2010-11-19T16:22:46Z</time>
      </trkpt>
      <trkpt lat="45.07868" lon="5.64832">
        <ele>450.2</ele>
        <time>2010-11-19T16:22:50Z</time>
      </trkpt>
      <trkpt lat="45.07873" lon="5.64842">
        <ele>449.4</ele>
        <time>2010-11-19T16:22:54Z</time>
      </trkpt>
      <trkpt lat="45.07873" lon="5.64845">
        <ele>449</ele>
        <time>2010-11-19T16:22:55Z</time>
      </trkpt>
      <trkpt lat="45.0788" lon="5.64858">
        <ele>447.8</ele>
        <time>2010-11-19T16:23:00Z</time>
      </trkpt>
      <trkpt lat="45.07885" lon="5.64864">
        <ele>447.2</ele>
        <time>2010-11-19T16:23:03Z</time>
      </trkpt>
      <trkpt lat="45.07886" lon="5.64867">
        <ele>447</ele>
        <time>2010-11-19T16:23:04Z</time>
      </trkpt>
      <trkpt lat="45.07885" lon="5.64879">
        <ele>446.2</ele>
        <time>2010-11-19T16:23:08Z</time>
      </trkpt>
      <trkpt lat="45.07887" lon="5.64891">
        <ele>445.4</ele>
        <time>2010-11-19T16:23:12Z</time>
      </trkpt>
      <trkpt lat="45.07889" lon="5.64896">
        <ele>445</ele>
        <time>2010-11-19T16:23:14Z</time>
      </trkpt>
      <trkpt lat="45.07893" lon="5.64913">
        <ele>443.6</ele>
        <time>2010-11-19T16:23:19Z</time>
      </trkpt>
      <trkpt lat="45.07893" lon="5.64916">
        <ele>443.4</ele>
        <time>2010-11-19T16:23:20Z</time>
      </trkpt>
      <trkpt lat="45.07895" lon="5.64928">
        <ele>442.2</ele>
        <time>2010-11-19T16:23:24Z</time>
      </trkpt>
      <trkpt lat="45.07899" lon="5.64941">
        <ele>441</ele>
        <time>2010-11-19T16:23:29Z</time>
      </trkpt>
      <trkpt lat="45.07896" lon="5.64946">
        <ele>439.4</ele>
        <time>2010-11-19T16:23:35Z</time>
      </trkpt>
      <trkpt lat="45.07895" lon="5.64946">
        <ele>437.2</ele>
        <time>2010-11-19T16:23:43Z</time>
      </trkpt>
      <trkpt lat="45.07883" lon="5.64944">
        <ele>439.2</ele>
        <time>2010-11-19T16:24:07Z</time>
      </trkpt>
      <trkpt lat="45.07882" lon="5.64944">
        <ele>440.2</ele>
        <time>2010-11-19T16:24:10Z</time>
      </trkpt>
      <trkpt lat="45.0789" lon="5.64947">
        <ele>439.6</ele>
        <time>2010-11-19T16:24:17Z</time>
      </trkpt>
      <trkpt lat="45.07892" lon="5.6495">
        <ele>439.2</ele>
        <time>2010-11-19T16:24:19Z</time>
      </trkpt>
      <trkpt lat="45.07893" lon="5.64956">
        <ele>438.8</ele>
        <time>2010-11-19T16:24:21Z</time>
      </trkpt>
      <trkpt lat="45.07891" lon="5.64967">
        <ele>438</ele>
        <time>2010-11-19T16:24:25Z</time>
      </trkpt>
      <trkpt lat="45.07891" lon="5.64985">
        <ele>436.8</ele>
        <time>2010-11-19T16:24:30Z</time>
      </trkpt>
      <trkpt lat="45.07891" lon="5.64993">
        <ele>435.8</ele>
        <time>2010-11-19T16:24:33Z</time>
      </trkpt>
      <trkpt lat="45.07891" lon="5.64997">
        <ele>435.2</ele>
        <time>2010-11-19T16:24:35Z</time>
      </trkpt>
      <trkpt lat="45.07894" lon="5.65003">
        <ele>434.4</ele>
        <time>2010-11-19T16:24:38Z</time>
      </trkpt>
      <trkpt lat="45.07893" lon="5.65007">
        <ele>434</ele>
        <time>2010-11-19T16:24:39Z</time>
      </trkpt>
      <trkpt lat="45.07891" lon="5.6502">
        <ele>432.8</ele>
        <time>2010-11-19T16:24:43Z</time>
      </trkpt>
      <trkpt lat="45.07886" lon="5.65031">
        <ele>431.6</ele>
        <time>2010-11-19T16:24:47Z</time>
      </trkpt>
      <trkpt lat="45.07883" lon="5.65037">
        <ele>431</ele>
        <time>2010-11-19T16:24:49Z</time>
      </trkpt>
      <trkpt lat="45.07881" lon="5.65043">
        <ele>430.4</ele>
        <time>2010-11-19T16:24:51Z</time>
      </trkpt>
      <trkpt lat="45.07872" lon="5.65052">
        <ele>429.4</ele>
        <time>2010-11-19T16:24:55Z</time>
      </trkpt>
      <trkpt lat="45.07865" lon="5.65057">
        <ele>428.6</ele>
        <time>2010-11-19T16:24:58Z</time>
      </trkpt>
      <trkpt lat="45.07861" lon="5.65061">
        <ele>428</ele>
        <time>2010-11-19T16:25:00Z</time>
      </trkpt>
      <trkpt lat="45.0785" lon="5.65073">
        <ele>426.2</ele>
        <time>2010-11-19T16:25:06Z</time>
      </trkpt>
      <trkpt lat="45.07848" lon="5.65075">
        <ele>426</ele>
        <time>2010-11-19T16:25:07Z</time>
      </trkpt>
      <trkpt lat="45.07836" lon="5.65087">
        <ele>424.2</ele>
        <time>2010-11-19T16:25:13Z</time>
      </trkpt>
      <trkpt lat="45.07835" lon="5.65089">
        <ele>424</ele>
        <time>2010-11-19T16:25:14Z</time>
      </trkpt>
      <trkpt lat="45.07826" lon="5.65102">
        <ele>422.2</ele>
        <time>2010-11-19T16:25:20Z</time>
      </trkpt>
      <trkpt lat="45.0782" lon="5.65109">
        <ele>421.2</ele>
        <time>2010-11-19T16:25:23Z</time>
      </trkpt>
      <trkpt lat="45.07817" lon="5.65111">
        <ele>420.6</ele>
        <time>2010-11-19T16:25:25Z</time>
      </trkpt>
      <trkpt lat="45.0781" lon="5.65113">
        <ele>419.6</ele>
        <time>2010-11-19T16:25:28Z</time>
      </trkpt>
      <trkpt lat="45.07803" lon="5.65113">
        <ele>418.6</ele>
        <time>2010-11-19T16:25:31Z</time>
      </trkpt>
      <trkpt lat="45.07801" lon="5.65112">
        <ele>418.2</ele>
        <time>2010-11-19T16:25:32Z</time>
      </trkpt>
      <trkpt lat="45.07786" lon="5.65111">
        <ele>416.4</ele>
        <time>2010-11-19T16:25:38Z</time>
      </trkpt>
      <trkpt lat="45.07781" lon="5.6511">
        <ele>415.8</ele>
        <time>2010-11-19T16:25:40Z</time>
      </trkpt>
      <trkpt lat="45.07771" lon="5.65112">
        <ele>414.6</ele>
        <time>2010-11-19T16:25:44Z</time>
      </trkpt>
      <trkpt lat="45.07761" lon="5.65114">
        <ele>413.4</ele>
        <time>2010-11-19T16:25:48Z</time>
      </trkpt>
      <trkpt lat="45.07756" lon="5.65115">
        <ele>412.8</ele>
        <time>2010-11-19T16:25:50Z</time>
      </trkpt>
      <trkpt lat="45.07744" lon="5.6511">
        <ele>411.6</ele>
        <time>2010-11-19T16:25:55Z</time>
      </trkpt>
      <trkpt lat="45.07728" lon="5.65108">
        <ele>410.2</ele>
        <time>2010-11-19T16:26:00Z</time>
      </trkpt>
      <trkpt lat="45.07726" lon="5.65108">
        <ele>410</ele>
        <time>2010-11-19T16:26:01Z</time>
      </trkpt>
      <trkpt lat="45.07711" lon="5.65101">
        <ele>409</ele>
        <time>2010-11-19T16:26:06Z</time>
      </trkpt>
      <trkpt lat="45.07708" lon="5.651">
        <ele>408.8</ele>
        <time>2010-11-19T16:26:07Z</time>
      </trkpt>
      <trkpt lat="45.07698" lon="5.65096">
        <ele>408</ele>
        <time>2010-11-19T16:26:11Z</time>
      </trkpt>
      <trkpt lat="45.07692" lon="5.65089">
        <ele>407.4</ele>
        <time>2010-11-19T16:26:14Z</time>
      </trkpt>
      <trkpt lat="45.0769" lon="5.65086">
        <ele>407.2</ele>
        <time>2010-11-19T16:26:15Z</time>
      </trkpt>
      <trkpt lat="45.07679" lon="5.65073">
        <ele>405.6</ele>
        <time>2010-11-19T16:26:21Z</time>
      </trkpt>
      <trkpt lat="45.07676" lon="5.65071">
        <ele>405.2</ele>
        <time>2010-11-19T16:26:22Z</time>
      </trkpt>
      <trkpt lat="45.07673" lon="5.65071">
        <ele>405</ele>
        <time>2010-11-19T16:26:23Z</time>
      </trkpt>
      <trkpt lat="45.07669" lon="5.65068">
        <ele>404.4</ele>
        <time>2010-11-19T16:26:25Z</time>
      </trkpt>
      <trkpt lat="45.07663" lon="5.65063">
        <ele>403.6</ele>
        <time>2010-11-19T16:26:28Z</time>
      </trkpt>
      <trkpt lat="45.07657" lon="5.65061">
        <ele>403</ele>
        <time>2010-11-19T16:26:30Z</time>
      </trkpt>
      <trkpt lat="45.0764" lon="5.65051">
        <ele>401.2</ele>
        <time>2010-11-19T16:26:37Z</time>
      </trkpt>
      <trkpt lat="45.07628" lon="5.65043">
        <ele>399.8</ele>
        <time>2010-11-19T16:26:42Z</time>
      </trkpt>
      <trkpt lat="45.07623" lon="5.65042">
        <ele>399.4</ele>
        <time>2010-11-19T16:26:44Z</time>
      </trkpt>
      <trkpt lat="45.07614" lon="5.65039">
        <ele>398.6</ele>
        <time>2010-11-19T16:26:47Z</time>
      </trkpt>
      <trkpt lat="45.07603" lon="5.65036">
        <ele>397.2</ele>
        <time>2010-11-19T16:26:52Z</time>
      </trkpt>
      <trkpt lat="45.07589" lon="5.65029">
        <ele>395.6</ele>
        <time>2010-11-19T16:26:58Z</time>
      </trkpt>
      <trkpt lat="45.07585" lon="5.65028">
        <ele>395</ele>
        <time>2010-11-19T16:27:00Z</time>
      </trkpt>
      <trkpt lat="45.07578" lon="5.65024">
        <ele>394.2</ele>
        <time>2010-11-19T16:27:03Z</time>
      </trkpt>
      <trkpt lat="45.07566" lon="5.65019">
        <ele>393.2</ele>
        <time>2010-11-19T16:27:08Z</time>
      </trkpt>
      <trkpt lat="45.07557" lon="5.65018">
        <ele>392.2</ele>
        <time>2010-11-19T16:27:12Z</time>
      </trkpt>
      <trkpt lat="45.07555" lon="5.65018">
        <ele>392</ele>
        <time>2010-11-19T16:27:13Z</time>
      </trkpt>
      <trkpt lat="45.07547" lon="5.65019">
        <ele>391.2</ele>
        <time>2010-11-19T16:27:16Z</time>
      </trkpt>
      <trkpt lat="45.0754" lon="5.65022">
        <ele>390.6</ele>
        <time>2010-11-19T16:27:19Z</time>
      </trkpt>
      <trkpt lat="45.0753" lon="5.65022">
        <ele>389.6</ele>
        <time>2010-11-19T16:27:23Z</time>
      </trkpt>
      <trkpt lat="45.07528" lon="5.65022">
        <ele>389.4</ele>
        <time>2010-11-19T16:27:24Z</time>
      </trkpt>
      <trkpt lat="45.0752" lon="5.65021">
        <ele>388.6</ele>
        <time>2010-11-19T16:27:27Z</time>
      </trkpt>
      <trkpt lat="45.07515" lon="5.65019">
        <ele>388.2</ele>
        <time>2010-11-19T16:27:29Z</time>
      </trkpt>
      <trkpt lat="45.07508" lon="5.65016">
        <ele>387.6</ele>
        <time>2010-11-19T16:27:32Z</time>
      </trkpt>
      <trkpt lat="45.07502" lon="5.65011">
        <ele>386.8</ele>
        <time>2010-11-19T16:27:35Z</time>
      </trkpt>
      <trkpt lat="45.07492" lon="5.65011">
        <ele>385.8</ele>
        <time>2010-11-19T16:27:39Z</time>
      </trkpt>
      <trkpt lat="45.0749" lon="5.65011">
        <ele>385.6</ele>
        <time>2010-11-19T16:27:40Z</time>
      </trkpt>
      <trkpt lat="45.07476" lon="5.65018">
        <ele>384.2</ele>
        <time>2010-11-19T16:27:46Z</time>
      </trkpt>
      <trkpt lat="45.07471" lon="5.6502">
        <ele>383.8</ele>
        <time>2010-11-19T16:27:48Z</time>
      </trkpt>
      <trkpt lat="45.07459" lon="5.65028">
        <ele>382.2</ele>
        <time>2010-11-19T16:27:54Z</time>
      </trkpt>
      <trkpt lat="45.07456" lon="5.65034">
        <ele>381.4</ele>
        <time>2010-11-19T16:27:57Z</time>
      </trkpt>
      <trkpt lat="45.07456" lon="5.65037">
        <ele>381.2</ele>
        <time>2010-11-19T16:27:58Z</time>
      </trkpt>
      <trkpt lat="45.0746" lon="5.65048">
        <ele>380.2</ele>
        <time>2010-11-19T16:28:02Z</time>
      </trkpt>
      <trkpt lat="45.07462" lon="5.65051">
        <ele>380</ele>
        <time>2010-11-19T16:28:03Z</time>
      </trkpt>
      <trkpt lat="45.07465" lon="5.65056">
        <ele>379.6</ele>
        <time>2010-11-19T16:28:05Z</time>
      </trkpt>
      <trkpt lat="45.0747" lon="5.65064">
        <ele>378.8</ele>
        <time>2010-11-19T16:28:08Z</time>
      </trkpt>
      <trkpt lat="45.07478" lon="5.65077">
        <ele>377.8</ele>
        <time>2010-11-19T16:28:13Z</time>
      </trkpt>
      <trkpt lat="45.07478" lon="5.6508">
        <ele>377.6</ele>
        <time>2010-11-19T16:28:14Z</time>
      </trkpt>
      <trkpt lat="45.07474" lon="5.6509">
        <ele>376.8</ele>
        <time>2010-11-19T16:28:17Z</time>
      </trkpt>
      <trkpt lat="45.07469" lon="5.65096">
        <ele>376</ele>
        <time>2010-11-19T16:28:20Z</time>
      </trkpt>
      <trkpt lat="45.07467" lon="5.65099">
        <ele>375.8</ele>
        <time>2010-11-19T16:28:21Z</time>
      </trkpt>
      <trkpt lat="45.07465" lon="5.65101">
        <ele>375.6</ele>
        <time>2010-11-19T16:28:22Z</time>
      </trkpt>
      <trkpt lat="45.07457" lon="5.6511">
        <ele>374.8</ele>
        <time>2010-11-19T16:28:26Z</time>
      </trkpt>
      <trkpt lat="45.07454" lon="5.65112">
        <ele>374.6</ele>
        <time>2010-11-19T16:28:27Z</time>
      </trkpt>
      <trkpt lat="45.07452" lon="5.65115">
        <ele>374.4</ele>
        <time>2010-11-19T16:28:28Z</time>
      </trkpt>
      <trkpt lat="45.07449" lon="5.65119">
        <ele>374</ele>
        <time>2010-11-19T16:28:30Z</time>
      </trkpt>
      <trkpt lat="45.07445" lon="5.65126">
        <ele>373.4</ele>
        <time>2010-11-19T16:28:33Z</time>
      </trkpt>
      <trkpt lat="45.07441" lon="5.65136">
        <ele>372.4</ele>
        <time>2010-11-19T16:28:37Z</time>
      </trkpt>
      <trkpt lat="45.07437" lon="5.6515">
        <ele>371.6</ele>
        <time>2010-11-19T16:28:41Z</time>
      </trkpt>
      <trkpt lat="45.07436" lon="5.65154">
        <ele>371.4</ele>
        <time>2010-11-19T16:28:42Z</time>
      </trkpt>
      <trkpt lat="45.07436" lon="5.65163">
        <ele>370.6</ele>
        <time>2010-11-19T16:28:45Z</time>
      </trkpt>
      <trkpt lat="45.07436" lon="5.65172">
        <ele>370</ele>
        <time>2010-11-19T16:28:48Z</time>
      </trkpt>
      <trkpt lat="45.07437" lon="5.65188">
        <ele>368.8</ele>
        <time>2010-11-19T16:28:53Z</time>
      </trkpt>
      <trkpt lat="45.07437" lon="5.65191">
        <ele>368.6</ele>
        <time>2010-11-19T16:28:54Z</time>
      </trkpt>
      <trkpt lat="45.07435" lon="5.65207">
        <ele>367.6</ele>
        <time>2010-11-19T16:28:59Z</time>
      </trkpt>
      <trkpt lat="45.07432" lon="5.65212">
        <ele>367.2</ele>
        <time>2010-11-19T16:29:01Z</time>
      </trkpt>
      <trkpt lat="45.07425" lon="5.65221">
        <ele>366.4</ele>
        <time>2010-11-19T16:29:05Z</time>
      </trkpt>
      <trkpt lat="45.07419" lon="5.65231">
        <ele>365.2</ele>
        <time>2010-11-19T16:29:10Z</time>
      </trkpt>
      <trkpt lat="45.07413" lon="5.65252">
        <ele>363.6</ele>
        <time>2010-11-19T16:29:17Z</time>
      </trkpt>
      <trkpt lat="45.07412" lon="5.65255">
        <ele>363.4</ele>
        <time>2010-11-19T16:29:18Z</time>
      </trkpt>
      <trkpt lat="45.07409" lon="5.65273">
        <ele>362.2</ele>
        <time>2010-11-19T16:29:24Z</time>
      </trkpt>
      <trkpt lat="45.07407" lon="5.65279">
        <ele>361.6</ele>
        <time>2010-11-19T16:29:26Z</time>
      </trkpt>
      <trkpt lat="45.07404" lon="5.6529">
        <ele>361</ele>
        <time>2010-11-19T16:29:29Z</time>
      </trkpt>
      <trkpt lat="45.07402" lon="5.65303">
        <ele>360</ele>
        <time>2010-11-19T16:29:33Z</time>
      </trkpt>
      <trkpt lat="45.07401" lon="5.65306">
        <ele>359.8</ele>
        <time>2010-11-19T16:29:34Z</time>
      </trkpt>
      <trkpt lat="45.07398" lon="5.65318">
        <ele>358.8</ele>
        <time>2010-11-19T16:29:38Z</time>
      </trkpt>
      <trkpt lat="45.07396" lon="5.65331">
        <ele>358</ele>
        <time>2010-11-19T16:29:42Z</time>
      </trkpt>
      <trkpt lat="45.07395" lon="5.65334">
        <ele>357.8</ele>
        <time>2010-11-19T16:29:43Z</time>
      </trkpt>
      <trkpt lat="45.07389" lon="5.65348">
        <ele>356.8</ele>
        <time>2010-11-19T16:29:48Z</time>
      </trkpt>
      <trkpt lat="45.07386" lon="5.65354">
        <ele>356.4</ele>
        <time>2010-11-19T16:29:50Z</time>
      </trkpt>
      <trkpt lat="45.07384" lon="5.65361">
        <ele>356</ele>
        <time>2010-11-19T16:29:53Z</time>
      </trkpt>
      <trkpt lat="45.07379" lon="5.65375">
        <ele>355</ele>
        <time>2010-11-19T16:29:58Z</time>
      </trkpt>
      <trkpt lat="45.07378" lon="5.65378">
        <ele>354.8</ele>
        <time>2010-11-19T16:29:59Z</time>
      </trkpt>
      <trkpt lat="45.07373" lon="5.6539">
        <ele>354.2</ele>
        <time>2010-11-19T16:30:03Z</time>
      </trkpt>
      <trkpt lat="45.07368" lon="5.65401">
        <ele>353.4</ele>
        <time>2010-11-19T16:30:07Z</time>
      </trkpt>
      <trkpt lat="45.07366" lon="5.65407">
        <ele>353</ele>
        <time>2010-11-19T16:30:09Z</time>
      </trkpt>
      <trkpt lat="45.07362" lon="5.6542">
        <ele>352.2</ele>
        <time>2010-11-19T16:30:14Z</time>
      </trkpt>
      <trkpt lat="45.07359" lon="5.65426">
        <ele>351.8</ele>
        <time>2010-11-19T16:30:16Z</time>
      </trkpt>
      <trkpt lat="45.07356" lon="5.65434">
        <ele>351.4</ele>
        <time>2010-11-19T16:30:19Z</time>
      </trkpt>
      <trkpt lat="45.07349" lon="5.65447">
        <ele>350.6</ele>
        <time>2010-11-19T16:30:24Z</time>
      </trkpt>
      <trkpt lat="45.07348" lon="5.65448">
        <ele>350.4</ele>
        <time>2010-11-19T16:30:25Z</time>
      </trkpt>
      <trkpt lat="45.07343" lon="5.65457">
        <ele>349.8</ele>
        <time>2010-11-19T16:30:29Z</time>
      </trkpt>
      <trkpt lat="45.07336" lon="5.6547">
        <ele>348.8</ele>
        <time>2010-11-19T16:30:34Z</time>
      </trkpt>
      <trkpt lat="45.07333" lon="5.65475">
        <ele>348.6</ele>
        <time>2010-11-19T16:30:36Z</time>
      </trkpt>
      <trkpt lat="45.07328" lon="5.65489">
        <ele>347.8</ele>
        <time>2010-11-19T16:30:41Z</time>
      </trkpt>
      <trkpt lat="45.07327" lon="5.65492">
        <ele>347.8</ele>
        <time>2010-11-19T16:30:42Z</time>
      </trkpt>
      <trkpt lat="45.07326" lon="5.65501">
        <ele>347.4</ele>
        <time>2010-11-19T16:30:45Z</time>
      </trkpt>
      <trkpt lat="45.07325" lon="5.65519">
        <ele>346.4</ele>
        <time>2010-11-19T16:30:51Z</time>
      </trkpt>
      <trkpt lat="45.07321" lon="5.65536">
        <ele>345.8</ele>
        <time>2010-11-19T16:30:57Z</time>
      </trkpt>
      <trkpt lat="45.07318" lon="5.65545">
        <ele>345.4</ele>
        <time>2010-11-19T16:31:00Z</time>
      </trkpt>
      <trkpt lat="45.07316" lon="5.65551">
        <ele>345.2</ele>
        <time>2010-11-19T16:31:02Z</time>
      </trkpt>
      <trkpt lat="45.07311" lon="5.65562">
        <ele>344.6</ele>
        <time>2010-11-19T16:31:06Z</time>
      </trkpt>
      <trkpt lat="45.07309" lon="5.65569">
        <ele>344.4</ele>
        <time>2010-11-19T16:31:08Z</time>
      </trkpt>
      <trkpt lat="45.07307" lon="5.65578">
        <ele>344.2</ele>
        <time>2010-11-19T16:31:11Z</time>
      </trkpt>
      <trkpt lat="45.07307" lon="5.65583">
        <ele>344</ele>
        <time>2010-11-19T16:31:13Z</time>
      </trkpt>
      <trkpt lat="45.07309" lon="5.65588">
        <ele>343.6</ele>
        <time>2010-11-19T16:31:15Z</time>
      </trkpt>
      <trkpt lat="45.07311" lon="5.65593">
        <ele>343.4</ele>
        <time>2010-11-19T16:31:17Z</time>
      </trkpt>
      <trkpt lat="45.07319" lon="5.656">
        <ele>342.8</ele>
        <time>2010-11-19T16:31:21Z</time>
      </trkpt>
      <trkpt lat="45.07324" lon="5.65606">
        <ele>342.4</ele>
        <time>2010-11-19T16:31:24Z</time>
      </trkpt>
      <trkpt lat="45.07326" lon="5.65608">
        <ele>342.2</ele>
        <time>2010-11-19T16:31:25Z</time>
      </trkpt>
      <trkpt lat="45.07327" lon="5.6561">
        <ele>342</ele>
        <time>2010-11-19T16:31:26Z</time>
      </trkpt>
      <trkpt lat="45.07329" lon="5.65617">
        <ele>341.8</ele>
        <time>2010-11-19T16:31:28Z</time>
      </trkpt>
      <trkpt lat="45.07332" lon="5.65622">
        <ele>341.4</ele>
        <time>2010-11-19T16:31:30Z</time>
      </trkpt>
      <trkpt lat="45.07337" lon="5.65629">
        <ele>341</ele>
        <time>2010-11-19T16:31:33Z</time>
      </trkpt>
      <trkpt lat="45.0734" lon="5.65635">
        <ele>340.8</ele>
        <time>2010-11-19T16:31:35Z</time>
      </trkpt>
      <trkpt lat="45.07343" lon="5.65644">
        <ele>340.4</ele>
        <time>2010-11-19T16:31:38Z</time>
      </trkpt>
      <trkpt lat="45.07344" lon="5.65646">
        <ele>340.2</ele>
        <time>2010-11-19T16:31:39Z</time>
      </trkpt>
      <trkpt lat="45.07346" lon="5.65652">
        <ele>340</ele>
        <time>2010-11-19T16:31:41Z</time>
      </trkpt>
      <trkpt lat="45.07347" lon="5.65654">
        <ele>339.8</ele>
        <time>2010-11-19T16:31:42Z</time>
      </trkpt>
      <trkpt lat="45.07352" lon="5.65664">
        <ele>339.4</ele>
        <time>2010-11-19T16:31:46Z</time>
      </trkpt>
      <trkpt lat="45.07354" lon="5.65674">
        <ele>339</ele>
        <time>2010-11-19T16:31:49Z</time>
      </trkpt>
      <trkpt lat="45.07356" lon="5.65681">
        <ele>338.8</ele>
        <time>2010-11-19T16:31:51Z</time>
      </trkpt>
      <trkpt lat="45.07357" lon="5.65684">
        <ele>338.8</ele>
        <time>2010-11-19T16:31:52Z</time>
      </trkpt>
      <trkpt lat="45.07357" lon="5.6569">
        <ele>338.6</ele>
        <time>2010-11-19T16:31:54Z</time>
      </trkpt>
      <trkpt lat="45.07354" lon="5.657">
        <ele>338.2</ele>
        <time>2010-11-19T16:31:57Z</time>
      </trkpt>
      <trkpt lat="45.07352" lon="5.65705">
        <ele>338.2</ele>
        <time>2010-11-19T16:31:59Z</time>
      </trkpt>
      <trkpt lat="45.07344" lon="5.65716">
        <ele>337.6</ele>
        <time>2010-11-19T16:32:04Z</time>
      </trkpt>
      <trkpt lat="45.07342" lon="5.65721">
        <ele>337.6</ele>
        <time>2010-11-19T16:32:06Z</time>
      </trkpt>
      <trkpt lat="45.07338" lon="5.65729">
        <ele>337.2</ele>
        <time>2010-11-19T16:32:10Z</time>
      </trkpt>
      <trkpt lat="45.07337" lon="5.65737">
        <ele>337</ele>
        <time>2010-11-19T16:32:15Z</time>
      </trkpt>
      <trkpt lat="45.07337" lon="5.65737">
        <ele>337</ele>
        <time>2010-11-19T16:32:16Z</time>
      </trkpt>
    </trkseg>
  </trk>
</gpx>